<?xml version="1.0" encoding="UTF-8" standalone="no" ?>
<gpx xmlns="http://www.topografix.com/GPX/1/1" xmlns:xsi="http://www.w3.org/2001/XMLSchema-instance" xsi:schemaLocation="http://www.topografix.com/GPX/1/1 http://www.topografix.com/GPX/1/1/gpx.xsd" version="1.1" creator="VisuGPX - https://www.visugpx.com">
  <metadata>
    <name>Transvolv_2022_A-R_Crt et Lg</name>
  </metadata>
  <trk>
    <name><![CDATA[TV 2022 Aller Court]]></name>
    <extensions>
      <line xmlns="http://www.topografix.com/GPX/gpx_style/0/2">
        <color>0400ff</color>
        <width>4</width>
          <extensions>
            <sens>1</sens>
          </extensions>
      </line>
    </extensions>
    <trkseg>
      <trkpt lat="45.82217" lon="3.07815">
        <ele>380</ele>
        <time>2016-12-06T12:29:46Z</time>
      </trkpt>
      <trkpt lat="45.82323" lon="3.08079">
        <ele>376.8</ele>
        <time>2016-12-06T12:30:10Z</time>
      </trkpt>
      <trkpt lat="45.82366" lon="3.08176">
        <ele>373.6</ele>
        <time>2016-12-06T12:30:19Z</time>
      </trkpt>
      <trkpt lat="45.82392" lon="3.0827">
        <ele>373</ele>
        <time>2016-12-06T12:30:26Z</time>
      </trkpt>
      <trkpt lat="45.82416" lon="3.08319">
        <ele>372.6</ele>
        <time>2016-12-06T12:30:31Z</time>
      </trkpt>
      <trkpt lat="45.82529" lon="3.085">
        <ele>374.3</ele>
        <time>2016-12-06T12:30:50Z</time>
      </trkpt>
      <trkpt lat="45.82559" lon="3.08519">
        <ele>373.6</ele>
        <time>2016-12-06T12:30:53Z</time>
      </trkpt>
      <trkpt lat="45.82637" lon="3.08527">
        <ele>369.7</ele>
        <time>2016-12-06T12:31:02Z</time>
      </trkpt>
      <trkpt lat="45.82686" lon="3.08512">
        <ele>366.9</ele>
        <time>2016-12-06T12:31:08Z</time>
      </trkpt>
      <trkpt lat="45.82702" lon="3.08457">
        <ele>366.2</ele>
        <time>2016-12-06T12:31:12Z</time>
      </trkpt>
      <trkpt lat="45.82717" lon="3.08449">
        <ele>366.1</ele>
        <time>2016-12-06T12:31:14Z</time>
      </trkpt>
      <trkpt lat="45.82772" lon="3.08455">
        <ele>365.8</ele>
        <time>2016-12-06T12:31:20Z</time>
      </trkpt>
      <trkpt lat="45.82799" lon="3.08447">
        <ele>366.7</ele>
        <time>2016-12-06T12:31:23Z</time>
      </trkpt>
      <trkpt lat="45.82841" lon="3.08426">
        <ele>370.6</ele>
        <time>2016-12-06T12:31:28Z</time>
      </trkpt>
      <trkpt lat="45.82908" lon="3.08393">
        <ele>373.1</ele>
        <time>2016-12-06T12:31:36Z</time>
      </trkpt>
      <trkpt lat="45.82988" lon="3.08317">
        <ele>376.8</ele>
        <time>2016-12-06T12:31:47Z</time>
      </trkpt>
      <trkpt lat="45.83001" lon="3.08322">
        <ele>376.6</ele>
        <time>2016-12-06T12:31:48Z</time>
      </trkpt>
      <trkpt lat="45.83023" lon="3.08313">
        <ele>377</ele>
        <time>2016-12-06T12:31:51Z</time>
      </trkpt>
      <trkpt lat="45.83036" lon="3.08297">
        <ele>377</ele>
        <time>2016-12-06T12:31:53Z</time>
      </trkpt>
      <trkpt lat="45.83012" lon="3.08139">
        <ele>381</ele>
        <time>2016-12-06T12:32:05Z</time>
      </trkpt>
      <trkpt lat="45.82981" lon="3.07978">
        <ele>385.7</ele>
        <time>2016-12-06T12:32:18Z</time>
      </trkpt>
      <trkpt lat="45.82934" lon="3.07826">
        <ele>389.8</ele>
        <time>2016-12-06T12:32:31Z</time>
      </trkpt>
      <trkpt lat="45.82928" lon="3.07781">
        <ele>392.1</ele>
        <time>2016-12-06T12:32:35Z</time>
      </trkpt>
      <trkpt lat="45.82917" lon="3.07728">
        <ele>393.6</ele>
        <time>2016-12-06T12:32:39Z</time>
      </trkpt>
      <trkpt lat="45.82875" lon="3.07737">
        <ele>391.7</ele>
        <time>2016-12-06T12:32:44Z</time>
      </trkpt>
      <trkpt lat="45.82866" lon="3.07734">
        <ele>390.9</ele>
        <time>2016-12-06T12:32:45Z</time>
      </trkpt>
      <trkpt lat="45.8286" lon="3.07711">
        <ele>391.4</ele>
        <time>2016-12-06T12:32:47Z</time>
      </trkpt>
      <trkpt lat="45.8285" lon="3.0769">
        <ele>392</ele>
        <time>2016-12-06T12:32:49Z</time>
      </trkpt>
      <trkpt lat="45.82829" lon="3.07669">
        <ele>392</ele>
        <time>2016-12-06T12:32:52Z</time>
      </trkpt>
      <trkpt lat="45.82807" lon="3.07643">
        <ele>391.4</ele>
        <time>2016-12-06T12:32:55Z</time>
      </trkpt>
      <trkpt lat="45.82786" lon="3.07617">
        <ele>391.4</ele>
        <time>2016-12-06T12:32:58Z</time>
      </trkpt>
      <trkpt lat="45.82757" lon="3.07557">
        <ele>392.2</ele>
        <time>2016-12-06T12:33:03Z</time>
      </trkpt>
      <trkpt lat="45.82743" lon="3.07525">
        <ele>394.4</ele>
        <time>2016-12-06T12:33:06Z</time>
      </trkpt>
      <trkpt lat="45.82711" lon="3.07476">
        <ele>394.5</ele>
        <time>2016-12-06T12:33:12Z</time>
      </trkpt>
      <trkpt lat="45.82706" lon="3.07411">
        <ele>396.2</ele>
        <time>2016-12-06T12:33:17Z</time>
      </trkpt>
      <trkpt lat="45.82704" lon="3.07302">
        <ele>396.9</ele>
        <time>2016-12-06T12:33:25Z</time>
      </trkpt>
      <trkpt lat="45.82709" lon="3.07248">
        <ele>398.4</ele>
        <time>2016-12-06T12:33:29Z</time>
      </trkpt>
      <trkpt lat="45.8272" lon="3.07242">
        <ele>398.7</ele>
        <time>2016-12-06T12:33:31Z</time>
      </trkpt>
      <trkpt lat="45.82727" lon="3.07226">
        <ele>399.1</ele>
        <time>2016-12-06T12:33:32Z</time>
      </trkpt>
      <trkpt lat="45.82735" lon="3.07187">
        <ele>400.5</ele>
        <time>2016-12-06T12:33:35Z</time>
      </trkpt>
      <trkpt lat="45.82735" lon="3.07158">
        <ele>401.6</ele>
        <time>2016-12-06T12:33:38Z</time>
      </trkpt>
      <trkpt lat="45.82722" lon="3.07072">
        <ele>407</ele>
        <time>2016-12-06T12:33:44Z</time>
      </trkpt>
      <trkpt lat="45.82716" lon="3.07045">
        <ele>408.4</ele>
        <time>2016-12-06T12:33:47Z</time>
      </trkpt>
      <trkpt lat="45.82701" lon="3.07017">
        <ele>409.7</ele>
        <time>2016-12-06T12:33:49Z</time>
      </trkpt>
      <trkpt lat="45.82692" lon="3.06991">
        <ele>410.8</ele>
        <time>2016-12-06T12:33:52Z</time>
      </trkpt>
      <trkpt lat="45.82689" lon="3.06959">
        <ele>412.3</ele>
        <time>2016-12-06T12:33:54Z</time>
      </trkpt>
      <trkpt lat="45.82698" lon="3.0695">
        <ele>413.4</ele>
        <time>2016-12-06T12:33:55Z</time>
      </trkpt>
      <trkpt lat="45.82736" lon="3.06882">
        <ele>418.5</ele>
        <time>2016-12-06T12:34:02Z</time>
      </trkpt>
      <trkpt lat="45.82766" lon="3.06843">
        <ele>421</ele>
        <time>2016-12-06T12:34:07Z</time>
      </trkpt>
      <trkpt lat="45.82841" lon="3.06681">
        <ele>426.8</ele>
        <time>2016-12-06T12:34:22Z</time>
      </trkpt>
      <trkpt lat="45.82878" lon="3.06583">
        <ele>432.6</ele>
        <time>2016-12-06T12:34:30Z</time>
      </trkpt>
      <trkpt lat="45.82892" lon="3.06566">
        <ele>434.8</ele>
        <time>2016-12-06T12:34:32Z</time>
      </trkpt>
      <trkpt lat="45.82946" lon="3.06542">
        <ele>441.1</ele>
        <time>2016-12-06T12:34:39Z</time>
      </trkpt>
      <trkpt lat="45.82977" lon="3.06542">
        <ele>441.7</ele>
        <time>2016-12-06T12:34:42Z</time>
      </trkpt>
      <trkpt lat="45.83013" lon="3.06567">
        <ele>441.7</ele>
        <time>2016-12-06T12:34:47Z</time>
      </trkpt>
      <trkpt lat="45.8304" lon="3.06568">
        <ele>443.5</ele>
        <time>2016-12-06T12:34:50Z</time>
      </trkpt>
      <trkpt lat="45.8307" lon="3.0656">
        <ele>446.3</ele>
        <time>2016-12-06T12:34:53Z</time>
      </trkpt>
      <trkpt lat="45.83087" lon="3.06552">
        <ele>448.1</ele>
        <time>2016-12-06T12:34:55Z</time>
      </trkpt>
      <trkpt lat="45.83115" lon="3.06555">
        <ele>450.2</ele>
        <time>2016-12-06T12:34:58Z</time>
      </trkpt>
      <trkpt lat="45.83139" lon="3.06537">
        <ele>452.1</ele>
        <time>2016-12-06T12:35:01Z</time>
      </trkpt>
      <trkpt lat="45.83156" lon="3.06537">
        <ele>453.4</ele>
        <time>2016-12-06T12:35:03Z</time>
      </trkpt>
      <trkpt lat="45.83177" lon="3.06549">
        <ele>455.8</ele>
        <time>2016-12-06T12:35:06Z</time>
      </trkpt>
      <trkpt lat="45.83198" lon="3.06566">
        <ele>458</ele>
        <time>2016-12-06T12:35:08Z</time>
      </trkpt>
      <trkpt lat="45.83216" lon="3.06565">
        <ele>459.3</ele>
        <time>2016-12-06T12:35:10Z</time>
      </trkpt>
      <trkpt lat="45.83259" lon="3.0654">
        <ele>461</ele>
        <time>2016-12-06T12:35:15Z</time>
      </trkpt>
      <trkpt lat="45.83277" lon="3.06536">
        <ele>462</ele>
        <time>2016-12-06T12:35:17Z</time>
      </trkpt>
      <trkpt lat="45.83358" lon="3.06543">
        <ele>468.5</ele>
        <time>2016-12-06T12:35:26Z</time>
      </trkpt>
      <trkpt lat="45.83434" lon="3.06501">
        <ele>476.7</ele>
        <time>2016-12-06T12:35:36Z</time>
      </trkpt>
      <trkpt lat="45.83493" lon="3.0644">
        <ele>482.7</ele>
        <time>2016-12-06T12:35:44Z</time>
      </trkpt>
      <trkpt lat="45.83505" lon="3.06427">
        <ele>483.6</ele>
        <time>2016-12-06T12:35:45Z</time>
      </trkpt>
      <trkpt lat="45.83567" lon="3.06332">
        <ele>488.9</ele>
        <time>2016-12-06T12:35:55Z</time>
      </trkpt>
      <trkpt lat="45.83587" lon="3.0627">
        <ele>491.8</ele>
        <time>2016-12-06T12:36:01Z</time>
      </trkpt>
      <trkpt lat="45.83587" lon="3.06194">
        <ele>493.4</ele>
        <time>2016-12-06T12:36:07Z</time>
      </trkpt>
      <trkpt lat="45.83596" lon="3.06168">
        <ele>495.2</ele>
        <time>2016-12-06T12:36:09Z</time>
      </trkpt>
      <trkpt lat="45.83689" lon="3.06124">
        <ele>501.5</ele>
        <time>2016-12-06T12:36:20Z</time>
      </trkpt>
      <trkpt lat="45.83795" lon="3.06018">
        <ele>505.9</ele>
        <time>2016-12-06T12:36:34Z</time>
      </trkpt>
      <trkpt lat="45.83831" lon="3.05932">
        <ele>507.8</ele>
        <time>2016-12-06T12:36:42Z</time>
      </trkpt>
      <trkpt lat="45.83887" lon="3.05903">
        <ele>508.9</ele>
        <time>2016-12-06T12:36:49Z</time>
      </trkpt>
      <trkpt lat="45.83994" lon="3.05921">
        <ele>509.5</ele>
        <time>2016-12-06T12:37:01Z</time>
      </trkpt>
      <trkpt lat="45.84069" lon="3.05904">
        <ele>512.8</ele>
        <time>2016-12-06T12:37:09Z</time>
      </trkpt>
      <trkpt lat="45.84078" lon="3.05893">
        <ele>513.5</ele>
        <time>2016-12-06T12:37:10Z</time>
      </trkpt>
      <trkpt lat="45.84065" lon="3.05846">
        <ele>514.7</ele>
        <time>2016-12-06T12:37:14Z</time>
      </trkpt>
      <trkpt lat="45.84065" lon="3.05826">
        <ele>515.9</ele>
        <time>2016-12-06T12:37:16Z</time>
      </trkpt>
      <trkpt lat="45.84069" lon="3.05778">
        <ele>518</ele>
        <time>2016-12-06T12:37:19Z</time>
      </trkpt>
      <trkpt lat="45.84084" lon="3.05699">
        <ele>520</ele>
        <time>2016-12-06T12:37:26Z</time>
      </trkpt>
      <trkpt lat="45.84081" lon="3.05639">
        <ele>520.6</ele>
        <time>2016-12-06T12:37:30Z</time>
      </trkpt>
      <trkpt lat="45.84084" lon="3.05629">
        <ele>520.9</ele>
        <time>2016-12-06T12:37:31Z</time>
      </trkpt>
      <trkpt lat="45.84092" lon="3.05477">
        <ele>523</ele>
        <time>2016-12-06T12:37:43Z</time>
      </trkpt>
      <trkpt lat="45.8409" lon="3.05389">
        <ele>523</ele>
        <time>2016-12-06T12:37:50Z</time>
      </trkpt>
      <trkpt lat="45.84097" lon="3.05334">
        <ele>523.3</ele>
        <time>2016-12-06T12:37:54Z</time>
      </trkpt>
      <trkpt lat="45.84084" lon="3.05198">
        <ele>525.2</ele>
        <time>2016-12-06T12:38:05Z</time>
      </trkpt>
      <trkpt lat="45.84093" lon="3.05086">
        <ele>529.2</ele>
        <time>2016-12-06T12:38:14Z</time>
      </trkpt>
      <trkpt lat="45.84095" lon="3.05054">
        <ele>530.3</ele>
        <time>2016-12-06T12:38:16Z</time>
      </trkpt>
      <trkpt lat="45.84101" lon="3.05004">
        <ele>531.2</ele>
        <time>2016-12-06T12:38:20Z</time>
      </trkpt>
      <trkpt lat="45.84098" lon="3.0491">
        <ele>534.6</ele>
        <time>2016-12-06T12:38:27Z</time>
      </trkpt>
      <trkpt lat="45.84084" lon="3.04797">
        <ele>536</ele>
        <time>2016-12-06T12:38:36Z</time>
      </trkpt>
      <trkpt lat="45.8408" lon="3.04719">
        <ele>537.9</ele>
        <time>2016-12-06T12:38:42Z</time>
      </trkpt>
      <trkpt lat="45.83958" lon="3.04797">
        <ele>533.7</ele>
        <time>2016-12-06T12:38:57Z</time>
      </trkpt>
      <trkpt lat="45.83955" lon="3.04748">
        <ele>535.3</ele>
        <time>2016-12-06T12:39:01Z</time>
      </trkpt>
      <trkpt lat="45.83949" lon="3.04698">
        <ele>536.6</ele>
        <time>2016-12-06T12:39:05Z</time>
      </trkpt>
      <trkpt lat="45.8395" lon="3.04663">
        <ele>538</ele>
        <time>2016-12-06T12:39:08Z</time>
      </trkpt>
      <trkpt lat="45.83966" lon="3.04594">
        <ele>540.3</ele>
        <time>2016-12-06T12:39:13Z</time>
      </trkpt>
      <trkpt lat="45.83965" lon="3.04583">
        <ele>540.7</ele>
        <time>2016-12-06T12:39:14Z</time>
      </trkpt>
      <trkpt lat="45.8396" lon="3.04564">
        <ele>541.2</ele>
        <time>2016-12-06T12:39:16Z</time>
      </trkpt>
      <trkpt lat="45.8396" lon="3.04546">
        <ele>541.9</ele>
        <time>2016-12-06T12:39:17Z</time>
      </trkpt>
      <trkpt lat="45.83972" lon="3.04519">
        <ele>544.4</ele>
        <time>2016-12-06T12:39:20Z</time>
      </trkpt>
      <trkpt lat="45.83966" lon="3.0447">
        <ele>547.1</ele>
        <time>2016-12-06T12:39:23Z</time>
      </trkpt>
      <trkpt lat="45.83964" lon="3.04433">
        <ele>549.2</ele>
        <time>2016-12-06T12:39:26Z</time>
      </trkpt>
      <trkpt lat="45.83959" lon="3.04405">
        <ele>549.9</ele>
        <time>2016-12-06T12:39:29Z</time>
      </trkpt>
      <trkpt lat="45.83951" lon="3.04393">
        <ele>549.8</ele>
        <time>2016-12-06T12:39:30Z</time>
      </trkpt>
      <trkpt lat="45.83943" lon="3.04396">
        <ele>549.1</ele>
        <time>2016-12-06T12:39:31Z</time>
      </trkpt>
      <trkpt lat="45.83943" lon="3.04363">
        <ele>550.3</ele>
        <time>2016-12-06T12:39:33Z</time>
      </trkpt>
      <trkpt lat="45.83954" lon="3.04333">
        <ele>552.4</ele>
        <time>2016-12-06T12:39:36Z</time>
      </trkpt>
      <trkpt lat="45.83986" lon="3.04294">
        <ele>557.2</ele>
        <time>2016-12-06T12:39:41Z</time>
      </trkpt>
      <trkpt lat="45.84" lon="3.04285">
        <ele>558.2</ele>
        <time>2016-12-06T12:39:42Z</time>
      </trkpt>
      <trkpt lat="45.84004" lon="3.0427">
        <ele>559.8</ele>
        <time>2016-12-06T12:39:44Z</time>
      </trkpt>
      <trkpt lat="45.8407" lon="3.04169">
        <ele>569.4</ele>
        <time>2016-12-06T12:39:54Z</time>
      </trkpt>
      <trkpt lat="45.84052" lon="3.04152">
        <ele>571.2</ele>
        <time>2016-12-06T12:39:57Z</time>
      </trkpt>
      <trkpt lat="45.8404" lon="3.04128">
        <ele>573.4</ele>
        <time>2016-12-06T12:39:59Z</time>
      </trkpt>
      <trkpt lat="45.84019" lon="3.04037">
        <ele>575</ele>
        <time>2016-12-06T12:40:07Z</time>
      </trkpt>
      <trkpt lat="45.84008" lon="3.03985">
        <ele>576.1</ele>
        <time>2016-12-06T12:40:11Z</time>
      </trkpt>
      <trkpt lat="45.84005" lon="3.03929">
        <ele>578.1</ele>
        <time>2016-12-06T12:40:15Z</time>
      </trkpt>
      <trkpt lat="45.83985" lon="3.03911">
        <ele>579.6</ele>
        <time>2016-12-06T12:40:18Z</time>
      </trkpt>
      <trkpt lat="45.83976" lon="3.03891">
        <ele>580.4</ele>
        <time>2016-12-06T12:40:20Z</time>
      </trkpt>
      <trkpt lat="45.83977" lon="3.03806">
        <ele>585.3</ele>
        <time>2016-12-06T12:40:26Z</time>
      </trkpt>
      <trkpt lat="45.83979" lon="3.03796">
        <ele>585.7</ele>
        <time>2016-12-06T12:40:27Z</time>
      </trkpt>
      <trkpt lat="45.83983" lon="3.03787">
        <ele>586</ele>
        <time>2016-12-06T12:40:28Z</time>
      </trkpt>
      <trkpt lat="45.8399" lon="3.03752">
        <ele>587.3</ele>
        <time>2016-12-06T12:40:31Z</time>
      </trkpt>
      <trkpt lat="45.8403" lon="3.03683">
        <ele>591.5</ele>
        <time>2016-12-06T12:40:38Z</time>
      </trkpt>
      <trkpt lat="45.84037" lon="3.03654">
        <ele>594.4</ele>
        <time>2016-12-06T12:40:40Z</time>
      </trkpt>
      <trkpt lat="45.84059" lon="3.03598">
        <ele>597.8</ele>
        <time>2016-12-06T12:40:45Z</time>
      </trkpt>
      <trkpt lat="45.84063" lon="3.03587">
        <ele>598.2</ele>
        <time>2016-12-06T12:40:46Z</time>
      </trkpt>
      <trkpt lat="45.84066" lon="3.03579">
        <ele>598.5</ele>
        <time>2016-12-06T12:40:47Z</time>
      </trkpt>
      <trkpt lat="45.84074" lon="3.03548">
        <ele>599.8</ele>
        <time>2016-12-06T12:40:49Z</time>
      </trkpt>
      <trkpt lat="45.84103" lon="3.03499">
        <ele>602.6</ele>
        <time>2016-12-06T12:40:54Z</time>
      </trkpt>
      <trkpt lat="45.84103" lon="3.03498">
        <ele>602.7</ele>
        <time>2016-12-06T12:40:54Z</time>
      </trkpt>
      <trkpt lat="45.84107" lon="3.03454">
        <ele>605</ele>
        <time>2016-12-06T12:40:58Z</time>
      </trkpt>
      <trkpt lat="45.84106" lon="3.03405">
        <ele>607.1</ele>
        <time>2016-12-06T12:41:02Z</time>
      </trkpt>
      <trkpt lat="45.84111" lon="3.0335">
        <ele>609.3</ele>
        <time>2016-12-06T12:41:06Z</time>
      </trkpt>
      <trkpt lat="45.84124" lon="3.03315">
        <ele>611</ele>
        <time>2016-12-06T12:41:09Z</time>
      </trkpt>
      <trkpt lat="45.84156" lon="3.03232">
        <ele>616.2</ele>
        <time>2016-12-06T12:41:16Z</time>
      </trkpt>
      <trkpt lat="45.84158" lon="3.03185">
        <ele>618.9</ele>
        <time>2016-12-06T12:41:20Z</time>
      </trkpt>
      <trkpt lat="45.84154" lon="3.03156">
        <ele>619.8</ele>
        <time>2016-12-06T12:41:22Z</time>
      </trkpt>
      <trkpt lat="45.84178" lon="3.02872">
        <ele>624.9</ele>
        <time>2016-12-06T12:41:44Z</time>
      </trkpt>
      <trkpt lat="45.84198" lon="3.0281">
        <ele>628.8</ele>
        <time>2016-12-06T12:41:50Z</time>
      </trkpt>
      <trkpt lat="45.84206" lon="3.02741">
        <ele>629.8</ele>
        <time>2016-12-06T12:41:55Z</time>
      </trkpt>
      <trkpt lat="45.8423" lon="3.02643">
        <ele>632.2</ele>
        <time>2016-12-06T12:42:03Z</time>
      </trkpt>
      <trkpt lat="45.84276" lon="3.02513">
        <ele>636.9</ele>
        <time>2016-12-06T12:42:15Z</time>
      </trkpt>
      <trkpt lat="45.84309" lon="3.02548">
        <ele>637.3</ele>
        <time>2016-12-06T12:42:19Z</time>
      </trkpt>
      <trkpt lat="45.84335" lon="3.02567">
        <ele>638.2</ele>
        <time>2016-12-06T12:42:22Z</time>
      </trkpt>
      <trkpt lat="45.84355" lon="3.02555">
        <ele>640</ele>
        <time>2016-12-06T12:42:25Z</time>
      </trkpt>
      <trkpt lat="45.84384" lon="3.02513">
        <ele>642.7</ele>
        <time>2016-12-06T12:42:29Z</time>
      </trkpt>
      <trkpt lat="45.84413" lon="3.02522">
        <ele>644.5</ele>
        <time>2016-12-06T12:42:33Z</time>
      </trkpt>
      <trkpt lat="45.84426" lon="3.02462">
        <ele>648.4</ele>
        <time>2016-12-06T12:42:38Z</time>
      </trkpt>
      <trkpt lat="45.84431" lon="3.02422">
        <ele>650.4</ele>
        <time>2016-12-06T12:42:41Z</time>
      </trkpt>
      <trkpt lat="45.8442" lon="3.02311">
        <ele>656.3</ele>
        <time>2016-12-06T12:42:50Z</time>
      </trkpt>
      <trkpt lat="45.84415" lon="3.02239">
        <ele>662</ele>
        <time>2016-12-06T12:42:55Z</time>
      </trkpt>
      <trkpt lat="45.84417" lon="3.02203">
        <ele>665.5</ele>
        <time>2016-12-06T12:42:58Z</time>
      </trkpt>
      <trkpt lat="45.84417" lon="3.02181">
        <ele>668.2</ele>
        <time>2016-12-06T12:43:00Z</time>
      </trkpt>
      <trkpt lat="45.84405" lon="3.0218">
        <ele>670</ele>
        <time>2016-12-06T12:43:01Z</time>
      </trkpt>
      <trkpt lat="45.84361" lon="3.02231">
        <ele>670.1</ele>
        <time>2016-12-06T12:43:07Z</time>
      </trkpt>
      <trkpt lat="45.8434" lon="3.02244">
        <ele>669.2</ele>
        <time>2016-12-06T12:43:10Z</time>
      </trkpt>
      <trkpt lat="45.84327" lon="3.02236">
        <ele>670</ele>
        <time>2016-12-06T12:43:11Z</time>
      </trkpt>
      <trkpt lat="45.84322" lon="3.02187">
        <ele>678.5</ele>
        <time>2016-12-06T12:43:15Z</time>
      </trkpt>
      <trkpt lat="45.84328" lon="3.02162">
        <ele>682.4</ele>
        <time>2016-12-06T12:43:17Z</time>
      </trkpt>
      <trkpt lat="45.84322" lon="3.0212">
        <ele>687.3</ele>
        <time>2016-12-06T12:43:21Z</time>
      </trkpt>
      <trkpt lat="45.84309" lon="3.02103">
        <ele>689</ele>
        <time>2016-12-06T12:43:23Z</time>
      </trkpt>
      <trkpt lat="45.84289" lon="3.02029">
        <ele>696.8</ele>
        <time>2016-12-06T12:43:29Z</time>
      </trkpt>
      <trkpt lat="45.84289" lon="3.01974">
        <ele>702.6</ele>
        <time>2016-12-06T12:43:33Z</time>
      </trkpt>
      <trkpt lat="45.84291" lon="3.01959">
        <ele>703.7</ele>
        <time>2016-12-06T12:43:34Z</time>
      </trkpt>
      <trkpt lat="45.84303" lon="3.01949">
        <ele>704.8</ele>
        <time>2016-12-06T12:43:36Z</time>
      </trkpt>
      <trkpt lat="45.8431" lon="3.01937">
        <ele>705.5</ele>
        <time>2016-12-06T12:43:37Z</time>
      </trkpt>
      <trkpt lat="45.84325" lon="3.0191">
        <ele>707</ele>
        <time>2016-12-06T12:43:40Z</time>
      </trkpt>
      <trkpt lat="45.84332" lon="3.01899">
        <ele>707.5</ele>
        <time>2016-12-06T12:43:41Z</time>
      </trkpt>
      <trkpt lat="45.84411" lon="3.01867">
        <ele>702.7</ele>
        <time>2016-12-06T12:43:50Z</time>
      </trkpt>
      <trkpt lat="45.84411" lon="3.018">
        <ele>706.7</ele>
        <time>2016-12-06T12:43:55Z</time>
      </trkpt>
      <trkpt lat="45.8442" lon="3.0172">
        <ele>710.9</ele>
        <time>2016-12-06T12:44:02Z</time>
      </trkpt>
      <trkpt lat="45.8445" lon="3.01649">
        <ele>712.8</ele>
        <time>2016-12-06T12:44:08Z</time>
      </trkpt>
      <trkpt lat="45.84472" lon="3.01592">
        <ele>717.1</ele>
        <time>2016-12-06T12:44:13Z</time>
      </trkpt>
      <trkpt lat="45.84498" lon="3.0156">
        <ele>718.4</ele>
        <time>2016-12-06T12:44:17Z</time>
      </trkpt>
      <trkpt lat="45.84482" lon="3.01531">
        <ele>720.2</ele>
        <time>2016-12-06T12:44:20Z</time>
      </trkpt>
      <trkpt lat="45.84499" lon="3.0152">
        <ele>720.3</ele>
        <time>2016-12-06T12:44:22Z</time>
      </trkpt>
      <trkpt lat="45.8453" lon="3.01506">
        <ele>720.2</ele>
        <time>2016-12-06T12:44:26Z</time>
      </trkpt>
      <trkpt lat="45.84597" lon="3.01482">
        <ele>726.2</ele>
        <time>2016-12-06T12:44:33Z</time>
      </trkpt>
      <trkpt lat="45.8471" lon="3.01511">
        <ele>731.7</ele>
        <time>2016-12-06T12:44:46Z</time>
      </trkpt>
      <trkpt lat="45.848" lon="3.01576">
        <ele>732.4</ele>
        <time>2016-12-06T12:44:57Z</time>
      </trkpt>
      <trkpt lat="45.84875" lon="3.01672">
        <ele>732.2</ele>
        <time>2016-12-06T12:45:08Z</time>
      </trkpt>
      <trkpt lat="45.84911" lon="3.01825">
        <ele>734.9</ele>
        <time>2016-12-06T12:45:21Z</time>
      </trkpt>
      <trkpt lat="45.84949" lon="3.01968">
        <ele>736.4</ele>
        <time>2016-12-06T12:45:33Z</time>
      </trkpt>
      <trkpt lat="45.85037" lon="3.02075">
        <ele>737.8</ele>
        <time>2016-12-06T12:45:46Z</time>
      </trkpt>
      <trkpt lat="45.85231" lon="3.02129">
        <ele>741.7</ele>
        <time>2016-12-06T12:46:08Z</time>
      </trkpt>
      <trkpt lat="45.8526" lon="3.02121">
        <ele>743.4</ele>
        <time>2016-12-06T12:46:11Z</time>
      </trkpt>
      <trkpt lat="45.85283" lon="3.02056">
        <ele>748.7</ele>
        <time>2016-12-06T12:46:17Z</time>
      </trkpt>
      <trkpt lat="45.85289" lon="3.01958">
        <ele>753.9</ele>
        <time>2016-12-06T12:46:24Z</time>
      </trkpt>
      <trkpt lat="45.85402" lon="3.02025">
        <ele>750.2</ele>
        <time>2016-12-06T12:46:38Z</time>
      </trkpt>
      <trkpt lat="45.85452" lon="3.01942">
        <ele>752.8</ele>
        <time>2016-12-06T12:46:46Z</time>
      </trkpt>
      <trkpt lat="45.85524" lon="3.01745">
        <ele>759.3</ele>
        <time>2016-12-06T12:47:04Z</time>
      </trkpt>
      <trkpt lat="45.8556" lon="3.0168">
        <ele>759.9</ele>
        <time>2016-12-06T12:47:10Z</time>
      </trkpt>
      <trkpt lat="45.85563" lon="3.01568">
        <ele>763.7</ele>
        <time>2016-12-06T12:47:19Z</time>
      </trkpt>
      <trkpt lat="45.85545" lon="3.01459">
        <ele>767.9</ele>
        <time>2016-12-06T12:47:27Z</time>
      </trkpt>
      <trkpt lat="45.85492" lon="3.0135">
        <ele>773.1</ele>
        <time>2016-12-06T12:47:38Z</time>
      </trkpt>
      <trkpt lat="45.85337" lon="3.0109">
        <ele>772</ele>
        <time>2016-12-06T12:48:04Z</time>
      </trkpt>
      <trkpt lat="45.85269" lon="3.00921">
        <ele>771.4</ele>
        <time>2016-12-06T12:48:19Z</time>
      </trkpt>
      <trkpt lat="45.85263" lon="3.00895">
        <ele>771.7</ele>
        <time>2016-12-06T12:48:22Z</time>
      </trkpt>
      <trkpt lat="45.85202" lon="3.00666">
        <ele>777.8</ele>
        <time>2016-12-06T12:48:40Z</time>
      </trkpt>
      <trkpt lat="45.85166" lon="3.00474">
        <ele>785.5</ele>
        <time>2016-12-06T12:48:56Z</time>
      </trkpt>
      <trkpt lat="45.85181" lon="3.00414">
        <ele>789.3</ele>
        <time>2016-12-06T12:49:01Z</time>
      </trkpt>
      <trkpt lat="45.85253" lon="3.00282">
        <ele>787.4</ele>
        <time>2016-12-06T12:49:14Z</time>
      </trkpt>
      <trkpt lat="45.85355" lon="3.00061">
        <ele>787.2</ele>
        <time>2016-12-06T12:49:34Z</time>
      </trkpt>
      <trkpt lat="45.85368" lon="3.00009">
        <ele>787.8</ele>
        <time>2016-12-06T12:49:39Z</time>
      </trkpt>
      <trkpt lat="45.85414" lon="2.99892">
        <ele>789.1</ele>
        <time>2016-12-06T12:49:49Z</time>
      </trkpt>
      <trkpt lat="45.85447" lon="2.99783">
        <ele>791.5</ele>
        <time>2016-12-06T12:49:58Z</time>
      </trkpt>
      <trkpt lat="45.85418" lon="2.99608">
        <ele>800.9</ele>
        <time>2016-12-06T12:50:12Z</time>
      </trkpt>
      <trkpt lat="45.85416" lon="2.99473">
        <ele>805.8</ele>
        <time>2016-12-06T12:50:23Z</time>
      </trkpt>
      <trkpt lat="45.85423" lon="2.99434">
        <ele>807</ele>
        <time>2016-12-06T12:50:26Z</time>
      </trkpt>
      <trkpt lat="45.85488" lon="2.99341">
        <ele>809.6</ele>
        <time>2016-12-06T12:50:36Z</time>
      </trkpt>
      <trkpt lat="45.85562" lon="2.99156">
        <ele>814</ele>
        <time>2016-12-06T12:50:52Z</time>
      </trkpt>
      <trkpt lat="45.85538" lon="2.98946">
        <ele>818.8</ele>
        <time>2016-12-06T12:51:09Z</time>
      </trkpt>
      <trkpt lat="45.85497" lon="2.98816">
        <ele>825.1</ele>
        <time>2016-12-06T12:51:20Z</time>
      </trkpt>
      <trkpt lat="45.85441" lon="2.98689">
        <ele>832.5</ele>
        <time>2016-12-06T12:51:32Z</time>
      </trkpt>
      <trkpt lat="45.85391" lon="2.98644">
        <ele>835.7</ele>
        <time>2016-12-06T12:51:38Z</time>
      </trkpt>
      <trkpt lat="45.8531" lon="2.98652">
        <ele>836.1</ele>
        <time>2016-12-06T12:51:47Z</time>
      </trkpt>
      <trkpt lat="45.85416" lon="2.98512">
        <ele>840.6</ele>
        <time>2016-12-06T12:52:03Z</time>
      </trkpt>
      <trkpt lat="45.85481" lon="2.98457">
        <ele>846.5</ele>
        <time>2016-12-06T12:52:12Z</time>
      </trkpt>
      <trkpt lat="45.8554" lon="2.98309">
        <ele>856.6</ele>
        <time>2016-12-06T12:52:25Z</time>
      </trkpt>
      <trkpt lat="45.85601" lon="2.98156">
        <ele>866.2</ele>
        <time>2016-12-06T12:52:39Z</time>
      </trkpt>
      <trkpt lat="45.8567" lon="2.98085">
        <ele>876.3</ele>
        <time>2016-12-06T12:52:48Z</time>
      </trkpt>
      <trkpt lat="45.85734" lon="2.98012">
        <ele>881.3</ele>
        <time>2016-12-06T12:52:57Z</time>
      </trkpt>
      <trkpt lat="45.85787" lon="2.97908">
        <ele>878.7</ele>
        <time>2016-12-06T12:53:07Z</time>
      </trkpt>
      <trkpt lat="45.85797" lon="2.97708">
        <ele>875.1</ele>
        <time>2016-12-06T12:53:23Z</time>
      </trkpt>
      <trkpt lat="45.85867" lon="2.97583">
        <ele>866.1</ele>
        <time>2016-12-06T12:53:35Z</time>
      </trkpt>
      <trkpt lat="45.85934" lon="2.97386">
        <ele>857</ele>
        <time>2016-12-06T12:53:52Z</time>
      </trkpt>
      <trkpt lat="45.86052" lon="2.97196">
        <ele>855.7</ele>
        <time>2016-12-06T12:54:12Z</time>
      </trkpt>
      <trkpt lat="45.86142" lon="2.9704">
        <ele>849.4</ele>
        <time>2016-12-06T12:54:28Z</time>
      </trkpt>
      <trkpt lat="45.86358" lon="2.96814">
        <ele>841.6</ele>
        <time>2016-12-06T12:54:57Z</time>
      </trkpt>
      <trkpt lat="45.86396" lon="2.96822">
        <ele>840.2</ele>
        <time>2016-12-06T12:55:02Z</time>
      </trkpt>
      <trkpt lat="45.86507" lon="2.96871">
        <ele>837.2</ele>
        <time>2016-12-06T12:55:15Z</time>
      </trkpt>
      <trkpt lat="45.86577" lon="2.96754">
        <ele>837.6</ele>
        <time>2016-12-06T12:55:27Z</time>
      </trkpt>
      <trkpt lat="45.86599" lon="2.9672">
        <ele>838.5</ele>
        <time>2016-12-06T12:55:30Z</time>
      </trkpt>
      <trkpt lat="45.86518" lon="2.96687">
        <ele>840.2</ele>
        <time>2016-12-06T12:55:39Z</time>
      </trkpt>
      <trkpt lat="45.86466" lon="2.96637">
        <ele>843.1</ele>
        <time>2016-12-06T12:55:46Z</time>
      </trkpt>
      <trkpt lat="45.86408" lon="2.96554">
        <ele>848.1</ele>
        <time>2016-12-06T12:55:55Z</time>
      </trkpt>
      <trkpt lat="45.863" lon="2.9645">
        <ele>862.3</ele>
        <time>2016-12-06T12:56:10Z</time>
      </trkpt>
      <trkpt lat="45.86196" lon="2.96305">
        <ele>882</ele>
        <time>2016-12-06T12:56:26Z</time>
      </trkpt>
      <trkpt lat="45.86146" lon="2.9624">
        <ele>890.2</ele>
        <time>2016-12-06T12:56:34Z</time>
      </trkpt>
      <trkpt lat="45.86101" lon="2.96169">
        <ele>894.6</ele>
        <time>2016-12-06T12:56:41Z</time>
      </trkpt>
      <trkpt lat="45.86123" lon="2.96094">
        <ele>895.1</ele>
        <time>2016-12-06T12:56:48Z</time>
      </trkpt>
      <trkpt lat="45.86238" lon="2.95972">
        <ele>895.1</ele>
        <time>2016-12-06T12:57:03Z</time>
      </trkpt>
      <trkpt lat="45.86338" lon="2.95871">
        <ele>892.3</ele>
        <time>2016-12-06T12:57:17Z</time>
      </trkpt>
      <trkpt lat="45.86277" lon="2.95702">
        <ele>894.7</ele>
        <time>2016-12-06T12:57:32Z</time>
      </trkpt>
      <trkpt lat="45.86221" lon="2.95611">
        <ele>897.7</ele>
        <time>2016-12-06T12:57:41Z</time>
      </trkpt>
      <trkpt lat="45.86193" lon="2.95489">
        <ele>904.5</ele>
        <time>2016-12-06T12:57:51Z</time>
      </trkpt>
      <trkpt lat="45.86092" lon="2.95309">
        <ele>918.4</ele>
        <time>2016-12-06T12:58:09Z</time>
      </trkpt>
      <trkpt lat="45.86065" lon="2.95234">
        <ele>922.2</ele>
        <time>2016-12-06T12:58:16Z</time>
      </trkpt>
      <trkpt lat="45.85979" lon="2.95172">
        <ele>927.5</ele>
        <time>2016-12-06T12:58:26Z</time>
      </trkpt>
      <trkpt lat="45.85923" lon="2.95011">
        <ele>931.6</ele>
        <time>2016-12-06T12:58:40Z</time>
      </trkpt>
      <trkpt lat="45.85952" lon="2.94902">
        <ele>927.1</ele>
        <time>2016-12-06T12:58:49Z</time>
      </trkpt>
      <trkpt lat="45.8591" lon="2.94865">
        <ele>926.1</ele>
        <time>2016-12-06T12:58:55Z</time>
      </trkpt>
      <trkpt lat="45.85972" lon="2.94755">
        <ele>913.5</ele>
        <time>2016-12-06T12:59:06Z</time>
      </trkpt>
      <trkpt lat="45.86049" lon="2.94581">
        <ele>892.9</ele>
        <time>2016-12-06T12:59:22Z</time>
      </trkpt>
      <trkpt lat="45.8613" lon="2.94378">
        <ele>877.8</ele>
        <time>2016-12-06T12:59:40Z</time>
      </trkpt>
      <trkpt lat="45.86169" lon="2.94302">
        <ele>872.7</ele>
        <time>2016-12-06T12:59:48Z</time>
      </trkpt>
      <trkpt lat="45.86204" lon="2.94227">
        <ele>868.7</ele>
        <time>2016-12-06T12:59:55Z</time>
      </trkpt>
      <trkpt lat="45.86272" lon="2.94256">
        <ele>869.1</ele>
        <time>2016-12-06T13:00:02Z</time>
      </trkpt>
      <trkpt lat="45.86297" lon="2.93951">
        <ele>863.1</ele>
        <time>2016-12-06T13:00:26Z</time>
      </trkpt>
      <trkpt lat="45.86324" lon="2.93717">
        <ele>862.3</ele>
        <time>2016-12-06T13:00:45Z</time>
      </trkpt>
      <trkpt lat="45.8637" lon="2.93501">
        <ele>861.9</ele>
        <time>2016-12-06T13:01:02Z</time>
      </trkpt>
      <trkpt lat="45.86295" lon="2.93213">
        <ele>863</ele>
        <time>2016-12-06T13:01:26Z</time>
      </trkpt>
      <trkpt lat="45.86234" lon="2.93184">
        <ele>865.6</ele>
        <time>2016-12-06T13:01:33Z</time>
      </trkpt>
      <trkpt lat="45.86121" lon="2.93246">
        <ele>871.1</ele>
        <time>2016-12-06T13:01:47Z</time>
      </trkpt>
      <trkpt lat="45.8606" lon="2.93228">
        <ele>871.3</ele>
        <time>2016-12-06T13:01:53Z</time>
      </trkpt>
      <trkpt lat="45.86043" lon="2.93213">
        <ele>871</ele>
        <time>2016-12-06T13:01:56Z</time>
      </trkpt>
      <trkpt lat="45.86009" lon="2.93155">
        <ele>869.1</ele>
        <time>2016-12-06T13:02:01Z</time>
      </trkpt>
      <trkpt lat="45.86024" lon="2.93049">
        <ele>870.1</ele>
        <time>2016-12-06T13:02:10Z</time>
      </trkpt>
      <trkpt lat="45.86042" lon="2.92854">
        <ele>875.8</ele>
        <time>2016-12-06T13:02:25Z</time>
      </trkpt>
      <trkpt lat="45.86017" lon="2.92594">
        <ele>878.2</ele>
        <time>2016-12-06T13:02:45Z</time>
      </trkpt>
      <trkpt lat="45.8602" lon="2.92464">
        <ele>875.8</ele>
        <time>2016-12-06T13:02:55Z</time>
      </trkpt>
      <trkpt lat="45.85982" lon="2.92383">
        <ele>877.4</ele>
        <time>2016-12-06T13:03:03Z</time>
      </trkpt>
      <trkpt lat="45.85972" lon="2.92305">
        <ele>875</ele>
        <time>2016-12-06T13:03:09Z</time>
      </trkpt>
      <trkpt lat="45.85968" lon="2.92195">
        <ele>876.7</ele>
        <time>2016-12-06T13:03:18Z</time>
      </trkpt>
      <trkpt lat="45.85952" lon="2.9211">
        <ele>878.7</ele>
        <time>2016-12-06T13:03:25Z</time>
      </trkpt>
      <trkpt lat="45.85871" lon="2.92128">
        <ele>884.7</ele>
        <time>2016-12-06T13:03:34Z</time>
      </trkpt>
      <trkpt lat="45.85763" lon="2.92219">
        <ele>890.9</ele>
        <time>2016-12-06T13:03:48Z</time>
      </trkpt>
      <trkpt lat="45.85708" lon="2.92307">
        <ele>892</ele>
        <time>2016-12-06T13:03:57Z</time>
      </trkpt>
      <trkpt lat="45.85694" lon="2.92359">
        <ele>893.4</ele>
        <time>2016-12-06T13:04:01Z</time>
      </trkpt>
      <trkpt lat="45.85335" lon="2.92541">
        <ele>899.9</ele>
        <time>2016-12-06T13:04:43Z</time>
      </trkpt>
      <trkpt lat="45.85199" lon="2.92596">
        <ele>899.9</ele>
        <time>2016-12-06T13:04:59Z</time>
      </trkpt>
      <trkpt lat="45.85105" lon="2.92619">
        <ele>899.1</ele>
        <time>2016-12-06T13:05:10Z</time>
      </trkpt>
      <trkpt lat="45.85103" lon="2.92541">
        <ele>895.5</ele>
        <time>2016-12-06T13:05:16Z</time>
      </trkpt>
      <trkpt lat="45.85042" lon="2.92375">
        <ele>894.1</ele>
        <time>2016-12-06T13:05:30Z</time>
      </trkpt>
      <trkpt lat="45.8503" lon="2.92292">
        <ele>894</ele>
        <time>2016-12-06T13:05:37Z</time>
      </trkpt>
      <trkpt lat="45.85019" lon="2.92201">
        <ele>892.9</ele>
        <time>2016-12-06T13:05:44Z</time>
      </trkpt>
      <trkpt lat="45.8497" lon="2.92159">
        <ele>890.8</ele>
        <time>2016-12-06T13:05:50Z</time>
      </trkpt>
      <trkpt lat="45.84934" lon="2.92089">
        <ele>888.6</ele>
        <time>2016-12-06T13:05:57Z</time>
      </trkpt>
      <trkpt lat="45.84924" lon="2.92014">
        <ele>886.3</ele>
        <time>2016-12-06T13:06:03Z</time>
      </trkpt>
      <trkpt lat="45.84881" lon="2.91949">
        <ele>883.5</ele>
        <time>2016-12-06T13:06:10Z</time>
      </trkpt>
      <trkpt lat="45.84897" lon="2.91824">
        <ele>881.8</ele>
        <time>2016-12-06T13:06:20Z</time>
      </trkpt>
      <trkpt lat="45.84818" lon="2.91709">
        <ele>879</ele>
        <time>2016-12-06T13:06:32Z</time>
      </trkpt>
      <trkpt lat="45.8478" lon="2.91616">
        <ele>878.3</ele>
        <time>2016-12-06T13:06:41Z</time>
      </trkpt>
      <trkpt lat="45.84739" lon="2.91585">
        <ele>877</ele>
        <time>2016-12-06T13:06:46Z</time>
      </trkpt>
      <trkpt lat="45.84699" lon="2.91533">
        <ele>876</ele>
        <time>2016-12-06T13:06:52Z</time>
      </trkpt>
      <trkpt lat="45.84688" lon="2.91439">
        <ele>875.4</ele>
        <time>2016-12-06T13:06:59Z</time>
      </trkpt>
      <trkpt lat="45.84685" lon="2.91348">
        <ele>872.5</ele>
        <time>2016-12-06T13:07:06Z</time>
      </trkpt>
      <trkpt lat="45.84642" lon="2.91299">
        <ele>869.2</ele>
        <time>2016-12-06T13:07:12Z</time>
      </trkpt>
      <trkpt lat="45.84589" lon="2.91265">
        <ele>866.6</ele>
        <time>2016-12-06T13:07:19Z</time>
      </trkpt>
      <trkpt lat="45.84642" lon="2.91021">
        <ele>861.3</ele>
        <time>2016-12-06T13:07:39Z</time>
      </trkpt>
      <trkpt lat="45.84529" lon="2.91045">
        <ele>858.6</ele>
        <time>2016-12-06T13:07:51Z</time>
      </trkpt>
      <trkpt lat="45.84489" lon="2.91056">
        <ele>857.5</ele>
        <time>2016-12-06T13:07:56Z</time>
      </trkpt>
      <trkpt lat="45.84478" lon="2.91099">
        <ele>858.8</ele>
        <time>2016-12-06T13:07:59Z</time>
      </trkpt>
      <trkpt lat="45.84378" lon="2.91259">
        <ele>858.2</ele>
        <time>2016-12-06T13:08:16Z</time>
      </trkpt>
      <trkpt lat="45.84316" lon="2.91286">
        <ele>858</ele>
        <time>2016-12-06T13:08:23Z</time>
      </trkpt>
      <trkpt lat="45.84187" lon="2.91435">
        <ele>848.4</ele>
        <time>2016-12-06T13:08:42Z</time>
      </trkpt>
      <trkpt lat="45.84154" lon="2.91357">
        <ele>849.1</ele>
        <time>2016-12-06T13:08:49Z</time>
      </trkpt>
      <trkpt lat="45.84125" lon="2.91267">
        <ele>849</ele>
        <time>2016-12-06T13:08:56Z</time>
      </trkpt>
      <trkpt lat="45.84087" lon="2.91158">
        <ele>843.2</ele>
        <time>2016-12-06T13:09:06Z</time>
      </trkpt>
      <trkpt lat="45.84036" lon="2.91154">
        <ele>843.8</ele>
        <time>2016-12-06T13:09:12Z</time>
      </trkpt>
      <trkpt lat="45.84033" lon="2.9122">
        <ele>849.1</ele>
        <time>2016-12-06T13:09:17Z</time>
      </trkpt>
      <trkpt lat="45.84003" lon="2.91411">
        <ele>864.1</ele>
        <time>2016-12-06T13:09:32Z</time>
      </trkpt>
      <trkpt lat="45.83909" lon="2.9154">
        <ele>873.8</ele>
        <time>2016-12-06T13:09:46Z</time>
      </trkpt>
      <trkpt lat="45.83812" lon="2.9161">
        <ele>878.2</ele>
        <time>2016-12-06T13:09:59Z</time>
      </trkpt>
      <trkpt lat="45.83672" lon="2.91875">
        <ele>881</ele>
        <time>2016-12-06T13:10:24Z</time>
      </trkpt>
      <trkpt lat="45.83532" lon="2.92183">
        <ele>870.3</ele>
        <time>2016-12-06T13:10:53Z</time>
      </trkpt>
      <trkpt lat="45.83518" lon="2.92178">
        <ele>871</ele>
        <time>2016-12-06T13:10:54Z</time>
      </trkpt>
      <trkpt lat="45.83426" lon="2.92164">
        <ele>870.6</ele>
        <time>2016-12-06T13:11:05Z</time>
      </trkpt>
      <trkpt lat="45.83402" lon="2.9198">
        <ele>862.4</ele>
        <time>2016-12-06T13:11:19Z</time>
      </trkpt>
      <trkpt lat="45.83393" lon="2.9192">
        <ele>860</ele>
        <time>2016-12-06T13:11:24Z</time>
      </trkpt>
      <trkpt lat="45.83399" lon="2.91819">
        <ele>851.8</ele>
        <time>2016-12-06T13:11:32Z</time>
      </trkpt>
      <trkpt lat="45.83372" lon="2.91673">
        <ele>842.3</ele>
        <time>2016-12-06T13:11:44Z</time>
      </trkpt>
      <trkpt lat="45.83364" lon="2.91579">
        <ele>837.6</ele>
        <time>2016-12-06T13:11:51Z</time>
      </trkpt>
      <trkpt lat="45.83358" lon="2.91505">
        <ele>835.6</ele>
        <time>2016-12-06T13:11:57Z</time>
      </trkpt>
      <trkpt lat="45.83376" lon="2.91335">
        <ele>830.1</ele>
        <time>2016-12-06T13:12:10Z</time>
      </trkpt>
      <trkpt lat="45.83357" lon="2.91219">
        <ele>827.4</ele>
        <time>2016-12-06T13:12:19Z</time>
      </trkpt>
      <trkpt lat="45.83353" lon="2.91082">
        <ele>826.3</ele>
        <time>2016-12-06T13:12:30Z</time>
      </trkpt>
      <trkpt lat="45.83338" lon="2.91047">
        <ele>825.1</ele>
        <time>2016-12-06T13:12:33Z</time>
      </trkpt>
      <trkpt lat="45.8331" lon="2.91041">
        <ele>824.6</ele>
        <time>2016-12-06T13:12:36Z</time>
      </trkpt>
      <trkpt lat="45.83265" lon="2.91018">
        <ele>824</ele>
        <time>2016-12-06T13:12:42Z</time>
      </trkpt>
      <trkpt lat="45.83212" lon="2.90952">
        <ele>822.1</ele>
        <time>2016-12-06T13:12:49Z</time>
      </trkpt>
      <trkpt lat="45.83178" lon="2.90917">
        <ele>822</ele>
        <time>2016-12-06T13:12:54Z</time>
      </trkpt>
      <trkpt lat="45.83148" lon="2.90907">
        <ele>822.3</ele>
        <time>2016-12-06T13:12:58Z</time>
      </trkpt>
      <trkpt lat="45.83151" lon="2.90811">
        <ele>821.6</ele>
        <time>2016-12-06T13:13:05Z</time>
      </trkpt>
      <trkpt lat="45.83143" lon="2.90796">
        <ele>821.4</ele>
        <time>2016-12-06T13:13:06Z</time>
      </trkpt>
      <trkpt lat="45.83134" lon="2.90791">
        <ele>821.5</ele>
        <time>2016-12-06T13:13:07Z</time>
      </trkpt>
      <trkpt lat="45.83128" lon="2.9076">
        <ele>820.4</ele>
        <time>2016-12-06T13:13:10Z</time>
      </trkpt>
      <trkpt lat="45.8312" lon="2.90754">
        <ele>820.1</ele>
        <time>2016-12-06T13:13:11Z</time>
      </trkpt>
      <trkpt lat="45.831" lon="2.90754">
        <ele>820.4</ele>
        <time>2016-12-06T13:13:13Z</time>
      </trkpt>
      <trkpt lat="45.83093" lon="2.90744">
        <ele>820.4</ele>
        <time>2016-12-06T13:13:14Z</time>
      </trkpt>
      <trkpt lat="45.8309" lon="2.90706">
        <ele>818.7</ele>
        <time>2016-12-06T13:13:17Z</time>
      </trkpt>
      <trkpt lat="45.83076" lon="2.90694">
        <ele>818.1</ele>
        <time>2016-12-06T13:13:19Z</time>
      </trkpt>
      <trkpt lat="45.83029" lon="2.90671">
        <ele>822</ele>
        <time>2016-12-06T13:13:25Z</time>
      </trkpt>
      <trkpt lat="45.8302" lon="2.9066">
        <ele>822.3</ele>
        <time>2016-12-06T13:13:26Z</time>
      </trkpt>
      <trkpt lat="45.83009" lon="2.90585">
        <ele>820.9</ele>
        <time>2016-12-06T13:13:32Z</time>
      </trkpt>
      <trkpt lat="45.82997" lon="2.90519">
        <ele>820.1</ele>
        <time>2016-12-06T13:13:37Z</time>
      </trkpt>
      <trkpt lat="45.82984" lon="2.90491">
        <ele>820.2</ele>
        <time>2016-12-06T13:13:40Z</time>
      </trkpt>
      <trkpt lat="45.82958" lon="2.90481">
        <ele>821.4</ele>
        <time>2016-12-06T13:13:43Z</time>
      </trkpt>
      <trkpt lat="45.82946" lon="2.9045">
        <ele>819.5</ele>
        <time>2016-12-06T13:13:46Z</time>
      </trkpt>
      <trkpt lat="45.82926" lon="2.90425">
        <ele>818.3</ele>
        <time>2016-12-06T13:13:49Z</time>
      </trkpt>
      <trkpt lat="45.82923" lon="2.90361">
        <ele>813.9</ele>
        <time>2016-12-06T13:13:54Z</time>
      </trkpt>
      <trkpt lat="45.82914" lon="2.9031">
        <ele>812.1</ele>
        <time>2016-12-06T13:13:58Z</time>
      </trkpt>
      <trkpt lat="45.82916" lon="2.90237">
        <ele>809.8</ele>
        <time>2016-12-06T13:14:03Z</time>
      </trkpt>
      <trkpt lat="45.82932" lon="2.90147">
        <ele>805.6</ele>
        <time>2016-12-06T13:14:11Z</time>
      </trkpt>
      <trkpt lat="45.82943" lon="2.90098">
        <ele>804.5</ele>
        <time>2016-12-06T13:14:14Z</time>
      </trkpt>
      <trkpt lat="45.82935" lon="2.90089">
        <ele>804.5</ele>
        <time>2016-12-06T13:14:16Z</time>
      </trkpt>
      <trkpt lat="45.82926" lon="2.9007">
        <ele>804</ele>
        <time>2016-12-06T13:14:17Z</time>
      </trkpt>
      <trkpt lat="45.82888" lon="2.90043">
        <ele>804</ele>
        <time>2016-12-06T13:14:22Z</time>
      </trkpt>
      <trkpt lat="45.82876" lon="2.90028">
        <ele>804</ele>
        <time>2016-12-06T13:14:24Z</time>
      </trkpt>
      <trkpt lat="45.82866" lon="2.89992">
        <ele>804.3</ele>
        <time>2016-12-06T13:14:27Z</time>
      </trkpt>
      <trkpt lat="45.82857" lon="2.89981">
        <ele>804.6</ele>
        <time>2016-12-06T13:14:28Z</time>
      </trkpt>
      <trkpt lat="45.82855" lon="2.89964">
        <ele>804.7</ele>
        <time>2016-12-06T13:14:30Z</time>
      </trkpt>
      <trkpt lat="45.82805" lon="2.89945">
        <ele>805.3</ele>
        <time>2016-12-06T13:14:35Z</time>
      </trkpt>
      <trkpt lat="45.82764" lon="2.89957">
        <ele>806.1</ele>
        <time>2016-12-06T13:14:40Z</time>
      </trkpt>
      <trkpt lat="45.82731" lon="2.89957">
        <ele>807</ele>
        <time>2016-12-06T13:14:44Z</time>
      </trkpt>
      <trkpt lat="45.82705" lon="2.89948">
        <ele>807.1</ele>
        <time>2016-12-06T13:14:47Z</time>
      </trkpt>
      <trkpt lat="45.8269" lon="2.89951">
        <ele>807.6</ele>
        <time>2016-12-06T13:14:48Z</time>
      </trkpt>
      <trkpt lat="45.82672" lon="2.89963">
        <ele>808</ele>
        <time>2016-12-06T13:14:50Z</time>
      </trkpt>
      <trkpt lat="45.82646" lon="2.89947">
        <ele>808.1</ele>
        <time>2016-12-06T13:14:54Z</time>
      </trkpt>
      <trkpt lat="45.8263" lon="2.8995">
        <ele>808.5</ele>
        <time>2016-12-06T13:14:55Z</time>
      </trkpt>
      <trkpt lat="45.82592" lon="2.89969">
        <ele>809</ele>
        <time>2016-12-06T13:15:00Z</time>
      </trkpt>
      <trkpt lat="45.82584" lon="2.89958">
        <ele>808.9</ele>
        <time>2016-12-06T13:15:01Z</time>
      </trkpt>
      <trkpt lat="45.82633" lon="2.89921">
        <ele>808</ele>
        <time>2016-12-06T13:15:07Z</time>
      </trkpt>
      <trkpt lat="45.82652" lon="2.899">
        <ele>808</ele>
        <time>2016-12-06T13:15:10Z</time>
      </trkpt>
      <trkpt lat="45.82661" lon="2.89871">
        <ele>807.5</ele>
        <time>2016-12-06T13:15:12Z</time>
      </trkpt>
      <trkpt lat="45.82659" lon="2.89843">
        <ele>807</ele>
        <time>2016-12-06T13:15:15Z</time>
      </trkpt>
      <trkpt lat="45.8269" lon="2.89798">
        <ele>806.4</ele>
        <time>2016-12-06T13:15:19Z</time>
      </trkpt>
      <trkpt lat="45.82724" lon="2.89709">
        <ele>805.5</ele>
        <time>2016-12-06T13:15:27Z</time>
      </trkpt>
      <trkpt lat="45.8274" lon="2.89628">
        <ele>804.8</ele>
        <time>2016-12-06T13:15:34Z</time>
      </trkpt>
      <trkpt lat="45.82754" lon="2.89557">
        <ele>803.3</ele>
        <time>2016-12-06T13:15:40Z</time>
      </trkpt>
      <trkpt lat="45.82733" lon="2.89534">
        <ele>804.1</ele>
        <time>2016-12-06T13:15:43Z</time>
      </trkpt>
      <trkpt lat="45.82699" lon="2.89511">
        <ele>805</ele>
        <time>2016-12-06T13:15:47Z</time>
      </trkpt>
      <trkpt lat="45.82647" lon="2.89505">
        <ele>804.4</ele>
        <time>2016-12-06T13:15:53Z</time>
      </trkpt>
      <trkpt lat="45.82601" lon="2.89485">
        <ele>805.2</ele>
        <time>2016-12-06T13:15:58Z</time>
      </trkpt>
      <trkpt lat="45.82574" lon="2.89472">
        <ele>805.9</ele>
        <time>2016-12-06T13:16:01Z</time>
      </trkpt>
      <trkpt lat="45.82527" lon="2.89481">
        <ele>806.5</ele>
        <time>2016-12-06T13:16:06Z</time>
      </trkpt>
      <trkpt lat="45.82489" lon="2.8946">
        <ele>807</ele>
        <time>2016-12-06T13:16:11Z</time>
      </trkpt>
      <trkpt lat="45.82428" lon="2.89458">
        <ele>807</ele>
        <time>2016-12-06T13:16:18Z</time>
      </trkpt>
      <trkpt lat="45.82404" lon="2.89437">
        <ele>807</ele>
        <time>2016-12-06T13:16:21Z</time>
      </trkpt>
      <trkpt lat="45.82378" lon="2.894">
        <ele>806.1</ele>
        <time>2016-12-06T13:16:25Z</time>
      </trkpt>
      <trkpt lat="45.82366" lon="2.89353">
        <ele>804.7</ele>
        <time>2016-12-06T13:16:29Z</time>
      </trkpt>
      <trkpt lat="45.82351" lon="2.8929">
        <ele>804.2</ele>
        <time>2016-12-06T13:16:34Z</time>
      </trkpt>
      <trkpt lat="45.82306" lon="2.89238">
        <ele>803.5</ele>
        <time>2016-12-06T13:16:40Z</time>
      </trkpt>
      <trkpt lat="45.82259" lon="2.89172">
        <ele>802</ele>
        <time>2016-12-06T13:16:48Z</time>
      </trkpt>
      <trkpt lat="45.82223" lon="2.89123">
        <ele>801.6</ele>
        <time>2016-12-06T13:16:53Z</time>
      </trkpt>
      <trkpt lat="45.82206" lon="2.89101">
        <ele>800.9</ele>
        <time>2016-12-06T13:16:56Z</time>
      </trkpt>
      <trkpt lat="45.82184" lon="2.89107">
        <ele>800.1</ele>
        <time>2016-12-06T13:16:58Z</time>
      </trkpt>
      <trkpt lat="45.82153" lon="2.89119">
        <ele>798.7</ele>
        <time>2016-12-06T13:17:02Z</time>
      </trkpt>
      <trkpt lat="45.82136" lon="2.8907">
        <ele>795.2</ele>
        <time>2016-12-06T13:17:06Z</time>
      </trkpt>
      <trkpt lat="45.82151" lon="2.89037">
        <ele>794.5</ele>
        <time>2016-12-06T13:17:09Z</time>
      </trkpt>
      <trkpt lat="45.82148" lon="2.89016">
        <ele>793.6</ele>
        <time>2016-12-06T13:17:11Z</time>
      </trkpt>
      <trkpt lat="45.82135" lon="2.8899">
        <ele>791.7</ele>
        <time>2016-12-06T13:17:13Z</time>
      </trkpt>
      <trkpt lat="45.82097" lon="2.88973">
        <ele>790</ele>
        <time>2016-12-06T13:17:18Z</time>
      </trkpt>
      <trkpt lat="45.8207" lon="2.8893">
        <ele>790</ele>
        <time>2016-12-06T13:17:22Z</time>
      </trkpt>
      <trkpt lat="45.82038" lon="2.88893">
        <ele>790</ele>
        <time>2016-12-06T13:17:27Z</time>
      </trkpt>
      <trkpt lat="45.82005" lon="2.88864">
        <ele>790</ele>
        <time>2016-12-06T13:17:31Z</time>
      </trkpt>
      <trkpt lat="45.81957" lon="2.88856">
        <ele>790.2</ele>
        <time>2016-12-06T13:17:36Z</time>
      </trkpt>
      <trkpt lat="45.81909" lon="2.88838">
        <ele>791.4</ele>
        <time>2016-12-06T13:17:42Z</time>
      </trkpt>
      <trkpt lat="45.81865" lon="2.88821">
        <ele>792.2</ele>
        <time>2016-12-06T13:17:47Z</time>
      </trkpt>
      <trkpt lat="45.81838" lon="2.8879">
        <ele>792.3</ele>
        <time>2016-12-06T13:17:51Z</time>
      </trkpt>
      <trkpt lat="45.81812" lon="2.88716">
        <ele>791.1</ele>
        <time>2016-12-06T13:17:57Z</time>
      </trkpt>
      <trkpt lat="45.81808" lon="2.88683">
        <ele>791</ele>
        <time>2016-12-06T13:18:00Z</time>
      </trkpt>
      <trkpt lat="45.81827" lon="2.88622">
        <ele>790.2</ele>
        <time>2016-12-06T13:18:05Z</time>
      </trkpt>
      <trkpt lat="45.81837" lon="2.88568">
        <ele>790.1</ele>
        <time>2016-12-06T13:18:09Z</time>
      </trkpt>
      <trkpt lat="45.81812" lon="2.88558">
        <ele>790.7</ele>
        <time>2016-12-06T13:18:12Z</time>
      </trkpt>
      <trkpt lat="45.81787" lon="2.88538">
        <ele>791.6</ele>
        <time>2016-12-06T13:18:15Z</time>
      </trkpt>
      <trkpt lat="45.81756" lon="2.88536">
        <ele>793.3</ele>
        <time>2016-12-06T13:18:19Z</time>
      </trkpt>
      <trkpt lat="45.81729" lon="2.88568">
        <ele>793.2</ele>
        <time>2016-12-06T13:18:22Z</time>
      </trkpt>
      <trkpt lat="45.81695" lon="2.88571">
        <ele>793.1</ele>
        <time>2016-12-06T13:18:26Z</time>
      </trkpt>
      <trkpt lat="45.81612" lon="2.88548">
        <ele>795.4</ele>
        <time>2016-12-06T13:18:36Z</time>
      </trkpt>
      <trkpt lat="45.81585" lon="2.88558">
        <ele>796.5</ele>
        <time>2016-12-06T13:18:39Z</time>
      </trkpt>
      <trkpt lat="45.81558" lon="2.88548">
        <ele>798.8</ele>
        <time>2016-12-06T13:18:42Z</time>
      </trkpt>
      <trkpt lat="45.81516" lon="2.885">
        <ele>800.6</ele>
        <time>2016-12-06T13:18:48Z</time>
      </trkpt>
      <trkpt lat="45.81494" lon="2.88484">
        <ele>801.2</ele>
        <time>2016-12-06T13:18:51Z</time>
      </trkpt>
      <trkpt lat="45.81451" lon="2.88472">
        <ele>803.8</ele>
        <time>2016-12-06T13:18:55Z</time>
      </trkpt>
      <trkpt lat="45.81411" lon="2.88494">
        <ele>806.7</ele>
        <time>2016-12-06T13:19:00Z</time>
      </trkpt>
      <trkpt lat="45.81377" lon="2.88546">
        <ele>808</ele>
        <time>2016-12-06T13:19:06Z</time>
      </trkpt>
      <trkpt lat="45.81346" lon="2.88574">
        <ele>806.9</ele>
        <time>2016-12-06T13:19:10Z</time>
      </trkpt>
      <trkpt lat="45.81318" lon="2.88564">
        <ele>804.9</ele>
        <time>2016-12-06T13:19:13Z</time>
      </trkpt>
      <trkpt lat="45.81286" lon="2.8856">
        <ele>803.2</ele>
        <time>2016-12-06T13:19:17Z</time>
      </trkpt>
      <trkpt lat="45.81252" lon="2.88572">
        <ele>804.4</ele>
        <time>2016-12-06T13:19:21Z</time>
      </trkpt>
      <trkpt lat="45.81228" lon="2.88572">
        <ele>805.9</ele>
        <time>2016-12-06T13:19:23Z</time>
      </trkpt>
      <trkpt lat="45.81202" lon="2.88566">
        <ele>808.4</ele>
        <time>2016-12-06T13:19:26Z</time>
      </trkpt>
      <trkpt lat="45.81175" lon="2.88546">
        <ele>810.9</ele>
        <time>2016-12-06T13:19:30Z</time>
      </trkpt>
      <trkpt lat="45.81147" lon="2.88509">
        <ele>810.2</ele>
        <time>2016-12-06T13:19:34Z</time>
      </trkpt>
      <trkpt lat="45.81118" lon="2.88453">
        <ele>808.1</ele>
        <time>2016-12-06T13:19:39Z</time>
      </trkpt>
      <trkpt lat="45.81096" lon="2.88416">
        <ele>805.6</ele>
        <time>2016-12-06T13:19:43Z</time>
      </trkpt>
      <trkpt lat="45.81051" lon="2.88357">
        <ele>805.1</ele>
        <time>2016-12-06T13:19:50Z</time>
      </trkpt>
      <trkpt lat="45.81007" lon="2.88327">
        <ele>804.4</ele>
        <time>2016-12-06T13:19:55Z</time>
      </trkpt>
      <trkpt lat="45.80992" lon="2.88314">
        <ele>805.5</ele>
        <time>2016-12-06T13:19:57Z</time>
      </trkpt>
      <trkpt lat="45.80969" lon="2.88278">
        <ele>803.5</ele>
        <time>2016-12-06T13:20:01Z</time>
      </trkpt>
      <trkpt lat="45.80921" lon="2.88244">
        <ele>797.6</ele>
        <time>2016-12-06T13:20:07Z</time>
      </trkpt>
      <trkpt lat="45.80879" lon="2.88257">
        <ele>793.6</ele>
        <time>2016-12-06T13:20:12Z</time>
      </trkpt>
      <trkpt lat="45.80789" lon="2.88283">
        <ele>786.1</ele>
        <time>2016-12-06T13:20:22Z</time>
      </trkpt>
      <trkpt lat="45.80693" lon="2.88304">
        <ele>789.4</ele>
        <time>2016-12-06T13:20:33Z</time>
      </trkpt>
      <trkpt lat="45.80604" lon="2.88309">
        <ele>793.5</ele>
        <time>2016-12-06T13:20:43Z</time>
      </trkpt>
      <trkpt lat="45.80538" lon="2.88287">
        <ele>796.8</ele>
        <time>2016-12-06T13:20:50Z</time>
      </trkpt>
      <trkpt lat="45.80413" lon="2.88184">
        <ele>800.9</ele>
        <time>2016-12-06T13:21:06Z</time>
      </trkpt>
      <trkpt lat="45.80346" lon="2.88113">
        <ele>805</ele>
        <time>2016-12-06T13:21:15Z</time>
      </trkpt>
      <trkpt lat="45.80249" lon="2.88102">
        <ele>807.6</ele>
        <time>2016-12-06T13:21:26Z</time>
      </trkpt>
      <trkpt lat="45.80123" lon="2.88078">
        <ele>814</ele>
        <time>2016-12-06T13:21:40Z</time>
      </trkpt>
      <trkpt lat="45.80025" lon="2.88081">
        <ele>815.5</ele>
        <time>2016-12-06T13:21:51Z</time>
      </trkpt>
      <trkpt lat="45.80015" lon="2.88078">
        <ele>815.5</ele>
        <time>2016-12-06T13:21:53Z</time>
      </trkpt>
      <trkpt lat="45.80006" lon="2.8795">
        <ele>815.1</ele>
        <time>2016-12-06T13:22:03Z</time>
      </trkpt>
      <trkpt lat="45.79914" lon="2.8795">
        <ele>813.7</ele>
        <time>2016-12-06T13:22:13Z</time>
      </trkpt>
      <trkpt lat="45.79805" lon="2.87932">
        <ele>812</ele>
        <time>2016-12-06T13:22:25Z</time>
      </trkpt>
      <trkpt lat="45.79623" lon="2.87807">
        <ele>807.4</ele>
        <time>2016-12-06T13:22:47Z</time>
      </trkpt>
      <trkpt lat="45.7944" lon="2.87932">
        <ele>803.3</ele>
        <time>2016-12-06T13:23:10Z</time>
      </trkpt>
      <trkpt lat="45.79376" lon="2.87971">
        <ele>801</ele>
        <time>2016-12-06T13:23:18Z</time>
      </trkpt>
      <trkpt lat="45.79285" lon="2.88055">
        <ele>797.6</ele>
        <time>2016-12-06T13:23:30Z</time>
      </trkpt>
      <trkpt lat="45.79239" lon="2.88102">
        <ele>796.5</ele>
        <time>2016-12-06T13:23:36Z</time>
      </trkpt>
      <trkpt lat="45.79231" lon="2.88135">
        <ele>796.4</ele>
        <time>2016-12-06T13:23:39Z</time>
      </trkpt>
      <trkpt lat="45.79243" lon="2.88236">
        <ele>798.2</ele>
        <time>2016-12-06T13:23:47Z</time>
      </trkpt>
      <trkpt lat="45.79285" lon="2.8834">
        <ele>801.3</ele>
        <time>2016-12-06T13:23:56Z</time>
      </trkpt>
      <trkpt lat="45.79277" lon="2.88367">
        <ele>801.8</ele>
        <time>2016-12-06T13:23:58Z</time>
      </trkpt>
      <trkpt lat="45.79194" lon="2.88379">
        <ele>801.7</ele>
        <time>2016-12-06T13:24:07Z</time>
      </trkpt>
      <trkpt lat="45.79153" lon="2.88394">
        <ele>800.9</ele>
        <time>2016-12-06T13:24:12Z</time>
      </trkpt>
      <trkpt lat="45.79131" lon="2.8839">
        <ele>800.2</ele>
        <time>2016-12-06T13:24:15Z</time>
      </trkpt>
      <trkpt lat="45.79022" lon="2.88464">
        <ele>795.3</ele>
        <time>2016-12-06T13:24:28Z</time>
      </trkpt>
      <trkpt lat="45.78988" lon="2.88507">
        <ele>793</ele>
        <time>2016-12-06T13:24:33Z</time>
      </trkpt>
      <trkpt lat="45.78945" lon="2.88626">
        <ele>801.3</ele>
        <time>2016-12-06T13:24:43Z</time>
      </trkpt>
      <trkpt lat="45.78898" lon="2.88646">
        <ele>805.3</ele>
        <time>2016-12-06T13:24:49Z</time>
      </trkpt>
      <trkpt lat="45.78856" lon="2.88669">
        <ele>810.1</ele>
        <time>2016-12-06T13:24:54Z</time>
      </trkpt>
      <trkpt lat="45.78851" lon="2.88696">
        <ele>813.2</ele>
        <time>2016-12-06T13:24:56Z</time>
      </trkpt>
      <trkpt lat="45.78864" lon="2.88718">
        <ele>814.7</ele>
        <time>2016-12-06T13:24:58Z</time>
      </trkpt>
      <trkpt lat="45.78878" lon="2.88727">
        <ele>814.8</ele>
        <time>2016-12-06T13:25:00Z</time>
      </trkpt>
      <trkpt lat="45.7887" lon="2.88825">
        <ele>819.2</ele>
        <time>2016-12-06T13:25:08Z</time>
      </trkpt>
      <trkpt lat="45.78839" lon="2.88895">
        <ele>822</ele>
        <time>2016-12-06T13:25:14Z</time>
      </trkpt>
      <trkpt lat="45.7882" lon="2.88951">
        <ele>823.6</ele>
        <time>2016-12-06T13:25:19Z</time>
      </trkpt>
      <trkpt lat="45.78791" lon="2.88985">
        <ele>825.3</ele>
        <time>2016-12-06T13:25:23Z</time>
      </trkpt>
      <trkpt lat="45.78681" lon="2.89021">
        <ele>828.6</ele>
        <time>2016-12-06T13:25:36Z</time>
      </trkpt>
      <trkpt lat="45.7861" lon="2.89042">
        <ele>830.7</ele>
        <time>2016-12-06T13:25:44Z</time>
      </trkpt>
      <trkpt lat="45.78508" lon="2.89006">
        <ele>831.3</ele>
        <time>2016-12-06T13:25:55Z</time>
      </trkpt>
      <trkpt lat="45.78452" lon="2.89009">
        <ele>830.7</ele>
        <time>2016-12-06T13:26:02Z</time>
      </trkpt>
      <trkpt lat="45.78379" lon="2.89086">
        <ele>833.2</ele>
        <time>2016-12-06T13:26:12Z</time>
      </trkpt>
      <trkpt lat="45.78341" lon="2.89111">
        <ele>834.9</ele>
        <time>2016-12-06T13:26:16Z</time>
      </trkpt>
      <trkpt lat="45.78299" lon="2.89135">
        <ele>836</ele>
        <time>2016-12-06T13:26:21Z</time>
      </trkpt>
      <trkpt lat="45.78132" lon="2.89153">
        <ele>836.5</ele>
        <time>2016-12-06T13:26:40Z</time>
      </trkpt>
      <trkpt lat="45.77961" lon="2.89254">
        <ele>836.7</ele>
        <time>2016-12-06T13:27:01Z</time>
      </trkpt>
      <trkpt lat="45.7767" lon="2.8947">
        <ele>841.5</ele>
        <time>2016-12-06T13:27:37Z</time>
      </trkpt>
      <trkpt lat="45.77579" lon="2.89476">
        <ele>846.7</ele>
        <time>2016-12-06T13:27:47Z</time>
      </trkpt>
      <trkpt lat="45.77549" lon="2.89539">
        <ele>847.9</ele>
        <time>2016-12-06T13:27:53Z</time>
      </trkpt>
      <trkpt lat="45.77502" lon="2.89578">
        <ele>846.6</ele>
        <time>2016-12-06T13:27:59Z</time>
      </trkpt>
      <trkpt lat="45.77464" lon="2.89611">
        <ele>846.5</ele>
        <time>2016-12-06T13:28:04Z</time>
      </trkpt>
      <trkpt lat="45.7743" lon="2.89637">
        <ele>846</ele>
        <time>2016-12-06T13:28:08Z</time>
      </trkpt>
      <trkpt lat="45.77452" lon="2.89669">
        <ele>847.6</ele>
        <time>2016-12-06T13:28:12Z</time>
      </trkpt>
      <trkpt lat="45.77509" lon="2.89684">
        <ele>849.3</ele>
        <time>2016-12-06T13:28:18Z</time>
      </trkpt>
      <trkpt lat="45.77561" lon="2.89747">
        <ele>849.8</ele>
        <time>2016-12-06T13:28:26Z</time>
      </trkpt>
      <trkpt lat="45.77601" lon="2.8985">
        <ele>852</ele>
        <time>2016-12-06T13:28:35Z</time>
      </trkpt>
      <trkpt lat="45.77619" lon="2.89975">
        <ele>854.6</ele>
        <time>2016-12-06T13:28:45Z</time>
      </trkpt>
      <trkpt lat="45.77669" lon="2.90168">
        <ele>857.7</ele>
        <time>2016-12-06T13:29:01Z</time>
      </trkpt>
      <trkpt lat="45.77687" lon="2.9031">
        <ele>860</ele>
        <time>2016-12-06T13:29:12Z</time>
      </trkpt>
      <trkpt lat="45.77698" lon="2.90513">
        <ele>862.8</ele>
        <time>2016-12-06T13:29:28Z</time>
      </trkpt>
      <trkpt lat="45.77637" lon="2.90721">
        <ele>866.6</ele>
        <time>2016-12-06T13:29:45Z</time>
      </trkpt>
      <trkpt lat="45.77597" lon="2.90731">
        <ele>862.4</ele>
        <time>2016-12-06T13:29:50Z</time>
      </trkpt>
      <trkpt lat="45.7754" lon="2.90699">
        <ele>856.4</ele>
        <time>2016-12-06T13:29:57Z</time>
      </trkpt>
      <trkpt lat="45.7754" lon="2.90731">
        <ele>857.6</ele>
        <time>2016-12-06T13:29:59Z</time>
      </trkpt>
      <trkpt lat="45.77548" lon="2.90791">
        <ele>858.3</ele>
        <time>2016-12-06T13:30:04Z</time>
      </trkpt>
      <trkpt lat="45.77597" lon="2.90879">
        <ele>864.8</ele>
        <time>2016-12-06T13:30:13Z</time>
      </trkpt>
      <trkpt lat="45.77664" lon="2.90921">
        <ele>869.3</ele>
        <time>2016-12-06T13:30:21Z</time>
      </trkpt>
      <trkpt lat="45.77674" lon="2.90991">
        <ele>870.1</ele>
        <time>2016-12-06T13:30:26Z</time>
      </trkpt>
      <trkpt lat="45.77669" lon="2.91141">
        <ele>876.4</ele>
        <time>2016-12-06T13:30:38Z</time>
      </trkpt>
      <trkpt lat="45.77654" lon="2.91225">
        <ele>878.9</ele>
        <time>2016-12-06T13:30:45Z</time>
      </trkpt>
      <trkpt lat="45.77669" lon="2.91342">
        <ele>880.3</ele>
        <time>2016-12-06T13:30:54Z</time>
      </trkpt>
      <trkpt lat="45.77653" lon="2.91443">
        <ele>880.9</ele>
        <time>2016-12-06T13:31:02Z</time>
      </trkpt>
      <trkpt lat="45.77651" lon="2.91508">
        <ele>883.2</ele>
        <time>2016-12-06T13:31:07Z</time>
      </trkpt>
      <trkpt lat="45.77627" lon="2.91485">
        <ele>880.8</ele>
        <time>2016-12-06T13:31:10Z</time>
      </trkpt>
      <trkpt lat="45.77637" lon="2.91532">
        <ele>884.4</ele>
        <time>2016-12-06T13:31:14Z</time>
      </trkpt>
      <trkpt lat="45.77674" lon="2.9159">
        <ele>890.1</ele>
        <time>2016-12-06T13:31:20Z</time>
      </trkpt>
      <trkpt lat="45.77707" lon="2.91666">
        <ele>893.2</ele>
        <time>2016-12-06T13:31:27Z</time>
      </trkpt>
      <trkpt lat="45.77723" lon="2.91737">
        <ele>895.6</ele>
        <time>2016-12-06T13:31:33Z</time>
      </trkpt>
      <trkpt lat="45.77709" lon="2.91844">
        <ele>898.2</ele>
        <time>2016-12-06T13:31:41Z</time>
      </trkpt>
      <trkpt lat="45.77724" lon="2.91972">
        <ele>897.6</ele>
        <time>2016-12-06T13:31:51Z</time>
      </trkpt>
      <trkpt lat="45.77769" lon="2.9213">
        <ele>895.1</ele>
        <time>2016-12-06T13:32:05Z</time>
      </trkpt>
      <trkpt lat="45.77786" lon="2.92179">
        <ele>897</ele>
        <time>2016-12-06T13:32:09Z</time>
      </trkpt>
      <trkpt lat="45.77783" lon="2.923">
        <ele>906.1</ele>
        <time>2016-12-06T13:32:18Z</time>
      </trkpt>
      <trkpt lat="45.77789" lon="2.92403">
        <ele>908</ele>
        <time>2016-12-06T13:32:26Z</time>
      </trkpt>
      <trkpt lat="45.77761" lon="2.92547">
        <ele>912.3</ele>
        <time>2016-12-06T13:32:38Z</time>
      </trkpt>
      <trkpt lat="45.77752" lon="2.92684">
        <ele>916.5</ele>
        <time>2016-12-06T13:32:49Z</time>
      </trkpt>
      <trkpt lat="45.77763" lon="2.92812">
        <ele>920.4</ele>
        <time>2016-12-06T13:32:59Z</time>
      </trkpt>
      <trkpt lat="45.77771" lon="2.92929">
        <ele>925</ele>
        <time>2016-12-06T13:33:08Z</time>
      </trkpt>
      <trkpt lat="45.77782" lon="2.92947">
        <ele>925.8</ele>
        <time>2016-12-06T13:33:10Z</time>
      </trkpt>
      <trkpt lat="45.77789" lon="2.93001">
        <ele>927.5</ele>
        <time>2016-12-06T13:33:14Z</time>
      </trkpt>
      <trkpt lat="45.77769" lon="2.93034">
        <ele>928.7</ele>
        <time>2016-12-06T13:33:17Z</time>
      </trkpt>
      <trkpt lat="45.77701" lon="2.93069">
        <ele>932.9</ele>
        <time>2016-12-06T13:33:25Z</time>
      </trkpt>
      <trkpt lat="45.77654" lon="2.93071">
        <ele>937.1</ele>
        <time>2016-12-06T13:33:31Z</time>
      </trkpt>
      <trkpt lat="45.77618" lon="2.93029">
        <ele>938</ele>
        <time>2016-12-06T13:33:36Z</time>
      </trkpt>
      <trkpt lat="45.77587" lon="2.93011">
        <ele>938.3</ele>
        <time>2016-12-06T13:33:40Z</time>
      </trkpt>
      <trkpt lat="45.77529" lon="2.93064">
        <ele>941.7</ele>
        <time>2016-12-06T13:33:47Z</time>
      </trkpt>
      <trkpt lat="45.77412" lon="2.93161">
        <ele>943</ele>
        <time>2016-12-06T13:34:02Z</time>
      </trkpt>
      <trkpt lat="45.77356" lon="2.9328">
        <ele>941.8</ele>
        <time>2016-12-06T13:34:13Z</time>
      </trkpt>
      <trkpt lat="45.77285" lon="2.93432">
        <ele>941</ele>
        <time>2016-12-06T13:34:28Z</time>
      </trkpt>
      <trkpt lat="45.77311" lon="2.93539">
        <ele>942</ele>
        <time>2016-12-06T13:34:36Z</time>
      </trkpt>
      <trkpt lat="45.77376" lon="2.93601">
        <ele>945.9</ele>
        <time>2016-12-06T13:34:45Z</time>
      </trkpt>
      <trkpt lat="45.77435" lon="2.93675">
        <ele>948.8</ele>
        <time>2016-12-06T13:34:54Z</time>
      </trkpt>
      <trkpt lat="45.77341" lon="2.9373">
        <ele>946.7</ele>
        <time>2016-12-06T13:35:05Z</time>
      </trkpt>
      <trkpt lat="45.77284" lon="2.93737">
        <ele>945.6</ele>
        <time>2016-12-06T13:35:11Z</time>
      </trkpt>
      <trkpt lat="45.77238" lon="2.9378">
        <ele>946.5</ele>
        <time>2016-12-06T13:35:17Z</time>
      </trkpt>
      <trkpt lat="45.77184" lon="2.93776">
        <ele>947</ele>
        <time>2016-12-06T13:35:23Z</time>
      </trkpt>
      <trkpt lat="45.77041" lon="2.93819">
        <ele>952.1</ele>
        <time>2016-12-06T13:35:40Z</time>
      </trkpt>
      <trkpt lat="45.76826" lon="2.938">
        <ele>959.2</ele>
        <time>2016-12-06T13:36:04Z</time>
      </trkpt>
      <trkpt lat="45.76653" lon="2.9394">
        <ele>973.4</ele>
        <time>2016-12-06T13:36:26Z</time>
      </trkpt>
      <trkpt lat="45.76591" lon="2.94038">
        <ele>979.1</ele>
        <time>2016-12-06T13:36:36Z</time>
      </trkpt>
      <trkpt lat="45.76537" lon="2.94178">
        <ele>986.9</ele>
        <time>2016-12-06T13:36:49Z</time>
      </trkpt>
      <trkpt lat="45.76459" lon="2.94295">
        <ele>995.1</ele>
        <time>2016-12-06T13:37:01Z</time>
      </trkpt>
      <trkpt lat="45.7643" lon="2.94458">
        <ele>1002.1</ele>
        <time>2016-12-06T13:37:14Z</time>
      </trkpt>
      <trkpt lat="45.76438" lon="2.94525">
        <ele>1004.1</ele>
        <time>2016-12-06T13:37:19Z</time>
      </trkpt>
      <trkpt lat="45.76387" lon="2.9463">
        <ele>1008.4</ele>
        <time>2016-12-06T13:37:29Z</time>
      </trkpt>
      <trkpt lat="45.76351" lon="2.94642">
        <ele>1012.4</ele>
        <time>2016-12-06T13:37:33Z</time>
      </trkpt>
      <trkpt lat="45.76333" lon="2.94599">
        <ele>1015.6</ele>
        <time>2016-12-06T13:37:37Z</time>
      </trkpt>
      <trkpt lat="45.76314" lon="2.94458">
        <ele>1012.2</ele>
        <time>2016-12-06T13:37:48Z</time>
      </trkpt>
      <trkpt lat="45.76225" lon="2.94275">
        <ele>1004</ele>
        <time>2016-12-06T13:38:06Z</time>
      </trkpt>
      <trkpt lat="45.76133" lon="2.94108">
        <ele>996.2</ele>
        <time>2016-12-06T13:38:22Z</time>
      </trkpt>
      <trkpt lat="45.76044" lon="2.93983">
        <ele>991.8</ele>
        <time>2016-12-06T13:38:36Z</time>
      </trkpt>
      <trkpt lat="45.75945" lon="2.93917">
        <ele>989.4</ele>
        <time>2016-12-06T13:38:48Z</time>
      </trkpt>
      <trkpt lat="45.75802" lon="2.93889">
        <ele>989</ele>
        <time>2016-12-06T13:39:04Z</time>
      </trkpt>
      <trkpt lat="45.7567" lon="2.93909">
        <ele>990.1</ele>
        <time>2016-12-06T13:39:19Z</time>
      </trkpt>
      <trkpt lat="45.75655" lon="2.93921">
        <ele>990</ele>
        <time>2016-12-06T13:39:21Z</time>
      </trkpt>
      <trkpt lat="45.75704" lon="2.94046">
        <ele>993.5</ele>
        <time>2016-12-06T13:39:32Z</time>
      </trkpt>
      <trkpt lat="45.75706" lon="2.94062">
        <ele>994.6</ele>
        <time>2016-12-06T13:39:33Z</time>
      </trkpt>
      <trkpt lat="45.75731" lon="2.94132">
        <ele>997.6</ele>
        <time>2016-12-06T13:39:39Z</time>
      </trkpt>
      <trkpt lat="45.75535" lon="2.94225">
        <ele>1029.3</ele>
        <time>2016-12-06T13:40:03Z</time>
      </trkpt>
      <trkpt lat="45.7535" lon="2.94238">
        <ele>1028.1</ele>
        <time>2016-12-06T13:40:23Z</time>
      </trkpt>
      <trkpt lat="45.75278" lon="2.94251">
        <ele>1025.7</ele>
        <time>2016-12-06T13:40:31Z</time>
      </trkpt>
      <trkpt lat="45.75219" lon="2.94277">
        <ele>1028.8</ele>
        <time>2016-12-06T13:40:38Z</time>
      </trkpt>
      <trkpt lat="45.75186" lon="2.94262">
        <ele>1031.3</ele>
        <time>2016-12-06T13:40:42Z</time>
      </trkpt>
      <trkpt lat="45.75113" lon="2.94132">
        <ele>1028.3</ele>
        <time>2016-12-06T13:40:55Z</time>
      </trkpt>
      <trkpt lat="45.7508" lon="2.94124">
        <ele>1027.6</ele>
        <time>2016-12-06T13:40:59Z</time>
      </trkpt>
      <trkpt lat="45.75023" lon="2.94155">
        <ele>1034.2</ele>
        <time>2016-12-06T13:41:06Z</time>
      </trkpt>
      <trkpt lat="45.74958" lon="2.94173">
        <ele>1038</ele>
        <time>2016-12-06T13:41:13Z</time>
      </trkpt>
      <trkpt lat="45.74728" lon="2.94199">
        <ele>1042.9</ele>
        <time>2016-12-06T13:41:39Z</time>
      </trkpt>
      <trkpt lat="45.74673" lon="2.94189">
        <ele>1040.1</ele>
        <time>2016-12-06T13:41:45Z</time>
      </trkpt>
      <trkpt lat="45.74613" lon="2.94194">
        <ele>1039.2</ele>
        <time>2016-12-06T13:41:51Z</time>
      </trkpt>
      <trkpt lat="45.74574" lon="2.9422">
        <ele>1040.5</ele>
        <time>2016-12-06T13:41:56Z</time>
      </trkpt>
      <trkpt lat="45.74559" lon="2.94238">
        <ele>1041.5</ele>
        <time>2016-12-06T13:41:58Z</time>
      </trkpt>
      <trkpt lat="45.74425" lon="2.9434">
        <ele>1043.1</ele>
        <time>2016-12-06T13:42:15Z</time>
      </trkpt>
      <trkpt lat="45.74355" lon="2.94431">
        <ele>1047.1</ele>
        <time>2016-12-06T13:42:26Z</time>
      </trkpt>
      <trkpt lat="45.74259" lon="2.94469">
        <ele>1046.9</ele>
        <time>2016-12-06T13:42:37Z</time>
      </trkpt>
      <trkpt lat="45.74225" lon="2.94729">
        <ele>1064.4</ele>
        <time>2016-12-06T13:42:57Z</time>
      </trkpt>
      <trkpt lat="45.74209" lon="2.94916">
        <ele>1065.4</ele>
        <time>2016-12-06T13:43:12Z</time>
      </trkpt>
      <trkpt lat="45.7422" lon="2.95072">
        <ele>1057.6</ele>
        <time>2016-12-06T13:43:24Z</time>
      </trkpt>
      <trkpt lat="45.74254" lon="2.95207">
        <ele>1046.6</ele>
        <time>2016-12-06T13:43:35Z</time>
      </trkpt>
      <trkpt lat="45.74331" lon="2.95389">
        <ele>1031.6</ele>
        <time>2016-12-06T13:43:52Z</time>
      </trkpt>
      <trkpt lat="45.74401" lon="2.95529">
        <ele>1020.2</ele>
        <time>2016-12-06T13:44:05Z</time>
      </trkpt>
      <trkpt lat="45.74452" lon="2.95571">
        <ele>1019.1</ele>
        <time>2016-12-06T13:44:12Z</time>
      </trkpt>
      <trkpt lat="45.74482" lon="2.95636">
        <ele>1014.3</ele>
        <time>2016-12-06T13:44:18Z</time>
      </trkpt>
      <trkpt lat="45.74572" lon="2.95771">
        <ele>1001.3</ele>
        <time>2016-12-06T13:44:33Z</time>
      </trkpt>
      <trkpt lat="45.7459" lon="2.95825">
        <ele>996.5</ele>
        <time>2016-12-06T13:44:37Z</time>
      </trkpt>
      <trkpt lat="45.74617" lon="2.95867">
        <ele>994.2</ele>
        <time>2016-12-06T13:44:42Z</time>
      </trkpt>
      <trkpt lat="45.74726" lon="2.95867">
        <ele>1000.1</ele>
        <time>2016-12-06T13:44:54Z</time>
      </trkpt>
      <trkpt lat="45.74868" lon="2.96002">
        <ele>986.2</ele>
        <time>2016-12-06T13:45:13Z</time>
      </trkpt>
      <trkpt lat="45.74874" lon="2.96095">
        <ele>979.1</ele>
        <time>2016-12-06T13:45:20Z</time>
      </trkpt>
      <trkpt lat="45.74843" lon="2.96163">
        <ele>976.6</ele>
        <time>2016-12-06T13:45:26Z</time>
      </trkpt>
      <trkpt lat="45.74685" lon="2.9623">
        <ele>976.2</ele>
        <time>2016-12-06T13:45:45Z</time>
      </trkpt>
      <trkpt lat="45.74514" lon="2.96251">
        <ele>980.7</ele>
        <time>2016-12-06T13:46:04Z</time>
      </trkpt>
      <trkpt lat="45.74239" lon="2.96404">
        <ele>987.9</ele>
        <time>2016-12-06T13:46:37Z</time>
      </trkpt>
      <trkpt lat="45.7418" lon="2.96429">
        <ele>984.9</ele>
        <time>2016-12-06T13:46:44Z</time>
      </trkpt>
      <trkpt lat="45.74169" lon="2.9623">
        <ele>992.7</ele>
        <time>2016-12-06T13:46:59Z</time>
      </trkpt>
      <trkpt lat="45.74165" lon="2.96158">
        <ele>998</ele>
        <time>2016-12-06T13:47:05Z</time>
      </trkpt>
      <trkpt lat="45.74019" lon="2.96242">
        <ele>990.7</ele>
        <time>2016-12-06T13:47:22Z</time>
      </trkpt>
      <trkpt lat="45.73882" lon="2.96376">
        <ele>994.9</ele>
        <time>2016-12-06T13:47:41Z</time>
      </trkpt>
      <trkpt lat="45.73831" lon="2.96431">
        <ele>995.8</ele>
        <time>2016-12-06T13:47:48Z</time>
      </trkpt>
      <trkpt lat="45.73724" lon="2.96501">
        <ele>995.5</ele>
        <time>2016-12-06T13:48:01Z</time>
      </trkpt>
      <trkpt lat="45.73636" lon="2.96595">
        <ele>993.1</ele>
        <time>2016-12-06T13:48:13Z</time>
      </trkpt>
      <trkpt lat="45.73562" lon="2.9668">
        <ele>991</ele>
        <time>2016-12-06T13:48:24Z</time>
      </trkpt>
      <trkpt lat="45.73469" lon="2.96831">
        <ele>986</ele>
        <time>2016-12-06T13:48:39Z</time>
      </trkpt>
      <trkpt lat="45.73325" lon="2.9699">
        <ele>981</ele>
        <time>2016-12-06T13:48:59Z</time>
      </trkpt>
      <trkpt lat="45.73271" lon="2.97057">
        <ele>979.5</ele>
        <time>2016-12-06T13:49:07Z</time>
      </trkpt>
      <trkpt lat="45.73224" lon="2.97091">
        <ele>978.1</ele>
        <time>2016-12-06T13:49:13Z</time>
      </trkpt>
      <trkpt lat="45.73241" lon="2.97131">
        <ele>977.9</ele>
        <time>2016-12-06T13:49:17Z</time>
      </trkpt>
      <trkpt lat="45.73248" lon="2.97147">
        <ele>978.1</ele>
        <time>2016-12-06T13:49:18Z</time>
      </trkpt>
      <trkpt lat="45.73265" lon="2.97192">
        <ele>977.9</ele>
        <time>2016-12-06T13:49:22Z</time>
      </trkpt>
      <trkpt lat="45.73269" lon="2.97286">
        <ele>980.8</ele>
        <time>2016-12-06T13:49:30Z</time>
      </trkpt>
      <trkpt lat="45.73266" lon="2.97325">
        <ele>982</ele>
        <time>2016-12-06T13:49:33Z</time>
      </trkpt>
      <trkpt lat="45.73237" lon="2.97355">
        <ele>980.5</ele>
        <time>2016-12-06T13:49:37Z</time>
      </trkpt>
      <trkpt lat="45.73222" lon="2.97376">
        <ele>978.9</ele>
        <time>2016-12-06T13:49:39Z</time>
      </trkpt>
      <trkpt lat="45.73222" lon="2.974">
        <ele>978.9</ele>
        <time>2016-12-06T13:49:41Z</time>
      </trkpt>
      <trkpt lat="45.73273" lon="2.97498">
        <ele>986.4</ele>
        <time>2016-12-06T13:49:50Z</time>
      </trkpt>
      <trkpt lat="45.73294" lon="2.97582">
        <ele>989.6</ele>
        <time>2016-12-06T13:49:57Z</time>
      </trkpt>
      <trkpt lat="45.73312" lon="2.97706">
        <ele>992.6</ele>
        <time>2016-12-06T13:50:07Z</time>
      </trkpt>
      <trkpt lat="45.73318" lon="2.97774">
        <ele>993.2</ele>
        <time>2016-12-06T13:50:12Z</time>
      </trkpt>
      <trkpt lat="45.73348" lon="2.97906">
        <ele>993.2</ele>
        <time>2016-12-06T13:50:23Z</time>
      </trkpt>
      <trkpt lat="45.73395" lon="2.98086">
        <ele>992.2</ele>
        <time>2016-12-06T13:50:38Z</time>
      </trkpt>
      <trkpt lat="45.73456" lon="2.98345">
        <ele>987</ele>
        <time>2016-12-06T13:50:59Z</time>
      </trkpt>
      <trkpt lat="45.73474" lon="2.98387">
        <ele>988</ele>
        <time>2016-12-06T13:51:03Z</time>
      </trkpt>
      <trkpt lat="45.7349" lon="2.9841">
        <ele>989.5</ele>
        <time>2016-12-06T13:51:06Z</time>
      </trkpt>
      <trkpt lat="45.73522" lon="2.98423">
        <ele>993.1</ele>
        <time>2016-12-06T13:51:09Z</time>
      </trkpt>
      <trkpt lat="45.73522" lon="2.9846">
        <ele>993</ele>
        <time>2016-12-06T13:51:12Z</time>
      </trkpt>
      <trkpt lat="45.73504" lon="2.98537">
        <ele>992.9</ele>
        <time>2016-12-06T13:51:18Z</time>
      </trkpt>
      <trkpt lat="45.73458" lon="2.98531">
        <ele>988.7</ele>
        <time>2016-12-06T13:51:24Z</time>
      </trkpt>
      <trkpt lat="45.7345" lon="2.98543">
        <ele>988.7</ele>
        <time>2016-12-06T13:51:25Z</time>
      </trkpt>
      <trkpt lat="45.73424" lon="2.98792">
        <ele>993.1</ele>
        <time>2016-12-06T13:51:44Z</time>
      </trkpt>
      <trkpt lat="45.73389" lon="2.99096">
        <ele>985</ele>
        <time>2016-12-06T13:52:08Z</time>
      </trkpt>
      <trkpt lat="45.73355" lon="2.99205">
        <ele>982.2</ele>
        <time>2016-12-06T13:52:18Z</time>
      </trkpt>
      <trkpt lat="45.73319" lon="2.99314">
        <ele>982.5</ele>
        <time>2016-12-06T13:52:27Z</time>
      </trkpt>
      <trkpt lat="45.73291" lon="2.99353">
        <ele>983.1</ele>
        <time>2016-12-06T13:52:31Z</time>
      </trkpt>
      <trkpt lat="45.73237" lon="2.99405">
        <ele>986.3</ele>
        <time>2016-12-06T13:52:39Z</time>
      </trkpt>
      <trkpt lat="45.73251" lon="2.99435">
        <ele>988.1</ele>
        <time>2016-12-06T13:52:41Z</time>
      </trkpt>
      <trkpt lat="45.73244" lon="2.99458">
        <ele>990</ele>
        <time>2016-12-06T13:52:43Z</time>
      </trkpt>
      <trkpt lat="45.73212" lon="2.99515">
        <ele>991.9</ele>
        <time>2016-12-06T13:52:49Z</time>
      </trkpt>
      <trkpt lat="45.73194" lon="2.99527">
        <ele>991.8</ele>
        <time>2016-12-06T13:52:51Z</time>
      </trkpt>
      <trkpt lat="45.73181" lon="2.99567">
        <ele>991.2</ele>
        <time>2016-12-06T13:52:55Z</time>
      </trkpt>
      <trkpt lat="45.73141" lon="2.99638">
        <ele>988.7</ele>
        <time>2016-12-06T13:53:02Z</time>
      </trkpt>
      <trkpt lat="45.73104" lon="2.99697">
        <ele>986.3</ele>
        <time>2016-12-06T13:53:08Z</time>
      </trkpt>
      <trkpt lat="45.73034" lon="2.99752">
        <ele>985.3</ele>
        <time>2016-12-06T13:53:17Z</time>
      </trkpt>
      <trkpt lat="45.72983" lon="2.99777">
        <ele>985.9</ele>
        <time>2016-12-06T13:53:23Z</time>
      </trkpt>
      <trkpt lat="45.72981" lon="2.99797">
        <ele>987.6</ele>
        <time>2016-12-06T13:53:24Z</time>
      </trkpt>
      <trkpt lat="45.7299" lon="2.99832">
        <ele>990.6</ele>
        <time>2016-12-06T13:53:27Z</time>
      </trkpt>
      <trkpt lat="45.73035" lon="2.999">
        <ele>986.3</ele>
        <time>2016-12-06T13:53:35Z</time>
      </trkpt>
      <trkpt lat="45.73025" lon="2.99904">
        <ele>987.9</ele>
        <time>2016-12-06T13:53:36Z</time>
      </trkpt>
      <trkpt lat="45.7299" lon="2.99901">
        <ele>994.3</ele>
        <time>2016-12-06T13:53:40Z</time>
      </trkpt>
      <trkpt lat="45.72973" lon="2.99931">
        <ele>997.3</ele>
        <time>2016-12-06T13:53:43Z</time>
      </trkpt>
      <trkpt lat="45.72946" lon="2.99925">
        <ele>1000.2</ele>
        <time>2016-12-06T13:53:46Z</time>
      </trkpt>
      <trkpt lat="45.72858" lon="2.99875">
        <ele>990.5</ele>
        <time>2016-12-06T13:53:56Z</time>
      </trkpt>
      <trkpt lat="45.72819" lon="2.9987">
        <ele>984.7</ele>
        <time>2016-12-06T13:54:01Z</time>
      </trkpt>
      <trkpt lat="45.72781" lon="2.99912">
        <ele>982.7</ele>
        <time>2016-12-06T13:54:06Z</time>
      </trkpt>
      <trkpt lat="45.72741" lon="2.9999">
        <ele>980</ele>
        <time>2016-12-06T13:54:14Z</time>
      </trkpt>
      <trkpt lat="45.72684" lon="3.0005">
        <ele>969.4</ele>
        <time>2016-12-06T13:54:22Z</time>
      </trkpt>
      <trkpt lat="45.72603" lon="3.00003">
        <ele>967.3</ele>
        <time>2016-12-06T13:54:31Z</time>
      </trkpt>
      <trkpt lat="45.72583" lon="3.00126">
        <ele>957.8</ele>
        <time>2016-12-06T13:54:41Z</time>
      </trkpt>
      <trkpt lat="45.72541" lon="3.00163">
        <ele>952.2</ele>
        <time>2016-12-06T13:54:47Z</time>
      </trkpt>
      <trkpt lat="45.72508" lon="3.00223">
        <ele>947.7</ele>
        <time>2016-12-06T13:54:53Z</time>
      </trkpt>
      <trkpt lat="45.72475" lon="3.00311">
        <ele>941.6</ele>
        <time>2016-12-06T13:55:00Z</time>
      </trkpt>
      <trkpt lat="45.72452" lon="3.00348">
        <ele>938.6</ele>
        <time>2016-12-06T13:55:04Z</time>
      </trkpt>
      <trkpt lat="45.72442" lon="3.00375">
        <ele>935.7</ele>
        <time>2016-12-06T13:55:07Z</time>
      </trkpt>
      <trkpt lat="45.72329" lon="3.00471">
        <ele>922.5</ele>
        <time>2016-12-06T13:55:21Z</time>
      </trkpt>
      <trkpt lat="45.7229" lon="3.00527">
        <ele>916.6</ele>
        <time>2016-12-06T13:55:27Z</time>
      </trkpt>
      <trkpt lat="45.72239" lon="3.00656">
        <ele>908.7</ele>
        <time>2016-12-06T13:55:39Z</time>
      </trkpt>
      <trkpt lat="45.72154" lon="3.00855">
        <ele>900.5</ele>
        <time>2016-12-06T13:55:57Z</time>
      </trkpt>
      <trkpt lat="45.72118" lon="3.01005">
        <ele>895.2</ele>
        <time>2016-12-06T13:56:09Z</time>
      </trkpt>
      <trkpt lat="45.72073" lon="3.01081">
        <ele>893.5</ele>
        <time>2016-12-06T13:56:17Z</time>
      </trkpt>
      <trkpt lat="45.72033" lon="3.01114">
        <ele>894.5</ele>
        <time>2016-12-06T13:56:22Z</time>
      </trkpt>
      <trkpt lat="45.7203" lon="3.01147">
        <ele>894.6</ele>
        <time>2016-12-06T13:56:25Z</time>
      </trkpt>
      <trkpt lat="45.72029" lon="3.01221">
        <ele>893.4</ele>
        <time>2016-12-06T13:56:31Z</time>
      </trkpt>
      <trkpt lat="45.71995" lon="3.01354">
        <ele>890.5</ele>
        <time>2016-12-06T13:56:42Z</time>
      </trkpt>
      <trkpt lat="45.71956" lon="3.01394">
        <ele>891.5</ele>
        <time>2016-12-06T13:56:47Z</time>
      </trkpt>
      <trkpt lat="45.71932" lon="3.01437">
        <ele>891.9</ele>
        <time>2016-12-06T13:56:51Z</time>
      </trkpt>
      <trkpt lat="45.7193" lon="3.01521">
        <ele>889.9</ele>
        <time>2016-12-06T13:56:58Z</time>
      </trkpt>
      <trkpt lat="45.71924" lon="3.01603">
        <ele>888.1</ele>
        <time>2016-12-06T13:57:04Z</time>
      </trkpt>
      <trkpt lat="45.71932" lon="3.0167">
        <ele>886.4</ele>
        <time>2016-12-06T13:57:09Z</time>
      </trkpt>
      <trkpt lat="45.71922" lon="3.01607">
        <ele>888.1</ele>
        <time>2016-12-06T13:57:14Z</time>
      </trkpt>
      <trkpt lat="45.71926" lon="3.01558">
        <ele>889</ele>
        <time>2016-12-06T13:57:18Z</time>
      </trkpt>
      <trkpt lat="45.71933" lon="3.01485">
        <ele>891.1</ele>
        <time>2016-12-06T13:57:24Z</time>
      </trkpt>
      <trkpt lat="45.71929" lon="3.01432">
        <ele>892.2</ele>
        <time>2016-12-06T13:57:28Z</time>
      </trkpt>
      <trkpt lat="45.71918" lon="3.01334">
        <ele>894.9</ele>
        <time>2016-12-06T13:57:36Z</time>
      </trkpt>
      <trkpt lat="45.71934" lon="3.01212">
        <ele>896.2</ele>
        <time>2016-12-06T13:57:45Z</time>
      </trkpt>
      <trkpt lat="45.71883" lon="3.01032">
        <ele>900.6</ele>
        <time>2016-12-06T13:58:00Z</time>
      </trkpt>
      <trkpt lat="45.71848" lon="3.00939">
        <ele>901.4</ele>
        <time>2016-12-06T13:58:09Z</time>
      </trkpt>
      <trkpt lat="45.71822" lon="3.00863">
        <ele>902.9</ele>
        <time>2016-12-06T13:58:15Z</time>
      </trkpt>
      <trkpt lat="45.7181" lon="3.00778">
        <ele>902.7</ele>
        <time>2016-12-06T13:58:22Z</time>
      </trkpt>
      <trkpt lat="45.71817" lon="3.00606">
        <ele>902.3</ele>
        <time>2016-12-06T13:58:35Z</time>
      </trkpt>
      <trkpt lat="45.71833" lon="3.00567">
        <ele>901.4</ele>
        <time>2016-12-06T13:58:39Z</time>
      </trkpt>
      <trkpt lat="45.71825" lon="3.0051">
        <ele>901.9</ele>
        <time>2016-12-06T13:58:43Z</time>
      </trkpt>
      <trkpt lat="45.71796" lon="3.00432">
        <ele>897.4</ele>
        <time>2016-12-06T13:58:50Z</time>
      </trkpt>
      <trkpt lat="45.71782" lon="3.00374">
        <ele>895.6</ele>
        <time>2016-12-06T13:58:55Z</time>
      </trkpt>
      <trkpt lat="45.71785" lon="3.00339">
        <ele>894.8</ele>
        <time>2016-12-06T13:58:58Z</time>
      </trkpt>
      <trkpt lat="45.71742" lon="3.00241">
        <ele>888.5</ele>
        <time>2016-12-06T13:59:07Z</time>
      </trkpt>
      <trkpt lat="45.71723" lon="3.0005">
        <ele>875</ele>
        <time>2016-12-06T13:59:22Z</time>
      </trkpt>
      <trkpt lat="45.71701" lon="2.99945">
        <ele>869.6</ele>
        <time>2016-12-06T13:59:30Z</time>
      </trkpt>
      <trkpt lat="45.71707" lon="2.99793">
        <ele>866.2</ele>
        <time>2016-12-06T13:59:42Z</time>
      </trkpt>
      <trkpt lat="45.71726" lon="2.99738">
        <ele>865.1</ele>
        <time>2016-12-06T13:59:47Z</time>
      </trkpt>
      <trkpt lat="45.71742" lon="2.99586">
        <ele>857.7</ele>
        <time>2016-12-06T13:59:59Z</time>
      </trkpt>
      <trkpt lat="45.71796" lon="2.99442">
        <ele>857</ele>
        <time>2016-12-06T14:00:12Z</time>
      </trkpt>
      <trkpt lat="45.71828" lon="2.9929">
        <ele>861.2</ele>
        <time>2016-12-06T14:00:24Z</time>
      </trkpt>
      <trkpt lat="45.7182" lon="2.99205">
        <ele>866.4</ele>
        <time>2016-12-06T14:00:31Z</time>
      </trkpt>
      <trkpt lat="45.71763" lon="2.99041">
        <ele>880.5</ele>
        <time>2016-12-06T14:00:45Z</time>
      </trkpt>
      <trkpt lat="45.71731" lon="2.98893">
        <ele>886.1</ele>
        <time>2016-12-06T14:00:57Z</time>
      </trkpt>
      <trkpt lat="45.71712" lon="2.98694">
        <ele>893.5</ele>
        <time>2016-12-06T14:01:13Z</time>
      </trkpt>
      <trkpt lat="45.71709" lon="2.98511">
        <ele>902.1</ele>
        <time>2016-12-06T14:01:27Z</time>
      </trkpt>
      <trkpt lat="45.71704" lon="2.98308">
        <ele>911</ele>
        <time>2016-12-06T14:01:43Z</time>
      </trkpt>
      <trkpt lat="45.71722" lon="2.98155">
        <ele>915</ele>
        <time>2016-12-06T14:01:55Z</time>
      </trkpt>
      <trkpt lat="45.71637" lon="2.98238">
        <ele>913.7</ele>
        <time>2016-12-06T14:02:06Z</time>
      </trkpt>
      <trkpt lat="45.7158" lon="2.98316">
        <ele>913.8</ele>
        <time>2016-12-06T14:02:15Z</time>
      </trkpt>
      <trkpt lat="45.71532" lon="2.98355">
        <ele>914</ele>
        <time>2016-12-06T14:02:21Z</time>
      </trkpt>
      <trkpt lat="45.71483" lon="2.98484">
        <ele>908.4</ele>
        <time>2016-12-06T14:02:32Z</time>
      </trkpt>
      <trkpt lat="45.71432" lon="2.98577">
        <ele>906.9</ele>
        <time>2016-12-06T14:02:42Z</time>
      </trkpt>
      <trkpt lat="45.71383" lon="2.98628">
        <ele>906.6</ele>
        <time>2016-12-06T14:02:48Z</time>
      </trkpt>
      <trkpt lat="45.71338" lon="2.98686">
        <ele>905.8</ele>
        <time>2016-12-06T14:02:55Z</time>
      </trkpt>
      <trkpt lat="45.71327" lon="2.98768">
        <ele>901.6</ele>
        <time>2016-12-06T14:03:02Z</time>
      </trkpt>
      <trkpt lat="45.71286" lon="2.98811">
        <ele>900.1</ele>
        <time>2016-12-06T14:03:07Z</time>
      </trkpt>
      <trkpt lat="45.71249" lon="2.98963">
        <ele>890.1</ele>
        <time>2016-12-06T14:03:20Z</time>
      </trkpt>
      <trkpt lat="45.71165" lon="2.9906">
        <ele>884.9</ele>
        <time>2016-12-06T14:03:32Z</time>
      </trkpt>
      <trkpt lat="45.71108" lon="2.9915">
        <ele>886.7</ele>
        <time>2016-12-06T14:03:41Z</time>
      </trkpt>
      <trkpt lat="45.71014" lon="2.9931">
        <ele>883.8</ele>
        <time>2016-12-06T14:03:57Z</time>
      </trkpt>
      <trkpt lat="45.70936" lon="2.99516">
        <ele>866.7</ele>
        <time>2016-12-06T14:04:16Z</time>
      </trkpt>
      <trkpt lat="45.70861" lon="2.99563">
        <ele>865.9</ele>
        <time>2016-12-06T14:04:25Z</time>
      </trkpt>
      <trkpt lat="45.70788" lon="2.99711">
        <ele>863.4</ele>
        <time>2016-12-06T14:04:39Z</time>
      </trkpt>
      <trkpt lat="45.70645" lon="2.99894">
        <ele>861.1</ele>
        <time>2016-12-06T14:05:00Z</time>
      </trkpt>
      <trkpt lat="45.70629" lon="2.99904">
        <ele>861.7</ele>
        <time>2016-12-06T14:05:02Z</time>
      </trkpt>
      <trkpt lat="45.70603" lon="2.99831">
        <ele>862.3</ele>
        <time>2016-12-06T14:05:08Z</time>
      </trkpt>
      <trkpt lat="45.70572" lon="2.9982">
        <ele>865.5</ele>
        <time>2016-12-06T14:05:12Z</time>
      </trkpt>
      <trkpt lat="45.70555" lon="2.99775">
        <ele>867.2</ele>
        <time>2016-12-06T14:05:16Z</time>
      </trkpt>
      <trkpt lat="45.70533" lon="2.9975">
        <ele>870.7</ele>
        <time>2016-12-06T14:05:19Z</time>
      </trkpt>
      <trkpt lat="45.70529" lon="2.99598">
        <ele>876.2</ele>
        <time>2016-12-06T14:05:31Z</time>
      </trkpt>
      <trkpt lat="45.70509" lon="2.99539">
        <ele>882.4</ele>
        <time>2016-12-06T14:05:36Z</time>
      </trkpt>
      <trkpt lat="45.70491" lon="2.99446">
        <ele>884.1</ele>
        <time>2016-12-06T14:05:44Z</time>
      </trkpt>
      <trkpt lat="45.70479" lon="2.9941">
        <ele>887</ele>
        <time>2016-12-06T14:05:47Z</time>
      </trkpt>
      <trkpt lat="45.70452" lon="2.9944">
        <ele>886.1</ele>
        <time>2016-12-06T14:05:50Z</time>
      </trkpt>
      <trkpt lat="45.7045" lon="2.99402">
        <ele>889.4</ele>
        <time>2016-12-06T14:05:53Z</time>
      </trkpt>
      <trkpt lat="45.70447" lon="2.99308">
        <ele>898.7</ele>
        <time>2016-12-06T14:06:01Z</time>
      </trkpt>
      <trkpt lat="45.70447" lon="2.9916">
        <ele>904.6</ele>
        <time>2016-12-06T14:06:12Z</time>
      </trkpt>
      <trkpt lat="45.70436" lon="2.99073">
        <ele>906.4</ele>
        <time>2016-12-06T14:06:19Z</time>
      </trkpt>
      <trkpt lat="45.704" lon="2.98559">
        <ele>919.9</ele>
        <time>2016-12-06T14:06:59Z</time>
      </trkpt>
      <trkpt lat="45.70382" lon="2.9847">
        <ele>921</ele>
        <time>2016-12-06T14:07:06Z</time>
      </trkpt>
      <trkpt lat="45.70381" lon="2.98343">
        <ele>923</ele>
        <time>2016-12-06T14:07:16Z</time>
      </trkpt>
      <trkpt lat="45.70364" lon="2.98143">
        <ele>921.8</ele>
        <time>2016-12-06T14:07:32Z</time>
      </trkpt>
      <trkpt lat="45.70325" lon="2.98013">
        <ele>918.5</ele>
        <time>2016-12-06T14:07:43Z</time>
      </trkpt>
      <trkpt lat="45.70319" lon="2.97912">
        <ele>917.1</ele>
        <time>2016-12-06T14:07:51Z</time>
      </trkpt>
      <trkpt lat="45.70341" lon="2.97712">
        <ele>917.7</ele>
        <time>2016-12-06T14:08:07Z</time>
      </trkpt>
      <trkpt lat="45.70323" lon="2.97517">
        <ele>934.7</ele>
        <time>2016-12-06T14:08:22Z</time>
      </trkpt>
      <trkpt lat="45.70328" lon="2.97415">
        <ele>943.4</ele>
        <time>2016-12-06T14:08:30Z</time>
      </trkpt>
      <trkpt lat="45.70381" lon="2.97335">
        <ele>951.8</ele>
        <time>2016-12-06T14:08:38Z</time>
      </trkpt>
      <trkpt lat="45.70391" lon="2.97257">
        <ele>960.2</ele>
        <time>2016-12-06T14:08:45Z</time>
      </trkpt>
      <trkpt lat="45.70377" lon="2.97218">
        <ele>963.9</ele>
        <time>2016-12-06T14:08:48Z</time>
      </trkpt>
      <trkpt lat="45.70075" lon="2.96958">
        <ele>976.4</ele>
        <time>2016-12-06T14:09:27Z</time>
      </trkpt>
      <trkpt lat="45.70059" lon="2.96984">
        <ele>977.1</ele>
        <time>2016-12-06T14:09:30Z</time>
      </trkpt>
      <trkpt lat="45.69951" lon="2.96987">
        <ele>977.6</ele>
        <time>2016-12-06T14:09:42Z</time>
      </trkpt>
      <trkpt lat="45.6982" lon="2.96898">
        <ele>975</ele>
        <time>2016-12-06T14:09:58Z</time>
      </trkpt>
      <trkpt lat="45.69691" lon="2.96893">
        <ele>978</ele>
        <time>2016-12-06T14:10:12Z</time>
      </trkpt>
      <trkpt lat="45.6963" lon="2.96914">
        <ele>978.2</ele>
        <time>2016-12-06T14:10:19Z</time>
      </trkpt>
      <trkpt lat="45.69584" lon="2.9695">
        <ele>977.9</ele>
        <time>2016-12-06T14:10:25Z</time>
      </trkpt>
      <trkpt lat="45.69548" lon="2.96976">
        <ele>974.4</ele>
        <time>2016-12-06T14:10:30Z</time>
      </trkpt>
      <trkpt lat="45.69526" lon="2.96968">
        <ele>975</ele>
        <time>2016-12-06T14:10:32Z</time>
      </trkpt>
      <trkpt lat="45.69524" lon="2.96909">
        <ele>975.3</ele>
        <time>2016-12-06T14:10:37Z</time>
      </trkpt>
      <trkpt lat="45.69551" lon="2.96838">
        <ele>969.5</ele>
        <time>2016-12-06T14:10:43Z</time>
      </trkpt>
      <trkpt lat="45.69553" lon="2.96794">
        <ele>964.9</ele>
        <time>2016-12-06T14:10:47Z</time>
      </trkpt>
      <trkpt lat="45.69526" lon="2.96753">
        <ele>960.8</ele>
        <time>2016-12-06T14:10:51Z</time>
      </trkpt>
      <trkpt lat="45.69449" lon="2.96703">
        <ele>959.5</ele>
        <time>2016-12-06T14:11:00Z</time>
      </trkpt>
      <trkpt lat="45.69363" lon="2.96672">
        <ele>959.3</ele>
        <time>2016-12-06T14:11:10Z</time>
      </trkpt>
      <trkpt lat="45.69318" lon="2.9667">
        <ele>962.3</ele>
        <time>2016-12-06T14:11:15Z</time>
      </trkpt>
      <trkpt lat="45.69264" lon="2.96693">
        <ele>967.8</ele>
        <time>2016-12-06T14:11:22Z</time>
      </trkpt>
      <trkpt lat="45.69239" lon="2.96696">
        <ele>968.4</ele>
        <time>2016-12-06T14:11:24Z</time>
      </trkpt>
      <trkpt lat="45.69208" lon="2.96659">
        <ele>968.9</ele>
        <time>2016-12-06T14:11:29Z</time>
      </trkpt>
      <trkpt lat="45.69109" lon="2.96568">
        <ele>969</ele>
        <time>2016-12-06T14:11:42Z</time>
      </trkpt>
      <trkpt lat="45.69064" lon="2.96542">
        <ele>970</ele>
        <time>2016-12-06T14:11:47Z</time>
      </trkpt>
      <trkpt lat="45.68987" lon="2.96545">
        <ele>965.5</ele>
        <time>2016-12-06T14:11:56Z</time>
      </trkpt>
      <trkpt lat="45.68901" lon="2.96641">
        <ele>959.7</ele>
        <time>2016-12-06T14:12:08Z</time>
      </trkpt>
      <trkpt lat="45.68863" lon="2.96664">
        <ele>959.6</ele>
        <time>2016-12-06T14:12:13Z</time>
      </trkpt>
      <trkpt lat="45.68807" lon="2.96677">
        <ele>956.9</ele>
        <time>2016-12-06T14:12:19Z</time>
      </trkpt>
      <trkpt lat="45.68745" lon="2.96716">
        <ele>951.1</ele>
        <time>2016-12-06T14:12:27Z</time>
      </trkpt>
      <trkpt lat="45.68651" lon="2.96747">
        <ele>949.1</ele>
        <time>2016-12-06T14:12:37Z</time>
      </trkpt>
      <trkpt lat="45.68511" lon="2.9674">
        <ele>957.9</ele>
        <time>2016-12-06T14:12:53Z</time>
      </trkpt>
      <trkpt lat="45.68443" lon="2.96771">
        <ele>957.7</ele>
        <time>2016-12-06T14:13:01Z</time>
      </trkpt>
      <trkpt lat="45.68373" lon="2.96792">
        <ele>956.7</ele>
        <time>2016-12-06T14:13:09Z</time>
      </trkpt>
      <trkpt lat="45.68326" lon="2.96779">
        <ele>957</ele>
        <time>2016-12-06T14:13:14Z</time>
      </trkpt>
      <trkpt lat="45.68261" lon="2.96711">
        <ele>959.9</ele>
        <time>2016-12-06T14:13:23Z</time>
      </trkpt>
      <trkpt lat="45.68242" lon="2.96631">
        <ele>963.8</ele>
        <time>2016-12-06T14:13:30Z</time>
      </trkpt>
      <trkpt lat="45.68256" lon="2.96553">
        <ele>964.1</ele>
        <time>2016-12-06T14:13:36Z</time>
      </trkpt>
      <trkpt lat="45.68312" lon="2.96449">
        <ele>961.1</ele>
        <time>2016-12-06T14:13:46Z</time>
      </trkpt>
      <trkpt lat="45.68339" lon="2.96368">
        <ele>958.9</ele>
        <time>2016-12-06T14:13:53Z</time>
      </trkpt>
      <trkpt lat="45.68355" lon="2.96233">
        <ele>958.6</ele>
        <time>2016-12-06T14:14:04Z</time>
      </trkpt>
      <trkpt lat="45.68356" lon="2.96194">
        <ele>958.9</ele>
        <time>2016-12-06T14:14:07Z</time>
      </trkpt>
      <trkpt lat="45.68332" lon="2.96207">
        <ele>954.7</ele>
        <time>2016-12-06T14:14:10Z</time>
      </trkpt>
      <trkpt lat="45.68282" lon="2.96171">
        <ele>953.5</ele>
        <time>2016-12-06T14:14:16Z</time>
      </trkpt>
      <trkpt lat="45.68251" lon="2.96367">
        <ele>955.6</ele>
        <time>2016-12-06T14:14:31Z</time>
      </trkpt>
      <trkpt lat="45.6824" lon="2.9651">
        <ele>962.3</ele>
        <time>2016-12-06T14:14:43Z</time>
      </trkpt>
      <trkpt lat="45.68212" lon="2.96585">
        <ele>964.2</ele>
        <time>2016-12-06T14:14:49Z</time>
      </trkpt>
      <trkpt lat="45.68194" lon="2.9662">
        <ele>963.5</ele>
        <time>2016-12-06T14:14:53Z</time>
      </trkpt>
      <trkpt lat="45.68186" lon="2.96616">
        <ele>963.8</ele>
        <time>2016-12-06T14:14:54Z</time>
      </trkpt>
      <trkpt lat="45.68135" lon="2.9631">
        <ele>966.4</ele>
        <time>2016-12-06T14:15:18Z</time>
      </trkpt>
      <trkpt lat="45.6817" lon="2.96045">
        <ele>962.3</ele>
        <time>2016-12-06T14:15:39Z</time>
      </trkpt>
      <trkpt lat="45.68154" lon="2.95874">
        <ele>966.2</ele>
        <time>2016-12-06T14:15:52Z</time>
      </trkpt>
      <trkpt lat="45.68054" lon="2.95468">
        <ele>958.9</ele>
        <time>2016-12-06T14:16:26Z</time>
      </trkpt>
      <trkpt lat="45.67949" lon="2.95468">
        <ele>963.9</ele>
        <time>2016-12-06T14:16:38Z</time>
      </trkpt>
      <trkpt lat="45.67841" lon="2.95351">
        <ele>966.7</ele>
        <time>2016-12-06T14:16:53Z</time>
      </trkpt>
      <trkpt lat="45.67755" lon="2.95301">
        <ele>970.2</ele>
        <time>2016-12-06T14:17:03Z</time>
      </trkpt>
      <trkpt lat="45.67693" lon="2.95242">
        <ele>973.3</ele>
        <time>2016-12-06T14:17:11Z</time>
      </trkpt>
      <trkpt lat="45.67647" lon="2.95164">
        <ele>974.3</ele>
        <time>2016-12-06T14:17:19Z</time>
      </trkpt>
      <trkpt lat="45.67572" lon="2.95149">
        <ele>976.2</ele>
        <time>2016-12-06T14:17:28Z</time>
      </trkpt>
      <trkpt lat="45.67472" lon="2.95211">
        <ele>978.7</ele>
        <time>2016-12-06T14:17:40Z</time>
      </trkpt>
      <trkpt lat="45.67359" lon="2.95277">
        <ele>979.3</ele>
        <time>2016-12-06T14:17:53Z</time>
      </trkpt>
      <trkpt lat="45.67335" lon="2.95328">
        <ele>979.4</ele>
        <time>2016-12-06T14:17:58Z</time>
      </trkpt>
      <trkpt lat="45.6731" lon="2.95327">
        <ele>979.1</ele>
        <time>2016-12-06T14:18:01Z</time>
      </trkpt>
      <trkpt lat="45.67256" lon="2.95269">
        <ele>983.1</ele>
        <time>2016-12-06T14:18:08Z</time>
      </trkpt>
      <trkpt lat="45.67084" lon="2.95136">
        <ele>995.9</ele>
        <time>2016-12-06T14:18:30Z</time>
      </trkpt>
      <trkpt lat="45.67041" lon="2.95113">
        <ele>1003.9</ele>
        <time>2016-12-06T14:18:35Z</time>
      </trkpt>
      <trkpt lat="45.66936" lon="2.95226">
        <ele>1009</ele>
        <time>2016-12-06T14:18:50Z</time>
      </trkpt>
      <trkpt lat="45.66809" lon="2.95316">
        <ele>1026.5</ele>
        <time>2016-12-06T14:19:06Z</time>
      </trkpt>
      <trkpt lat="45.66744" lon="2.95347">
        <ele>1038.1</ele>
        <time>2016-12-06T14:19:13Z</time>
      </trkpt>
      <trkpt lat="45.66655" lon="2.95316">
        <ele>1044.5</ele>
        <time>2016-12-06T14:19:24Z</time>
      </trkpt>
      <trkpt lat="45.66542" lon="2.95238">
        <ele>1046.3</ele>
        <time>2016-12-06T14:19:38Z</time>
      </trkpt>
      <trkpt lat="45.66469" lon="2.95144">
        <ele>1044.5</ele>
        <time>2016-12-06T14:19:48Z</time>
      </trkpt>
      <trkpt lat="45.66405" lon="2.95066">
        <ele>1036.7</ele>
        <time>2016-12-06T14:19:58Z</time>
      </trkpt>
      <trkpt lat="45.6631" lon="2.94969">
        <ele>1028.2</ele>
        <time>2016-12-06T14:20:11Z</time>
      </trkpt>
      <trkpt lat="45.66294" lon="2.94926">
        <ele>1026.3</ele>
        <time>2016-12-06T14:20:15Z</time>
      </trkpt>
      <trkpt lat="45.66378" lon="2.94824">
        <ele>1031.4</ele>
        <time>2016-12-06T14:20:27Z</time>
      </trkpt>
      <trkpt lat="45.66362" lon="2.94766">
        <ele>1031.1</ele>
        <time>2016-12-06T14:20:32Z</time>
      </trkpt>
      <trkpt lat="45.66176" lon="2.94384">
        <ele>1028.2</ele>
        <time>2016-12-06T14:21:08Z</time>
      </trkpt>
      <trkpt lat="45.65989" lon="2.9389">
        <ele>1023.5</ele>
        <time>2016-12-06T14:21:52Z</time>
      </trkpt>
      <trkpt lat="45.65825" lon="2.93838">
        <ele>1023</ele>
        <time>2016-12-06T14:22:10Z</time>
      </trkpt>
      <trkpt lat="45.65695" lon="2.9374">
        <ele>1021.1</ele>
        <time>2016-12-06T14:22:27Z</time>
      </trkpt>
      <trkpt lat="45.65558" lon="2.93561">
        <ele>1023.3</ele>
        <time>2016-12-06T14:22:47Z</time>
      </trkpt>
      <trkpt lat="45.65404" lon="2.93421">
        <ele>1014.1</ele>
        <time>2016-12-06T14:23:08Z</time>
      </trkpt>
      <trkpt lat="45.65275" lon="2.93191">
        <ele>998.1</ele>
        <time>2016-12-06T14:23:31Z</time>
      </trkpt>
      <trkpt lat="45.65191" lon="2.92902">
        <ele>988.1</ele>
        <time>2016-12-06T14:23:55Z</time>
      </trkpt>
      <trkpt lat="45.65167" lon="2.92875">
        <ele>989.1</ele>
        <time>2016-12-06T14:23:58Z</time>
      </trkpt>
      <trkpt lat="45.65129" lon="2.92887">
        <ele>992.9</ele>
        <time>2016-12-06T14:24:03Z</time>
      </trkpt>
      <trkpt lat="45.65091" lon="2.92922">
        <ele>999.2</ele>
        <time>2016-12-06T14:24:08Z</time>
      </trkpt>
      <trkpt lat="45.64965" lon="2.92953">
        <ele>1015.6</ele>
        <time>2016-12-06T14:24:22Z</time>
      </trkpt>
      <trkpt lat="45.64906" lon="2.92976">
        <ele>1012.9</ele>
        <time>2016-12-06T14:24:29Z</time>
      </trkpt>
      <trkpt lat="45.64873" lon="2.92957">
        <ele>1010.3</ele>
        <time>2016-12-06T14:24:33Z</time>
      </trkpt>
      <trkpt lat="45.64814" lon="2.92871">
        <ele>1012.3</ele>
        <time>2016-12-06T14:24:42Z</time>
      </trkpt>
      <trkpt lat="45.64736" lon="2.9277">
        <ele>1013</ele>
        <time>2016-12-06T14:24:54Z</time>
      </trkpt>
      <trkpt lat="45.64697" lon="2.92687">
        <ele>1013.3</ele>
        <time>2016-12-06T14:25:02Z</time>
      </trkpt>
      <trkpt lat="45.6463" lon="2.92624">
        <ele>1013.1</ele>
        <time>2016-12-06T14:25:11Z</time>
      </trkpt>
      <trkpt lat="45.64578" lon="2.92578">
        <ele>1014.5</ele>
        <time>2016-12-06T14:25:17Z</time>
      </trkpt>
      <trkpt lat="45.64522" lon="2.92418">
        <ele>1017.9</ele>
        <time>2016-12-06T14:25:31Z</time>
      </trkpt>
      <trkpt lat="45.64471" lon="2.92316">
        <ele>1019.9</ele>
        <time>2016-12-06T14:25:41Z</time>
      </trkpt>
      <trkpt lat="45.64438" lon="2.92188">
        <ele>1025.2</ele>
        <time>2016-12-06T14:25:52Z</time>
      </trkpt>
      <trkpt lat="45.64368" lon="2.92071">
        <ele>1022.6</ele>
        <time>2016-12-06T14:26:04Z</time>
      </trkpt>
      <trkpt lat="45.64341" lon="2.92016">
        <ele>1022.6</ele>
        <time>2016-12-06T14:26:09Z</time>
      </trkpt>
      <trkpt lat="45.64333" lon="2.91923">
        <ele>1030.6</ele>
        <time>2016-12-06T14:26:16Z</time>
      </trkpt>
      <trkpt lat="45.64301" lon="2.9188">
        <ele>1030.7</ele>
        <time>2016-12-06T14:26:21Z</time>
      </trkpt>
      <trkpt lat="45.64236" lon="2.91849">
        <ele>1030.1</ele>
        <time>2016-12-06T14:26:29Z</time>
      </trkpt>
      <trkpt lat="45.64207" lon="2.91833">
        <ele>1032.1</ele>
        <time>2016-12-06T14:26:32Z</time>
      </trkpt>
      <trkpt lat="45.64153" lon="2.91849">
        <ele>1031.5</ele>
        <time>2016-12-06T14:26:38Z</time>
      </trkpt>
      <trkpt lat="45.64126" lon="2.91822">
        <ele>1034.4</ele>
        <time>2016-12-06T14:26:42Z</time>
      </trkpt>
      <trkpt lat="45.6412" lon="2.91763">
        <ele>1036.6</ele>
        <time>2016-12-06T14:26:47Z</time>
      </trkpt>
      <trkpt lat="45.64126" lon="2.91697">
        <ele>1037.6</ele>
        <time>2016-12-06T14:26:52Z</time>
      </trkpt>
      <trkpt lat="45.64096" lon="2.91611">
        <ele>1039</ele>
        <time>2016-12-06T14:26:59Z</time>
      </trkpt>
      <trkpt lat="45.64042" lon="2.91506">
        <ele>1050.2</ele>
        <time>2016-12-06T14:27:09Z</time>
      </trkpt>
      <trkpt lat="45.63967" lon="2.91401">
        <ele>1060.1</ele>
        <time>2016-12-06T14:27:21Z</time>
      </trkpt>
      <trkpt lat="45.6394" lon="2.91334">
        <ele>1061.1</ele>
        <time>2016-12-06T14:27:27Z</time>
      </trkpt>
      <trkpt lat="45.63926" lon="2.91264">
        <ele>1063.2</ele>
        <time>2016-12-06T14:27:33Z</time>
      </trkpt>
      <trkpt lat="45.63921" lon="2.91186">
        <ele>1069.7</ele>
        <time>2016-12-06T14:27:39Z</time>
      </trkpt>
      <trkpt lat="45.63886" lon="2.91073">
        <ele>1078</ele>
        <time>2016-12-06T14:27:49Z</time>
      </trkpt>
      <trkpt lat="45.63711" lon="2.90536">
        <ele>1101.3</ele>
        <time>2016-12-06T14:28:35Z</time>
      </trkpt>
      <trkpt lat="45.63456" lon="2.89757">
        <ele>1120.8</ele>
        <time>2016-12-06T14:29:41Z</time>
      </trkpt>
      <trkpt lat="45.63467" lon="2.89508">
        <ele>1126.1</ele>
        <time>2016-12-06T14:30:01Z</time>
      </trkpt>
      <trkpt lat="45.63618" lon="2.89392">
        <ele>1143.6</ele>
        <time>2016-12-06T14:30:20Z</time>
      </trkpt>
      <trkpt lat="45.63788" lon="2.89261">
        <ele>1143.4</ele>
        <time>2016-12-06T14:30:41Z</time>
      </trkpt>
      <trkpt lat="45.63796" lon="2.89246">
        <ele>1143.6</ele>
        <time>2016-12-06T14:30:43Z</time>
      </trkpt>
      <trkpt lat="45.63709" lon="2.89034">
        <ele>1160</ele>
        <time>2016-12-06T14:31:02Z</time>
      </trkpt>
      <trkpt lat="45.63627" lon="2.88969">
        <ele>1167</ele>
        <time>2016-12-06T14:31:13Z</time>
      </trkpt>
      <trkpt lat="45.63601" lon="2.88926">
        <ele>1169.7</ele>
        <time>2016-12-06T14:31:17Z</time>
      </trkpt>
      <trkpt lat="45.63549" lon="2.88868">
        <ele>1173.7</ele>
        <time>2016-12-06T14:31:24Z</time>
      </trkpt>
      <trkpt lat="45.63526" lon="2.88863">
        <ele>1174.5</ele>
        <time>2016-12-06T14:31:27Z</time>
      </trkpt>
      <trkpt lat="45.63493" lon="2.88888">
        <ele>1173.9</ele>
        <time>2016-12-06T14:31:31Z</time>
      </trkpt>
      <trkpt lat="45.63475" lon="2.88819">
        <ele>1178.4</ele>
        <time>2016-12-06T14:31:37Z</time>
      </trkpt>
      <trkpt lat="45.63449" lon="2.88809">
        <ele>1179.4</ele>
        <time>2016-12-06T14:31:40Z</time>
      </trkpt>
      <trkpt lat="45.63403" lon="2.88818">
        <ele>1178.5</ele>
        <time>2016-12-06T14:31:45Z</time>
      </trkpt>
      <trkpt lat="45.63359" lon="2.88783">
        <ele>1180.1</ele>
        <time>2016-12-06T14:31:51Z</time>
      </trkpt>
      <trkpt lat="45.63334" lon="2.88728">
        <ele>1183</ele>
        <time>2016-12-06T14:31:56Z</time>
      </trkpt>
      <trkpt lat="45.63305" lon="2.88611">
        <ele>1189.2</ele>
        <time>2016-12-06T14:32:06Z</time>
      </trkpt>
      <trkpt lat="45.63276" lon="2.88575">
        <ele>1190</ele>
        <time>2016-12-06T14:32:10Z</time>
      </trkpt>
      <trkpt lat="45.63162" lon="2.88541">
        <ele>1199.7</ele>
        <time>2016-12-06T14:32:23Z</time>
      </trkpt>
      <trkpt lat="45.6313" lon="2.88548">
        <ele>1199.4</ele>
        <time>2016-12-06T14:32:26Z</time>
      </trkpt>
      <trkpt lat="45.63097" lon="2.88532">
        <ele>1200.8</ele>
        <time>2016-12-06T14:32:30Z</time>
      </trkpt>
      <trkpt lat="45.62976" lon="2.88284">
        <ele>1208.8</ele>
        <time>2016-12-06T14:32:54Z</time>
      </trkpt>
      <trkpt lat="45.62868" lon="2.8801">
        <ele>1220.6</ele>
        <time>2016-12-06T14:33:18Z</time>
      </trkpt>
      <trkpt lat="45.62833" lon="2.87966">
        <ele>1225.3</ele>
        <time>2016-12-06T14:33:23Z</time>
      </trkpt>
      <trkpt lat="45.62796" lon="2.8797">
        <ele>1231.6</ele>
        <time>2016-12-06T14:33:28Z</time>
      </trkpt>
      <trkpt lat="45.62779" lon="2.87967">
        <ele>1235.1</ele>
        <time>2016-12-06T14:33:30Z</time>
      </trkpt>
      <trkpt lat="45.62775" lon="2.87945">
        <ele>1237.4</ele>
        <time>2016-12-06T14:33:31Z</time>
      </trkpt>
      <trkpt lat="45.62785" lon="2.87882">
        <ele>1240</ele>
        <time>2016-12-06T14:33:36Z</time>
      </trkpt>
      <trkpt lat="45.62793" lon="2.87817">
        <ele>1243.8</ele>
        <time>2016-12-06T14:33:42Z</time>
      </trkpt>
      <trkpt lat="45.62738" lon="2.87581">
        <ele>1266.6</ele>
        <time>2016-12-06T14:34:01Z</time>
      </trkpt>
      <trkpt lat="45.62692" lon="2.8747">
        <ele>1271.2</ele>
        <time>2016-12-06T14:34:11Z</time>
      </trkpt>
      <trkpt lat="45.6266" lon="2.87422">
        <ele>1273.5</ele>
        <time>2016-12-06T14:34:16Z</time>
      </trkpt>
      <trkpt lat="45.62629" lon="2.87402">
        <ele>1279.1</ele>
        <time>2016-12-06T14:34:20Z</time>
      </trkpt>
      <trkpt lat="45.62621" lon="2.87412">
        <ele>1282.3</ele>
        <time>2016-12-06T14:34:21Z</time>
      </trkpt>
      <trkpt lat="45.6262" lon="2.87441">
        <ele>1286.6</ele>
        <time>2016-12-06T14:34:24Z</time>
      </trkpt>
      <trkpt lat="45.62657" lon="2.87609">
        <ele>1294.4</ele>
        <time>2016-12-06T14:34:37Z</time>
      </trkpt>
      <trkpt lat="45.62654" lon="2.87718">
        <ele>1294</ele>
        <time>2016-12-06T14:34:46Z</time>
      </trkpt>
      <trkpt lat="45.62611" lon="2.87871">
        <ele>1297.8</ele>
        <time>2016-12-06T14:34:59Z</time>
      </trkpt>
      <trkpt lat="45.62577" lon="2.87944">
        <ele>1298.7</ele>
        <time>2016-12-06T14:35:05Z</time>
      </trkpt>
      <trkpt lat="45.62532" lon="2.87983">
        <ele>1300.5</ele>
        <time>2016-12-06T14:35:11Z</time>
      </trkpt>
      <trkpt lat="45.62488" lon="2.87984">
        <ele>1301.8</ele>
        <time>2016-12-06T14:35:16Z</time>
      </trkpt>
      <trkpt lat="45.62445" lon="2.87946">
        <ele>1305.9</ele>
        <time>2016-12-06T14:35:22Z</time>
      </trkpt>
      <trkpt lat="45.62451" lon="2.87918">
        <ele>1308.6</ele>
        <time>2016-12-06T14:35:24Z</time>
      </trkpt>
      <trkpt lat="45.62486" lon="2.87872">
        <ele>1313.3</ele>
        <time>2016-12-06T14:35:29Z</time>
      </trkpt>
      <trkpt lat="45.62512" lon="2.87806">
        <ele>1316.1</ele>
        <time>2016-12-06T14:35:35Z</time>
      </trkpt>
      <trkpt lat="45.62538" lon="2.87703">
        <ele>1321</ele>
        <time>2016-12-06T14:35:44Z</time>
      </trkpt>
      <trkpt lat="45.62525" lon="2.87593">
        <ele>1326.1</ele>
        <time>2016-12-06T14:35:53Z</time>
      </trkpt>
      <trkpt lat="45.62495" lon="2.87533">
        <ele>1330</ele>
        <time>2016-12-06T14:35:58Z</time>
      </trkpt>
      <trkpt lat="45.62043" lon="2.86994">
        <ele>1359.7</ele>
        <time>2016-12-06T14:37:04Z</time>
      </trkpt>
      <trkpt lat="45.62027" lon="2.86911">
        <ele>1365.3</ele>
        <time>2016-12-06T14:37:10Z</time>
      </trkpt>
      <trkpt lat="45.62004" lon="2.86895">
        <ele>1367.6</ele>
        <time>2016-12-06T14:37:13Z</time>
      </trkpt>
      <trkpt lat="45.61924" lon="2.86894">
        <ele>1372</ele>
        <time>2016-12-06T14:37:22Z</time>
      </trkpt>
      <trkpt lat="45.61912" lon="2.8687">
        <ele>1374.5</ele>
        <time>2016-12-06T14:37:25Z</time>
      </trkpt>
      <trkpt lat="45.61905" lon="2.86798">
        <ele>1380.5</ele>
        <time>2016-12-06T14:37:30Z</time>
      </trkpt>
      <trkpt lat="45.61879" lon="2.86614">
        <ele>1392.6</ele>
        <time>2016-12-06T14:37:45Z</time>
      </trkpt>
      <trkpt lat="45.61849" lon="2.86566">
        <ele>1396.2</ele>
        <time>2016-12-06T14:37:50Z</time>
      </trkpt>
      <trkpt lat="45.61794" lon="2.86509">
        <ele>1402.3</ele>
        <time>2016-12-06T14:37:57Z</time>
      </trkpt>
      <trkpt lat="45.61722" lon="2.86344">
        <ele>1409.4</ele>
        <time>2016-12-06T14:38:13Z</time>
      </trkpt>
      <trkpt lat="45.61689" lon="2.86306">
        <ele>1412.7</ele>
        <time>2016-12-06T14:38:17Z</time>
      </trkpt>
      <trkpt lat="45.6159" lon="2.86236">
        <ele>1424.5</ele>
        <time>2016-12-06T14:38:30Z</time>
      </trkpt>
      <trkpt lat="45.61506" lon="2.86162">
        <ele>1429.7</ele>
        <time>2016-12-06T14:38:41Z</time>
      </trkpt>
      <trkpt lat="45.61352" lon="2.85953">
        <ele>1413.3</ele>
        <time>2016-12-06T14:39:04Z</time>
      </trkpt>
      <trkpt lat="45.61293" lon="2.85852">
        <ele>1410.3</ele>
        <time>2016-12-06T14:39:15Z</time>
      </trkpt>
      <trkpt lat="45.61196" lon="2.85723">
        <ele>1408.2</ele>
        <time>2016-12-06T14:39:29Z</time>
      </trkpt>
      <trkpt lat="45.61107" lon="2.85656">
        <ele>1410.1</ele>
        <time>2016-12-06T14:39:40Z</time>
      </trkpt>
      <trkpt lat="45.6101" lon="2.8554">
        <ele>1412.8</ele>
        <time>2016-12-06T14:39:55Z</time>
      </trkpt>
      <trkpt lat="45.60929" lon="2.8546">
        <ele>1407.7</ele>
        <time>2016-12-06T14:40:05Z</time>
      </trkpt>
      <trkpt lat="45.60855" lon="2.85423">
        <ele>1403.4</ele>
        <time>2016-12-06T14:40:14Z</time>
      </trkpt>
      <trkpt lat="45.60716" lon="2.85416">
        <ele>1398.6</ele>
        <time>2016-12-06T14:40:30Z</time>
      </trkpt>
      <trkpt lat="45.60607" lon="2.85391">
        <ele>1393.2</ele>
        <time>2016-12-06T14:40:42Z</time>
      </trkpt>
      <trkpt lat="45.60572" lon="2.8539">
        <ele>1391.9</ele>
        <time>2016-12-06T14:40:46Z</time>
      </trkpt>
      <trkpt lat="45.60541" lon="2.85352">
        <ele>1389.8</ele>
        <time>2016-12-06T14:40:50Z</time>
      </trkpt>
      <trkpt lat="45.60515" lon="2.85305">
        <ele>1387.4</ele>
        <time>2016-12-06T14:40:55Z</time>
      </trkpt>
      <trkpt lat="45.60467" lon="2.85234">
        <ele>1385.2</ele>
        <time>2016-12-06T14:41:03Z</time>
      </trkpt>
      <trkpt lat="45.60426" lon="2.8513">
        <ele>1384.5</ele>
        <time>2016-12-06T14:41:12Z</time>
      </trkpt>
      <trkpt lat="45.60282" lon="2.85024">
        <ele>1382.7</ele>
        <time>2016-12-06T14:41:30Z</time>
      </trkpt>
      <trkpt lat="45.59996" lon="2.84672">
        <ele>1366.8</ele>
        <time>2016-12-06T14:42:12Z</time>
      </trkpt>
      <trkpt lat="45.59976" lon="2.84619">
        <ele>1367.1</ele>
        <time>2016-12-06T14:42:17Z</time>
      </trkpt>
      <trkpt lat="45.59967" lon="2.84571">
        <ele>1366.9</ele>
        <time>2016-12-06T14:42:21Z</time>
      </trkpt>
      <trkpt lat="45.59956" lon="2.84525">
        <ele>1368.3</ele>
        <time>2016-12-06T14:42:24Z</time>
      </trkpt>
      <trkpt lat="45.59989" lon="2.84491">
        <ele>1363.6</ele>
        <time>2016-12-06T14:42:29Z</time>
      </trkpt>
      <trkpt lat="45.60019" lon="2.84437">
        <ele>1359.1</ele>
        <time>2016-12-06T14:42:34Z</time>
      </trkpt>
      <trkpt lat="45.60041" lon="2.84383">
        <ele>1354.5</ele>
        <time>2016-12-06T14:42:39Z</time>
      </trkpt>
      <trkpt lat="45.60053" lon="2.84336">
        <ele>1350.8</ele>
        <time>2016-12-06T14:42:43Z</time>
      </trkpt>
      <trkpt lat="45.60052" lon="2.84312">
        <ele>1350.1</ele>
        <time>2016-12-06T14:42:45Z</time>
      </trkpt>
      <trkpt lat="45.60045" lon="2.8428">
        <ele>1350.4</ele>
        <time>2016-12-06T14:42:48Z</time>
      </trkpt>
      <trkpt lat="45.60069" lon="2.84243">
        <ele>1344.5</ele>
        <time>2016-12-06T14:42:52Z</time>
      </trkpt>
      <trkpt lat="45.60083" lon="2.84148">
        <ele>1339.1</ele>
        <time>2016-12-06T14:42:59Z</time>
      </trkpt>
      <trkpt lat="45.60087" lon="2.84047">
        <ele>1332.2</ele>
        <time>2016-12-06T14:43:07Z</time>
      </trkpt>
      <trkpt lat="45.60062" lon="2.83927">
        <ele>1326.8</ele>
        <time>2016-12-06T14:43:17Z</time>
      </trkpt>
      <trkpt lat="45.60056" lon="2.8387">
        <ele>1321.4</ele>
        <time>2016-12-06T14:43:21Z</time>
      </trkpt>
      <trkpt lat="45.60039" lon="2.83787">
        <ele>1315.8</ele>
        <time>2016-12-06T14:43:28Z</time>
      </trkpt>
      <trkpt lat="45.6003" lon="2.83718">
        <ele>1306.4</ele>
        <time>2016-12-06T14:43:34Z</time>
      </trkpt>
      <trkpt lat="45.59982" lon="2.83552">
        <ele>1296.5</ele>
        <time>2016-12-06T14:43:48Z</time>
      </trkpt>
      <trkpt lat="45.59904" lon="2.83338">
        <ele>1281.5</ele>
        <time>2016-12-06T14:44:07Z</time>
      </trkpt>
      <trkpt lat="45.59837" lon="2.8315">
        <ele>1259.7</ele>
        <time>2016-12-06T14:44:23Z</time>
      </trkpt>
      <trkpt lat="45.59808" lon="2.83116">
        <ele>1253.2</ele>
        <time>2016-12-06T14:44:27Z</time>
      </trkpt>
      <trkpt lat="45.59775" lon="2.83105">
        <ele>1248.7</ele>
        <time>2016-12-06T14:44:31Z</time>
      </trkpt>
      <trkpt lat="45.59751" lon="2.83108">
        <ele>1246.4</ele>
        <time>2016-12-06T14:44:34Z</time>
      </trkpt>
      <trkpt lat="45.59741" lon="2.83097">
        <ele>1244.5</ele>
        <time>2016-12-06T14:44:35Z</time>
      </trkpt>
      <trkpt lat="45.59751" lon="2.8305">
        <ele>1242.1</ele>
        <time>2016-12-06T14:44:39Z</time>
      </trkpt>
      <trkpt lat="45.5978" lon="2.82996">
        <ele>1238.5</ele>
        <time>2016-12-06T14:44:44Z</time>
      </trkpt>
      <trkpt lat="45.59779" lon="2.82965">
        <ele>1235.6</ele>
        <time>2016-12-06T14:44:47Z</time>
      </trkpt>
      <trkpt lat="45.59766" lon="2.82913">
        <ele>1230.6</ele>
        <time>2016-12-06T14:44:51Z</time>
      </trkpt>
      <trkpt lat="45.59647" lon="2.8276">
        <ele>1205.7</ele>
        <time>2016-12-06T14:45:09Z</time>
      </trkpt>
      <trkpt lat="45.59523" lon="2.82521">
        <ele>1182.2</ele>
        <time>2016-12-06T14:45:32Z</time>
      </trkpt>
      <trkpt lat="45.59483" lon="2.82471">
        <ele>1173.9</ele>
        <time>2016-12-06T14:45:38Z</time>
      </trkpt>
      <trkpt lat="45.59459" lon="2.82414">
        <ele>1172.8</ele>
        <time>2016-12-06T14:45:43Z</time>
      </trkpt>
      <trkpt lat="45.59448" lon="2.82411">
        <ele>1167.8</ele>
        <time>2016-12-06T14:45:45Z</time>
      </trkpt>
      <trkpt lat="45.59448" lon="2.82428">
        <ele>1165.2</ele>
        <time>2016-12-06T14:45:46Z</time>
      </trkpt>
      <trkpt lat="45.59419" lon="2.82381">
        <ele>1158.2</ele>
        <time>2016-12-06T14:45:51Z</time>
      </trkpt>
      <trkpt lat="45.59391" lon="2.82312">
        <ele>1148.9</ele>
        <time>2016-12-06T14:45:57Z</time>
      </trkpt>
      <trkpt lat="45.5936" lon="2.8218">
        <ele>1141</ele>
        <time>2016-12-06T14:46:08Z</time>
      </trkpt>
      <trkpt lat="45.59329" lon="2.82105">
        <ele>1127.7</ele>
        <time>2016-12-06T14:46:15Z</time>
      </trkpt>
      <trkpt lat="45.59311" lon="2.82048">
        <ele>1120.1</ele>
        <time>2016-12-06T14:46:20Z</time>
      </trkpt>
      <trkpt lat="45.59313" lon="2.82004">
        <ele>1119.3</ele>
        <time>2016-12-06T14:46:23Z</time>
      </trkpt>
      <trkpt lat="45.59321" lon="2.81959">
        <ele>1119.4</ele>
        <time>2016-12-06T14:46:27Z</time>
      </trkpt>
      <trkpt lat="45.59327" lon="2.81947">
        <ele>1120.4</ele>
        <time>2016-12-06T14:46:28Z</time>
      </trkpt>
      <trkpt lat="45.59331" lon="2.81927">
        <ele>1120.8</ele>
        <time>2016-12-06T14:46:30Z</time>
      </trkpt>
      <trkpt lat="45.59327" lon="2.8191">
        <ele>1118.5</ele>
        <time>2016-12-06T14:46:31Z</time>
      </trkpt>
      <trkpt lat="45.59317" lon="2.81913">
        <ele>1115.6</ele>
        <time>2016-12-06T14:46:32Z</time>
      </trkpt>
      <trkpt lat="45.59296" lon="2.81939">
        <ele>1109.9</ele>
        <time>2016-12-06T14:46:35Z</time>
      </trkpt>
      <trkpt lat="45.59288" lon="2.81978">
        <ele>1109.7</ele>
        <time>2016-12-06T14:46:39Z</time>
      </trkpt>
      <trkpt lat="45.59285" lon="2.82">
        <ele>1109.6</ele>
        <time>2016-12-06T14:46:40Z</time>
      </trkpt>
      <trkpt lat="45.59285" lon="2.82024">
        <ele>1110.2</ele>
        <time>2016-12-06T14:46:42Z</time>
      </trkpt>
      <trkpt lat="45.59284" lon="2.82036">
        <ele>1110</ele>
        <time>2016-12-06T14:46:43Z</time>
      </trkpt>
      <trkpt lat="45.59279" lon="2.82041">
        <ele>1108.3</ele>
        <time>2016-12-06T14:46:44Z</time>
      </trkpt>
      <trkpt lat="45.59275" lon="2.82033">
        <ele>1107.7</ele>
        <time>2016-12-06T14:46:45Z</time>
      </trkpt>
      <trkpt lat="45.59268" lon="2.81996">
        <ele>1106.7</ele>
        <time>2016-12-06T14:46:48Z</time>
      </trkpt>
      <trkpt lat="45.59251" lon="2.81936">
        <ele>1102</ele>
        <time>2016-12-06T14:46:53Z</time>
      </trkpt>
      <trkpt lat="45.59227" lon="2.81842">
        <ele>1095.6</ele>
        <time>2016-12-06T14:47:01Z</time>
      </trkpt>
      <trkpt lat="45.59215" lon="2.81772">
        <ele>1091.5</ele>
        <time>2016-12-06T14:47:06Z</time>
      </trkpt>
      <trkpt lat="45.5921" lon="2.8171">
        <ele>1086.9</ele>
        <time>2016-12-06T14:47:11Z</time>
      </trkpt>
      <trkpt lat="45.59153" lon="2.81607">
        <ele>1081.4</ele>
        <time>2016-12-06T14:47:21Z</time>
      </trkpt>
      <trkpt lat="45.59121" lon="2.81535">
        <ele>1076.2</ele>
        <time>2016-12-06T14:47:28Z</time>
      </trkpt>
      <trkpt lat="45.59071" lon="2.81489">
        <ele>1072.4</ele>
        <time>2016-12-06T14:47:35Z</time>
      </trkpt>
      <trkpt lat="45.59045" lon="2.81448">
        <ele>1066</ele>
        <time>2016-12-06T14:47:39Z</time>
      </trkpt>
      <trkpt lat="45.59027" lon="2.8141">
        <ele>1060.5</ele>
        <time>2016-12-06T14:47:43Z</time>
      </trkpt>
      <trkpt lat="45.5901" lon="2.81375">
        <ele>1056</ele>
        <time>2016-12-06T14:47:46Z</time>
      </trkpt>
      <trkpt lat="45.58997" lon="2.81361">
        <ele>1054.6</ele>
        <time>2016-12-06T14:47:48Z</time>
      </trkpt>
      <trkpt lat="45.58975" lon="2.81368">
        <ele>1056.3</ele>
        <time>2016-12-06T14:47:50Z</time>
      </trkpt>
      <trkpt lat="45.58953" lon="2.81382">
        <ele>1058.4</ele>
        <time>2016-12-06T14:47:53Z</time>
      </trkpt>
      <trkpt lat="45.58934" lon="2.81385">
        <ele>1059.7</ele>
        <time>2016-12-06T14:47:55Z</time>
      </trkpt>
      <trkpt lat="45.58918" lon="2.8138">
        <ele>1059.7</ele>
        <time>2016-12-06T14:47:57Z</time>
      </trkpt>
      <trkpt lat="45.58901" lon="2.81393">
        <ele>1062.6</ele>
        <time>2016-12-06T14:47:59Z</time>
      </trkpt>
      <trkpt lat="45.58889" lon="2.81408">
        <ele>1066.6</ele>
        <time>2016-12-06T14:48:01Z</time>
      </trkpt>
      <trkpt lat="45.5888" lon="2.81426">
        <ele>1071</ele>
        <time>2016-12-06T14:48:03Z</time>
      </trkpt>
      <trkpt lat="45.58871" lon="2.81422">
        <ele>1070.5</ele>
        <time>2016-12-06T14:48:04Z</time>
      </trkpt>
      <trkpt lat="45.5886" lon="2.814">
        <ele>1066.1</ele>
        <time>2016-12-06T14:48:06Z</time>
      </trkpt>
      <trkpt lat="45.58843" lon="2.81393">
        <ele>1065.3</ele>
        <time>2016-12-06T14:48:08Z</time>
      </trkpt>
      <trkpt lat="45.58819" lon="2.81394">
        <ele>1069.1</ele>
        <time>2016-12-06T14:48:10Z</time>
      </trkpt>
      <trkpt lat="45.588" lon="2.81413">
        <ele>1076.3</ele>
        <time>2016-12-06T14:48:13Z</time>
      </trkpt>
      <trkpt lat="45.58793" lon="2.81432">
        <ele>1080.4</ele>
        <time>2016-12-06T14:48:15Z</time>
      </trkpt>
      <trkpt lat="45.58788" lon="2.81437">
        <ele>1082</ele>
        <time>2016-12-06T14:48:15Z</time>
      </trkpt>
      <trkpt lat="45.58784" lon="2.81424">
        <ele>1080.9</ele>
        <time>2016-12-06T14:48:17Z</time>
      </trkpt>
      <trkpt lat="45.58773" lon="2.8137">
        <ele>1077.6</ele>
        <time>2016-12-06T14:48:21Z</time>
      </trkpt>
      <trkpt lat="45.58772" lon="2.81345">
        <ele>1076.7</ele>
        <time>2016-12-06T14:48:23Z</time>
      </trkpt>
      <trkpt lat="45.58789" lon="2.81319">
        <ele>1073.3</ele>
        <time>2016-12-06T14:48:26Z</time>
      </trkpt>
      <trkpt lat="45.58799" lon="2.81293">
        <ele>1072.6</ele>
        <time>2016-12-06T14:48:28Z</time>
      </trkpt>
      <trkpt lat="45.588" lon="2.81286">
        <ele>1072.7</ele>
        <time>2016-12-06T14:48:29Z</time>
      </trkpt>
      <trkpt lat="45.58803" lon="2.8126">
        <ele>1072.5</ele>
        <time>2016-12-06T14:48:31Z</time>
      </trkpt>
      <trkpt lat="45.588" lon="2.81235">
        <ele>1072.4</ele>
        <time>2016-12-06T14:48:32Z</time>
      </trkpt>
      <trkpt lat="45.58817" lon="2.81142">
        <ele>1066.7</ele>
        <time>2016-12-06T14:48:40Z</time>
      </trkpt>
      <trkpt lat="45.58819" lon="2.8109">
        <ele>1064</ele>
        <time>2016-12-06T14:48:44Z</time>
      </trkpt>
      <trkpt lat="45.58834" lon="2.81048">
        <ele>1058.7</ele>
        <time>2016-12-06T14:48:48Z</time>
      </trkpt>
      <trkpt lat="45.58829" lon="2.80961">
        <ele>1059.7</ele>
        <time>2016-12-06T14:48:55Z</time>
      </trkpt>
      <trkpt lat="45.58838" lon="2.80907">
        <ele>1057.4</ele>
        <time>2016-12-06T14:48:59Z</time>
      </trkpt>
      <trkpt lat="45.58851" lon="2.80876">
        <ele>1055.5</ele>
        <time>2016-12-06T14:49:02Z</time>
      </trkpt>
      <trkpt lat="45.58857" lon="2.80846">
        <ele>1057.1</ele>
        <time>2016-12-06T14:49:04Z</time>
      </trkpt>
      <trkpt lat="45.58856" lon="2.80795">
        <ele>1061.4</ele>
        <time>2016-12-06T14:49:08Z</time>
      </trkpt>
      <trkpt lat="45.58833" lon="2.80562">
        <ele>1052.6</ele>
        <time>2016-12-06T14:49:27Z</time>
      </trkpt>
      <trkpt lat="45.58819" lon="2.80406">
        <ele>1039.4</ele>
        <time>2016-12-06T14:49:39Z</time>
      </trkpt>
      <trkpt lat="45.58819" lon="2.80368">
        <ele>1035.1</ele>
        <time>2016-12-06T14:49:42Z</time>
      </trkpt>
      <trkpt lat="45.58827" lon="2.80311">
        <ele>1028.9</ele>
        <time>2016-12-06T14:49:46Z</time>
      </trkpt>
      <trkpt lat="45.58808" lon="2.80254">
        <ele>1029.9</ele>
        <time>2016-12-06T14:49:51Z</time>
      </trkpt>
      <trkpt lat="45.58783" lon="2.80215">
        <ele>1030.3</ele>
        <time>2016-12-06T14:49:55Z</time>
      </trkpt>
      <trkpt lat="45.58749" lon="2.80177">
        <ele>1024.2</ele>
        <time>2016-12-06T14:50:00Z</time>
      </trkpt>
      <trkpt lat="45.58725" lon="2.80165">
        <ele>1021.7</ele>
        <time>2016-12-06T14:50:03Z</time>
      </trkpt>
      <trkpt lat="45.58658" lon="2.80163">
        <ele>1015.6</ele>
        <time>2016-12-06T14:50:11Z</time>
      </trkpt>
      <trkpt lat="45.5862" lon="2.80178">
        <ele>1013.5</ele>
        <time>2016-12-06T14:50:15Z</time>
      </trkpt>
      <trkpt lat="45.58599" lon="2.80185">
        <ele>1011.1</ele>
        <time>2016-12-06T14:50:17Z</time>
      </trkpt>
      <trkpt lat="45.58578" lon="2.80204">
        <ele>1010.7</ele>
        <time>2016-12-06T14:50:20Z</time>
      </trkpt>
      <trkpt lat="45.58467" lon="2.8029">
        <ele>1007.4</ele>
        <time>2016-12-06T14:50:34Z</time>
      </trkpt>
      <trkpt lat="45.58422" lon="2.80316">
        <ele>1005.2</ele>
        <time>2016-12-06T14:50:40Z</time>
      </trkpt>
      <trkpt lat="45.58394" lon="2.8034">
        <ele>1004.6</ele>
        <time>2016-12-06T14:50:43Z</time>
      </trkpt>
      <trkpt lat="45.58376" lon="2.80343">
        <ele>1003.3</ele>
        <time>2016-12-06T14:50:45Z</time>
      </trkpt>
      <trkpt lat="45.58371" lon="2.80344">
        <ele>1003.1</ele>
        <time>2016-12-06T14:50:46Z</time>
      </trkpt>
      <trkpt lat="45.58341" lon="2.80367">
        <ele>1004.8</ele>
        <time>2016-12-06T14:50:50Z</time>
      </trkpt>
      <trkpt lat="45.58321" lon="2.80371">
        <ele>1003.9</ele>
        <time>2016-12-06T14:50:52Z</time>
      </trkpt>
      <trkpt lat="45.58316" lon="2.80362">
        <ele>1002.2</ele>
        <time>2016-12-06T14:50:53Z</time>
      </trkpt>
      <trkpt lat="45.58229" lon="2.80471">
        <ele>1009.3</ele>
        <time>2016-12-06T14:51:06Z</time>
      </trkpt>
      <trkpt lat="45.58131" lon="2.80588">
        <ele>1015.6</ele>
        <time>2016-12-06T14:51:20Z</time>
      </trkpt>
      <trkpt lat="45.58046" lon="2.8065">
        <ele>1019</ele>
        <time>2016-12-06T14:51:31Z</time>
      </trkpt>
      <trkpt lat="45.57993" lon="2.80684">
        <ele>1022.6</ele>
        <time>2016-12-06T14:52:40Z</time>
      </trkpt>
      <trkpt lat="45.57918" lon="2.80709">
        <ele>1023.5</ele>
        <time>2016-12-06T14:54:13Z</time>
      </trkpt>
      <trkpt lat="45.57858" lon="2.80744">
        <ele>1021</ele>
        <time>2016-12-06T14:55:31Z</time>
      </trkpt>
      <trkpt lat="45.57758" lon="2.80855">
        <ele>1040.4</ele>
        <time>2016-12-06T14:58:00Z</time>
      </trkpt>
      <trkpt lat="45.57693" lon="2.80928">
        <ele>1049.3</ele>
        <time>2016-12-06T14:59:38Z</time>
      </trkpt>
      <trkpt lat="45.57671" lon="2.80939">
        <ele>1050</ele>
        <time>2016-12-06T15:00:05Z</time>
      </trkpt>
      <trkpt lat="45.57663" lon="2.80913">
        <ele>1044.9</ele>
        <time>2016-12-06T15:00:29Z</time>
      </trkpt>
      <trkpt lat="45.57664" lon="2.80868">
        <ele>1038.2</ele>
        <time>2016-12-06T15:01:06Z</time>
      </trkpt>
      <trkpt lat="45.57658" lon="2.80822">
        <ele>1033.4</ele>
        <time>2016-12-06T15:01:45Z</time>
      </trkpt>
      <trkpt lat="45.57642" lon="2.80782">
        <ele>1030.2</ele>
        <time>2016-12-06T15:02:23Z</time>
      </trkpt>
      <trkpt lat="45.57567" lon="2.80859">
        <ele>1036.9</ele>
        <time>2016-12-06T15:04:11Z</time>
      </trkpt>
      <trkpt lat="45.57471" lon="2.80909">
        <ele>1041.7</ele>
        <time>2016-12-06T15:06:10Z</time>
      </trkpt>
      <trkpt lat="45.57406" lon="2.80939">
        <ele>1041</ele>
        <time>2016-12-06T15:07:31Z</time>
      </trkpt>
      <trkpt lat="45.57364" lon="2.80966">
        <ele>1053.1</ele>
        <time>2011-06-10T19:33:26Z</time>
      </trkpt>
      <trkpt lat="45.5735" lon="2.80942">
        <ele>1042.4</ele>
        <time>2011-06-10T19:33:28Z</time>
      </trkpt>
    </trkseg>
  </trk>
  <trk>
    <name><![CDATA[TV 2022 Aller Long]]></name>
    <extensions>
      <line xmlns="http://www.topografix.com/GPX/gpx_style/0/2">
        <color>a600ff</color>
        <width>4</width>
          <extensions>
            <sens>1</sens>
          </extensions>
      </line>
    </extensions>
    <trkseg>
      <trkpt lat="45.82217" lon="3.07815">
        <ele>380</ele>
        <time>2016-12-06T12:16:38Z</time>
      </trkpt>
      <trkpt lat="45.82323" lon="3.08079">
        <ele>376.8</ele>
        <time>2016-12-06T12:17:02Z</time>
      </trkpt>
      <trkpt lat="45.82366" lon="3.08176">
        <ele>373.6</ele>
        <time>2016-12-06T12:17:11Z</time>
      </trkpt>
      <trkpt lat="45.82392" lon="3.0827">
        <ele>373</ele>
        <time>2016-12-06T12:17:18Z</time>
      </trkpt>
      <trkpt lat="45.82416" lon="3.08319">
        <ele>372.6</ele>
        <time>2016-12-06T12:17:23Z</time>
      </trkpt>
      <trkpt lat="45.82529" lon="3.085">
        <ele>374.3</ele>
        <time>2016-12-06T12:17:42Z</time>
      </trkpt>
      <trkpt lat="45.82559" lon="3.08519">
        <ele>373.6</ele>
        <time>2016-12-06T12:17:46Z</time>
      </trkpt>
      <trkpt lat="45.82637" lon="3.08527">
        <ele>369.7</ele>
        <time>2016-12-06T12:17:54Z</time>
      </trkpt>
      <trkpt lat="45.82686" lon="3.08512">
        <ele>366.9</ele>
        <time>2016-12-06T12:18:00Z</time>
      </trkpt>
      <trkpt lat="45.82702" lon="3.08457">
        <ele>366.2</ele>
        <time>2016-12-06T12:18:04Z</time>
      </trkpt>
      <trkpt lat="45.82717" lon="3.08449">
        <ele>366.1</ele>
        <time>2016-12-06T12:18:06Z</time>
      </trkpt>
      <trkpt lat="45.82772" lon="3.08455">
        <ele>365.8</ele>
        <time>2016-12-06T12:18:12Z</time>
      </trkpt>
      <trkpt lat="45.82799" lon="3.08447">
        <ele>366.7</ele>
        <time>2016-12-06T12:18:15Z</time>
      </trkpt>
      <trkpt lat="45.82841" lon="3.08426">
        <ele>370.6</ele>
        <time>2016-12-06T12:18:20Z</time>
      </trkpt>
      <trkpt lat="45.82908" lon="3.08393">
        <ele>373.1</ele>
        <time>2016-12-06T12:18:28Z</time>
      </trkpt>
      <trkpt lat="45.82988" lon="3.08317">
        <ele>376.8</ele>
        <time>2016-12-06T12:18:39Z</time>
      </trkpt>
      <trkpt lat="45.83001" lon="3.08322">
        <ele>376.6</ele>
        <time>2016-12-06T12:18:40Z</time>
      </trkpt>
      <trkpt lat="45.83023" lon="3.08313">
        <ele>377</ele>
        <time>2016-12-06T12:18:43Z</time>
      </trkpt>
      <trkpt lat="45.83036" lon="3.08297">
        <ele>377</ele>
        <time>2016-12-06T12:18:45Z</time>
      </trkpt>
      <trkpt lat="45.83012" lon="3.08139">
        <ele>381</ele>
        <time>2016-12-06T12:18:57Z</time>
      </trkpt>
      <trkpt lat="45.82981" lon="3.07978">
        <ele>385.7</ele>
        <time>2016-12-06T12:19:10Z</time>
      </trkpt>
      <trkpt lat="45.82934" lon="3.07826">
        <ele>389.8</ele>
        <time>2016-12-06T12:19:23Z</time>
      </trkpt>
      <trkpt lat="45.82928" lon="3.07781">
        <ele>392.1</ele>
        <time>2016-12-06T12:19:27Z</time>
      </trkpt>
      <trkpt lat="45.82917" lon="3.07728">
        <ele>393.6</ele>
        <time>2016-12-06T12:19:31Z</time>
      </trkpt>
      <trkpt lat="45.82875" lon="3.07737">
        <ele>391.7</ele>
        <time>2016-12-06T12:19:36Z</time>
      </trkpt>
      <trkpt lat="45.82866" lon="3.07734">
        <ele>390.9</ele>
        <time>2016-12-06T12:19:37Z</time>
      </trkpt>
      <trkpt lat="45.8286" lon="3.07711">
        <ele>391.4</ele>
        <time>2016-12-06T12:19:39Z</time>
      </trkpt>
      <trkpt lat="45.8285" lon="3.0769">
        <ele>392</ele>
        <time>2016-12-06T12:19:41Z</time>
      </trkpt>
      <trkpt lat="45.82829" lon="3.07669">
        <ele>392</ele>
        <time>2016-12-06T12:19:44Z</time>
      </trkpt>
      <trkpt lat="45.82807" lon="3.07643">
        <ele>391.4</ele>
        <time>2016-12-06T12:19:47Z</time>
      </trkpt>
      <trkpt lat="45.82786" lon="3.07617">
        <ele>391.4</ele>
        <time>2016-12-06T12:19:50Z</time>
      </trkpt>
      <trkpt lat="45.82757" lon="3.07557">
        <ele>392.2</ele>
        <time>2016-12-06T12:19:55Z</time>
      </trkpt>
      <trkpt lat="45.82743" lon="3.07525">
        <ele>394.4</ele>
        <time>2016-12-06T12:19:58Z</time>
      </trkpt>
      <trkpt lat="45.82711" lon="3.07476">
        <ele>394.5</ele>
        <time>2016-12-06T12:20:04Z</time>
      </trkpt>
      <trkpt lat="45.82706" lon="3.07411">
        <ele>396.2</ele>
        <time>2016-12-06T12:20:09Z</time>
      </trkpt>
      <trkpt lat="45.82704" lon="3.07302">
        <ele>396.9</ele>
        <time>2016-12-06T12:20:17Z</time>
      </trkpt>
      <trkpt lat="45.82709" lon="3.07248">
        <ele>398.4</ele>
        <time>2016-12-06T12:20:21Z</time>
      </trkpt>
      <trkpt lat="45.8272" lon="3.07242">
        <ele>398.7</ele>
        <time>2016-12-06T12:20:23Z</time>
      </trkpt>
      <trkpt lat="45.82727" lon="3.07226">
        <ele>399.1</ele>
        <time>2016-12-06T12:20:24Z</time>
      </trkpt>
      <trkpt lat="45.82735" lon="3.07187">
        <ele>400.5</ele>
        <time>2016-12-06T12:20:27Z</time>
      </trkpt>
      <trkpt lat="45.82735" lon="3.07158">
        <ele>401.6</ele>
        <time>2016-12-06T12:20:30Z</time>
      </trkpt>
      <trkpt lat="45.82722" lon="3.07072">
        <ele>407</ele>
        <time>2016-12-06T12:20:36Z</time>
      </trkpt>
      <trkpt lat="45.82716" lon="3.07045">
        <ele>408.4</ele>
        <time>2016-12-06T12:20:39Z</time>
      </trkpt>
      <trkpt lat="45.82701" lon="3.07017">
        <ele>409.7</ele>
        <time>2016-12-06T12:20:41Z</time>
      </trkpt>
      <trkpt lat="45.82692" lon="3.06991">
        <ele>410.8</ele>
        <time>2016-12-06T12:20:44Z</time>
      </trkpt>
      <trkpt lat="45.82689" lon="3.06959">
        <ele>412.3</ele>
        <time>2016-12-06T12:20:46Z</time>
      </trkpt>
      <trkpt lat="45.82698" lon="3.0695">
        <ele>413.4</ele>
        <time>2016-12-06T12:20:47Z</time>
      </trkpt>
      <trkpt lat="45.82736" lon="3.06882">
        <ele>418.5</ele>
        <time>2016-12-06T12:20:54Z</time>
      </trkpt>
      <trkpt lat="45.82766" lon="3.06843">
        <ele>421</ele>
        <time>2016-12-06T12:20:59Z</time>
      </trkpt>
      <trkpt lat="45.82841" lon="3.06681">
        <ele>426.8</ele>
        <time>2016-12-06T12:21:14Z</time>
      </trkpt>
      <trkpt lat="45.82878" lon="3.06583">
        <ele>432.6</ele>
        <time>2016-12-06T12:21:22Z</time>
      </trkpt>
      <trkpt lat="45.82892" lon="3.06566">
        <ele>434.8</ele>
        <time>2016-12-06T12:21:24Z</time>
      </trkpt>
      <trkpt lat="45.82946" lon="3.06542">
        <ele>441.1</ele>
        <time>2016-12-06T12:21:31Z</time>
      </trkpt>
      <trkpt lat="45.82977" lon="3.06542">
        <ele>441.7</ele>
        <time>2016-12-06T12:21:34Z</time>
      </trkpt>
      <trkpt lat="45.83013" lon="3.06567">
        <ele>441.7</ele>
        <time>2016-12-06T12:21:39Z</time>
      </trkpt>
      <trkpt lat="45.8304" lon="3.06568">
        <ele>443.5</ele>
        <time>2016-12-06T12:21:42Z</time>
      </trkpt>
      <trkpt lat="45.8307" lon="3.0656">
        <ele>446.3</ele>
        <time>2016-12-06T12:21:45Z</time>
      </trkpt>
      <trkpt lat="45.83087" lon="3.06552">
        <ele>448.1</ele>
        <time>2016-12-06T12:21:47Z</time>
      </trkpt>
      <trkpt lat="45.83115" lon="3.06555">
        <ele>450.2</ele>
        <time>2016-12-06T12:21:50Z</time>
      </trkpt>
      <trkpt lat="45.83139" lon="3.06537">
        <ele>452.1</ele>
        <time>2016-12-06T12:21:53Z</time>
      </trkpt>
      <trkpt lat="45.83156" lon="3.06537">
        <ele>453.4</ele>
        <time>2016-12-06T12:21:55Z</time>
      </trkpt>
      <trkpt lat="45.83177" lon="3.06549">
        <ele>455.8</ele>
        <time>2016-12-06T12:21:58Z</time>
      </trkpt>
      <trkpt lat="45.83198" lon="3.06566">
        <ele>458</ele>
        <time>2016-12-06T12:22:00Z</time>
      </trkpt>
      <trkpt lat="45.83216" lon="3.06565">
        <ele>459.3</ele>
        <time>2016-12-06T12:22:02Z</time>
      </trkpt>
      <trkpt lat="45.83259" lon="3.0654">
        <ele>461</ele>
        <time>2016-12-06T12:22:07Z</time>
      </trkpt>
      <trkpt lat="45.83277" lon="3.06536">
        <ele>462</ele>
        <time>2016-12-06T12:22:09Z</time>
      </trkpt>
      <trkpt lat="45.83358" lon="3.06543">
        <ele>468.5</ele>
        <time>2016-12-06T12:22:19Z</time>
      </trkpt>
      <trkpt lat="45.83434" lon="3.06501">
        <ele>476.7</ele>
        <time>2016-12-06T12:22:28Z</time>
      </trkpt>
      <trkpt lat="45.83493" lon="3.0644">
        <ele>482.7</ele>
        <time>2016-12-06T12:22:36Z</time>
      </trkpt>
      <trkpt lat="45.83505" lon="3.06427">
        <ele>483.6</ele>
        <time>2016-12-06T12:22:37Z</time>
      </trkpt>
      <trkpt lat="45.83553" lon="3.06501">
        <ele>485.1</ele>
        <time>2016-12-06T12:22:45Z</time>
      </trkpt>
      <trkpt lat="45.83623" lon="3.06545">
        <ele>490.3</ele>
        <time>2016-12-06T12:22:54Z</time>
      </trkpt>
      <trkpt lat="45.83562" lon="3.06623">
        <ele>492.6</ele>
        <time>2016-12-06T12:23:03Z</time>
      </trkpt>
      <trkpt lat="45.83441" lon="3.06763">
        <ele>498.4</ele>
        <time>2016-12-06T12:23:20Z</time>
      </trkpt>
      <trkpt lat="45.83409" lon="3.06818">
        <ele>499.8</ele>
        <time>2016-12-06T12:23:26Z</time>
      </trkpt>
      <trkpt lat="45.83319" lon="3.06896">
        <ele>500.5</ele>
        <time>2016-12-06T12:23:37Z</time>
      </trkpt>
      <trkpt lat="45.83269" lon="3.07088">
        <ele>492.9</ele>
        <time>2016-12-06T12:23:53Z</time>
      </trkpt>
      <trkpt lat="45.83303" lon="3.07335">
        <ele>497.2</ele>
        <time>2016-12-06T12:24:13Z</time>
      </trkpt>
      <trkpt lat="45.83351" lon="3.07366">
        <ele>500.2</ele>
        <time>2016-12-06T12:24:19Z</time>
      </trkpt>
      <trkpt lat="45.83429" lon="3.07384">
        <ele>502.6</ele>
        <time>2016-12-06T12:24:27Z</time>
      </trkpt>
      <trkpt lat="45.83454" lon="3.07416">
        <ele>500.7</ele>
        <time>2016-12-06T12:24:31Z</time>
      </trkpt>
      <trkpt lat="45.83488" lon="3.0739">
        <ele>507.1</ele>
        <time>2016-12-06T12:24:35Z</time>
      </trkpt>
      <trkpt lat="45.83513" lon="3.07392">
        <ele>504.5</ele>
        <time>2016-12-06T12:24:38Z</time>
      </trkpt>
      <trkpt lat="45.83605" lon="3.07283">
        <ele>504.2</ele>
        <time>2016-12-06T12:24:51Z</time>
      </trkpt>
      <trkpt lat="45.83709" lon="3.07304">
        <ele>498.8</ele>
        <time>2016-12-06T12:25:03Z</time>
      </trkpt>
      <trkpt lat="45.83732" lon="3.0727">
        <ele>506</ele>
        <time>2016-12-06T12:25:07Z</time>
      </trkpt>
      <trkpt lat="45.83741" lon="3.07164">
        <ele>508.3</ele>
        <time>2016-12-06T12:25:15Z</time>
      </trkpt>
      <trkpt lat="45.83763" lon="3.07125">
        <ele>507.2</ele>
        <time>2016-12-06T12:25:19Z</time>
      </trkpt>
      <trkpt lat="45.83889" lon="3.07143">
        <ele>505.4</ele>
        <time>2016-12-06T12:25:33Z</time>
      </trkpt>
      <trkpt lat="45.83898" lon="3.07073">
        <ele>504.1</ele>
        <time>2016-12-06T12:25:39Z</time>
      </trkpt>
      <trkpt lat="45.8389" lon="3.06992">
        <ele>501.7</ele>
        <time>2016-12-06T12:25:45Z</time>
      </trkpt>
      <trkpt lat="45.83898" lon="3.06852">
        <ele>498.7</ele>
        <time>2016-12-06T12:25:56Z</time>
      </trkpt>
      <trkpt lat="45.83952" lon="3.06654">
        <ele>496.5</ele>
        <time>2016-12-06T12:26:12Z</time>
      </trkpt>
      <trkpt lat="45.8402" lon="3.06335">
        <ele>507</ele>
        <time>2016-12-06T12:26:38Z</time>
      </trkpt>
      <trkpt lat="45.84038" lon="3.0622">
        <ele>508.3</ele>
        <time>2016-12-06T12:26:47Z</time>
      </trkpt>
      <trkpt lat="45.84075" lon="3.06106">
        <ele>509.9</ele>
        <time>2016-12-06T12:26:57Z</time>
      </trkpt>
      <trkpt lat="45.84065" lon="3.0602">
        <ele>510.3</ele>
        <time>2016-12-06T12:27:04Z</time>
      </trkpt>
      <trkpt lat="45.84069" lon="3.05904">
        <ele>512.8</ele>
        <time>2016-12-06T12:27:13Z</time>
      </trkpt>
      <trkpt lat="45.84078" lon="3.05893">
        <ele>513.5</ele>
        <time>2016-12-06T12:27:14Z</time>
      </trkpt>
      <trkpt lat="45.84065" lon="3.05846">
        <ele>514.7</ele>
        <time>2016-12-06T12:27:18Z</time>
      </trkpt>
      <trkpt lat="45.84065" lon="3.05826">
        <ele>515.9</ele>
        <time>2016-12-06T12:27:20Z</time>
      </trkpt>
      <trkpt lat="45.84069" lon="3.05778">
        <ele>518</ele>
        <time>2016-12-06T12:27:23Z</time>
      </trkpt>
      <trkpt lat="45.84084" lon="3.05699">
        <ele>520</ele>
        <time>2016-12-06T12:27:30Z</time>
      </trkpt>
      <trkpt lat="45.84081" lon="3.05639">
        <ele>520.6</ele>
        <time>2016-12-06T12:27:34Z</time>
      </trkpt>
      <trkpt lat="45.84084" lon="3.05629">
        <ele>520.9</ele>
        <time>2016-12-06T12:27:35Z</time>
      </trkpt>
      <trkpt lat="45.84092" lon="3.05477">
        <ele>523</ele>
        <time>2016-12-06T12:27:47Z</time>
      </trkpt>
      <trkpt lat="45.8409" lon="3.05389">
        <ele>523</ele>
        <time>2016-12-06T12:27:54Z</time>
      </trkpt>
      <trkpt lat="45.84097" lon="3.05334">
        <ele>523.3</ele>
        <time>2016-12-06T12:27:58Z</time>
      </trkpt>
      <trkpt lat="45.84084" lon="3.05198">
        <ele>525.2</ele>
        <time>2016-12-06T12:28:09Z</time>
      </trkpt>
      <trkpt lat="45.84093" lon="3.05086">
        <ele>529.2</ele>
        <time>2016-12-06T12:28:18Z</time>
      </trkpt>
      <trkpt lat="45.84095" lon="3.05054">
        <ele>530.3</ele>
        <time>2016-12-06T12:28:20Z</time>
      </trkpt>
      <trkpt lat="45.84101" lon="3.05004">
        <ele>531.2</ele>
        <time>2016-12-06T12:28:24Z</time>
      </trkpt>
      <trkpt lat="45.84098" lon="3.0491">
        <ele>534.6</ele>
        <time>2016-12-06T12:28:31Z</time>
      </trkpt>
      <trkpt lat="45.84084" lon="3.04797">
        <ele>536</ele>
        <time>2016-12-06T12:28:40Z</time>
      </trkpt>
      <trkpt lat="45.8408" lon="3.04719">
        <ele>537.9</ele>
        <time>2016-12-06T12:28:46Z</time>
      </trkpt>
      <trkpt lat="45.83958" lon="3.04797">
        <ele>533.7</ele>
        <time>2016-12-06T12:29:01Z</time>
      </trkpt>
      <trkpt lat="45.83955" lon="3.04748">
        <ele>535.3</ele>
        <time>2016-12-06T12:29:05Z</time>
      </trkpt>
      <trkpt lat="45.83949" lon="3.04698">
        <ele>536.6</ele>
        <time>2016-12-06T12:29:09Z</time>
      </trkpt>
      <trkpt lat="45.8395" lon="3.04663">
        <ele>538</ele>
        <time>2016-12-06T12:29:12Z</time>
      </trkpt>
      <trkpt lat="45.83966" lon="3.04594">
        <ele>540.3</ele>
        <time>2016-12-06T12:29:17Z</time>
      </trkpt>
      <trkpt lat="45.83965" lon="3.04583">
        <ele>540.7</ele>
        <time>2016-12-06T12:29:18Z</time>
      </trkpt>
      <trkpt lat="45.8396" lon="3.04564">
        <ele>541.2</ele>
        <time>2016-12-06T12:29:20Z</time>
      </trkpt>
      <trkpt lat="45.8396" lon="3.04546">
        <ele>541.9</ele>
        <time>2016-12-06T12:29:21Z</time>
      </trkpt>
      <trkpt lat="45.83972" lon="3.04519">
        <ele>544.4</ele>
        <time>2016-12-06T12:29:24Z</time>
      </trkpt>
      <trkpt lat="45.83966" lon="3.0447">
        <ele>547.1</ele>
        <time>2016-12-06T12:29:27Z</time>
      </trkpt>
      <trkpt lat="45.83964" lon="3.04433">
        <ele>549.2</ele>
        <time>2016-12-06T12:29:30Z</time>
      </trkpt>
      <trkpt lat="45.83959" lon="3.04405">
        <ele>549.9</ele>
        <time>2016-12-06T12:29:33Z</time>
      </trkpt>
      <trkpt lat="45.83951" lon="3.04393">
        <ele>549.8</ele>
        <time>2016-12-06T12:29:34Z</time>
      </trkpt>
      <trkpt lat="45.83943" lon="3.04396">
        <ele>549.1</ele>
        <time>2016-12-06T12:29:35Z</time>
      </trkpt>
      <trkpt lat="45.83943" lon="3.04363">
        <ele>550.3</ele>
        <time>2016-12-06T12:29:37Z</time>
      </trkpt>
      <trkpt lat="45.83954" lon="3.04333">
        <ele>552.4</ele>
        <time>2016-12-06T12:29:40Z</time>
      </trkpt>
      <trkpt lat="45.83986" lon="3.04294">
        <ele>557.2</ele>
        <time>2016-12-06T12:29:45Z</time>
      </trkpt>
      <trkpt lat="45.84" lon="3.04285">
        <ele>558.2</ele>
        <time>2016-12-06T12:29:46Z</time>
      </trkpt>
      <trkpt lat="45.84004" lon="3.0427">
        <ele>559.8</ele>
        <time>2016-12-06T12:29:48Z</time>
      </trkpt>
      <trkpt lat="45.8407" lon="3.04169">
        <ele>569.4</ele>
        <time>2016-12-06T12:29:58Z</time>
      </trkpt>
      <trkpt lat="45.84052" lon="3.04152">
        <ele>571.2</ele>
        <time>2016-12-06T12:30:01Z</time>
      </trkpt>
      <trkpt lat="45.8404" lon="3.04128">
        <ele>573.4</ele>
        <time>2016-12-06T12:30:03Z</time>
      </trkpt>
      <trkpt lat="45.84019" lon="3.04037">
        <ele>575</ele>
        <time>2016-12-06T12:30:11Z</time>
      </trkpt>
      <trkpt lat="45.84008" lon="3.03985">
        <ele>576.1</ele>
        <time>2016-12-06T12:30:15Z</time>
      </trkpt>
      <trkpt lat="45.84005" lon="3.03929">
        <ele>578.1</ele>
        <time>2016-12-06T12:30:19Z</time>
      </trkpt>
      <trkpt lat="45.83985" lon="3.03911">
        <ele>579.6</ele>
        <time>2016-12-06T12:30:22Z</time>
      </trkpt>
      <trkpt lat="45.83976" lon="3.03891">
        <ele>580.4</ele>
        <time>2016-12-06T12:30:24Z</time>
      </trkpt>
      <trkpt lat="45.83977" lon="3.03806">
        <ele>585.3</ele>
        <time>2016-12-06T12:30:30Z</time>
      </trkpt>
      <trkpt lat="45.83979" lon="3.03796">
        <ele>585.7</ele>
        <time>2016-12-06T12:30:31Z</time>
      </trkpt>
      <trkpt lat="45.83983" lon="3.03787">
        <ele>586</ele>
        <time>2016-12-06T12:30:32Z</time>
      </trkpt>
      <trkpt lat="45.8399" lon="3.03752">
        <ele>587.3</ele>
        <time>2016-12-06T12:30:35Z</time>
      </trkpt>
      <trkpt lat="45.8403" lon="3.03683">
        <ele>591.5</ele>
        <time>2016-12-06T12:30:42Z</time>
      </trkpt>
      <trkpt lat="45.84037" lon="3.03654">
        <ele>594.4</ele>
        <time>2016-12-06T12:30:44Z</time>
      </trkpt>
      <trkpt lat="45.84059" lon="3.03598">
        <ele>597.8</ele>
        <time>2016-12-06T12:30:49Z</time>
      </trkpt>
      <trkpt lat="45.84063" lon="3.03587">
        <ele>598.2</ele>
        <time>2016-12-06T12:30:50Z</time>
      </trkpt>
      <trkpt lat="45.84066" lon="3.03579">
        <ele>598.5</ele>
        <time>2016-12-06T12:30:51Z</time>
      </trkpt>
      <trkpt lat="45.84074" lon="3.03548">
        <ele>599.8</ele>
        <time>2016-12-06T12:30:53Z</time>
      </trkpt>
      <trkpt lat="45.84103" lon="3.03499">
        <ele>602.6</ele>
        <time>2016-12-06T12:30:58Z</time>
      </trkpt>
      <trkpt lat="45.84103" lon="3.03498">
        <ele>602.7</ele>
        <time>2016-12-06T12:30:58Z</time>
      </trkpt>
      <trkpt lat="45.84107" lon="3.03454">
        <ele>605</ele>
        <time>2016-12-06T12:31:02Z</time>
      </trkpt>
      <trkpt lat="45.84106" lon="3.03405">
        <ele>607.1</ele>
        <time>2016-12-06T12:31:06Z</time>
      </trkpt>
      <trkpt lat="45.84111" lon="3.0335">
        <ele>609.3</ele>
        <time>2016-12-06T12:31:10Z</time>
      </trkpt>
      <trkpt lat="45.84124" lon="3.03315">
        <ele>611</ele>
        <time>2016-12-06T12:31:13Z</time>
      </trkpt>
      <trkpt lat="45.84156" lon="3.03232">
        <ele>616.2</ele>
        <time>2016-12-06T12:31:20Z</time>
      </trkpt>
      <trkpt lat="45.84158" lon="3.03185">
        <ele>618.9</ele>
        <time>2016-12-06T12:31:24Z</time>
      </trkpt>
      <trkpt lat="45.84154" lon="3.03156">
        <ele>619.8</ele>
        <time>2016-12-06T12:31:26Z</time>
      </trkpt>
      <trkpt lat="45.84178" lon="3.02872">
        <ele>624.9</ele>
        <time>2016-12-06T12:31:48Z</time>
      </trkpt>
      <trkpt lat="45.84198" lon="3.0281">
        <ele>628.8</ele>
        <time>2016-12-06T12:31:54Z</time>
      </trkpt>
      <trkpt lat="45.84206" lon="3.02741">
        <ele>629.8</ele>
        <time>2016-12-06T12:31:59Z</time>
      </trkpt>
      <trkpt lat="45.8423" lon="3.02643">
        <ele>632.2</ele>
        <time>2016-12-06T12:32:07Z</time>
      </trkpt>
      <trkpt lat="45.84276" lon="3.02513">
        <ele>636.9</ele>
        <time>2016-12-06T12:32:19Z</time>
      </trkpt>
      <trkpt lat="45.84309" lon="3.02548">
        <ele>637.3</ele>
        <time>2016-12-06T12:32:23Z</time>
      </trkpt>
      <trkpt lat="45.84335" lon="3.02567">
        <ele>638.2</ele>
        <time>2016-12-06T12:32:26Z</time>
      </trkpt>
      <trkpt lat="45.84355" lon="3.02555">
        <ele>640</ele>
        <time>2016-12-06T12:32:29Z</time>
      </trkpt>
      <trkpt lat="45.84384" lon="3.02513">
        <ele>642.7</ele>
        <time>2016-12-06T12:32:33Z</time>
      </trkpt>
      <trkpt lat="45.84413" lon="3.02522">
        <ele>644.5</ele>
        <time>2016-12-06T12:32:37Z</time>
      </trkpt>
      <trkpt lat="45.84426" lon="3.02462">
        <ele>648.4</ele>
        <time>2016-12-06T12:32:42Z</time>
      </trkpt>
      <trkpt lat="45.84431" lon="3.02422">
        <ele>650.4</ele>
        <time>2016-12-06T12:32:45Z</time>
      </trkpt>
      <trkpt lat="45.8442" lon="3.02311">
        <ele>656.3</ele>
        <time>2016-12-06T12:32:54Z</time>
      </trkpt>
      <trkpt lat="45.84415" lon="3.02239">
        <ele>662</ele>
        <time>2016-12-06T12:32:59Z</time>
      </trkpt>
      <trkpt lat="45.84417" lon="3.02203">
        <ele>665.5</ele>
        <time>2016-12-06T12:33:02Z</time>
      </trkpt>
      <trkpt lat="45.84417" lon="3.02181">
        <ele>668.2</ele>
        <time>2016-12-06T12:33:04Z</time>
      </trkpt>
      <trkpt lat="45.84405" lon="3.0218">
        <ele>670</ele>
        <time>2016-12-06T12:33:05Z</time>
      </trkpt>
      <trkpt lat="45.84361" lon="3.02231">
        <ele>670.1</ele>
        <time>2016-12-06T12:33:11Z</time>
      </trkpt>
      <trkpt lat="45.8434" lon="3.02244">
        <ele>669.2</ele>
        <time>2016-12-06T12:33:14Z</time>
      </trkpt>
      <trkpt lat="45.84327" lon="3.02236">
        <ele>670</ele>
        <time>2016-12-06T12:33:15Z</time>
      </trkpt>
      <trkpt lat="45.84322" lon="3.02187">
        <ele>678.5</ele>
        <time>2016-12-06T12:33:19Z</time>
      </trkpt>
      <trkpt lat="45.84328" lon="3.02162">
        <ele>682.4</ele>
        <time>2016-12-06T12:33:21Z</time>
      </trkpt>
      <trkpt lat="45.84322" lon="3.0212">
        <ele>687.3</ele>
        <time>2016-12-06T12:33:25Z</time>
      </trkpt>
      <trkpt lat="45.84309" lon="3.02103">
        <ele>689</ele>
        <time>2016-12-06T12:33:27Z</time>
      </trkpt>
      <trkpt lat="45.84289" lon="3.02029">
        <ele>696.8</ele>
        <time>2016-12-06T12:33:33Z</time>
      </trkpt>
      <trkpt lat="45.84289" lon="3.01974">
        <ele>702.6</ele>
        <time>2016-12-06T12:33:37Z</time>
      </trkpt>
      <trkpt lat="45.84291" lon="3.01959">
        <ele>703.7</ele>
        <time>2016-12-06T12:33:38Z</time>
      </trkpt>
      <trkpt lat="45.84303" lon="3.01949">
        <ele>704.8</ele>
        <time>2016-12-06T12:33:40Z</time>
      </trkpt>
      <trkpt lat="45.8431" lon="3.01937">
        <ele>705.5</ele>
        <time>2016-12-06T12:33:41Z</time>
      </trkpt>
      <trkpt lat="45.84325" lon="3.0191">
        <ele>707</ele>
        <time>2016-12-06T12:33:44Z</time>
      </trkpt>
      <trkpt lat="45.84332" lon="3.01899">
        <ele>707.5</ele>
        <time>2016-12-06T12:33:45Z</time>
      </trkpt>
      <trkpt lat="45.84411" lon="3.01867">
        <ele>702.7</ele>
        <time>2016-12-06T12:33:54Z</time>
      </trkpt>
      <trkpt lat="45.84411" lon="3.018">
        <ele>706.7</ele>
        <time>2016-12-06T12:33:59Z</time>
      </trkpt>
      <trkpt lat="45.8442" lon="3.0172">
        <ele>710.9</ele>
        <time>2016-12-06T12:34:06Z</time>
      </trkpt>
      <trkpt lat="45.8445" lon="3.01649">
        <ele>712.8</ele>
        <time>2016-12-06T12:34:12Z</time>
      </trkpt>
      <trkpt lat="45.84472" lon="3.01592">
        <ele>717.1</ele>
        <time>2016-12-06T12:34:17Z</time>
      </trkpt>
      <trkpt lat="45.84498" lon="3.0156">
        <ele>718.4</ele>
        <time>2016-12-06T12:34:21Z</time>
      </trkpt>
      <trkpt lat="45.84482" lon="3.01531">
        <ele>720.2</ele>
        <time>2016-12-06T12:34:24Z</time>
      </trkpt>
      <trkpt lat="45.84499" lon="3.0152">
        <ele>720.3</ele>
        <time>2016-12-06T12:34:26Z</time>
      </trkpt>
      <trkpt lat="45.8453" lon="3.01506">
        <ele>720.2</ele>
        <time>2016-12-06T12:34:30Z</time>
      </trkpt>
      <trkpt lat="45.84597" lon="3.01482">
        <ele>726.2</ele>
        <time>2016-12-06T12:34:37Z</time>
      </trkpt>
      <trkpt lat="45.8471" lon="3.01511">
        <ele>731.7</ele>
        <time>2016-12-06T12:34:50Z</time>
      </trkpt>
      <trkpt lat="45.848" lon="3.01576">
        <ele>732.4</ele>
        <time>2016-12-06T12:35:01Z</time>
      </trkpt>
      <trkpt lat="45.84875" lon="3.01672">
        <ele>732.2</ele>
        <time>2016-12-06T12:35:12Z</time>
      </trkpt>
      <trkpt lat="45.84911" lon="3.01825">
        <ele>734.9</ele>
        <time>2016-12-06T12:35:25Z</time>
      </trkpt>
      <trkpt lat="45.84949" lon="3.01968">
        <ele>736.4</ele>
        <time>2016-12-06T12:35:37Z</time>
      </trkpt>
      <trkpt lat="45.85037" lon="3.02075">
        <ele>737.8</ele>
        <time>2016-12-06T12:35:50Z</time>
      </trkpt>
      <trkpt lat="45.85231" lon="3.02129">
        <ele>741.7</ele>
        <time>2016-12-06T12:36:12Z</time>
      </trkpt>
      <trkpt lat="45.8526" lon="3.02121">
        <ele>743.4</ele>
        <time>2016-12-06T12:36:15Z</time>
      </trkpt>
      <trkpt lat="45.85283" lon="3.02056">
        <ele>748.7</ele>
        <time>2016-12-06T12:36:20Z</time>
      </trkpt>
      <trkpt lat="45.85289" lon="3.01958">
        <ele>753.9</ele>
        <time>2016-12-06T12:36:28Z</time>
      </trkpt>
      <trkpt lat="45.85402" lon="3.02025">
        <ele>750.2</ele>
        <time>2016-12-06T12:36:42Z</time>
      </trkpt>
      <trkpt lat="45.85452" lon="3.01942">
        <ele>752.8</ele>
        <time>2016-12-06T12:36:50Z</time>
      </trkpt>
      <trkpt lat="45.85524" lon="3.01745">
        <ele>759.3</ele>
        <time>2016-12-06T12:37:08Z</time>
      </trkpt>
      <trkpt lat="45.8556" lon="3.0168">
        <ele>759.9</ele>
        <time>2016-12-06T12:37:14Z</time>
      </trkpt>
      <trkpt lat="45.85563" lon="3.01568">
        <ele>763.7</ele>
        <time>2016-12-06T12:37:23Z</time>
      </trkpt>
      <trkpt lat="45.85545" lon="3.01459">
        <ele>767.9</ele>
        <time>2016-12-06T12:37:31Z</time>
      </trkpt>
      <trkpt lat="45.85492" lon="3.0135">
        <ele>773.1</ele>
        <time>2016-12-06T12:37:42Z</time>
      </trkpt>
      <trkpt lat="45.85337" lon="3.0109">
        <ele>772</ele>
        <time>2016-12-06T12:38:08Z</time>
      </trkpt>
      <trkpt lat="45.85269" lon="3.00921">
        <ele>771.4</ele>
        <time>2016-12-06T12:38:23Z</time>
      </trkpt>
      <trkpt lat="45.85263" lon="3.00895">
        <ele>771.7</ele>
        <time>2016-12-06T12:38:25Z</time>
      </trkpt>
      <trkpt lat="45.85202" lon="3.00666">
        <ele>777.8</ele>
        <time>2016-12-06T12:38:44Z</time>
      </trkpt>
      <trkpt lat="45.85166" lon="3.00474">
        <ele>785.5</ele>
        <time>2016-12-06T12:39:00Z</time>
      </trkpt>
      <trkpt lat="45.85181" lon="3.00414">
        <ele>789.3</ele>
        <time>2016-12-06T12:39:05Z</time>
      </trkpt>
      <trkpt lat="45.85253" lon="3.00282">
        <ele>787.4</ele>
        <time>2016-12-06T12:39:18Z</time>
      </trkpt>
      <trkpt lat="45.85355" lon="3.00061">
        <ele>787.2</ele>
        <time>2016-12-06T12:39:38Z</time>
      </trkpt>
      <trkpt lat="45.85368" lon="3.00009">
        <ele>787.8</ele>
        <time>2016-12-06T12:39:43Z</time>
      </trkpt>
      <trkpt lat="45.85414" lon="2.99892">
        <ele>789.1</ele>
        <time>2016-12-06T12:39:53Z</time>
      </trkpt>
      <trkpt lat="45.85447" lon="2.99783">
        <ele>791.5</ele>
        <time>2016-12-06T12:40:02Z</time>
      </trkpt>
      <trkpt lat="45.85418" lon="2.99608">
        <ele>800.9</ele>
        <time>2016-12-06T12:40:16Z</time>
      </trkpt>
      <trkpt lat="45.85416" lon="2.99473">
        <ele>805.8</ele>
        <time>2016-12-06T12:40:27Z</time>
      </trkpt>
      <trkpt lat="45.85423" lon="2.99434">
        <ele>807</ele>
        <time>2016-12-06T12:40:30Z</time>
      </trkpt>
      <trkpt lat="45.85488" lon="2.99341">
        <ele>809.6</ele>
        <time>2016-12-06T12:40:40Z</time>
      </trkpt>
      <trkpt lat="45.85562" lon="2.99156">
        <ele>814</ele>
        <time>2016-12-06T12:40:56Z</time>
      </trkpt>
      <trkpt lat="45.85538" lon="2.98946">
        <ele>818.8</ele>
        <time>2016-12-06T12:41:13Z</time>
      </trkpt>
      <trkpt lat="45.85497" lon="2.98816">
        <ele>825.1</ele>
        <time>2016-12-06T12:41:24Z</time>
      </trkpt>
      <trkpt lat="45.85441" lon="2.98689">
        <ele>832.5</ele>
        <time>2016-12-06T12:41:36Z</time>
      </trkpt>
      <trkpt lat="45.85391" lon="2.98644">
        <ele>835.7</ele>
        <time>2016-12-06T12:41:42Z</time>
      </trkpt>
      <trkpt lat="45.8531" lon="2.98652">
        <ele>836.1</ele>
        <time>2016-12-06T12:41:51Z</time>
      </trkpt>
      <trkpt lat="45.85416" lon="2.98512">
        <ele>840.6</ele>
        <time>2016-12-06T12:42:07Z</time>
      </trkpt>
      <trkpt lat="45.85481" lon="2.98457">
        <ele>846.5</ele>
        <time>2016-12-06T12:42:16Z</time>
      </trkpt>
      <trkpt lat="45.8554" lon="2.98309">
        <ele>856.6</ele>
        <time>2016-12-06T12:42:29Z</time>
      </trkpt>
      <trkpt lat="45.85601" lon="2.98156">
        <ele>866.2</ele>
        <time>2016-12-06T12:42:43Z</time>
      </trkpt>
      <trkpt lat="45.8567" lon="2.98085">
        <ele>876.3</ele>
        <time>2016-12-06T12:42:52Z</time>
      </trkpt>
      <trkpt lat="45.85734" lon="2.98012">
        <ele>881.3</ele>
        <time>2016-12-06T12:43:01Z</time>
      </trkpt>
      <trkpt lat="45.85787" lon="2.97908">
        <ele>878.7</ele>
        <time>2016-12-06T12:43:11Z</time>
      </trkpt>
      <trkpt lat="45.85797" lon="2.97708">
        <ele>875.1</ele>
        <time>2016-12-06T12:43:27Z</time>
      </trkpt>
      <trkpt lat="45.85867" lon="2.97583">
        <ele>866.1</ele>
        <time>2016-12-06T12:43:39Z</time>
      </trkpt>
      <trkpt lat="45.85934" lon="2.97386">
        <ele>857</ele>
        <time>2016-12-06T12:43:56Z</time>
      </trkpt>
      <trkpt lat="45.86052" lon="2.97196">
        <ele>855.7</ele>
        <time>2016-12-06T12:44:16Z</time>
      </trkpt>
      <trkpt lat="45.86142" lon="2.9704">
        <ele>849.4</ele>
        <time>2016-12-06T12:44:32Z</time>
      </trkpt>
      <trkpt lat="45.86358" lon="2.96814">
        <ele>841.6</ele>
        <time>2016-12-06T12:45:01Z</time>
      </trkpt>
      <trkpt lat="45.86396" lon="2.96822">
        <ele>840.2</ele>
        <time>2016-12-06T12:45:06Z</time>
      </trkpt>
      <trkpt lat="45.86507" lon="2.96871">
        <ele>837.2</ele>
        <time>2016-12-06T12:45:19Z</time>
      </trkpt>
      <trkpt lat="45.86577" lon="2.96754">
        <ele>837.6</ele>
        <time>2016-12-06T12:45:30Z</time>
      </trkpt>
      <trkpt lat="45.86599" lon="2.9672">
        <ele>838.5</ele>
        <time>2016-12-06T12:45:34Z</time>
      </trkpt>
      <trkpt lat="45.86518" lon="2.96687">
        <ele>840.2</ele>
        <time>2016-12-06T12:45:43Z</time>
      </trkpt>
      <trkpt lat="45.86466" lon="2.96637">
        <ele>843.1</ele>
        <time>2016-12-06T12:45:50Z</time>
      </trkpt>
      <trkpt lat="45.86408" lon="2.96554">
        <ele>848.1</ele>
        <time>2016-12-06T12:45:59Z</time>
      </trkpt>
      <trkpt lat="45.863" lon="2.9645">
        <ele>862.3</ele>
        <time>2016-12-06T12:46:14Z</time>
      </trkpt>
      <trkpt lat="45.86196" lon="2.96305">
        <ele>882</ele>
        <time>2016-12-06T12:46:30Z</time>
      </trkpt>
      <trkpt lat="45.86146" lon="2.9624">
        <ele>890.2</ele>
        <time>2016-12-06T12:46:38Z</time>
      </trkpt>
      <trkpt lat="45.86101" lon="2.96169">
        <ele>894.6</ele>
        <time>2016-12-06T12:46:45Z</time>
      </trkpt>
      <trkpt lat="45.86123" lon="2.96094">
        <ele>895.1</ele>
        <time>2016-12-06T12:46:51Z</time>
      </trkpt>
      <trkpt lat="45.86238" lon="2.95972">
        <ele>895.1</ele>
        <time>2016-12-06T12:47:07Z</time>
      </trkpt>
      <trkpt lat="45.86338" lon="2.95871">
        <ele>892.3</ele>
        <time>2016-12-06T12:47:21Z</time>
      </trkpt>
      <trkpt lat="45.86277" lon="2.95702">
        <ele>894.7</ele>
        <time>2016-12-06T12:47:36Z</time>
      </trkpt>
      <trkpt lat="45.86221" lon="2.95611">
        <ele>897.7</ele>
        <time>2016-12-06T12:47:45Z</time>
      </trkpt>
      <trkpt lat="45.86193" lon="2.95489">
        <ele>904.5</ele>
        <time>2016-12-06T12:47:55Z</time>
      </trkpt>
      <trkpt lat="45.86092" lon="2.95309">
        <ele>918.4</ele>
        <time>2016-12-06T12:48:13Z</time>
      </trkpt>
      <trkpt lat="45.86065" lon="2.95234">
        <ele>922.2</ele>
        <time>2016-12-06T12:48:20Z</time>
      </trkpt>
      <trkpt lat="45.85979" lon="2.95172">
        <ele>927.5</ele>
        <time>2016-12-06T12:48:30Z</time>
      </trkpt>
      <trkpt lat="45.85923" lon="2.95011">
        <ele>931.6</ele>
        <time>2016-12-06T12:48:44Z</time>
      </trkpt>
      <trkpt lat="45.85952" lon="2.94902">
        <ele>927.1</ele>
        <time>2016-12-06T12:48:53Z</time>
      </trkpt>
      <trkpt lat="45.8591" lon="2.94865">
        <ele>926.1</ele>
        <time>2016-12-06T12:48:59Z</time>
      </trkpt>
      <trkpt lat="45.85972" lon="2.94755">
        <ele>913.5</ele>
        <time>2016-12-06T12:49:10Z</time>
      </trkpt>
      <trkpt lat="45.86049" lon="2.94581">
        <ele>892.9</ele>
        <time>2016-12-06T12:49:26Z</time>
      </trkpt>
      <trkpt lat="45.8613" lon="2.94378">
        <ele>877.8</ele>
        <time>2016-12-06T12:49:44Z</time>
      </trkpt>
      <trkpt lat="45.86169" lon="2.94302">
        <ele>872.7</ele>
        <time>2016-12-06T12:49:51Z</time>
      </trkpt>
      <trkpt lat="45.86204" lon="2.94227">
        <ele>868.7</ele>
        <time>2016-12-06T12:49:59Z</time>
      </trkpt>
      <trkpt lat="45.86272" lon="2.94256">
        <ele>869.1</ele>
        <time>2016-12-06T12:50:06Z</time>
      </trkpt>
      <trkpt lat="45.86297" lon="2.93951">
        <ele>863.1</ele>
        <time>2016-12-06T12:50:30Z</time>
      </trkpt>
      <trkpt lat="45.86324" lon="2.93717">
        <ele>862.3</ele>
        <time>2016-12-06T12:50:48Z</time>
      </trkpt>
      <trkpt lat="45.8637" lon="2.93501">
        <ele>861.9</ele>
        <time>2016-12-06T12:51:06Z</time>
      </trkpt>
      <trkpt lat="45.86295" lon="2.93213">
        <ele>863</ele>
        <time>2016-12-06T12:51:30Z</time>
      </trkpt>
      <trkpt lat="45.86234" lon="2.93184">
        <ele>865.6</ele>
        <time>2016-12-06T12:51:37Z</time>
      </trkpt>
      <trkpt lat="45.86121" lon="2.93246">
        <ele>871.1</ele>
        <time>2016-12-06T12:51:50Z</time>
      </trkpt>
      <trkpt lat="45.8606" lon="2.93228">
        <ele>871.3</ele>
        <time>2016-12-06T12:51:57Z</time>
      </trkpt>
      <trkpt lat="45.86043" lon="2.93213">
        <ele>871</ele>
        <time>2016-12-06T12:52:00Z</time>
      </trkpt>
      <trkpt lat="45.86009" lon="2.93155">
        <ele>869.1</ele>
        <time>2016-12-06T12:52:05Z</time>
      </trkpt>
      <trkpt lat="45.86024" lon="2.93049">
        <ele>870.1</ele>
        <time>2016-12-06T12:52:14Z</time>
      </trkpt>
      <trkpt lat="45.86042" lon="2.92854">
        <ele>875.8</ele>
        <time>2016-12-06T12:52:29Z</time>
      </trkpt>
      <trkpt lat="45.86017" lon="2.92594">
        <ele>878.2</ele>
        <time>2016-12-06T12:52:49Z</time>
      </trkpt>
      <trkpt lat="45.8602" lon="2.92464">
        <ele>875.8</ele>
        <time>2016-12-06T12:52:59Z</time>
      </trkpt>
      <trkpt lat="45.85982" lon="2.92383">
        <ele>877.4</ele>
        <time>2016-12-06T12:53:07Z</time>
      </trkpt>
      <trkpt lat="45.85972" lon="2.92305">
        <ele>875</ele>
        <time>2016-12-06T12:53:13Z</time>
      </trkpt>
      <trkpt lat="45.85968" lon="2.92195">
        <ele>876.7</ele>
        <time>2016-12-06T12:53:22Z</time>
      </trkpt>
      <trkpt lat="45.85952" lon="2.9211">
        <ele>878.7</ele>
        <time>2016-12-06T12:53:29Z</time>
      </trkpt>
      <trkpt lat="45.85871" lon="2.92128">
        <ele>884.7</ele>
        <time>2016-12-06T12:53:38Z</time>
      </trkpt>
      <trkpt lat="45.85763" lon="2.92219">
        <ele>890.9</ele>
        <time>2016-12-06T12:53:52Z</time>
      </trkpt>
      <trkpt lat="45.85708" lon="2.92307">
        <ele>892</ele>
        <time>2016-12-06T12:54:01Z</time>
      </trkpt>
      <trkpt lat="45.85694" lon="2.92359">
        <ele>893.4</ele>
        <time>2016-12-06T12:54:05Z</time>
      </trkpt>
      <trkpt lat="45.85335" lon="2.92541">
        <ele>899.9</ele>
        <time>2016-12-06T12:54:47Z</time>
      </trkpt>
      <trkpt lat="45.85199" lon="2.92596">
        <ele>899.9</ele>
        <time>2016-12-06T12:55:03Z</time>
      </trkpt>
      <trkpt lat="45.85105" lon="2.92619">
        <ele>899.1</ele>
        <time>2016-12-06T12:55:14Z</time>
      </trkpt>
      <trkpt lat="45.85103" lon="2.92541">
        <ele>895.5</ele>
        <time>2016-12-06T12:55:20Z</time>
      </trkpt>
      <trkpt lat="45.85042" lon="2.92375">
        <ele>894.1</ele>
        <time>2016-12-06T12:55:34Z</time>
      </trkpt>
      <trkpt lat="45.8503" lon="2.92292">
        <ele>894</ele>
        <time>2016-12-06T12:55:41Z</time>
      </trkpt>
      <trkpt lat="45.85019" lon="2.92201">
        <ele>892.9</ele>
        <time>2016-12-06T12:55:48Z</time>
      </trkpt>
      <trkpt lat="45.8497" lon="2.92159">
        <ele>890.8</ele>
        <time>2016-12-06T12:55:54Z</time>
      </trkpt>
      <trkpt lat="45.84934" lon="2.92089">
        <ele>888.6</ele>
        <time>2016-12-06T12:56:01Z</time>
      </trkpt>
      <trkpt lat="45.84924" lon="2.92014">
        <ele>886.3</ele>
        <time>2016-12-06T12:56:07Z</time>
      </trkpt>
      <trkpt lat="45.84881" lon="2.91949">
        <ele>883.5</ele>
        <time>2016-12-06T12:56:14Z</time>
      </trkpt>
      <trkpt lat="45.84897" lon="2.91824">
        <ele>881.8</ele>
        <time>2016-12-06T12:56:24Z</time>
      </trkpt>
      <trkpt lat="45.84818" lon="2.91709">
        <ele>879</ele>
        <time>2016-12-06T12:56:36Z</time>
      </trkpt>
      <trkpt lat="45.8478" lon="2.91616">
        <ele>878.3</ele>
        <time>2016-12-06T12:56:45Z</time>
      </trkpt>
      <trkpt lat="45.84739" lon="2.91585">
        <ele>877</ele>
        <time>2016-12-06T12:56:50Z</time>
      </trkpt>
      <trkpt lat="45.84699" lon="2.91533">
        <ele>876</ele>
        <time>2016-12-06T12:56:56Z</time>
      </trkpt>
      <trkpt lat="45.84688" lon="2.91439">
        <ele>875.4</ele>
        <time>2016-12-06T12:57:03Z</time>
      </trkpt>
      <trkpt lat="45.84685" lon="2.91348">
        <ele>872.5</ele>
        <time>2016-12-06T12:57:10Z</time>
      </trkpt>
      <trkpt lat="45.84642" lon="2.91299">
        <ele>869.2</ele>
        <time>2016-12-06T12:57:16Z</time>
      </trkpt>
      <trkpt lat="45.84589" lon="2.91265">
        <ele>866.6</ele>
        <time>2016-12-06T12:57:23Z</time>
      </trkpt>
      <trkpt lat="45.84642" lon="2.91021">
        <ele>861.3</ele>
        <time>2016-12-06T12:57:43Z</time>
      </trkpt>
      <trkpt lat="45.84529" lon="2.91045">
        <ele>858.6</ele>
        <time>2016-12-06T12:57:55Z</time>
      </trkpt>
      <trkpt lat="45.84489" lon="2.91056">
        <ele>857.5</ele>
        <time>2016-12-06T12:58:00Z</time>
      </trkpt>
      <trkpt lat="45.84478" lon="2.91099">
        <ele>858.8</ele>
        <time>2016-12-06T12:58:03Z</time>
      </trkpt>
      <trkpt lat="45.84378" lon="2.91259">
        <ele>858.2</ele>
        <time>2016-12-06T12:58:20Z</time>
      </trkpt>
      <trkpt lat="45.84316" lon="2.91286">
        <ele>858</ele>
        <time>2016-12-06T12:58:27Z</time>
      </trkpt>
      <trkpt lat="45.84187" lon="2.91435">
        <ele>848.4</ele>
        <time>2016-12-06T12:58:46Z</time>
      </trkpt>
      <trkpt lat="45.84154" lon="2.91357">
        <ele>849.1</ele>
        <time>2016-12-06T12:58:53Z</time>
      </trkpt>
      <trkpt lat="45.84125" lon="2.91267">
        <ele>849</ele>
        <time>2016-12-06T12:59:00Z</time>
      </trkpt>
      <trkpt lat="45.84087" lon="2.91158">
        <ele>843.2</ele>
        <time>2016-12-06T12:59:10Z</time>
      </trkpt>
      <trkpt lat="45.84036" lon="2.91154">
        <ele>843.8</ele>
        <time>2016-12-06T12:59:16Z</time>
      </trkpt>
      <trkpt lat="45.84033" lon="2.9122">
        <ele>849.1</ele>
        <time>2016-12-06T12:59:21Z</time>
      </trkpt>
      <trkpt lat="45.84003" lon="2.91411">
        <ele>864.1</ele>
        <time>2016-12-06T12:59:36Z</time>
      </trkpt>
      <trkpt lat="45.83909" lon="2.9154">
        <ele>873.8</ele>
        <time>2016-12-06T12:59:50Z</time>
      </trkpt>
      <trkpt lat="45.83812" lon="2.9161">
        <ele>878.2</ele>
        <time>2016-12-06T13:00:03Z</time>
      </trkpt>
      <trkpt lat="45.83672" lon="2.91875">
        <ele>881</ele>
        <time>2016-12-06T13:00:28Z</time>
      </trkpt>
      <trkpt lat="45.83532" lon="2.92183">
        <ele>870.3</ele>
        <time>2016-12-06T13:00:57Z</time>
      </trkpt>
      <trkpt lat="45.83518" lon="2.92178">
        <ele>871</ele>
        <time>2016-12-06T13:00:58Z</time>
      </trkpt>
      <trkpt lat="45.83426" lon="2.92164">
        <ele>870.6</ele>
        <time>2016-12-06T13:01:09Z</time>
      </trkpt>
      <trkpt lat="45.83402" lon="2.9198">
        <ele>862.4</ele>
        <time>2016-12-06T13:01:23Z</time>
      </trkpt>
      <trkpt lat="45.83393" lon="2.9192">
        <ele>860</ele>
        <time>2016-12-06T13:01:28Z</time>
      </trkpt>
      <trkpt lat="45.83399" lon="2.91819">
        <ele>851.8</ele>
        <time>2016-12-06T13:01:36Z</time>
      </trkpt>
      <trkpt lat="45.83372" lon="2.91673">
        <ele>842.3</ele>
        <time>2016-12-06T13:01:48Z</time>
      </trkpt>
      <trkpt lat="45.83364" lon="2.91579">
        <ele>837.6</ele>
        <time>2016-12-06T13:01:55Z</time>
      </trkpt>
      <trkpt lat="45.83358" lon="2.91505">
        <ele>835.6</ele>
        <time>2016-12-06T13:02:01Z</time>
      </trkpt>
      <trkpt lat="45.83376" lon="2.91335">
        <ele>830.1</ele>
        <time>2016-12-06T13:02:14Z</time>
      </trkpt>
      <trkpt lat="45.83357" lon="2.91219">
        <ele>827.4</ele>
        <time>2016-12-06T13:02:23Z</time>
      </trkpt>
      <trkpt lat="45.83353" lon="2.91082">
        <ele>826.3</ele>
        <time>2016-12-06T13:02:34Z</time>
      </trkpt>
      <trkpt lat="45.83338" lon="2.91047">
        <ele>825.1</ele>
        <time>2016-12-06T13:02:37Z</time>
      </trkpt>
      <trkpt lat="45.8331" lon="2.91041">
        <ele>824.6</ele>
        <time>2016-12-06T13:02:40Z</time>
      </trkpt>
      <trkpt lat="45.83265" lon="2.91018">
        <ele>824</ele>
        <time>2016-12-06T13:02:46Z</time>
      </trkpt>
      <trkpt lat="45.83212" lon="2.90952">
        <ele>822.1</ele>
        <time>2016-12-06T13:02:53Z</time>
      </trkpt>
      <trkpt lat="45.83178" lon="2.90917">
        <ele>822</ele>
        <time>2016-12-06T13:02:58Z</time>
      </trkpt>
      <trkpt lat="45.83148" lon="2.90907">
        <ele>822.3</ele>
        <time>2016-12-06T13:03:01Z</time>
      </trkpt>
      <trkpt lat="45.83151" lon="2.90811">
        <ele>821.6</ele>
        <time>2016-12-06T13:03:09Z</time>
      </trkpt>
      <trkpt lat="45.83143" lon="2.90796">
        <ele>821.4</ele>
        <time>2016-12-06T13:03:10Z</time>
      </trkpt>
      <trkpt lat="45.83134" lon="2.90791">
        <ele>821.5</ele>
        <time>2016-12-06T13:03:11Z</time>
      </trkpt>
      <trkpt lat="45.83128" lon="2.9076">
        <ele>820.4</ele>
        <time>2016-12-06T13:03:14Z</time>
      </trkpt>
      <trkpt lat="45.8312" lon="2.90754">
        <ele>820.1</ele>
        <time>2016-12-06T13:03:15Z</time>
      </trkpt>
      <trkpt lat="45.831" lon="2.90754">
        <ele>820.4</ele>
        <time>2016-12-06T13:03:17Z</time>
      </trkpt>
      <trkpt lat="45.83093" lon="2.90744">
        <ele>820.4</ele>
        <time>2016-12-06T13:03:18Z</time>
      </trkpt>
      <trkpt lat="45.8309" lon="2.90706">
        <ele>818.7</ele>
        <time>2016-12-06T13:03:21Z</time>
      </trkpt>
      <trkpt lat="45.83076" lon="2.90694">
        <ele>818.1</ele>
        <time>2016-12-06T13:03:23Z</time>
      </trkpt>
      <trkpt lat="45.83029" lon="2.90671">
        <ele>822</ele>
        <time>2016-12-06T13:03:29Z</time>
      </trkpt>
      <trkpt lat="45.8302" lon="2.9066">
        <ele>822.3</ele>
        <time>2016-12-06T13:03:30Z</time>
      </trkpt>
      <trkpt lat="45.83009" lon="2.90585">
        <ele>820.9</ele>
        <time>2016-12-06T13:03:36Z</time>
      </trkpt>
      <trkpt lat="45.82997" lon="2.90519">
        <ele>820.1</ele>
        <time>2016-12-06T13:03:41Z</time>
      </trkpt>
      <trkpt lat="45.82984" lon="2.90491">
        <ele>820.2</ele>
        <time>2016-12-06T13:03:44Z</time>
      </trkpt>
      <trkpt lat="45.82958" lon="2.90481">
        <ele>821.4</ele>
        <time>2016-12-06T13:03:47Z</time>
      </trkpt>
      <trkpt lat="45.82946" lon="2.9045">
        <ele>819.5</ele>
        <time>2016-12-06T13:03:50Z</time>
      </trkpt>
      <trkpt lat="45.82926" lon="2.90425">
        <ele>818.3</ele>
        <time>2016-12-06T13:03:53Z</time>
      </trkpt>
      <trkpt lat="45.82923" lon="2.90361">
        <ele>813.9</ele>
        <time>2016-12-06T13:03:57Z</time>
      </trkpt>
      <trkpt lat="45.82914" lon="2.9031">
        <ele>812.1</ele>
        <time>2016-12-06T13:04:02Z</time>
      </trkpt>
      <trkpt lat="45.82916" lon="2.90237">
        <ele>809.8</ele>
        <time>2016-12-06T13:04:07Z</time>
      </trkpt>
      <trkpt lat="45.82932" lon="2.90147">
        <ele>805.6</ele>
        <time>2016-12-06T13:04:14Z</time>
      </trkpt>
      <trkpt lat="45.82943" lon="2.90098">
        <ele>804.5</ele>
        <time>2016-12-06T13:04:18Z</time>
      </trkpt>
      <trkpt lat="45.82935" lon="2.90089">
        <ele>804.5</ele>
        <time>2016-12-06T13:04:20Z</time>
      </trkpt>
      <trkpt lat="45.82926" lon="2.9007">
        <ele>804</ele>
        <time>2016-12-06T13:04:21Z</time>
      </trkpt>
      <trkpt lat="45.82888" lon="2.90043">
        <ele>804</ele>
        <time>2016-12-06T13:04:26Z</time>
      </trkpt>
      <trkpt lat="45.82876" lon="2.90028">
        <ele>804</ele>
        <time>2016-12-06T13:04:28Z</time>
      </trkpt>
      <trkpt lat="45.82866" lon="2.89992">
        <ele>804.3</ele>
        <time>2016-12-06T13:04:31Z</time>
      </trkpt>
      <trkpt lat="45.82857" lon="2.89981">
        <ele>804.6</ele>
        <time>2016-12-06T13:04:32Z</time>
      </trkpt>
      <trkpt lat="45.82855" lon="2.89964">
        <ele>804.7</ele>
        <time>2016-12-06T13:04:33Z</time>
      </trkpt>
      <trkpt lat="45.82805" lon="2.89945">
        <ele>805.3</ele>
        <time>2016-12-06T13:04:39Z</time>
      </trkpt>
      <trkpt lat="45.82764" lon="2.89957">
        <ele>806.1</ele>
        <time>2016-12-06T13:04:44Z</time>
      </trkpt>
      <trkpt lat="45.82731" lon="2.89957">
        <ele>807</ele>
        <time>2016-12-06T13:04:48Z</time>
      </trkpt>
      <trkpt lat="45.82705" lon="2.89948">
        <ele>807.1</ele>
        <time>2016-12-06T13:04:51Z</time>
      </trkpt>
      <trkpt lat="45.8269" lon="2.89951">
        <ele>807.6</ele>
        <time>2016-12-06T13:04:52Z</time>
      </trkpt>
      <trkpt lat="45.82672" lon="2.89963">
        <ele>808</ele>
        <time>2016-12-06T13:04:54Z</time>
      </trkpt>
      <trkpt lat="45.82646" lon="2.89947">
        <ele>808.1</ele>
        <time>2016-12-06T13:04:58Z</time>
      </trkpt>
      <trkpt lat="45.8263" lon="2.8995">
        <ele>808.5</ele>
        <time>2016-12-06T13:04:59Z</time>
      </trkpt>
      <trkpt lat="45.82592" lon="2.89969">
        <ele>809</ele>
        <time>2016-12-06T13:05:04Z</time>
      </trkpt>
      <trkpt lat="45.82584" lon="2.89958">
        <ele>808.9</ele>
        <time>2016-12-06T13:05:05Z</time>
      </trkpt>
      <trkpt lat="45.82633" lon="2.89921">
        <ele>808</ele>
        <time>2016-12-06T13:05:11Z</time>
      </trkpt>
      <trkpt lat="45.82652" lon="2.899">
        <ele>808</ele>
        <time>2016-12-06T13:05:14Z</time>
      </trkpt>
      <trkpt lat="45.82661" lon="2.89871">
        <ele>807.5</ele>
        <time>2016-12-06T13:05:16Z</time>
      </trkpt>
      <trkpt lat="45.82659" lon="2.89843">
        <ele>807</ele>
        <time>2016-12-06T13:05:19Z</time>
      </trkpt>
      <trkpt lat="45.8269" lon="2.89798">
        <ele>806.4</ele>
        <time>2016-12-06T13:05:23Z</time>
      </trkpt>
      <trkpt lat="45.82724" lon="2.89709">
        <ele>805.5</ele>
        <time>2016-12-06T13:05:31Z</time>
      </trkpt>
      <trkpt lat="45.8274" lon="2.89628">
        <ele>804.8</ele>
        <time>2016-12-06T13:05:38Z</time>
      </trkpt>
      <trkpt lat="45.82754" lon="2.89557">
        <ele>803.3</ele>
        <time>2016-12-06T13:05:43Z</time>
      </trkpt>
      <trkpt lat="45.82733" lon="2.89534">
        <ele>804.1</ele>
        <time>2016-12-06T13:05:46Z</time>
      </trkpt>
      <trkpt lat="45.82699" lon="2.89511">
        <ele>805</ele>
        <time>2016-12-06T13:05:51Z</time>
      </trkpt>
      <trkpt lat="45.82647" lon="2.89505">
        <ele>804.4</ele>
        <time>2016-12-06T13:05:57Z</time>
      </trkpt>
      <trkpt lat="45.82601" lon="2.89485">
        <ele>805.2</ele>
        <time>2016-12-06T13:06:02Z</time>
      </trkpt>
      <trkpt lat="45.82574" lon="2.89472">
        <ele>805.9</ele>
        <time>2016-12-06T13:06:05Z</time>
      </trkpt>
      <trkpt lat="45.82527" lon="2.89481">
        <ele>806.5</ele>
        <time>2016-12-06T13:06:10Z</time>
      </trkpt>
      <trkpt lat="45.82489" lon="2.8946">
        <ele>807</ele>
        <time>2016-12-06T13:06:15Z</time>
      </trkpt>
      <trkpt lat="45.82428" lon="2.89458">
        <ele>807</ele>
        <time>2016-12-06T13:06:22Z</time>
      </trkpt>
      <trkpt lat="45.82404" lon="2.89437">
        <ele>807</ele>
        <time>2016-12-06T13:06:25Z</time>
      </trkpt>
      <trkpt lat="45.82378" lon="2.894">
        <ele>806.1</ele>
        <time>2016-12-06T13:06:29Z</time>
      </trkpt>
      <trkpt lat="45.82366" lon="2.89353">
        <ele>804.7</ele>
        <time>2016-12-06T13:06:33Z</time>
      </trkpt>
      <trkpt lat="45.82351" lon="2.8929">
        <ele>804.2</ele>
        <time>2016-12-06T13:06:38Z</time>
      </trkpt>
      <trkpt lat="45.82306" lon="2.89238">
        <ele>803.5</ele>
        <time>2016-12-06T13:06:44Z</time>
      </trkpt>
      <trkpt lat="45.82259" lon="2.89172">
        <ele>802</ele>
        <time>2016-12-06T13:06:52Z</time>
      </trkpt>
      <trkpt lat="45.82223" lon="2.89123">
        <ele>801.6</ele>
        <time>2016-12-06T13:06:57Z</time>
      </trkpt>
      <trkpt lat="45.82206" lon="2.89101">
        <ele>800.9</ele>
        <time>2016-12-06T13:07:00Z</time>
      </trkpt>
      <trkpt lat="45.82184" lon="2.89107">
        <ele>800.1</ele>
        <time>2016-12-06T13:07:02Z</time>
      </trkpt>
      <trkpt lat="45.82153" lon="2.89119">
        <ele>798.7</ele>
        <time>2016-12-06T13:07:06Z</time>
      </trkpt>
      <trkpt lat="45.82136" lon="2.8907">
        <ele>795.2</ele>
        <time>2016-12-06T13:07:10Z</time>
      </trkpt>
      <trkpt lat="45.82151" lon="2.89037">
        <ele>794.5</ele>
        <time>2016-12-06T13:07:13Z</time>
      </trkpt>
      <trkpt lat="45.82148" lon="2.89016">
        <ele>793.6</ele>
        <time>2016-12-06T13:07:15Z</time>
      </trkpt>
      <trkpt lat="45.82135" lon="2.8899">
        <ele>791.7</ele>
        <time>2016-12-06T13:07:17Z</time>
      </trkpt>
      <trkpt lat="45.82097" lon="2.88973">
        <ele>790</ele>
        <time>2016-12-06T13:07:21Z</time>
      </trkpt>
      <trkpt lat="45.8207" lon="2.8893">
        <ele>790</ele>
        <time>2016-12-06T13:07:26Z</time>
      </trkpt>
      <trkpt lat="45.82038" lon="2.88893">
        <ele>790</ele>
        <time>2016-12-06T13:07:31Z</time>
      </trkpt>
      <trkpt lat="45.82005" lon="2.88864">
        <ele>790</ele>
        <time>2016-12-06T13:07:35Z</time>
      </trkpt>
      <trkpt lat="45.81957" lon="2.88856">
        <ele>790.2</ele>
        <time>2016-12-06T13:07:40Z</time>
      </trkpt>
      <trkpt lat="45.81909" lon="2.88838">
        <ele>791.4</ele>
        <time>2016-12-06T13:07:46Z</time>
      </trkpt>
      <trkpt lat="45.81865" lon="2.88821">
        <ele>792.2</ele>
        <time>2016-12-06T13:07:51Z</time>
      </trkpt>
      <trkpt lat="45.81838" lon="2.8879">
        <ele>792.3</ele>
        <time>2016-12-06T13:07:55Z</time>
      </trkpt>
      <trkpt lat="45.81812" lon="2.88716">
        <ele>791.1</ele>
        <time>2016-12-06T13:08:01Z</time>
      </trkpt>
      <trkpt lat="45.81808" lon="2.88683">
        <ele>791</ele>
        <time>2016-12-06T13:08:04Z</time>
      </trkpt>
      <trkpt lat="45.81827" lon="2.88622">
        <ele>790.2</ele>
        <time>2016-12-06T13:08:09Z</time>
      </trkpt>
      <trkpt lat="45.81837" lon="2.88568">
        <ele>790.1</ele>
        <time>2016-12-06T13:08:13Z</time>
      </trkpt>
      <trkpt lat="45.81812" lon="2.88558">
        <ele>790.7</ele>
        <time>2016-12-06T13:08:16Z</time>
      </trkpt>
      <trkpt lat="45.81787" lon="2.88538">
        <ele>791.6</ele>
        <time>2016-12-06T13:08:19Z</time>
      </trkpt>
      <trkpt lat="45.81756" lon="2.88536">
        <ele>793.3</ele>
        <time>2016-12-06T13:08:23Z</time>
      </trkpt>
      <trkpt lat="45.81729" lon="2.88568">
        <ele>793.2</ele>
        <time>2016-12-06T13:08:26Z</time>
      </trkpt>
      <trkpt lat="45.81695" lon="2.88571">
        <ele>793.1</ele>
        <time>2016-12-06T13:08:30Z</time>
      </trkpt>
      <trkpt lat="45.81612" lon="2.88548">
        <ele>795.4</ele>
        <time>2016-12-06T13:08:40Z</time>
      </trkpt>
      <trkpt lat="45.81585" lon="2.88558">
        <ele>796.5</ele>
        <time>2016-12-06T13:08:43Z</time>
      </trkpt>
      <trkpt lat="45.81558" lon="2.88548">
        <ele>798.8</ele>
        <time>2016-12-06T13:08:46Z</time>
      </trkpt>
      <trkpt lat="45.81516" lon="2.885">
        <ele>800.6</ele>
        <time>2016-12-06T13:08:52Z</time>
      </trkpt>
      <trkpt lat="45.81494" lon="2.88484">
        <ele>801.2</ele>
        <time>2016-12-06T13:08:55Z</time>
      </trkpt>
      <trkpt lat="45.81451" lon="2.88472">
        <ele>803.8</ele>
        <time>2016-12-06T13:08:59Z</time>
      </trkpt>
      <trkpt lat="45.81411" lon="2.88494">
        <ele>806.7</ele>
        <time>2016-12-06T13:09:04Z</time>
      </trkpt>
      <trkpt lat="45.81377" lon="2.88546">
        <ele>808</ele>
        <time>2016-12-06T13:09:10Z</time>
      </trkpt>
      <trkpt lat="45.81346" lon="2.88574">
        <ele>806.9</ele>
        <time>2016-12-06T13:09:14Z</time>
      </trkpt>
      <trkpt lat="45.81318" lon="2.88564">
        <ele>804.9</ele>
        <time>2016-12-06T13:09:17Z</time>
      </trkpt>
      <trkpt lat="45.81286" lon="2.8856">
        <ele>803.2</ele>
        <time>2016-12-06T13:09:21Z</time>
      </trkpt>
      <trkpt lat="45.81252" lon="2.88572">
        <ele>804.4</ele>
        <time>2016-12-06T13:09:25Z</time>
      </trkpt>
      <trkpt lat="45.81228" lon="2.88572">
        <ele>805.9</ele>
        <time>2016-12-06T13:09:27Z</time>
      </trkpt>
      <trkpt lat="45.81202" lon="2.88566">
        <ele>808.4</ele>
        <time>2016-12-06T13:09:30Z</time>
      </trkpt>
      <trkpt lat="45.81175" lon="2.88546">
        <ele>810.9</ele>
        <time>2016-12-06T13:09:33Z</time>
      </trkpt>
      <trkpt lat="45.81147" lon="2.88509">
        <ele>810.2</ele>
        <time>2016-12-06T13:09:38Z</time>
      </trkpt>
      <trkpt lat="45.81118" lon="2.88453">
        <ele>808.1</ele>
        <time>2016-12-06T13:09:43Z</time>
      </trkpt>
      <trkpt lat="45.81096" lon="2.88416">
        <ele>805.6</ele>
        <time>2016-12-06T13:09:47Z</time>
      </trkpt>
      <trkpt lat="45.81051" lon="2.88357">
        <ele>805.1</ele>
        <time>2016-12-06T13:09:54Z</time>
      </trkpt>
      <trkpt lat="45.81007" lon="2.88327">
        <ele>804.4</ele>
        <time>2016-12-06T13:09:59Z</time>
      </trkpt>
      <trkpt lat="45.80992" lon="2.88314">
        <ele>805.5</ele>
        <time>2016-12-06T13:10:01Z</time>
      </trkpt>
      <trkpt lat="45.80969" lon="2.88278">
        <ele>803.5</ele>
        <time>2016-12-06T13:10:05Z</time>
      </trkpt>
      <trkpt lat="45.80921" lon="2.88244">
        <ele>797.6</ele>
        <time>2016-12-06T13:10:11Z</time>
      </trkpt>
      <trkpt lat="45.80879" lon="2.88257">
        <ele>793.6</ele>
        <time>2016-12-06T13:10:16Z</time>
      </trkpt>
      <trkpt lat="45.80789" lon="2.88283">
        <ele>786.1</ele>
        <time>2016-12-06T13:10:26Z</time>
      </trkpt>
      <trkpt lat="45.80693" lon="2.88304">
        <ele>789.4</ele>
        <time>2016-12-06T13:10:37Z</time>
      </trkpt>
      <trkpt lat="45.80604" lon="2.88309">
        <ele>793.5</ele>
        <time>2016-12-06T13:10:47Z</time>
      </trkpt>
      <trkpt lat="45.80538" lon="2.88287">
        <ele>796.8</ele>
        <time>2016-12-06T13:10:54Z</time>
      </trkpt>
      <trkpt lat="45.80413" lon="2.88184">
        <ele>800.9</ele>
        <time>2016-12-06T13:11:10Z</time>
      </trkpt>
      <trkpt lat="45.80346" lon="2.88113">
        <ele>805</ele>
        <time>2016-12-06T13:11:19Z</time>
      </trkpt>
      <trkpt lat="45.80249" lon="2.88102">
        <ele>807.6</ele>
        <time>2016-12-06T13:11:30Z</time>
      </trkpt>
      <trkpt lat="45.80123" lon="2.88078">
        <ele>814</ele>
        <time>2016-12-06T13:11:44Z</time>
      </trkpt>
      <trkpt lat="45.80025" lon="2.88081">
        <ele>815.5</ele>
        <time>2016-12-06T13:11:55Z</time>
      </trkpt>
      <trkpt lat="45.80015" lon="2.88078">
        <ele>815.5</ele>
        <time>2016-12-06T13:11:56Z</time>
      </trkpt>
      <trkpt lat="45.80006" lon="2.8795">
        <ele>815.1</ele>
        <time>2016-12-06T13:12:06Z</time>
      </trkpt>
      <trkpt lat="45.79914" lon="2.8795">
        <ele>813.7</ele>
        <time>2016-12-06T13:12:17Z</time>
      </trkpt>
      <trkpt lat="45.79805" lon="2.87932">
        <ele>812</ele>
        <time>2016-12-06T13:12:29Z</time>
      </trkpt>
      <trkpt lat="45.79623" lon="2.87807">
        <ele>807.4</ele>
        <time>2016-12-06T13:12:51Z</time>
      </trkpt>
      <trkpt lat="45.7944" lon="2.87932">
        <ele>803.3</ele>
        <time>2016-12-06T13:13:14Z</time>
      </trkpt>
      <trkpt lat="45.79376" lon="2.87971">
        <ele>801</ele>
        <time>2016-12-06T13:13:22Z</time>
      </trkpt>
      <trkpt lat="45.79285" lon="2.88055">
        <ele>797.6</ele>
        <time>2016-12-06T13:13:34Z</time>
      </trkpt>
      <trkpt lat="45.79239" lon="2.88102">
        <ele>796.5</ele>
        <time>2016-12-06T13:13:40Z</time>
      </trkpt>
      <trkpt lat="45.79231" lon="2.88135">
        <ele>796.4</ele>
        <time>2016-12-06T13:13:43Z</time>
      </trkpt>
      <trkpt lat="45.79243" lon="2.88236">
        <ele>798.2</ele>
        <time>2016-12-06T13:13:51Z</time>
      </trkpt>
      <trkpt lat="45.79285" lon="2.8834">
        <ele>801.3</ele>
        <time>2016-12-06T13:14:00Z</time>
      </trkpt>
      <trkpt lat="45.79277" lon="2.88367">
        <ele>801.8</ele>
        <time>2016-12-06T13:14:02Z</time>
      </trkpt>
      <trkpt lat="45.79194" lon="2.88379">
        <ele>801.7</ele>
        <time>2016-12-06T13:14:11Z</time>
      </trkpt>
      <trkpt lat="45.79153" lon="2.88394">
        <ele>800.9</ele>
        <time>2016-12-06T13:14:16Z</time>
      </trkpt>
      <trkpt lat="45.79131" lon="2.8839">
        <ele>800.2</ele>
        <time>2016-12-06T13:14:19Z</time>
      </trkpt>
      <trkpt lat="45.79022" lon="2.88464">
        <ele>795.3</ele>
        <time>2016-12-06T13:14:32Z</time>
      </trkpt>
      <trkpt lat="45.78988" lon="2.88507">
        <ele>793</ele>
        <time>2016-12-06T13:14:37Z</time>
      </trkpt>
      <trkpt lat="45.78945" lon="2.88626">
        <ele>801.3</ele>
        <time>2016-12-06T13:14:47Z</time>
      </trkpt>
      <trkpt lat="45.78898" lon="2.88646">
        <ele>805.3</ele>
        <time>2016-12-06T13:14:53Z</time>
      </trkpt>
      <trkpt lat="45.78856" lon="2.88669">
        <ele>810.1</ele>
        <time>2016-12-06T13:14:58Z</time>
      </trkpt>
      <trkpt lat="45.78851" lon="2.88696">
        <ele>813.2</ele>
        <time>2016-12-06T13:15:00Z</time>
      </trkpt>
      <trkpt lat="45.78864" lon="2.88718">
        <ele>814.7</ele>
        <time>2016-12-06T13:15:02Z</time>
      </trkpt>
      <trkpt lat="45.78878" lon="2.88727">
        <ele>814.8</ele>
        <time>2016-12-06T13:15:04Z</time>
      </trkpt>
      <trkpt lat="45.7887" lon="2.88825">
        <ele>819.2</ele>
        <time>2016-12-06T13:15:12Z</time>
      </trkpt>
      <trkpt lat="45.78839" lon="2.88895">
        <ele>822</ele>
        <time>2016-12-06T13:15:18Z</time>
      </trkpt>
      <trkpt lat="45.7882" lon="2.88951">
        <ele>823.6</ele>
        <time>2016-12-06T13:15:23Z</time>
      </trkpt>
      <trkpt lat="45.78791" lon="2.88985">
        <ele>825.3</ele>
        <time>2016-12-06T13:15:27Z</time>
      </trkpt>
      <trkpt lat="45.78681" lon="2.89021">
        <ele>828.6</ele>
        <time>2016-12-06T13:15:40Z</time>
      </trkpt>
      <trkpt lat="45.7861" lon="2.89042">
        <ele>830.7</ele>
        <time>2016-12-06T13:15:48Z</time>
      </trkpt>
      <trkpt lat="45.78508" lon="2.89006">
        <ele>831.3</ele>
        <time>2016-12-06T13:15:59Z</time>
      </trkpt>
      <trkpt lat="45.78452" lon="2.89009">
        <ele>830.7</ele>
        <time>2016-12-06T13:16:06Z</time>
      </trkpt>
      <trkpt lat="45.78379" lon="2.89086">
        <ele>833.2</ele>
        <time>2016-12-06T13:16:16Z</time>
      </trkpt>
      <trkpt lat="45.78341" lon="2.89111">
        <ele>834.9</ele>
        <time>2016-12-06T13:16:20Z</time>
      </trkpt>
      <trkpt lat="45.78335" lon="2.89087">
        <ele>834.2</ele>
        <time>2016-12-06T13:16:22Z</time>
      </trkpt>
      <trkpt lat="45.78315" lon="2.8905">
        <ele>833.4</ele>
        <time>2016-12-06T13:16:26Z</time>
      </trkpt>
      <trkpt lat="45.78319" lon="2.89019">
        <ele>832.6</ele>
        <time>2016-12-06T13:16:28Z</time>
      </trkpt>
      <trkpt lat="45.78317" lon="2.88991">
        <ele>832.1</ele>
        <time>2016-12-06T13:16:31Z</time>
      </trkpt>
      <trkpt lat="45.78332" lon="2.88958">
        <ele>831.2</ele>
        <time>2016-12-06T13:16:34Z</time>
      </trkpt>
      <trkpt lat="45.7831" lon="2.88773">
        <ele>830.2</ele>
        <time>2016-12-06T13:16:48Z</time>
      </trkpt>
      <trkpt lat="45.78305" lon="2.88672">
        <ele>827.6</ele>
        <time>2016-12-06T13:16:56Z</time>
      </trkpt>
      <trkpt lat="45.78292" lon="2.88573">
        <ele>826.3</ele>
        <time>2016-12-06T13:17:04Z</time>
      </trkpt>
      <trkpt lat="45.78274" lon="2.88467">
        <ele>826.7</ele>
        <time>2016-12-06T13:17:12Z</time>
      </trkpt>
      <trkpt lat="45.78285" lon="2.88378">
        <ele>826.3</ele>
        <time>2016-12-06T13:17:19Z</time>
      </trkpt>
      <trkpt lat="45.78312" lon="2.88199">
        <ele>821.3</ele>
        <time>2016-12-06T13:17:34Z</time>
      </trkpt>
      <trkpt lat="45.78301" lon="2.88129">
        <ele>820.7</ele>
        <time>2016-12-06T13:17:39Z</time>
      </trkpt>
      <trkpt lat="45.78316" lon="2.88056">
        <ele>817.5</ele>
        <time>2016-12-06T13:17:45Z</time>
      </trkpt>
      <trkpt lat="45.78309" lon="2.87983">
        <ele>815.8</ele>
        <time>2016-12-06T13:17:51Z</time>
      </trkpt>
      <trkpt lat="45.78258" lon="2.87853">
        <ele>812.2</ele>
        <time>2016-12-06T13:18:02Z</time>
      </trkpt>
      <trkpt lat="45.78256" lon="2.87809">
        <ele>812.7</ele>
        <time>2016-12-06T13:18:06Z</time>
      </trkpt>
      <trkpt lat="45.7824" lon="2.8777">
        <ele>812.5</ele>
        <time>2016-12-06T13:18:09Z</time>
      </trkpt>
      <trkpt lat="45.78206" lon="2.87775">
        <ele>811.8</ele>
        <time>2016-12-06T13:18:13Z</time>
      </trkpt>
      <trkpt lat="45.78179" lon="2.8777">
        <ele>811.4</ele>
        <time>2016-12-06T13:18:16Z</time>
      </trkpt>
      <trkpt lat="45.78174" lon="2.87749">
        <ele>811.3</ele>
        <time>2016-12-06T13:18:18Z</time>
      </trkpt>
      <trkpt lat="45.7821" lon="2.87716">
        <ele>812</ele>
        <time>2016-12-06T13:18:23Z</time>
      </trkpt>
      <trkpt lat="45.78194" lon="2.8769">
        <ele>811.6</ele>
        <time>2016-12-06T13:18:25Z</time>
      </trkpt>
      <trkpt lat="45.78167" lon="2.87697">
        <ele>811</ele>
        <time>2016-12-06T13:18:28Z</time>
      </trkpt>
      <trkpt lat="45.78136" lon="2.87674">
        <ele>809.9</ele>
        <time>2016-12-06T13:18:32Z</time>
      </trkpt>
      <trkpt lat="45.78116" lon="2.87617">
        <ele>808.8</ele>
        <time>2016-12-06T13:18:37Z</time>
      </trkpt>
      <trkpt lat="45.78132" lon="2.87552">
        <ele>807.9</ele>
        <time>2016-12-06T13:18:42Z</time>
      </trkpt>
      <trkpt lat="45.78154" lon="2.87477">
        <ele>805.9</ele>
        <time>2016-12-06T13:18:49Z</time>
      </trkpt>
      <trkpt lat="45.7819" lon="2.87399">
        <ele>800.3</ele>
        <time>2016-12-06T13:18:56Z</time>
      </trkpt>
      <trkpt lat="45.78163" lon="2.87318">
        <ele>799.9</ele>
        <time>2016-12-06T13:19:03Z</time>
      </trkpt>
      <trkpt lat="45.78145" lon="2.87258">
        <ele>799.3</ele>
        <time>2016-12-06T13:19:08Z</time>
      </trkpt>
      <trkpt lat="45.78174" lon="2.87175">
        <ele>800.7</ele>
        <time>2016-12-06T13:19:15Z</time>
      </trkpt>
      <trkpt lat="45.78177" lon="2.87037">
        <ele>791.7</ele>
        <time>2016-12-06T13:19:26Z</time>
      </trkpt>
      <trkpt lat="45.78177" lon="2.86926">
        <ele>784.5</ele>
        <time>2016-12-06T13:19:35Z</time>
      </trkpt>
      <trkpt lat="45.78159" lon="2.86905">
        <ele>783.8</ele>
        <time>2016-12-06T13:19:37Z</time>
      </trkpt>
      <trkpt lat="45.78079" lon="2.86881">
        <ele>781.6</ele>
        <time>2016-12-06T13:19:46Z</time>
      </trkpt>
      <trkpt lat="45.77944" lon="2.86759">
        <ele>783.1</ele>
        <time>2016-12-06T13:20:04Z</time>
      </trkpt>
      <trkpt lat="45.77865" lon="2.86681">
        <ele>778.9</ele>
        <time>2016-12-06T13:20:15Z</time>
      </trkpt>
      <trkpt lat="45.77809" lon="2.86596">
        <ele>775.7</ele>
        <time>2016-12-06T13:20:24Z</time>
      </trkpt>
      <trkpt lat="45.77775" lon="2.86484">
        <ele>775.1</ele>
        <time>2016-12-06T13:20:33Z</time>
      </trkpt>
      <trkpt lat="45.77708" lon="2.86406">
        <ele>773.2</ele>
        <time>2016-12-06T13:20:43Z</time>
      </trkpt>
      <trkpt lat="45.77646" lon="2.8632">
        <ele>763.9</ele>
        <time>2016-12-06T13:20:53Z</time>
      </trkpt>
      <trkpt lat="45.77624" lon="2.8626">
        <ele>764.7</ele>
        <time>2016-12-06T13:20:58Z</time>
      </trkpt>
      <trkpt lat="45.77572" lon="2.86323">
        <ele>762.1</ele>
        <time>2016-12-06T13:21:05Z</time>
      </trkpt>
      <trkpt lat="45.77498" lon="2.86338">
        <ele>762</ele>
        <time>2016-12-06T13:21:14Z</time>
      </trkpt>
      <trkpt lat="45.77441" lon="2.86367">
        <ele>760.5</ele>
        <time>2016-12-06T13:21:20Z</time>
      </trkpt>
      <trkpt lat="45.77355" lon="2.8637">
        <ele>753.6</ele>
        <time>2016-12-06T13:21:30Z</time>
      </trkpt>
      <trkpt lat="45.77319" lon="2.86427">
        <ele>750.1</ele>
        <time>2016-12-06T13:21:36Z</time>
      </trkpt>
      <trkpt lat="45.77279" lon="2.8651">
        <ele>745.9</ele>
        <time>2016-12-06T13:21:44Z</time>
      </trkpt>
      <trkpt lat="45.77283" lon="2.86614">
        <ele>747</ele>
        <time>2016-12-06T13:21:52Z</time>
      </trkpt>
      <trkpt lat="45.77272" lon="2.86713">
        <ele>746.8</ele>
        <time>2016-12-06T13:22:00Z</time>
      </trkpt>
      <trkpt lat="45.77238" lon="2.86897">
        <ele>754.9</ele>
        <time>2016-12-06T13:22:15Z</time>
      </trkpt>
      <trkpt lat="45.77196" lon="2.86988">
        <ele>764.1</ele>
        <time>2016-12-06T13:22:23Z</time>
      </trkpt>
      <trkpt lat="45.77169" lon="2.86996">
        <ele>762.8</ele>
        <time>2016-12-06T13:22:26Z</time>
      </trkpt>
      <trkpt lat="45.77142" lon="2.87082">
        <ele>773.7</ele>
        <time>2016-12-06T13:22:33Z</time>
      </trkpt>
      <trkpt lat="45.77104" lon="2.87157">
        <ele>780.7</ele>
        <time>2016-12-06T13:22:41Z</time>
      </trkpt>
      <trkpt lat="45.77034" lon="2.87261">
        <ele>788.9</ele>
        <time>2016-12-06T13:22:52Z</time>
      </trkpt>
      <trkpt lat="45.76914" lon="2.8758">
        <ele>787.4</ele>
        <time>2016-12-06T13:23:20Z</time>
      </trkpt>
      <trkpt lat="45.77022" lon="2.87588">
        <ele>786.3</ele>
        <time>2016-12-06T13:23:32Z</time>
      </trkpt>
      <trkpt lat="45.77092" lon="2.8757">
        <ele>784.7</ele>
        <time>2016-12-06T13:23:40Z</time>
      </trkpt>
      <trkpt lat="45.77165" lon="2.87606">
        <ele>785.9</ele>
        <time>2016-12-06T13:23:49Z</time>
      </trkpt>
      <trkpt lat="45.77183" lon="2.8763">
        <ele>787.7</ele>
        <time>2016-12-06T13:23:51Z</time>
      </trkpt>
      <trkpt lat="45.77207" lon="2.87664">
        <ele>789.6</ele>
        <time>2016-12-06T13:23:55Z</time>
      </trkpt>
      <trkpt lat="45.77223" lon="2.87643">
        <ele>791</ele>
        <time>2016-12-06T13:23:57Z</time>
      </trkpt>
      <trkpt lat="45.7723" lon="2.87604">
        <ele>792</ele>
        <time>2016-12-06T13:24:01Z</time>
      </trkpt>
      <trkpt lat="45.77243" lon="2.87612">
        <ele>793.2</ele>
        <time>2016-12-06T13:24:02Z</time>
      </trkpt>
      <trkpt lat="45.77259" lon="2.87643">
        <ele>793.9</ele>
        <time>2016-12-06T13:24:05Z</time>
      </trkpt>
      <trkpt lat="45.77311" lon="2.87651">
        <ele>796.6</ele>
        <time>2016-12-06T13:24:11Z</time>
      </trkpt>
      <trkpt lat="45.77363" lon="2.87666">
        <ele>798.8</ele>
        <time>2016-12-06T13:24:17Z</time>
      </trkpt>
      <trkpt lat="45.77383" lon="2.87718">
        <ele>802.4</ele>
        <time>2016-12-06T13:24:22Z</time>
      </trkpt>
      <trkpt lat="45.77501" lon="2.87796">
        <ele>810.9</ele>
        <time>2016-12-06T13:24:36Z</time>
      </trkpt>
      <trkpt lat="45.77516" lon="2.87846">
        <ele>813.9</ele>
        <time>2016-12-06T13:24:40Z</time>
      </trkpt>
      <trkpt lat="45.77541" lon="2.87879">
        <ele>816.8</ele>
        <time>2016-12-06T13:24:44Z</time>
      </trkpt>
      <trkpt lat="45.77566" lon="2.879">
        <ele>817.8</ele>
        <time>2016-12-06T13:24:47Z</time>
      </trkpt>
      <trkpt lat="45.77616" lon="2.87882">
        <ele>817.7</ele>
        <time>2016-12-06T13:24:53Z</time>
      </trkpt>
      <trkpt lat="45.77647" lon="2.87866">
        <ele>817.8</ele>
        <time>2016-12-06T13:24:57Z</time>
      </trkpt>
      <trkpt lat="45.77663" lon="2.8789">
        <ele>817</ele>
        <time>2016-12-06T13:24:59Z</time>
      </trkpt>
      <trkpt lat="45.77609" lon="2.8796">
        <ele>817.9</ele>
        <time>2016-12-06T13:25:07Z</time>
      </trkpt>
      <trkpt lat="45.77582" lon="2.88046">
        <ele>818.3</ele>
        <time>2016-12-06T13:25:15Z</time>
      </trkpt>
      <trkpt lat="45.77552" lon="2.88144">
        <ele>818.1</ele>
        <time>2016-12-06T13:25:23Z</time>
      </trkpt>
      <trkpt lat="45.77593" lon="2.88217">
        <ele>816.2</ele>
        <time>2016-12-06T13:25:30Z</time>
      </trkpt>
      <trkpt lat="45.77961" lon="2.89254">
        <ele>836.7</ele>
        <time>2016-12-06T13:27:01Z</time>
      </trkpt>
      <trkpt lat="45.7767" lon="2.8947">
        <ele>841.5</ele>
        <time>2016-12-06T13:27:37Z</time>
      </trkpt>
      <trkpt lat="45.77579" lon="2.89476">
        <ele>846.7</ele>
        <time>2016-12-06T13:27:47Z</time>
      </trkpt>
      <trkpt lat="45.77549" lon="2.89539">
        <ele>847.9</ele>
        <time>2016-12-06T13:27:53Z</time>
      </trkpt>
      <trkpt lat="45.77502" lon="2.89578">
        <ele>846.6</ele>
        <time>2016-12-06T13:27:59Z</time>
      </trkpt>
      <trkpt lat="45.77464" lon="2.89611">
        <ele>846.5</ele>
        <time>2016-12-06T13:28:04Z</time>
      </trkpt>
      <trkpt lat="45.7743" lon="2.89637">
        <ele>846</ele>
        <time>2016-12-06T13:28:08Z</time>
      </trkpt>
      <trkpt lat="45.77452" lon="2.89669">
        <ele>847.6</ele>
        <time>2016-12-06T13:28:12Z</time>
      </trkpt>
      <trkpt lat="45.77509" lon="2.89684">
        <ele>849.3</ele>
        <time>2016-12-06T13:28:18Z</time>
      </trkpt>
      <trkpt lat="45.77561" lon="2.89747">
        <ele>849.8</ele>
        <time>2016-12-06T13:28:26Z</time>
      </trkpt>
      <trkpt lat="45.77601" lon="2.8985">
        <ele>852</ele>
        <time>2016-12-06T13:28:35Z</time>
      </trkpt>
      <trkpt lat="45.77619" lon="2.89975">
        <ele>854.6</ele>
        <time>2016-12-06T13:28:45Z</time>
      </trkpt>
      <trkpt lat="45.77669" lon="2.90168">
        <ele>857.7</ele>
        <time>2016-12-06T13:29:01Z</time>
      </trkpt>
      <trkpt lat="45.77687" lon="2.9031">
        <ele>860</ele>
        <time>2016-12-06T13:29:12Z</time>
      </trkpt>
      <trkpt lat="45.77698" lon="2.90513">
        <ele>862.8</ele>
        <time>2016-12-06T13:29:28Z</time>
      </trkpt>
      <trkpt lat="45.77637" lon="2.90721">
        <ele>866.6</ele>
        <time>2016-12-06T13:29:45Z</time>
      </trkpt>
      <trkpt lat="45.77597" lon="2.90731">
        <ele>862.4</ele>
        <time>2016-12-06T13:29:50Z</time>
      </trkpt>
      <trkpt lat="45.7754" lon="2.90699">
        <ele>856.4</ele>
        <time>2016-12-06T13:29:57Z</time>
      </trkpt>
      <trkpt lat="45.7754" lon="2.90731">
        <ele>857.6</ele>
        <time>2016-12-06T13:29:59Z</time>
      </trkpt>
      <trkpt lat="45.77548" lon="2.90791">
        <ele>858.3</ele>
        <time>2016-12-06T13:30:04Z</time>
      </trkpt>
      <trkpt lat="45.77597" lon="2.90879">
        <ele>864.8</ele>
        <time>2016-12-06T13:30:13Z</time>
      </trkpt>
      <trkpt lat="45.77664" lon="2.90921">
        <ele>869.3</ele>
        <time>2016-12-06T13:30:21Z</time>
      </trkpt>
      <trkpt lat="45.77674" lon="2.90991">
        <ele>870.1</ele>
        <time>2016-12-06T13:30:26Z</time>
      </trkpt>
      <trkpt lat="45.77669" lon="2.91141">
        <ele>876.4</ele>
        <time>2016-12-06T13:30:38Z</time>
      </trkpt>
      <trkpt lat="45.77654" lon="2.91225">
        <ele>878.9</ele>
        <time>2016-12-06T13:30:45Z</time>
      </trkpt>
      <trkpt lat="45.77669" lon="2.91342">
        <ele>880.3</ele>
        <time>2016-12-06T13:30:54Z</time>
      </trkpt>
      <trkpt lat="45.77653" lon="2.91443">
        <ele>880.9</ele>
        <time>2016-12-06T13:31:02Z</time>
      </trkpt>
      <trkpt lat="45.77651" lon="2.91508">
        <ele>883.2</ele>
        <time>2016-12-06T13:31:07Z</time>
      </trkpt>
      <trkpt lat="45.77627" lon="2.91485">
        <ele>880.8</ele>
        <time>2016-12-06T13:31:10Z</time>
      </trkpt>
      <trkpt lat="45.77637" lon="2.91532">
        <ele>884.4</ele>
        <time>2016-12-06T13:31:14Z</time>
      </trkpt>
      <trkpt lat="45.77674" lon="2.9159">
        <ele>890.1</ele>
        <time>2016-12-06T13:31:20Z</time>
      </trkpt>
      <trkpt lat="45.77707" lon="2.91666">
        <ele>893.2</ele>
        <time>2016-12-06T13:31:27Z</time>
      </trkpt>
      <trkpt lat="45.77723" lon="2.91737">
        <ele>895.6</ele>
        <time>2016-12-06T13:31:33Z</time>
      </trkpt>
      <trkpt lat="45.77709" lon="2.91844">
        <ele>898.2</ele>
        <time>2016-12-06T13:31:41Z</time>
      </trkpt>
      <trkpt lat="45.77724" lon="2.91972">
        <ele>897.6</ele>
        <time>2016-12-06T13:31:51Z</time>
      </trkpt>
      <trkpt lat="45.77769" lon="2.9213">
        <ele>895.1</ele>
        <time>2016-12-06T13:32:05Z</time>
      </trkpt>
      <trkpt lat="45.77786" lon="2.92179">
        <ele>897</ele>
        <time>2016-12-06T13:32:09Z</time>
      </trkpt>
      <trkpt lat="45.77783" lon="2.923">
        <ele>906.1</ele>
        <time>2016-12-06T13:32:18Z</time>
      </trkpt>
      <trkpt lat="45.77789" lon="2.92403">
        <ele>908</ele>
        <time>2016-12-06T13:32:26Z</time>
      </trkpt>
      <trkpt lat="45.77761" lon="2.92547">
        <ele>912.3</ele>
        <time>2016-12-06T13:32:38Z</time>
      </trkpt>
      <trkpt lat="45.77752" lon="2.92684">
        <ele>916.5</ele>
        <time>2016-12-06T13:32:49Z</time>
      </trkpt>
      <trkpt lat="45.77763" lon="2.92812">
        <ele>920.4</ele>
        <time>2016-12-06T13:32:59Z</time>
      </trkpt>
      <trkpt lat="45.77771" lon="2.92929">
        <ele>925</ele>
        <time>2016-12-06T13:33:08Z</time>
      </trkpt>
      <trkpt lat="45.77782" lon="2.92947">
        <ele>925.8</ele>
        <time>2016-12-06T13:33:10Z</time>
      </trkpt>
      <trkpt lat="45.77789" lon="2.93001">
        <ele>927.5</ele>
        <time>2016-12-06T13:33:14Z</time>
      </trkpt>
      <trkpt lat="45.77769" lon="2.93034">
        <ele>928.7</ele>
        <time>2016-12-06T13:33:17Z</time>
      </trkpt>
      <trkpt lat="45.77701" lon="2.93069">
        <ele>932.9</ele>
        <time>2016-12-06T13:33:25Z</time>
      </trkpt>
      <trkpt lat="45.77654" lon="2.93071">
        <ele>937.1</ele>
        <time>2016-12-06T13:33:30Z</time>
      </trkpt>
      <trkpt lat="45.77618" lon="2.93029">
        <ele>938</ele>
        <time>2016-12-06T13:33:36Z</time>
      </trkpt>
      <trkpt lat="45.77587" lon="2.93011">
        <ele>938.3</ele>
        <time>2016-12-06T13:33:39Z</time>
      </trkpt>
      <trkpt lat="45.77529" lon="2.93064">
        <ele>941.7</ele>
        <time>2016-12-06T13:33:47Z</time>
      </trkpt>
      <trkpt lat="45.77412" lon="2.93161">
        <ele>943</ele>
        <time>2016-12-06T13:34:02Z</time>
      </trkpt>
      <trkpt lat="45.77356" lon="2.9328">
        <ele>941.8</ele>
        <time>2016-12-06T13:34:13Z</time>
      </trkpt>
      <trkpt lat="45.77285" lon="2.93432">
        <ele>941</ele>
        <time>2016-12-06T13:34:27Z</time>
      </trkpt>
      <trkpt lat="45.77311" lon="2.93539">
        <ele>942</ele>
        <time>2016-12-06T13:34:36Z</time>
      </trkpt>
      <trkpt lat="45.77376" lon="2.93601">
        <ele>945.9</ele>
        <time>2016-12-06T13:34:45Z</time>
      </trkpt>
      <trkpt lat="45.77435" lon="2.93675">
        <ele>948.8</ele>
        <time>2016-12-06T13:34:54Z</time>
      </trkpt>
      <trkpt lat="45.77341" lon="2.9373">
        <ele>946.7</ele>
        <time>2016-12-06T13:35:05Z</time>
      </trkpt>
      <trkpt lat="45.77284" lon="2.93737">
        <ele>945.6</ele>
        <time>2016-12-06T13:35:11Z</time>
      </trkpt>
      <trkpt lat="45.77238" lon="2.9378">
        <ele>946.5</ele>
        <time>2016-12-06T13:35:17Z</time>
      </trkpt>
      <trkpt lat="45.77184" lon="2.93776">
        <ele>947</ele>
        <time>2016-12-06T13:35:23Z</time>
      </trkpt>
      <trkpt lat="45.77041" lon="2.93819">
        <ele>952.1</ele>
        <time>2016-12-06T13:35:40Z</time>
      </trkpt>
      <trkpt lat="45.76826" lon="2.938">
        <ele>959.2</ele>
        <time>2016-12-06T13:36:04Z</time>
      </trkpt>
      <trkpt lat="45.76653" lon="2.9394">
        <ele>973.4</ele>
        <time>2016-12-06T13:36:26Z</time>
      </trkpt>
      <trkpt lat="45.76591" lon="2.94038">
        <ele>979.1</ele>
        <time>2016-12-06T13:36:36Z</time>
      </trkpt>
      <trkpt lat="45.76537" lon="2.94178">
        <ele>986.9</ele>
        <time>2016-12-06T13:36:48Z</time>
      </trkpt>
      <trkpt lat="45.76459" lon="2.94295">
        <ele>995.1</ele>
        <time>2016-12-06T13:37:01Z</time>
      </trkpt>
      <trkpt lat="45.7643" lon="2.94458">
        <ele>1002.1</ele>
        <time>2016-12-06T13:37:14Z</time>
      </trkpt>
      <trkpt lat="45.76438" lon="2.94525">
        <ele>1004.1</ele>
        <time>2016-12-06T13:37:19Z</time>
      </trkpt>
      <trkpt lat="45.76387" lon="2.9463">
        <ele>1008.4</ele>
        <time>2016-12-06T13:37:29Z</time>
      </trkpt>
      <trkpt lat="45.76351" lon="2.94642">
        <ele>1012.4</ele>
        <time>2016-12-06T13:37:33Z</time>
      </trkpt>
      <trkpt lat="45.76333" lon="2.94599">
        <ele>1015.6</ele>
        <time>2016-12-06T13:37:37Z</time>
      </trkpt>
      <trkpt lat="45.76314" lon="2.94458">
        <ele>1012.2</ele>
        <time>2016-12-06T13:37:48Z</time>
      </trkpt>
      <trkpt lat="45.76225" lon="2.94275">
        <ele>1004</ele>
        <time>2016-12-06T13:38:06Z</time>
      </trkpt>
      <trkpt lat="45.76133" lon="2.94108">
        <ele>996.2</ele>
        <time>2016-12-06T13:38:22Z</time>
      </trkpt>
      <trkpt lat="45.76044" lon="2.93983">
        <ele>991.8</ele>
        <time>2016-12-06T13:38:36Z</time>
      </trkpt>
      <trkpt lat="45.75945" lon="2.93917">
        <ele>989.4</ele>
        <time>2016-12-06T13:38:48Z</time>
      </trkpt>
      <trkpt lat="45.75802" lon="2.93889">
        <ele>989</ele>
        <time>2016-12-06T13:39:04Z</time>
      </trkpt>
      <trkpt lat="45.7567" lon="2.93909">
        <ele>990.1</ele>
        <time>2016-12-06T13:39:19Z</time>
      </trkpt>
      <trkpt lat="45.75655" lon="2.93921">
        <ele>990</ele>
        <time>2016-12-06T13:39:21Z</time>
      </trkpt>
      <trkpt lat="45.75704" lon="2.94046">
        <ele>993.5</ele>
        <time>2016-12-06T13:39:32Z</time>
      </trkpt>
      <trkpt lat="45.75706" lon="2.94062">
        <ele>994.6</ele>
        <time>2016-12-06T13:39:33Z</time>
      </trkpt>
      <trkpt lat="45.75731" lon="2.94132">
        <ele>997.6</ele>
        <time>2016-12-06T13:39:39Z</time>
      </trkpt>
      <trkpt lat="45.75535" lon="2.94225">
        <ele>1029.3</ele>
        <time>2016-12-06T13:40:03Z</time>
      </trkpt>
      <trkpt lat="45.7535" lon="2.94238">
        <ele>1028.1</ele>
        <time>2016-12-06T13:40:23Z</time>
      </trkpt>
      <trkpt lat="45.75278" lon="2.94251">
        <ele>1025.7</ele>
        <time>2016-12-06T13:40:31Z</time>
      </trkpt>
      <trkpt lat="45.75219" lon="2.94277">
        <ele>1028.8</ele>
        <time>2016-12-06T13:40:38Z</time>
      </trkpt>
      <trkpt lat="45.75186" lon="2.94262">
        <ele>1031.3</ele>
        <time>2016-12-06T13:40:42Z</time>
      </trkpt>
      <trkpt lat="45.75113" lon="2.94132">
        <ele>1028.3</ele>
        <time>2016-12-06T13:40:55Z</time>
      </trkpt>
      <trkpt lat="45.7508" lon="2.94124">
        <ele>1027.6</ele>
        <time>2016-12-06T13:40:59Z</time>
      </trkpt>
      <trkpt lat="45.75023" lon="2.94155">
        <ele>1034.2</ele>
        <time>2016-12-06T13:41:05Z</time>
      </trkpt>
      <trkpt lat="45.74958" lon="2.94173">
        <ele>1038</ele>
        <time>2016-12-06T13:41:13Z</time>
      </trkpt>
      <trkpt lat="45.74728" lon="2.94199">
        <ele>1042.9</ele>
        <time>2016-12-06T13:41:38Z</time>
      </trkpt>
      <trkpt lat="45.74673" lon="2.94189">
        <ele>1040.1</ele>
        <time>2016-12-06T13:41:45Z</time>
      </trkpt>
      <trkpt lat="45.74613" lon="2.94194">
        <ele>1039.2</ele>
        <time>2016-12-06T13:41:51Z</time>
      </trkpt>
      <trkpt lat="45.74574" lon="2.9422">
        <ele>1040.5</ele>
        <time>2016-12-06T13:41:56Z</time>
      </trkpt>
      <trkpt lat="45.74559" lon="2.94238">
        <ele>1041.5</ele>
        <time>2016-12-06T13:41:58Z</time>
      </trkpt>
      <trkpt lat="45.74425" lon="2.9434">
        <ele>1043.1</ele>
        <time>2016-12-06T13:42:15Z</time>
      </trkpt>
      <trkpt lat="45.74355" lon="2.94431">
        <ele>1047.1</ele>
        <time>2016-12-06T13:42:26Z</time>
      </trkpt>
      <trkpt lat="45.74259" lon="2.94469">
        <ele>1046.9</ele>
        <time>2016-12-06T13:42:37Z</time>
      </trkpt>
      <trkpt lat="45.74225" lon="2.94729">
        <ele>1064.4</ele>
        <time>2016-12-06T13:42:57Z</time>
      </trkpt>
      <trkpt lat="45.74209" lon="2.94916">
        <ele>1065.4</ele>
        <time>2016-12-06T13:43:12Z</time>
      </trkpt>
      <trkpt lat="45.7422" lon="2.95072">
        <ele>1057.6</ele>
        <time>2016-12-06T13:43:24Z</time>
      </trkpt>
      <trkpt lat="45.74254" lon="2.95207">
        <ele>1046.6</ele>
        <time>2016-12-06T13:43:35Z</time>
      </trkpt>
      <trkpt lat="45.74331" lon="2.95389">
        <ele>1031.6</ele>
        <time>2016-12-06T13:43:52Z</time>
      </trkpt>
      <trkpt lat="45.74401" lon="2.95529">
        <ele>1020.2</ele>
        <time>2016-12-06T13:44:05Z</time>
      </trkpt>
      <trkpt lat="45.74452" lon="2.95571">
        <ele>1019.1</ele>
        <time>2016-12-06T13:44:12Z</time>
      </trkpt>
      <trkpt lat="45.74482" lon="2.95636">
        <ele>1014.3</ele>
        <time>2016-12-06T13:44:18Z</time>
      </trkpt>
      <trkpt lat="45.74572" lon="2.95771">
        <ele>1001.3</ele>
        <time>2016-12-06T13:44:32Z</time>
      </trkpt>
      <trkpt lat="45.7459" lon="2.95825">
        <ele>996.5</ele>
        <time>2016-12-06T13:44:37Z</time>
      </trkpt>
      <trkpt lat="45.74617" lon="2.95867">
        <ele>994.2</ele>
        <time>2016-12-06T13:44:42Z</time>
      </trkpt>
      <trkpt lat="45.74726" lon="2.95867">
        <ele>1000.1</ele>
        <time>2016-12-06T13:44:54Z</time>
      </trkpt>
      <trkpt lat="45.74868" lon="2.96002">
        <ele>986.2</ele>
        <time>2016-12-06T13:45:13Z</time>
      </trkpt>
      <trkpt lat="45.74874" lon="2.96095">
        <ele>979.1</ele>
        <time>2016-12-06T13:45:20Z</time>
      </trkpt>
      <trkpt lat="45.74843" lon="2.96163">
        <ele>976.6</ele>
        <time>2016-12-06T13:45:26Z</time>
      </trkpt>
      <trkpt lat="45.74685" lon="2.9623">
        <ele>976.2</ele>
        <time>2016-12-06T13:45:45Z</time>
      </trkpt>
      <trkpt lat="45.74514" lon="2.96251">
        <ele>980.7</ele>
        <time>2016-12-06T13:46:04Z</time>
      </trkpt>
      <trkpt lat="45.74239" lon="2.96404">
        <ele>987.9</ele>
        <time>2016-12-06T13:46:36Z</time>
      </trkpt>
      <trkpt lat="45.7418" lon="2.96427">
        <ele>984.9</ele>
        <time>2016-12-06T13:46:43Z</time>
      </trkpt>
      <trkpt lat="45.74165" lon="2.9619">
        <ele>995.3</ele>
        <time>2016-12-06T13:47:02Z</time>
      </trkpt>
      <trkpt lat="45.74164" lon="2.96154">
        <ele>998.5</ele>
        <time>2016-12-06T13:47:05Z</time>
      </trkpt>
      <trkpt lat="45.74018" lon="2.96243">
        <ele>990.6</ele>
        <time>2016-12-06T13:47:22Z</time>
      </trkpt>
      <trkpt lat="45.73879" lon="2.96373">
        <ele>995</ele>
        <time>2016-12-06T13:47:41Z</time>
      </trkpt>
      <trkpt lat="45.7383" lon="2.96429">
        <ele>995.8</ele>
        <time>2016-12-06T13:47:48Z</time>
      </trkpt>
      <trkpt lat="45.73724" lon="2.96501">
        <ele>995.5</ele>
        <time>2016-12-06T13:48:01Z</time>
      </trkpt>
      <trkpt lat="45.73636" lon="2.96595">
        <ele>993.1</ele>
        <time>2016-12-06T13:48:13Z</time>
      </trkpt>
      <trkpt lat="45.73562" lon="2.9668">
        <ele>991</ele>
        <time>2016-12-06T13:48:24Z</time>
      </trkpt>
      <trkpt lat="45.73469" lon="2.96831">
        <ele>986</ele>
        <time>2016-12-06T13:48:39Z</time>
      </trkpt>
      <trkpt lat="45.73325" lon="2.9699">
        <ele>981</ele>
        <time>2016-12-06T13:48:59Z</time>
      </trkpt>
      <trkpt lat="45.73271" lon="2.97057">
        <ele>979.5</ele>
        <time>2016-12-06T13:49:07Z</time>
      </trkpt>
      <trkpt lat="45.73224" lon="2.97091">
        <ele>978.1</ele>
        <time>2016-12-06T13:49:13Z</time>
      </trkpt>
      <trkpt lat="45.73241" lon="2.97131">
        <ele>977.9</ele>
        <time>2016-12-06T13:49:17Z</time>
      </trkpt>
      <trkpt lat="45.73248" lon="2.97147">
        <ele>978.1</ele>
        <time>2016-12-06T13:49:18Z</time>
      </trkpt>
      <trkpt lat="45.73265" lon="2.97192">
        <ele>977.9</ele>
        <time>2016-12-06T13:49:22Z</time>
      </trkpt>
      <trkpt lat="45.73269" lon="2.97286">
        <ele>980.8</ele>
        <time>2016-12-06T13:49:30Z</time>
      </trkpt>
      <trkpt lat="45.73266" lon="2.97325">
        <ele>982</ele>
        <time>2016-12-06T13:49:33Z</time>
      </trkpt>
      <trkpt lat="45.73237" lon="2.97355">
        <ele>980.5</ele>
        <time>2016-12-06T13:49:37Z</time>
      </trkpt>
      <trkpt lat="45.73222" lon="2.97376">
        <ele>978.9</ele>
        <time>2016-12-06T13:49:39Z</time>
      </trkpt>
      <trkpt lat="45.73222" lon="2.974">
        <ele>978.9</ele>
        <time>2016-12-06T13:49:41Z</time>
      </trkpt>
      <trkpt lat="45.73273" lon="2.97498">
        <ele>986.4</ele>
        <time>2016-12-06T13:49:50Z</time>
      </trkpt>
      <trkpt lat="45.73294" lon="2.97582">
        <ele>989.6</ele>
        <time>2016-12-06T13:49:57Z</time>
      </trkpt>
      <trkpt lat="45.73312" lon="2.97706">
        <ele>992.6</ele>
        <time>2016-12-06T13:50:07Z</time>
      </trkpt>
      <trkpt lat="45.73318" lon="2.97774">
        <ele>993.2</ele>
        <time>2016-12-06T13:50:12Z</time>
      </trkpt>
      <trkpt lat="45.73348" lon="2.97906">
        <ele>993.2</ele>
        <time>2016-12-06T13:50:23Z</time>
      </trkpt>
      <trkpt lat="45.73395" lon="2.98086">
        <ele>992.2</ele>
        <time>2016-12-06T13:50:38Z</time>
      </trkpt>
      <trkpt lat="45.73456" lon="2.98345">
        <ele>987</ele>
        <time>2016-12-06T13:50:59Z</time>
      </trkpt>
      <trkpt lat="45.73474" lon="2.98387">
        <ele>988</ele>
        <time>2016-12-06T13:51:03Z</time>
      </trkpt>
      <trkpt lat="45.7349" lon="2.9841">
        <ele>989.5</ele>
        <time>2016-12-06T13:51:06Z</time>
      </trkpt>
      <trkpt lat="45.73522" lon="2.98423">
        <ele>993.1</ele>
        <time>2016-12-06T13:51:09Z</time>
      </trkpt>
      <trkpt lat="45.73522" lon="2.9846">
        <ele>993</ele>
        <time>2016-12-06T13:51:12Z</time>
      </trkpt>
      <trkpt lat="45.73504" lon="2.98537">
        <ele>992.9</ele>
        <time>2016-12-06T13:51:18Z</time>
      </trkpt>
      <trkpt lat="45.73458" lon="2.98531">
        <ele>988.7</ele>
        <time>2016-12-06T13:51:24Z</time>
      </trkpt>
      <trkpt lat="45.7345" lon="2.98543">
        <ele>988.7</ele>
        <time>2016-12-06T13:51:25Z</time>
      </trkpt>
      <trkpt lat="45.73424" lon="2.98792">
        <ele>993.1</ele>
        <time>2016-12-06T13:51:44Z</time>
      </trkpt>
      <trkpt lat="45.73389" lon="2.99096">
        <ele>985</ele>
        <time>2016-12-06T13:52:08Z</time>
      </trkpt>
      <trkpt lat="45.73355" lon="2.99205">
        <ele>982.2</ele>
        <time>2016-12-06T13:52:18Z</time>
      </trkpt>
      <trkpt lat="45.73319" lon="2.99314">
        <ele>982.5</ele>
        <time>2016-12-06T13:52:27Z</time>
      </trkpt>
      <trkpt lat="45.73291" lon="2.99353">
        <ele>983.1</ele>
        <time>2016-12-06T13:52:31Z</time>
      </trkpt>
      <trkpt lat="45.73237" lon="2.99405">
        <ele>986.3</ele>
        <time>2016-12-06T13:52:39Z</time>
      </trkpt>
      <trkpt lat="45.73251" lon="2.99435">
        <ele>988.1</ele>
        <time>2016-12-06T13:52:41Z</time>
      </trkpt>
      <trkpt lat="45.73244" lon="2.99458">
        <ele>990</ele>
        <time>2016-12-06T13:52:43Z</time>
      </trkpt>
      <trkpt lat="45.73212" lon="2.99515">
        <ele>991.9</ele>
        <time>2016-12-06T13:52:49Z</time>
      </trkpt>
      <trkpt lat="45.73194" lon="2.99527">
        <ele>991.8</ele>
        <time>2016-12-06T13:52:51Z</time>
      </trkpt>
      <trkpt lat="45.73181" lon="2.99567">
        <ele>991.2</ele>
        <time>2016-12-06T13:52:55Z</time>
      </trkpt>
      <trkpt lat="45.73141" lon="2.99638">
        <ele>988.7</ele>
        <time>2016-12-06T13:53:02Z</time>
      </trkpt>
      <trkpt lat="45.73104" lon="2.99697">
        <ele>986.3</ele>
        <time>2016-12-06T13:53:08Z</time>
      </trkpt>
      <trkpt lat="45.73034" lon="2.99752">
        <ele>985.3</ele>
        <time>2016-12-06T13:53:17Z</time>
      </trkpt>
      <trkpt lat="45.72983" lon="2.99777">
        <ele>985.9</ele>
        <time>2016-12-06T13:53:23Z</time>
      </trkpt>
      <trkpt lat="45.72981" lon="2.99797">
        <ele>987.6</ele>
        <time>2016-12-06T13:53:24Z</time>
      </trkpt>
      <trkpt lat="45.7299" lon="2.99832">
        <ele>990.6</ele>
        <time>2016-12-06T13:53:27Z</time>
      </trkpt>
      <trkpt lat="45.73035" lon="2.999">
        <ele>986.3</ele>
        <time>2016-12-06T13:53:35Z</time>
      </trkpt>
      <trkpt lat="45.73025" lon="2.99904">
        <ele>987.9</ele>
        <time>2016-12-06T13:53:36Z</time>
      </trkpt>
      <trkpt lat="45.7299" lon="2.99901">
        <ele>994.3</ele>
        <time>2016-12-06T13:53:40Z</time>
      </trkpt>
      <trkpt lat="45.72973" lon="2.99931">
        <ele>997.3</ele>
        <time>2016-12-06T13:53:43Z</time>
      </trkpt>
      <trkpt lat="45.72946" lon="2.99925">
        <ele>1000.2</ele>
        <time>2016-12-06T13:53:46Z</time>
      </trkpt>
      <trkpt lat="45.72858" lon="2.99875">
        <ele>990.5</ele>
        <time>2016-12-06T13:53:56Z</time>
      </trkpt>
      <trkpt lat="45.72819" lon="2.9987">
        <ele>984.7</ele>
        <time>2016-12-06T13:54:01Z</time>
      </trkpt>
      <trkpt lat="45.72781" lon="2.99912">
        <ele>982.7</ele>
        <time>2016-12-06T13:54:06Z</time>
      </trkpt>
      <trkpt lat="45.72741" lon="2.9999">
        <ele>980</ele>
        <time>2016-12-06T13:54:14Z</time>
      </trkpt>
      <trkpt lat="45.72684" lon="3.0005">
        <ele>969.4</ele>
        <time>2016-12-06T13:54:22Z</time>
      </trkpt>
      <trkpt lat="45.72603" lon="3.00003">
        <ele>967.3</ele>
        <time>2016-12-06T13:54:31Z</time>
      </trkpt>
      <trkpt lat="45.72583" lon="3.00126">
        <ele>957.8</ele>
        <time>2016-12-06T13:54:41Z</time>
      </trkpt>
      <trkpt lat="45.72541" lon="3.00163">
        <ele>952.2</ele>
        <time>2016-12-06T13:54:47Z</time>
      </trkpt>
      <trkpt lat="45.72508" lon="3.00223">
        <ele>947.7</ele>
        <time>2016-12-06T13:54:53Z</time>
      </trkpt>
      <trkpt lat="45.72475" lon="3.00311">
        <ele>941.6</ele>
        <time>2016-12-06T13:55:00Z</time>
      </trkpt>
      <trkpt lat="45.72452" lon="3.00348">
        <ele>938.6</ele>
        <time>2016-12-06T13:55:04Z</time>
      </trkpt>
      <trkpt lat="45.72442" lon="3.00375">
        <ele>935.7</ele>
        <time>2016-12-06T13:55:07Z</time>
      </trkpt>
      <trkpt lat="45.72329" lon="3.00471">
        <ele>922.5</ele>
        <time>2016-12-06T13:55:21Z</time>
      </trkpt>
      <trkpt lat="45.7229" lon="3.00527">
        <ele>916.6</ele>
        <time>2016-12-06T13:55:27Z</time>
      </trkpt>
      <trkpt lat="45.72239" lon="3.00656">
        <ele>908.7</ele>
        <time>2016-12-06T13:55:39Z</time>
      </trkpt>
      <trkpt lat="45.72154" lon="3.00855">
        <ele>900.5</ele>
        <time>2016-12-06T13:55:57Z</time>
      </trkpt>
      <trkpt lat="45.72118" lon="3.01005">
        <ele>895.2</ele>
        <time>2016-12-06T13:56:09Z</time>
      </trkpt>
      <trkpt lat="45.72073" lon="3.01081">
        <ele>893.5</ele>
        <time>2016-12-06T13:56:17Z</time>
      </trkpt>
      <trkpt lat="45.72033" lon="3.01114">
        <ele>894.5</ele>
        <time>2016-12-06T13:56:22Z</time>
      </trkpt>
      <trkpt lat="45.7203" lon="3.01147">
        <ele>894.6</ele>
        <time>2016-12-06T13:56:25Z</time>
      </trkpt>
      <trkpt lat="45.72029" lon="3.01221">
        <ele>893.4</ele>
        <time>2016-12-06T13:56:31Z</time>
      </trkpt>
      <trkpt lat="45.71995" lon="3.01354">
        <ele>890.5</ele>
        <time>2016-12-06T13:56:42Z</time>
      </trkpt>
      <trkpt lat="45.71956" lon="3.01394">
        <ele>891.5</ele>
        <time>2016-12-06T13:56:47Z</time>
      </trkpt>
      <trkpt lat="45.71932" lon="3.01437">
        <ele>891.9</ele>
        <time>2016-12-06T13:56:51Z</time>
      </trkpt>
      <trkpt lat="45.7193" lon="3.01521">
        <ele>889.9</ele>
        <time>2016-12-06T13:56:58Z</time>
      </trkpt>
      <trkpt lat="45.71924" lon="3.01603">
        <ele>888.1</ele>
        <time>2016-12-06T13:57:04Z</time>
      </trkpt>
      <trkpt lat="45.71932" lon="3.0167">
        <ele>886.4</ele>
        <time>2016-12-06T13:57:09Z</time>
      </trkpt>
      <trkpt lat="45.71922" lon="3.01607">
        <ele>888.1</ele>
        <time>2016-12-06T13:57:14Z</time>
      </trkpt>
      <trkpt lat="45.71926" lon="3.01558">
        <ele>889</ele>
        <time>2016-12-06T13:57:18Z</time>
      </trkpt>
      <trkpt lat="45.71933" lon="3.01485">
        <ele>891.1</ele>
        <time>2016-12-06T13:57:24Z</time>
      </trkpt>
      <trkpt lat="45.71929" lon="3.01432">
        <ele>892.2</ele>
        <time>2016-12-06T13:57:28Z</time>
      </trkpt>
      <trkpt lat="45.71918" lon="3.01334">
        <ele>894.9</ele>
        <time>2016-12-06T13:57:36Z</time>
      </trkpt>
      <trkpt lat="45.71934" lon="3.01212">
        <ele>896.2</ele>
        <time>2016-12-06T13:57:45Z</time>
      </trkpt>
      <trkpt lat="45.71883" lon="3.01032">
        <ele>900.6</ele>
        <time>2016-12-06T13:58:00Z</time>
      </trkpt>
      <trkpt lat="45.71848" lon="3.00939">
        <ele>901.4</ele>
        <time>2016-12-06T13:58:09Z</time>
      </trkpt>
      <trkpt lat="45.71822" lon="3.00863">
        <ele>902.9</ele>
        <time>2016-12-06T13:58:15Z</time>
      </trkpt>
      <trkpt lat="45.7181" lon="3.00778">
        <ele>902.7</ele>
        <time>2016-12-06T13:58:22Z</time>
      </trkpt>
      <trkpt lat="45.71817" lon="3.00606">
        <ele>902.3</ele>
        <time>2016-12-06T13:58:35Z</time>
      </trkpt>
      <trkpt lat="45.71833" lon="3.00567">
        <ele>901.4</ele>
        <time>2016-12-06T13:58:39Z</time>
      </trkpt>
      <trkpt lat="45.71825" lon="3.0051">
        <ele>901.9</ele>
        <time>2016-12-06T13:58:43Z</time>
      </trkpt>
      <trkpt lat="45.71796" lon="3.00432">
        <ele>897.4</ele>
        <time>2016-12-06T13:58:50Z</time>
      </trkpt>
      <trkpt lat="45.71782" lon="3.00374">
        <ele>895.6</ele>
        <time>2016-12-06T13:58:55Z</time>
      </trkpt>
      <trkpt lat="45.71785" lon="3.00339">
        <ele>894.8</ele>
        <time>2016-12-06T13:58:58Z</time>
      </trkpt>
      <trkpt lat="45.71742" lon="3.00241">
        <ele>888.5</ele>
        <time>2016-12-06T13:59:07Z</time>
      </trkpt>
      <trkpt lat="45.71723" lon="3.0005">
        <ele>875</ele>
        <time>2016-12-06T13:59:22Z</time>
      </trkpt>
      <trkpt lat="45.71701" lon="2.99945">
        <ele>869.6</ele>
        <time>2016-12-06T13:59:30Z</time>
      </trkpt>
      <trkpt lat="45.71707" lon="2.99793">
        <ele>866.2</ele>
        <time>2016-12-06T13:59:42Z</time>
      </trkpt>
      <trkpt lat="45.71726" lon="2.99738">
        <ele>865.1</ele>
        <time>2016-12-06T13:59:47Z</time>
      </trkpt>
      <trkpt lat="45.71742" lon="2.99586">
        <ele>857.7</ele>
        <time>2016-12-06T13:59:59Z</time>
      </trkpt>
      <trkpt lat="45.71796" lon="2.99442">
        <ele>857</ele>
        <time>2016-12-06T14:00:12Z</time>
      </trkpt>
      <trkpt lat="45.71828" lon="2.9929">
        <ele>861.2</ele>
        <time>2016-12-06T14:00:24Z</time>
      </trkpt>
      <trkpt lat="45.7182" lon="2.99205">
        <ele>866.4</ele>
        <time>2016-12-06T14:00:31Z</time>
      </trkpt>
      <trkpt lat="45.71763" lon="2.99041">
        <ele>880.5</ele>
        <time>2016-12-06T14:00:45Z</time>
      </trkpt>
      <trkpt lat="45.71731" lon="2.98893">
        <ele>886.1</ele>
        <time>2016-12-06T14:00:57Z</time>
      </trkpt>
      <trkpt lat="45.71712" lon="2.98694">
        <ele>893.5</ele>
        <time>2016-12-06T14:01:13Z</time>
      </trkpt>
      <trkpt lat="45.71709" lon="2.98511">
        <ele>902.1</ele>
        <time>2016-12-06T14:01:27Z</time>
      </trkpt>
      <trkpt lat="45.71704" lon="2.98308">
        <ele>911</ele>
        <time>2016-12-06T14:01:43Z</time>
      </trkpt>
      <trkpt lat="45.71722" lon="2.98155">
        <ele>915</ele>
        <time>2016-12-06T14:01:55Z</time>
      </trkpt>
      <trkpt lat="45.71637" lon="2.98238">
        <ele>913.7</ele>
        <time>2016-12-06T14:02:06Z</time>
      </trkpt>
      <trkpt lat="45.7158" lon="2.98316">
        <ele>913.8</ele>
        <time>2016-12-06T14:02:15Z</time>
      </trkpt>
      <trkpt lat="45.71532" lon="2.98355">
        <ele>914</ele>
        <time>2016-12-06T14:02:21Z</time>
      </trkpt>
      <trkpt lat="45.71483" lon="2.98484">
        <ele>908.4</ele>
        <time>2016-12-06T14:02:32Z</time>
      </trkpt>
      <trkpt lat="45.71432" lon="2.98577">
        <ele>906.9</ele>
        <time>2016-12-06T14:02:42Z</time>
      </trkpt>
      <trkpt lat="45.71383" lon="2.98628">
        <ele>906.6</ele>
        <time>2016-12-06T14:02:48Z</time>
      </trkpt>
      <trkpt lat="45.71338" lon="2.98686">
        <ele>905.8</ele>
        <time>2016-12-06T14:02:55Z</time>
      </trkpt>
      <trkpt lat="45.71327" lon="2.98768">
        <ele>901.6</ele>
        <time>2016-12-06T14:03:02Z</time>
      </trkpt>
      <trkpt lat="45.71286" lon="2.98811">
        <ele>900.1</ele>
        <time>2016-12-06T14:03:07Z</time>
      </trkpt>
      <trkpt lat="45.71249" lon="2.98963">
        <ele>890.1</ele>
        <time>2016-12-06T14:03:20Z</time>
      </trkpt>
      <trkpt lat="45.71165" lon="2.9906">
        <ele>884.9</ele>
        <time>2016-12-06T14:03:32Z</time>
      </trkpt>
      <trkpt lat="45.71108" lon="2.9915">
        <ele>886.7</ele>
        <time>2016-12-06T14:03:41Z</time>
      </trkpt>
      <trkpt lat="45.71014" lon="2.9931">
        <ele>883.8</ele>
        <time>2016-12-06T14:03:57Z</time>
      </trkpt>
      <trkpt lat="45.70936" lon="2.99516">
        <ele>866.7</ele>
        <time>2016-12-06T14:04:16Z</time>
      </trkpt>
      <trkpt lat="45.70861" lon="2.99563">
        <ele>865.9</ele>
        <time>2016-12-06T14:04:25Z</time>
      </trkpt>
      <trkpt lat="45.70788" lon="2.99711">
        <ele>863.4</ele>
        <time>2016-12-06T14:04:39Z</time>
      </trkpt>
      <trkpt lat="45.70645" lon="2.99894">
        <ele>861.1</ele>
        <time>2016-12-06T14:05:00Z</time>
      </trkpt>
      <trkpt lat="45.70629" lon="2.99904">
        <ele>861.7</ele>
        <time>2016-12-06T14:05:02Z</time>
      </trkpt>
      <trkpt lat="45.70603" lon="2.99831">
        <ele>862.3</ele>
        <time>2016-12-06T14:05:08Z</time>
      </trkpt>
      <trkpt lat="45.70572" lon="2.9982">
        <ele>865.5</ele>
        <time>2016-12-06T14:05:12Z</time>
      </trkpt>
      <trkpt lat="45.70555" lon="2.99775">
        <ele>867.2</ele>
        <time>2016-12-06T14:05:16Z</time>
      </trkpt>
      <trkpt lat="45.70533" lon="2.9975">
        <ele>870.7</ele>
        <time>2016-12-06T14:05:19Z</time>
      </trkpt>
      <trkpt lat="45.70529" lon="2.99598">
        <ele>876.2</ele>
        <time>2016-12-06T14:05:31Z</time>
      </trkpt>
      <trkpt lat="45.70509" lon="2.99539">
        <ele>882.4</ele>
        <time>2016-12-06T14:05:36Z</time>
      </trkpt>
      <trkpt lat="45.70491" lon="2.99446">
        <ele>884.1</ele>
        <time>2016-12-06T14:05:44Z</time>
      </trkpt>
      <trkpt lat="45.70479" lon="2.9941">
        <ele>887</ele>
        <time>2016-12-06T14:05:47Z</time>
      </trkpt>
      <trkpt lat="45.70452" lon="2.9944">
        <ele>886.1</ele>
        <time>2016-12-06T14:05:50Z</time>
      </trkpt>
      <trkpt lat="45.7045" lon="2.99402">
        <ele>889.4</ele>
        <time>2016-12-06T14:05:53Z</time>
      </trkpt>
      <trkpt lat="45.70447" lon="2.99308">
        <ele>898.7</ele>
        <time>2016-12-06T14:06:01Z</time>
      </trkpt>
      <trkpt lat="45.70447" lon="2.9916">
        <ele>904.6</ele>
        <time>2016-12-06T14:06:12Z</time>
      </trkpt>
      <trkpt lat="45.70436" lon="2.99073">
        <ele>906.4</ele>
        <time>2016-12-06T14:06:19Z</time>
      </trkpt>
      <trkpt lat="45.704" lon="2.98559">
        <ele>919.9</ele>
        <time>2016-12-06T14:06:59Z</time>
      </trkpt>
      <trkpt lat="45.70382" lon="2.9847">
        <ele>921</ele>
        <time>2016-12-06T14:07:06Z</time>
      </trkpt>
      <trkpt lat="45.70381" lon="2.98343">
        <ele>923</ele>
        <time>2016-12-06T14:07:16Z</time>
      </trkpt>
      <trkpt lat="45.70364" lon="2.98143">
        <ele>921.8</ele>
        <time>2016-12-06T14:07:32Z</time>
      </trkpt>
      <trkpt lat="45.70325" lon="2.98013">
        <ele>918.5</ele>
        <time>2016-12-06T14:07:43Z</time>
      </trkpt>
      <trkpt lat="45.70319" lon="2.97912">
        <ele>917.1</ele>
        <time>2016-12-06T14:07:51Z</time>
      </trkpt>
      <trkpt lat="45.70341" lon="2.97712">
        <ele>917.7</ele>
        <time>2016-12-06T14:08:07Z</time>
      </trkpt>
      <trkpt lat="45.70323" lon="2.97517">
        <ele>934.7</ele>
        <time>2016-12-06T14:08:22Z</time>
      </trkpt>
      <trkpt lat="45.70328" lon="2.97415">
        <ele>943.4</ele>
        <time>2016-12-06T14:08:30Z</time>
      </trkpt>
      <trkpt lat="45.70381" lon="2.97335">
        <ele>951.8</ele>
        <time>2016-12-06T14:08:38Z</time>
      </trkpt>
      <trkpt lat="45.70391" lon="2.97257">
        <ele>960.2</ele>
        <time>2016-12-06T14:08:45Z</time>
      </trkpt>
      <trkpt lat="45.70377" lon="2.97218">
        <ele>963.9</ele>
        <time>2016-12-06T14:08:48Z</time>
      </trkpt>
      <trkpt lat="45.70075" lon="2.96958">
        <ele>976.4</ele>
        <time>2016-12-06T14:09:27Z</time>
      </trkpt>
      <trkpt lat="45.70059" lon="2.96984">
        <ele>977.1</ele>
        <time>2016-12-06T14:09:30Z</time>
      </trkpt>
      <trkpt lat="45.69951" lon="2.96987">
        <ele>977.6</ele>
        <time>2016-12-06T14:09:42Z</time>
      </trkpt>
      <trkpt lat="45.6982" lon="2.96898">
        <ele>975</ele>
        <time>2016-12-06T14:09:58Z</time>
      </trkpt>
      <trkpt lat="45.69691" lon="2.96893">
        <ele>978</ele>
        <time>2016-12-06T14:10:12Z</time>
      </trkpt>
      <trkpt lat="45.6963" lon="2.96914">
        <ele>978.2</ele>
        <time>2016-12-06T14:10:19Z</time>
      </trkpt>
      <trkpt lat="45.69584" lon="2.9695">
        <ele>977.9</ele>
        <time>2016-12-06T14:10:25Z</time>
      </trkpt>
      <trkpt lat="45.69548" lon="2.96976">
        <ele>974.4</ele>
        <time>2016-12-06T14:10:30Z</time>
      </trkpt>
      <trkpt lat="45.69526" lon="2.96968">
        <ele>975</ele>
        <time>2016-12-06T14:10:32Z</time>
      </trkpt>
      <trkpt lat="45.69524" lon="2.96909">
        <ele>975.3</ele>
        <time>2016-12-06T14:10:37Z</time>
      </trkpt>
      <trkpt lat="45.69551" lon="2.96838">
        <ele>969.5</ele>
        <time>2016-12-06T14:10:43Z</time>
      </trkpt>
      <trkpt lat="45.69553" lon="2.96794">
        <ele>964.9</ele>
        <time>2016-12-06T14:10:47Z</time>
      </trkpt>
      <trkpt lat="45.69526" lon="2.96753">
        <ele>960.8</ele>
        <time>2016-12-06T14:10:51Z</time>
      </trkpt>
      <trkpt lat="45.69449" lon="2.96703">
        <ele>959.5</ele>
        <time>2016-12-06T14:11:00Z</time>
      </trkpt>
      <trkpt lat="45.69363" lon="2.96672">
        <ele>959.3</ele>
        <time>2016-12-06T14:11:10Z</time>
      </trkpt>
      <trkpt lat="45.69318" lon="2.9667">
        <ele>962.3</ele>
        <time>2016-12-06T14:11:15Z</time>
      </trkpt>
      <trkpt lat="45.69264" lon="2.96693">
        <ele>967.8</ele>
        <time>2016-12-06T14:11:22Z</time>
      </trkpt>
      <trkpt lat="45.69239" lon="2.96696">
        <ele>968.4</ele>
        <time>2016-12-06T14:11:24Z</time>
      </trkpt>
      <trkpt lat="45.69208" lon="2.96659">
        <ele>968.9</ele>
        <time>2016-12-06T14:11:29Z</time>
      </trkpt>
      <trkpt lat="45.69109" lon="2.96568">
        <ele>969</ele>
        <time>2016-12-06T14:11:42Z</time>
      </trkpt>
      <trkpt lat="45.69064" lon="2.96542">
        <ele>970</ele>
        <time>2016-12-06T14:11:47Z</time>
      </trkpt>
      <trkpt lat="45.68987" lon="2.96545">
        <ele>965.5</ele>
        <time>2016-12-06T14:11:56Z</time>
      </trkpt>
      <trkpt lat="45.68901" lon="2.96641">
        <ele>959.7</ele>
        <time>2016-12-06T14:12:08Z</time>
      </trkpt>
      <trkpt lat="45.68863" lon="2.96664">
        <ele>959.6</ele>
        <time>2016-12-06T14:12:13Z</time>
      </trkpt>
      <trkpt lat="45.68807" lon="2.96677">
        <ele>956.9</ele>
        <time>2016-12-06T14:12:19Z</time>
      </trkpt>
      <trkpt lat="45.68745" lon="2.96716">
        <ele>951.1</ele>
        <time>2016-12-06T14:12:27Z</time>
      </trkpt>
      <trkpt lat="45.68651" lon="2.96747">
        <ele>949.1</ele>
        <time>2016-12-06T14:12:37Z</time>
      </trkpt>
      <trkpt lat="45.68511" lon="2.9674">
        <ele>957.9</ele>
        <time>2016-12-06T14:12:53Z</time>
      </trkpt>
      <trkpt lat="45.68443" lon="2.96771">
        <ele>957.7</ele>
        <time>2016-12-06T14:13:01Z</time>
      </trkpt>
      <trkpt lat="45.68373" lon="2.96792">
        <ele>956.7</ele>
        <time>2016-12-06T14:13:09Z</time>
      </trkpt>
      <trkpt lat="45.68326" lon="2.96779">
        <ele>957</ele>
        <time>2016-12-06T14:13:14Z</time>
      </trkpt>
      <trkpt lat="45.68261" lon="2.96711">
        <ele>959.9</ele>
        <time>2016-12-06T14:13:23Z</time>
      </trkpt>
      <trkpt lat="45.68242" lon="2.96631">
        <ele>963.8</ele>
        <time>2016-12-06T14:13:30Z</time>
      </trkpt>
      <trkpt lat="45.68256" lon="2.96553">
        <ele>964.1</ele>
        <time>2016-12-06T14:13:36Z</time>
      </trkpt>
      <trkpt lat="45.68312" lon="2.96449">
        <ele>961.1</ele>
        <time>2016-12-06T14:13:46Z</time>
      </trkpt>
      <trkpt lat="45.68339" lon="2.96368">
        <ele>958.9</ele>
        <time>2016-12-06T14:13:53Z</time>
      </trkpt>
      <trkpt lat="45.68355" lon="2.96233">
        <ele>958.6</ele>
        <time>2016-12-06T14:14:04Z</time>
      </trkpt>
      <trkpt lat="45.68356" lon="2.96194">
        <ele>958.9</ele>
        <time>2016-12-06T14:14:07Z</time>
      </trkpt>
      <trkpt lat="45.68332" lon="2.96207">
        <ele>954.7</ele>
        <time>2016-12-06T14:14:10Z</time>
      </trkpt>
      <trkpt lat="45.68282" lon="2.96171">
        <ele>953.5</ele>
        <time>2016-12-06T14:14:16Z</time>
      </trkpt>
      <trkpt lat="45.68251" lon="2.96367">
        <ele>955.6</ele>
        <time>2016-12-06T14:14:31Z</time>
      </trkpt>
      <trkpt lat="45.6824" lon="2.9651">
        <ele>962.3</ele>
        <time>2016-12-06T14:14:43Z</time>
      </trkpt>
      <trkpt lat="45.68212" lon="2.96585">
        <ele>964.2</ele>
        <time>2016-12-06T14:14:49Z</time>
      </trkpt>
      <trkpt lat="45.68194" lon="2.9662">
        <ele>963.5</ele>
        <time>2016-12-06T14:14:53Z</time>
      </trkpt>
      <trkpt lat="45.68186" lon="2.96616">
        <ele>963.8</ele>
        <time>2016-12-06T14:14:54Z</time>
      </trkpt>
      <trkpt lat="45.68135" lon="2.9631">
        <ele>966.4</ele>
        <time>2016-12-06T14:15:18Z</time>
      </trkpt>
      <trkpt lat="45.6817" lon="2.96045">
        <ele>962.3</ele>
        <time>2016-12-06T14:15:39Z</time>
      </trkpt>
      <trkpt lat="45.68154" lon="2.95874">
        <ele>966.2</ele>
        <time>2016-12-06T14:15:52Z</time>
      </trkpt>
      <trkpt lat="45.68054" lon="2.95468">
        <ele>958.9</ele>
        <time>2016-12-06T14:16:26Z</time>
      </trkpt>
      <trkpt lat="45.67949" lon="2.95468">
        <ele>963.9</ele>
        <time>2016-12-06T14:16:38Z</time>
      </trkpt>
      <trkpt lat="45.67841" lon="2.95351">
        <ele>966.7</ele>
        <time>2016-12-06T14:16:53Z</time>
      </trkpt>
      <trkpt lat="45.67755" lon="2.95301">
        <ele>970.2</ele>
        <time>2016-12-06T14:17:03Z</time>
      </trkpt>
      <trkpt lat="45.67693" lon="2.95242">
        <ele>973.3</ele>
        <time>2016-12-06T14:17:11Z</time>
      </trkpt>
      <trkpt lat="45.67647" lon="2.95164">
        <ele>974.3</ele>
        <time>2016-12-06T14:17:19Z</time>
      </trkpt>
      <trkpt lat="45.67572" lon="2.95149">
        <ele>976.2</ele>
        <time>2016-12-06T14:17:28Z</time>
      </trkpt>
      <trkpt lat="45.67472" lon="2.95211">
        <ele>978.7</ele>
        <time>2016-12-06T14:17:40Z</time>
      </trkpt>
      <trkpt lat="45.67359" lon="2.95277">
        <ele>979.3</ele>
        <time>2016-12-06T14:17:53Z</time>
      </trkpt>
      <trkpt lat="45.67335" lon="2.95328">
        <ele>979.4</ele>
        <time>2016-12-06T14:17:58Z</time>
      </trkpt>
      <trkpt lat="45.6731" lon="2.95327">
        <ele>979.1</ele>
        <time>2016-12-06T14:18:01Z</time>
      </trkpt>
      <trkpt lat="45.67256" lon="2.95269">
        <ele>983.1</ele>
        <time>2016-12-06T14:18:08Z</time>
      </trkpt>
      <trkpt lat="45.67084" lon="2.95136">
        <ele>995.9</ele>
        <time>2016-12-06T14:18:30Z</time>
      </trkpt>
      <trkpt lat="45.67041" lon="2.95113">
        <ele>1003.9</ele>
        <time>2016-12-06T14:18:35Z</time>
      </trkpt>
      <trkpt lat="45.66936" lon="2.95226">
        <ele>1009</ele>
        <time>2016-12-06T14:18:50Z</time>
      </trkpt>
      <trkpt lat="45.66809" lon="2.95316">
        <ele>1026.5</ele>
        <time>2016-12-06T14:19:06Z</time>
      </trkpt>
      <trkpt lat="45.66744" lon="2.95347">
        <ele>1038.1</ele>
        <time>2016-12-06T14:19:13Z</time>
      </trkpt>
      <trkpt lat="45.66655" lon="2.95316">
        <ele>1044.5</ele>
        <time>2016-12-06T14:19:24Z</time>
      </trkpt>
      <trkpt lat="45.66542" lon="2.95238">
        <ele>1046.3</ele>
        <time>2016-12-06T14:19:38Z</time>
      </trkpt>
      <trkpt lat="45.66469" lon="2.95144">
        <ele>1044.5</ele>
        <time>2016-12-06T14:19:48Z</time>
      </trkpt>
      <trkpt lat="45.66405" lon="2.95066">
        <ele>1036.7</ele>
        <time>2016-12-06T14:19:58Z</time>
      </trkpt>
      <trkpt lat="45.6631" lon="2.94969">
        <ele>1028.2</ele>
        <time>2016-12-06T14:20:11Z</time>
      </trkpt>
      <trkpt lat="45.66294" lon="2.94926">
        <ele>1026.3</ele>
        <time>2016-12-06T14:20:15Z</time>
      </trkpt>
      <trkpt lat="45.66378" lon="2.94824">
        <ele>1031.4</ele>
        <time>2016-12-06T14:20:27Z</time>
      </trkpt>
      <trkpt lat="45.66362" lon="2.94766">
        <ele>1031.1</ele>
        <time>2016-12-06T14:20:32Z</time>
      </trkpt>
      <trkpt lat="45.66176" lon="2.94384">
        <ele>1028.2</ele>
        <time>2016-12-06T14:21:08Z</time>
      </trkpt>
      <trkpt lat="45.65989" lon="2.9389">
        <ele>1023.5</ele>
        <time>2016-12-06T14:21:52Z</time>
      </trkpt>
      <trkpt lat="45.65825" lon="2.93838">
        <ele>1023</ele>
        <time>2016-12-06T14:22:10Z</time>
      </trkpt>
      <trkpt lat="45.65695" lon="2.9374">
        <ele>1021.1</ele>
        <time>2016-12-06T14:22:27Z</time>
      </trkpt>
      <trkpt lat="45.65558" lon="2.93561">
        <ele>1023.3</ele>
        <time>2016-12-06T14:22:47Z</time>
      </trkpt>
      <trkpt lat="45.65404" lon="2.93421">
        <ele>1014.1</ele>
        <time>2016-12-06T14:23:08Z</time>
      </trkpt>
      <trkpt lat="45.65275" lon="2.93191">
        <ele>998.1</ele>
        <time>2016-12-06T14:23:31Z</time>
      </trkpt>
      <trkpt lat="45.65191" lon="2.92902">
        <ele>988.1</ele>
        <time>2016-12-06T14:23:55Z</time>
      </trkpt>
      <trkpt lat="45.65167" lon="2.92875">
        <ele>989.1</ele>
        <time>2016-12-06T14:23:58Z</time>
      </trkpt>
      <trkpt lat="45.65129" lon="2.92887">
        <ele>992.9</ele>
        <time>2016-12-06T14:24:03Z</time>
      </trkpt>
      <trkpt lat="45.65091" lon="2.92922">
        <ele>999.2</ele>
        <time>2016-12-06T14:24:08Z</time>
      </trkpt>
      <trkpt lat="45.64965" lon="2.92953">
        <ele>1015.6</ele>
        <time>2016-12-06T14:24:22Z</time>
      </trkpt>
      <trkpt lat="45.64906" lon="2.92976">
        <ele>1012.9</ele>
        <time>2016-12-06T14:24:29Z</time>
      </trkpt>
      <trkpt lat="45.64873" lon="2.92957">
        <ele>1010.3</ele>
        <time>2016-12-06T14:24:33Z</time>
      </trkpt>
      <trkpt lat="45.64814" lon="2.92871">
        <ele>1012.3</ele>
        <time>2016-12-06T14:24:42Z</time>
      </trkpt>
      <trkpt lat="45.64736" lon="2.9277">
        <ele>1013</ele>
        <time>2016-12-06T14:24:54Z</time>
      </trkpt>
      <trkpt lat="45.64697" lon="2.92687">
        <ele>1013.3</ele>
        <time>2016-12-06T14:25:02Z</time>
      </trkpt>
      <trkpt lat="45.6463" lon="2.92624">
        <ele>1013.1</ele>
        <time>2016-12-06T14:25:11Z</time>
      </trkpt>
      <trkpt lat="45.64578" lon="2.92578">
        <ele>1014.5</ele>
        <time>2016-12-06T14:25:17Z</time>
      </trkpt>
      <trkpt lat="45.64522" lon="2.92418">
        <ele>1017.9</ele>
        <time>2016-12-06T14:25:31Z</time>
      </trkpt>
      <trkpt lat="45.64471" lon="2.92316">
        <ele>1019.9</ele>
        <time>2016-12-06T14:25:41Z</time>
      </trkpt>
      <trkpt lat="45.64438" lon="2.92188">
        <ele>1025.2</ele>
        <time>2016-12-06T14:25:52Z</time>
      </trkpt>
      <trkpt lat="45.64368" lon="2.92071">
        <ele>1022.6</ele>
        <time>2016-12-06T14:26:04Z</time>
      </trkpt>
      <trkpt lat="45.64341" lon="2.92016">
        <ele>1022.6</ele>
        <time>2016-12-06T14:26:09Z</time>
      </trkpt>
      <trkpt lat="45.64333" lon="2.91923">
        <ele>1030.6</ele>
        <time>2016-12-06T14:26:16Z</time>
      </trkpt>
      <trkpt lat="45.64301" lon="2.9188">
        <ele>1030.7</ele>
        <time>2016-12-06T14:26:21Z</time>
      </trkpt>
      <trkpt lat="45.64236" lon="2.91849">
        <ele>1030.1</ele>
        <time>2016-12-06T14:26:29Z</time>
      </trkpt>
      <trkpt lat="45.64207" lon="2.91833">
        <ele>1032.1</ele>
        <time>2016-12-06T14:26:32Z</time>
      </trkpt>
      <trkpt lat="45.64153" lon="2.91849">
        <ele>1031.5</ele>
        <time>2016-12-06T14:26:38Z</time>
      </trkpt>
      <trkpt lat="45.64126" lon="2.91822">
        <ele>1034.4</ele>
        <time>2016-12-06T14:26:42Z</time>
      </trkpt>
      <trkpt lat="45.6412" lon="2.91763">
        <ele>1036.6</ele>
        <time>2016-12-06T14:26:47Z</time>
      </trkpt>
      <trkpt lat="45.64126" lon="2.91697">
        <ele>1037.6</ele>
        <time>2016-12-06T14:26:52Z</time>
      </trkpt>
      <trkpt lat="45.64096" lon="2.91611">
        <ele>1039</ele>
        <time>2016-12-06T14:26:59Z</time>
      </trkpt>
      <trkpt lat="45.64042" lon="2.91506">
        <ele>1050.2</ele>
        <time>2016-12-06T14:27:09Z</time>
      </trkpt>
      <trkpt lat="45.63967" lon="2.91401">
        <ele>1060.1</ele>
        <time>2016-12-06T14:27:21Z</time>
      </trkpt>
      <trkpt lat="45.6394" lon="2.91334">
        <ele>1061.1</ele>
        <time>2016-12-06T14:27:27Z</time>
      </trkpt>
      <trkpt lat="45.63926" lon="2.91264">
        <ele>1063.2</ele>
        <time>2016-12-06T14:27:33Z</time>
      </trkpt>
      <trkpt lat="45.63921" lon="2.91186">
        <ele>1069.7</ele>
        <time>2016-12-06T14:27:39Z</time>
      </trkpt>
      <trkpt lat="45.63886" lon="2.91073">
        <ele>1078</ele>
        <time>2016-12-06T14:27:49Z</time>
      </trkpt>
      <trkpt lat="45.63711" lon="2.90536">
        <ele>1101.3</ele>
        <time>2016-12-06T14:28:35Z</time>
      </trkpt>
      <trkpt lat="45.63456" lon="2.89757">
        <ele>1120.8</ele>
        <time>2016-12-06T14:29:41Z</time>
      </trkpt>
      <trkpt lat="45.63467" lon="2.89508">
        <ele>1126.1</ele>
        <time>2016-12-06T14:30:01Z</time>
      </trkpt>
      <trkpt lat="45.63618" lon="2.89392">
        <ele>1143.6</ele>
        <time>2016-12-06T14:30:20Z</time>
      </trkpt>
      <trkpt lat="45.63788" lon="2.89261">
        <ele>1143.4</ele>
        <time>2016-12-06T14:30:41Z</time>
      </trkpt>
      <trkpt lat="45.63796" lon="2.89246">
        <ele>1143.6</ele>
        <time>2016-12-06T14:30:43Z</time>
      </trkpt>
      <trkpt lat="45.63709" lon="2.89034">
        <ele>1160</ele>
        <time>2016-12-06T14:31:02Z</time>
      </trkpt>
      <trkpt lat="45.63627" lon="2.88969">
        <ele>1167</ele>
        <time>2016-12-06T14:31:13Z</time>
      </trkpt>
      <trkpt lat="45.63601" lon="2.88926">
        <ele>1169.7</ele>
        <time>2016-12-06T14:31:17Z</time>
      </trkpt>
      <trkpt lat="45.63549" lon="2.88868">
        <ele>1173.7</ele>
        <time>2016-12-06T14:31:24Z</time>
      </trkpt>
      <trkpt lat="45.63526" lon="2.88863">
        <ele>1174.5</ele>
        <time>2016-12-06T14:31:27Z</time>
      </trkpt>
      <trkpt lat="45.63493" lon="2.88888">
        <ele>1173.9</ele>
        <time>2016-12-06T14:31:31Z</time>
      </trkpt>
      <trkpt lat="45.63475" lon="2.88819">
        <ele>1178.4</ele>
        <time>2016-12-06T14:31:37Z</time>
      </trkpt>
      <trkpt lat="45.63449" lon="2.88809">
        <ele>1179.4</ele>
        <time>2016-12-06T14:31:40Z</time>
      </trkpt>
      <trkpt lat="45.63403" lon="2.88818">
        <ele>1178.5</ele>
        <time>2016-12-06T14:31:45Z</time>
      </trkpt>
      <trkpt lat="45.63359" lon="2.88783">
        <ele>1180.1</ele>
        <time>2016-12-06T14:31:51Z</time>
      </trkpt>
      <trkpt lat="45.63334" lon="2.88728">
        <ele>1183</ele>
        <time>2016-12-06T14:31:56Z</time>
      </trkpt>
      <trkpt lat="45.63305" lon="2.88611">
        <ele>1189.2</ele>
        <time>2016-12-06T14:32:06Z</time>
      </trkpt>
      <trkpt lat="45.63276" lon="2.88575">
        <ele>1190</ele>
        <time>2016-12-06T14:32:10Z</time>
      </trkpt>
      <trkpt lat="45.63162" lon="2.88541">
        <ele>1199.7</ele>
        <time>2016-12-06T14:32:23Z</time>
      </trkpt>
      <trkpt lat="45.6313" lon="2.88548">
        <ele>1199.4</ele>
        <time>2016-12-06T14:32:26Z</time>
      </trkpt>
      <trkpt lat="45.63097" lon="2.88532">
        <ele>1200.8</ele>
        <time>2016-12-06T14:32:30Z</time>
      </trkpt>
      <trkpt lat="45.62976" lon="2.88284">
        <ele>1208.8</ele>
        <time>2016-12-06T14:32:54Z</time>
      </trkpt>
      <trkpt lat="45.62868" lon="2.8801">
        <ele>1220.6</ele>
        <time>2016-12-06T14:33:18Z</time>
      </trkpt>
      <trkpt lat="45.62833" lon="2.87966">
        <ele>1225.3</ele>
        <time>2016-12-06T14:33:23Z</time>
      </trkpt>
      <trkpt lat="45.62796" lon="2.8797">
        <ele>1231.6</ele>
        <time>2016-12-06T14:33:28Z</time>
      </trkpt>
      <trkpt lat="45.62779" lon="2.87967">
        <ele>1235.1</ele>
        <time>2016-12-06T14:33:30Z</time>
      </trkpt>
      <trkpt lat="45.62775" lon="2.87945">
        <ele>1237.4</ele>
        <time>2016-12-06T14:33:31Z</time>
      </trkpt>
      <trkpt lat="45.62785" lon="2.87882">
        <ele>1240</ele>
        <time>2016-12-06T14:33:36Z</time>
      </trkpt>
      <trkpt lat="45.62793" lon="2.87817">
        <ele>1243.8</ele>
        <time>2016-12-06T14:33:42Z</time>
      </trkpt>
      <trkpt lat="45.62738" lon="2.87581">
        <ele>1266.6</ele>
        <time>2016-12-06T14:34:01Z</time>
      </trkpt>
      <trkpt lat="45.62692" lon="2.8747">
        <ele>1271.2</ele>
        <time>2016-12-06T14:34:11Z</time>
      </trkpt>
      <trkpt lat="45.6266" lon="2.87422">
        <ele>1273.5</ele>
        <time>2016-12-06T14:34:16Z</time>
      </trkpt>
      <trkpt lat="45.62629" lon="2.87402">
        <ele>1279.1</ele>
        <time>2016-12-06T14:34:20Z</time>
      </trkpt>
      <trkpt lat="45.62621" lon="2.87412">
        <ele>1282.3</ele>
        <time>2016-12-06T14:34:21Z</time>
      </trkpt>
      <trkpt lat="45.6262" lon="2.87441">
        <ele>1286.6</ele>
        <time>2016-12-06T14:34:24Z</time>
      </trkpt>
      <trkpt lat="45.62657" lon="2.87609">
        <ele>1294.4</ele>
        <time>2016-12-06T14:34:37Z</time>
      </trkpt>
      <trkpt lat="45.62654" lon="2.87718">
        <ele>1294</ele>
        <time>2016-12-06T14:34:46Z</time>
      </trkpt>
      <trkpt lat="45.62611" lon="2.87871">
        <ele>1297.8</ele>
        <time>2016-12-06T14:34:59Z</time>
      </trkpt>
      <trkpt lat="45.62577" lon="2.87944">
        <ele>1298.7</ele>
        <time>2016-12-06T14:35:05Z</time>
      </trkpt>
      <trkpt lat="45.62532" lon="2.87983">
        <ele>1300.5</ele>
        <time>2016-12-06T14:35:11Z</time>
      </trkpt>
      <trkpt lat="45.62488" lon="2.87984">
        <ele>1301.8</ele>
        <time>2016-12-06T14:35:16Z</time>
      </trkpt>
      <trkpt lat="45.62445" lon="2.87946">
        <ele>1305.9</ele>
        <time>2016-12-06T14:35:22Z</time>
      </trkpt>
      <trkpt lat="45.62451" lon="2.87918">
        <ele>1308.6</ele>
        <time>2016-12-06T14:35:24Z</time>
      </trkpt>
      <trkpt lat="45.62486" lon="2.87872">
        <ele>1313.3</ele>
        <time>2016-12-06T14:35:29Z</time>
      </trkpt>
      <trkpt lat="45.62512" lon="2.87806">
        <ele>1316.1</ele>
        <time>2016-12-06T14:35:35Z</time>
      </trkpt>
      <trkpt lat="45.62538" lon="2.87703">
        <ele>1321</ele>
        <time>2016-12-06T14:35:44Z</time>
      </trkpt>
      <trkpt lat="45.62525" lon="2.87593">
        <ele>1326.1</ele>
        <time>2016-12-06T14:35:53Z</time>
      </trkpt>
      <trkpt lat="45.62495" lon="2.87533">
        <ele>1330</ele>
        <time>2016-12-06T14:35:58Z</time>
      </trkpt>
      <trkpt lat="45.62043" lon="2.86994">
        <ele>1359.7</ele>
        <time>2016-12-06T14:37:04Z</time>
      </trkpt>
      <trkpt lat="45.62027" lon="2.86911">
        <ele>1365.3</ele>
        <time>2016-12-06T14:37:10Z</time>
      </trkpt>
      <trkpt lat="45.62004" lon="2.86895">
        <ele>1367.6</ele>
        <time>2016-12-06T14:37:13Z</time>
      </trkpt>
      <trkpt lat="45.61924" lon="2.86894">
        <ele>1372</ele>
        <time>2016-12-06T14:37:22Z</time>
      </trkpt>
      <trkpt lat="45.61912" lon="2.8687">
        <ele>1374.5</ele>
        <time>2016-12-06T14:37:25Z</time>
      </trkpt>
      <trkpt lat="45.61905" lon="2.86798">
        <ele>1380.5</ele>
        <time>2016-12-06T14:37:30Z</time>
      </trkpt>
      <trkpt lat="45.61879" lon="2.86614">
        <ele>1392.6</ele>
        <time>2016-12-06T14:37:45Z</time>
      </trkpt>
      <trkpt lat="45.61849" lon="2.86566">
        <ele>1396.2</ele>
        <time>2016-12-06T14:37:50Z</time>
      </trkpt>
      <trkpt lat="45.61794" lon="2.86509">
        <ele>1402.3</ele>
        <time>2016-12-06T14:37:57Z</time>
      </trkpt>
      <trkpt lat="45.61722" lon="2.86344">
        <ele>1409.4</ele>
        <time>2016-12-06T14:38:13Z</time>
      </trkpt>
      <trkpt lat="45.61689" lon="2.86306">
        <ele>1412.7</ele>
        <time>2016-12-06T14:38:17Z</time>
      </trkpt>
      <trkpt lat="45.6159" lon="2.86236">
        <ele>1424.5</ele>
        <time>2016-12-06T14:38:30Z</time>
      </trkpt>
      <trkpt lat="45.61506" lon="2.86162">
        <ele>1429.7</ele>
        <time>2016-12-06T14:38:41Z</time>
      </trkpt>
      <trkpt lat="45.61352" lon="2.85953">
        <ele>1413.3</ele>
        <time>2016-12-06T14:39:04Z</time>
      </trkpt>
      <trkpt lat="45.61293" lon="2.85852">
        <ele>1410.3</ele>
        <time>2016-12-06T14:39:15Z</time>
      </trkpt>
      <trkpt lat="45.61196" lon="2.85723">
        <ele>1408.2</ele>
        <time>2016-12-06T14:39:29Z</time>
      </trkpt>
      <trkpt lat="45.61107" lon="2.85656">
        <ele>1410.1</ele>
        <time>2016-12-06T14:39:40Z</time>
      </trkpt>
      <trkpt lat="45.6101" lon="2.8554">
        <ele>1412.8</ele>
        <time>2016-12-06T14:39:55Z</time>
      </trkpt>
      <trkpt lat="45.60929" lon="2.8546">
        <ele>1407.7</ele>
        <time>2016-12-06T14:40:05Z</time>
      </trkpt>
      <trkpt lat="45.60855" lon="2.85423">
        <ele>1403.4</ele>
        <time>2016-12-06T14:40:14Z</time>
      </trkpt>
      <trkpt lat="45.60716" lon="2.85416">
        <ele>1398.6</ele>
        <time>2016-12-06T14:40:30Z</time>
      </trkpt>
      <trkpt lat="45.60607" lon="2.85391">
        <ele>1393.2</ele>
        <time>2016-12-06T14:40:42Z</time>
      </trkpt>
      <trkpt lat="45.60572" lon="2.8539">
        <ele>1391.9</ele>
        <time>2016-12-06T14:40:46Z</time>
      </trkpt>
      <trkpt lat="45.60541" lon="2.85352">
        <ele>1389.8</ele>
        <time>2016-12-06T14:40:50Z</time>
      </trkpt>
      <trkpt lat="45.60515" lon="2.85305">
        <ele>1387.4</ele>
        <time>2016-12-06T14:40:55Z</time>
      </trkpt>
      <trkpt lat="45.60467" lon="2.85234">
        <ele>1385.2</ele>
        <time>2016-12-06T14:41:03Z</time>
      </trkpt>
      <trkpt lat="45.60426" lon="2.8513">
        <ele>1384.5</ele>
        <time>2016-12-06T14:41:12Z</time>
      </trkpt>
      <trkpt lat="45.60282" lon="2.85024">
        <ele>1382.7</ele>
        <time>2016-12-06T14:41:30Z</time>
      </trkpt>
      <trkpt lat="45.59996" lon="2.84672">
        <ele>1366.8</ele>
        <time>2016-12-06T14:42:12Z</time>
      </trkpt>
      <trkpt lat="45.59976" lon="2.84619">
        <ele>1367.1</ele>
        <time>2016-12-06T14:42:17Z</time>
      </trkpt>
      <trkpt lat="45.59967" lon="2.84571">
        <ele>1366.9</ele>
        <time>2016-12-06T14:42:21Z</time>
      </trkpt>
      <trkpt lat="45.59956" lon="2.84525">
        <ele>1368.3</ele>
        <time>2016-12-06T14:42:24Z</time>
      </trkpt>
      <trkpt lat="45.59989" lon="2.84491">
        <ele>1363.6</ele>
        <time>2016-12-06T14:42:29Z</time>
      </trkpt>
      <trkpt lat="45.60019" lon="2.84437">
        <ele>1359.1</ele>
        <time>2016-12-06T14:42:34Z</time>
      </trkpt>
      <trkpt lat="45.60041" lon="2.84383">
        <ele>1354.5</ele>
        <time>2016-12-06T14:42:39Z</time>
      </trkpt>
      <trkpt lat="45.60053" lon="2.84336">
        <ele>1350.8</ele>
        <time>2016-12-06T14:42:43Z</time>
      </trkpt>
      <trkpt lat="45.60052" lon="2.84312">
        <ele>1350.1</ele>
        <time>2016-12-06T14:42:45Z</time>
      </trkpt>
      <trkpt lat="45.60045" lon="2.8428">
        <ele>1350.4</ele>
        <time>2016-12-06T14:42:48Z</time>
      </trkpt>
      <trkpt lat="45.60069" lon="2.84243">
        <ele>1344.5</ele>
        <time>2016-12-06T14:42:52Z</time>
      </trkpt>
      <trkpt lat="45.60083" lon="2.84148">
        <ele>1339.1</ele>
        <time>2016-12-06T14:42:59Z</time>
      </trkpt>
      <trkpt lat="45.60087" lon="2.84047">
        <ele>1332.2</ele>
        <time>2016-12-06T14:43:07Z</time>
      </trkpt>
      <trkpt lat="45.60062" lon="2.83927">
        <ele>1326.8</ele>
        <time>2016-12-06T14:43:17Z</time>
      </trkpt>
      <trkpt lat="45.60056" lon="2.8387">
        <ele>1321.4</ele>
        <time>2016-12-06T14:43:21Z</time>
      </trkpt>
      <trkpt lat="45.60039" lon="2.83787">
        <ele>1315.8</ele>
        <time>2016-12-06T14:43:28Z</time>
      </trkpt>
      <trkpt lat="45.6003" lon="2.83718">
        <ele>1306.4</ele>
        <time>2016-12-06T14:43:34Z</time>
      </trkpt>
      <trkpt lat="45.59982" lon="2.83552">
        <ele>1296.5</ele>
        <time>2016-12-06T14:43:48Z</time>
      </trkpt>
      <trkpt lat="45.59904" lon="2.83338">
        <ele>1281.5</ele>
        <time>2016-12-06T14:44:07Z</time>
      </trkpt>
      <trkpt lat="45.59837" lon="2.8315">
        <ele>1259.7</ele>
        <time>2016-12-06T14:44:23Z</time>
      </trkpt>
      <trkpt lat="45.59808" lon="2.83116">
        <ele>1253.2</ele>
        <time>2016-12-06T14:44:27Z</time>
      </trkpt>
      <trkpt lat="45.59775" lon="2.83105">
        <ele>1248.7</ele>
        <time>2016-12-06T14:44:31Z</time>
      </trkpt>
      <trkpt lat="45.59751" lon="2.83108">
        <ele>1246.4</ele>
        <time>2016-12-06T14:44:34Z</time>
      </trkpt>
      <trkpt lat="45.59741" lon="2.83097">
        <ele>1244.5</ele>
        <time>2016-12-06T14:44:35Z</time>
      </trkpt>
      <trkpt lat="45.59751" lon="2.8305">
        <ele>1242.1</ele>
        <time>2016-12-06T14:44:39Z</time>
      </trkpt>
      <trkpt lat="45.5978" lon="2.82996">
        <ele>1238.5</ele>
        <time>2016-12-06T14:44:44Z</time>
      </trkpt>
      <trkpt lat="45.59779" lon="2.82965">
        <ele>1235.6</ele>
        <time>2016-12-06T14:44:47Z</time>
      </trkpt>
      <trkpt lat="45.59766" lon="2.82913">
        <ele>1230.6</ele>
        <time>2016-12-06T14:44:51Z</time>
      </trkpt>
      <trkpt lat="45.59647" lon="2.8276">
        <ele>1205.7</ele>
        <time>2016-12-06T14:45:09Z</time>
      </trkpt>
      <trkpt lat="45.59523" lon="2.82521">
        <ele>1182.2</ele>
        <time>2016-12-06T14:45:32Z</time>
      </trkpt>
      <trkpt lat="45.59483" lon="2.82471">
        <ele>1173.9</ele>
        <time>2016-12-06T14:45:38Z</time>
      </trkpt>
      <trkpt lat="45.59459" lon="2.82414">
        <ele>1172.8</ele>
        <time>2016-12-06T14:45:43Z</time>
      </trkpt>
      <trkpt lat="45.59448" lon="2.82411">
        <ele>1167.8</ele>
        <time>2016-12-06T14:45:45Z</time>
      </trkpt>
      <trkpt lat="45.59448" lon="2.82428">
        <ele>1165.2</ele>
        <time>2016-12-06T14:45:46Z</time>
      </trkpt>
      <trkpt lat="45.59419" lon="2.82381">
        <ele>1158.2</ele>
        <time>2016-12-06T14:45:51Z</time>
      </trkpt>
      <trkpt lat="45.59391" lon="2.82312">
        <ele>1148.9</ele>
        <time>2016-12-06T14:45:57Z</time>
      </trkpt>
      <trkpt lat="45.5936" lon="2.8218">
        <ele>1141</ele>
        <time>2016-12-06T14:46:08Z</time>
      </trkpt>
      <trkpt lat="45.59329" lon="2.82105">
        <ele>1127.7</ele>
        <time>2016-12-06T14:46:15Z</time>
      </trkpt>
      <trkpt lat="45.59311" lon="2.82048">
        <ele>1120.1</ele>
        <time>2016-12-06T14:46:20Z</time>
      </trkpt>
      <trkpt lat="45.59313" lon="2.82004">
        <ele>1119.3</ele>
        <time>2016-12-06T14:46:23Z</time>
      </trkpt>
      <trkpt lat="45.59321" lon="2.81959">
        <ele>1119.4</ele>
        <time>2016-12-06T14:46:27Z</time>
      </trkpt>
      <trkpt lat="45.59327" lon="2.81947">
        <ele>1120.4</ele>
        <time>2016-12-06T14:46:28Z</time>
      </trkpt>
      <trkpt lat="45.59331" lon="2.81927">
        <ele>1120.8</ele>
        <time>2016-12-06T14:46:30Z</time>
      </trkpt>
      <trkpt lat="45.59327" lon="2.8191">
        <ele>1118.5</ele>
        <time>2016-12-06T14:46:31Z</time>
      </trkpt>
      <trkpt lat="45.59317" lon="2.81913">
        <ele>1115.6</ele>
        <time>2016-12-06T14:46:32Z</time>
      </trkpt>
      <trkpt lat="45.59296" lon="2.81939">
        <ele>1109.9</ele>
        <time>2016-12-06T14:46:35Z</time>
      </trkpt>
      <trkpt lat="45.59288" lon="2.81978">
        <ele>1109.7</ele>
        <time>2016-12-06T14:46:39Z</time>
      </trkpt>
      <trkpt lat="45.59285" lon="2.82">
        <ele>1109.6</ele>
        <time>2016-12-06T14:46:40Z</time>
      </trkpt>
      <trkpt lat="45.59285" lon="2.82024">
        <ele>1110.2</ele>
        <time>2016-12-06T14:46:42Z</time>
      </trkpt>
      <trkpt lat="45.59284" lon="2.82036">
        <ele>1110</ele>
        <time>2016-12-06T14:46:43Z</time>
      </trkpt>
      <trkpt lat="45.59279" lon="2.82041">
        <ele>1108.3</ele>
        <time>2016-12-06T14:46:44Z</time>
      </trkpt>
      <trkpt lat="45.59275" lon="2.82033">
        <ele>1107.7</ele>
        <time>2016-12-06T14:46:45Z</time>
      </trkpt>
      <trkpt lat="45.59268" lon="2.81996">
        <ele>1106.7</ele>
        <time>2016-12-06T14:46:48Z</time>
      </trkpt>
      <trkpt lat="45.59251" lon="2.81936">
        <ele>1102</ele>
        <time>2016-12-06T14:46:53Z</time>
      </trkpt>
      <trkpt lat="45.59227" lon="2.81842">
        <ele>1095.6</ele>
        <time>2016-12-06T14:47:01Z</time>
      </trkpt>
      <trkpt lat="45.59215" lon="2.81772">
        <ele>1091.5</ele>
        <time>2016-12-06T14:47:06Z</time>
      </trkpt>
      <trkpt lat="45.5921" lon="2.8171">
        <ele>1086.9</ele>
        <time>2016-12-06T14:47:11Z</time>
      </trkpt>
      <trkpt lat="45.59153" lon="2.81607">
        <ele>1081.4</ele>
        <time>2016-12-06T14:47:21Z</time>
      </trkpt>
      <trkpt lat="45.59121" lon="2.81535">
        <ele>1076.2</ele>
        <time>2016-12-06T14:47:28Z</time>
      </trkpt>
      <trkpt lat="45.59071" lon="2.81489">
        <ele>1072.4</ele>
        <time>2016-12-06T14:47:35Z</time>
      </trkpt>
      <trkpt lat="45.59045" lon="2.81448">
        <ele>1066</ele>
        <time>2016-12-06T14:47:39Z</time>
      </trkpt>
      <trkpt lat="45.59027" lon="2.8141">
        <ele>1060.5</ele>
        <time>2016-12-06T14:47:43Z</time>
      </trkpt>
      <trkpt lat="45.5901" lon="2.81375">
        <ele>1056</ele>
        <time>2016-12-06T14:47:46Z</time>
      </trkpt>
      <trkpt lat="45.58997" lon="2.81361">
        <ele>1054.6</ele>
        <time>2016-12-06T14:47:48Z</time>
      </trkpt>
      <trkpt lat="45.58975" lon="2.81368">
        <ele>1056.3</ele>
        <time>2016-12-06T14:47:50Z</time>
      </trkpt>
      <trkpt lat="45.58953" lon="2.81382">
        <ele>1058.4</ele>
        <time>2016-12-06T14:47:53Z</time>
      </trkpt>
      <trkpt lat="45.58934" lon="2.81385">
        <ele>1059.7</ele>
        <time>2016-12-06T14:47:55Z</time>
      </trkpt>
      <trkpt lat="45.58918" lon="2.8138">
        <ele>1059.7</ele>
        <time>2016-12-06T14:47:57Z</time>
      </trkpt>
      <trkpt lat="45.58901" lon="2.81393">
        <ele>1062.6</ele>
        <time>2016-12-06T14:47:59Z</time>
      </trkpt>
      <trkpt lat="45.58889" lon="2.81408">
        <ele>1066.6</ele>
        <time>2016-12-06T14:48:01Z</time>
      </trkpt>
      <trkpt lat="45.5888" lon="2.81426">
        <ele>1071</ele>
        <time>2016-12-06T14:48:03Z</time>
      </trkpt>
      <trkpt lat="45.58871" lon="2.81422">
        <ele>1070.5</ele>
        <time>2016-12-06T14:48:04Z</time>
      </trkpt>
      <trkpt lat="45.5886" lon="2.814">
        <ele>1066.1</ele>
        <time>2016-12-06T14:48:06Z</time>
      </trkpt>
      <trkpt lat="45.58843" lon="2.81393">
        <ele>1065.3</ele>
        <time>2016-12-06T14:48:08Z</time>
      </trkpt>
      <trkpt lat="45.58819" lon="2.81394">
        <ele>1069.1</ele>
        <time>2016-12-06T14:48:10Z</time>
      </trkpt>
      <trkpt lat="45.588" lon="2.81413">
        <ele>1076.3</ele>
        <time>2016-12-06T14:48:13Z</time>
      </trkpt>
      <trkpt lat="45.58793" lon="2.81432">
        <ele>1080.4</ele>
        <time>2016-12-06T14:48:15Z</time>
      </trkpt>
      <trkpt lat="45.58788" lon="2.81437">
        <ele>1082</ele>
        <time>2016-12-06T14:48:15Z</time>
      </trkpt>
      <trkpt lat="45.58784" lon="2.81424">
        <ele>1080.9</ele>
        <time>2016-12-06T14:48:17Z</time>
      </trkpt>
      <trkpt lat="45.58773" lon="2.8137">
        <ele>1077.6</ele>
        <time>2016-12-06T14:48:21Z</time>
      </trkpt>
      <trkpt lat="45.58772" lon="2.81345">
        <ele>1076.7</ele>
        <time>2016-12-06T14:48:23Z</time>
      </trkpt>
      <trkpt lat="45.58789" lon="2.81319">
        <ele>1073.3</ele>
        <time>2016-12-06T14:48:26Z</time>
      </trkpt>
      <trkpt lat="45.58799" lon="2.81293">
        <ele>1072.6</ele>
        <time>2016-12-06T14:48:28Z</time>
      </trkpt>
      <trkpt lat="45.588" lon="2.81286">
        <ele>1072.7</ele>
        <time>2016-12-06T14:48:29Z</time>
      </trkpt>
      <trkpt lat="45.58803" lon="2.8126">
        <ele>1072.5</ele>
        <time>2016-12-06T14:48:31Z</time>
      </trkpt>
      <trkpt lat="45.588" lon="2.81235">
        <ele>1072.4</ele>
        <time>2016-12-06T14:48:32Z</time>
      </trkpt>
      <trkpt lat="45.58817" lon="2.81142">
        <ele>1066.7</ele>
        <time>2016-12-06T14:48:40Z</time>
      </trkpt>
      <trkpt lat="45.58819" lon="2.8109">
        <ele>1064</ele>
        <time>2016-12-06T14:48:44Z</time>
      </trkpt>
      <trkpt lat="45.58834" lon="2.81048">
        <ele>1058.7</ele>
        <time>2016-12-06T14:48:48Z</time>
      </trkpt>
      <trkpt lat="45.58829" lon="2.80961">
        <ele>1059.7</ele>
        <time>2016-12-06T14:48:55Z</time>
      </trkpt>
      <trkpt lat="45.58838" lon="2.80907">
        <ele>1057.4</ele>
        <time>2016-12-06T14:48:59Z</time>
      </trkpt>
      <trkpt lat="45.58851" lon="2.80876">
        <ele>1055.5</ele>
        <time>2016-12-06T14:49:02Z</time>
      </trkpt>
      <trkpt lat="45.58857" lon="2.80846">
        <ele>1057.1</ele>
        <time>2016-12-06T14:49:04Z</time>
      </trkpt>
      <trkpt lat="45.58856" lon="2.80795">
        <ele>1061.4</ele>
        <time>2016-12-06T14:49:08Z</time>
      </trkpt>
      <trkpt lat="45.58833" lon="2.80562">
        <ele>1052.6</ele>
        <time>2016-12-06T14:49:27Z</time>
      </trkpt>
      <trkpt lat="45.58819" lon="2.80406">
        <ele>1039.4</ele>
        <time>2016-12-06T14:49:39Z</time>
      </trkpt>
      <trkpt lat="45.58819" lon="2.80368">
        <ele>1035.1</ele>
        <time>2016-12-06T14:49:42Z</time>
      </trkpt>
      <trkpt lat="45.58827" lon="2.80311">
        <ele>1028.9</ele>
        <time>2016-12-06T14:49:46Z</time>
      </trkpt>
      <trkpt lat="45.58808" lon="2.80254">
        <ele>1029.9</ele>
        <time>2016-12-06T14:49:51Z</time>
      </trkpt>
      <trkpt lat="45.58783" lon="2.80215">
        <ele>1030.3</ele>
        <time>2016-12-06T14:49:55Z</time>
      </trkpt>
      <trkpt lat="45.58749" lon="2.80177">
        <ele>1024.2</ele>
        <time>2016-12-06T14:50:00Z</time>
      </trkpt>
      <trkpt lat="45.58725" lon="2.80165">
        <ele>1021.7</ele>
        <time>2016-12-06T14:50:03Z</time>
      </trkpt>
      <trkpt lat="45.58658" lon="2.80163">
        <ele>1015.6</ele>
        <time>2016-12-06T14:50:11Z</time>
      </trkpt>
      <trkpt lat="45.5862" lon="2.80178">
        <ele>1013.5</ele>
        <time>2016-12-06T14:50:15Z</time>
      </trkpt>
      <trkpt lat="45.58599" lon="2.80185">
        <ele>1011.1</ele>
        <time>2016-12-06T14:50:17Z</time>
      </trkpt>
      <trkpt lat="45.58578" lon="2.80204">
        <ele>1010.7</ele>
        <time>2016-12-06T14:50:20Z</time>
      </trkpt>
      <trkpt lat="45.58467" lon="2.8029">
        <ele>1007.4</ele>
        <time>2016-12-06T14:50:34Z</time>
      </trkpt>
      <trkpt lat="45.58422" lon="2.80316">
        <ele>1005.2</ele>
        <time>2016-12-06T14:50:40Z</time>
      </trkpt>
      <trkpt lat="45.58394" lon="2.8034">
        <ele>1004.6</ele>
        <time>2016-12-06T14:50:43Z</time>
      </trkpt>
      <trkpt lat="45.58376" lon="2.80343">
        <ele>1003.3</ele>
        <time>2016-12-06T14:50:45Z</time>
      </trkpt>
      <trkpt lat="45.58371" lon="2.80344">
        <ele>1003.1</ele>
        <time>2016-12-06T14:50:46Z</time>
      </trkpt>
      <trkpt lat="45.58341" lon="2.80367">
        <ele>1004.8</ele>
        <time>2016-12-06T14:50:50Z</time>
      </trkpt>
      <trkpt lat="45.58321" lon="2.80371">
        <ele>1003.9</ele>
        <time>2016-12-06T14:50:52Z</time>
      </trkpt>
      <trkpt lat="45.58316" lon="2.80362">
        <ele>1002.2</ele>
        <time>2016-12-06T14:50:53Z</time>
      </trkpt>
      <trkpt lat="45.58229" lon="2.80471">
        <ele>1009.3</ele>
        <time>2016-12-06T14:51:06Z</time>
      </trkpt>
      <trkpt lat="45.58131" lon="2.80588">
        <ele>1015.6</ele>
        <time>2016-12-06T14:51:20Z</time>
      </trkpt>
      <trkpt lat="45.58046" lon="2.8065">
        <ele>1019</ele>
        <time>2016-12-06T14:51:31Z</time>
      </trkpt>
      <trkpt lat="45.57993" lon="2.80684">
        <ele>1022.6</ele>
        <time>2016-12-06T14:52:40Z</time>
      </trkpt>
      <trkpt lat="45.57918" lon="2.80709">
        <ele>1023.5</ele>
        <time>2016-12-06T14:54:13Z</time>
      </trkpt>
      <trkpt lat="45.57858" lon="2.80744">
        <ele>1021</ele>
        <time>2016-12-06T14:55:31Z</time>
      </trkpt>
      <trkpt lat="45.57758" lon="2.80855">
        <ele>1040.4</ele>
        <time>2016-12-06T14:58:00Z</time>
      </trkpt>
      <trkpt lat="45.57693" lon="2.80928">
        <ele>1049.3</ele>
        <time>2016-12-06T14:59:38Z</time>
      </trkpt>
      <trkpt lat="45.57671" lon="2.80939">
        <ele>1050</ele>
        <time>2016-12-06T15:00:05Z</time>
      </trkpt>
      <trkpt lat="45.57663" lon="2.80913">
        <ele>1044.9</ele>
        <time>2016-12-06T15:00:29Z</time>
      </trkpt>
      <trkpt lat="45.57664" lon="2.80868">
        <ele>1038.2</ele>
        <time>2016-12-06T15:01:06Z</time>
      </trkpt>
      <trkpt lat="45.57658" lon="2.80822">
        <ele>1033.4</ele>
        <time>2016-12-06T15:01:45Z</time>
      </trkpt>
      <trkpt lat="45.57642" lon="2.80782">
        <ele>1030.2</ele>
        <time>2016-12-06T15:02:23Z</time>
      </trkpt>
      <trkpt lat="45.57567" lon="2.80859">
        <ele>1036.9</ele>
        <time>2016-12-06T15:04:11Z</time>
      </trkpt>
      <trkpt lat="45.57471" lon="2.80909">
        <ele>1041.7</ele>
        <time>2016-12-06T15:06:10Z</time>
      </trkpt>
      <trkpt lat="45.57406" lon="2.80939">
        <ele>1041</ele>
        <time>2016-12-06T15:07:31Z</time>
      </trkpt>
      <trkpt lat="45.57364" lon="2.80966">
        <ele>1053.1</ele>
        <time>2011-06-10T19:33:26Z</time>
      </trkpt>
      <trkpt lat="45.57282" lon="2.81">
        <ele>1052.6</ele>
        <time>2011-06-10T19:33:37Z</time>
      </trkpt>
      <trkpt lat="45.57224" lon="2.81034">
        <ele>1047.4</ele>
        <time>2011-06-10T19:33:47Z</time>
      </trkpt>
      <trkpt lat="45.57197" lon="2.80963">
        <ele>1050.6</ele>
        <time>2011-06-10T19:33:57Z</time>
      </trkpt>
      <trkpt lat="45.57196" lon="2.80928">
        <ele>1048.1</ele>
        <time>2011-06-10T19:34:23Z</time>
      </trkpt>
      <trkpt lat="45.57203" lon="2.80907">
        <ele>1048.5</ele>
        <time>2011-06-10T19:34:41Z</time>
      </trkpt>
      <trkpt lat="45.57248" lon="2.8084">
        <ele>1049.7</ele>
        <time>2011-06-10T19:35:51Z</time>
      </trkpt>
      <trkpt lat="45.5726" lon="2.80829">
        <ele>1049</ele>
        <time>2011-06-10T19:36:07Z</time>
      </trkpt>
      <trkpt lat="45.57296" lon="2.80734">
        <ele>1055.5</ele>
        <time>2011-06-10T19:37:28Z</time>
      </trkpt>
      <trkpt lat="45.57318" lon="2.80689">
        <ele>1056.6</ele>
        <time>2011-06-10T19:38:10Z</time>
      </trkpt>
      <trkpt lat="45.57333" lon="2.80659">
        <ele>1058.2</ele>
        <time>2011-06-10T19:38:37Z</time>
      </trkpt>
      <trkpt lat="45.57397" lon="2.806">
        <ele>1053.9</ele>
        <time>2011-06-10T19:40:00Z</time>
      </trkpt>
      <trkpt lat="45.57416" lon="2.80541">
        <ele>1060.7</ele>
        <time>2011-06-10T19:40:49Z</time>
      </trkpt>
      <trkpt lat="45.57469" lon="2.80421">
        <ele>1065.8</ele>
        <time>2011-06-10T19:42:37Z</time>
      </trkpt>
      <trkpt lat="45.57482" lon="2.80391">
        <ele>1068.5</ele>
        <time>2011-06-10T19:43:04Z</time>
      </trkpt>
      <trkpt lat="45.57527" lon="2.80368">
        <ele>1063</ele>
        <time>2011-06-10T19:43:56Z</time>
      </trkpt>
      <trkpt lat="45.57571" lon="2.80317">
        <ele>1070.4</ele>
        <time>2011-06-10T19:44:58Z</time>
      </trkpt>
      <trkpt lat="45.57597" lon="2.80274">
        <ele>1078.6</ele>
        <time>2011-06-10T19:45:42Z</time>
      </trkpt>
      <trkpt lat="45.57535" lon="2.8031">
        <ele>1083.9</ele>
        <time>2011-06-10T19:46:54Z</time>
      </trkpt>
      <trkpt lat="45.57473" lon="2.80305">
        <ele>1098.4</ele>
        <time>2011-06-10T19:48:03Z</time>
      </trkpt>
      <trkpt lat="45.57396" lon="2.80344">
        <ele>1104.5</ele>
        <time>2011-06-10T19:49:31Z</time>
      </trkpt>
      <trkpt lat="45.57359" lon="2.80387">
        <ele>1104</ele>
        <time>2011-06-10T19:50:23Z</time>
      </trkpt>
      <trkpt lat="45.57304" lon="2.80414">
        <ele>1120.7</ele>
        <time>2011-06-10T19:51:28Z</time>
      </trkpt>
      <trkpt lat="45.57245" lon="2.80434">
        <ele>1136.7</ele>
        <time>2011-06-10T19:52:36Z</time>
      </trkpt>
      <trkpt lat="45.57259" lon="2.80473">
        <ele>1124.7</ele>
        <time>2011-06-10T19:53:11Z</time>
      </trkpt>
      <trkpt lat="45.57259" lon="2.80508">
        <ele>1115.8</ele>
        <time>2011-06-10T19:53:38Z</time>
      </trkpt>
      <trkpt lat="45.57253" lon="2.80526">
        <ele>1110.8</ele>
        <time>2011-06-10T19:53:54Z</time>
      </trkpt>
      <trkpt lat="45.57232" lon="2.80533">
        <ele>1111</ele>
        <time>2011-06-10T19:54:17Z</time>
      </trkpt>
      <trkpt lat="45.57213" lon="2.80525">
        <ele>1116.2</ele>
        <time>2011-06-10T19:54:39Z</time>
      </trkpt>
      <trkpt lat="45.57206" lon="2.80532">
        <ele>1115.2</ele>
        <time>2011-06-10T19:54:48Z</time>
      </trkpt>
      <trkpt lat="45.57201" lon="2.80548">
        <ele>1110.8</ele>
        <time>2011-06-10T19:55:01Z</time>
      </trkpt>
      <trkpt lat="45.57188" lon="2.8055">
        <ele>1112.1</ele>
        <time>2011-06-10T19:55:16Z</time>
      </trkpt>
      <trkpt lat="45.57174" lon="2.80544">
        <ele>1116.6</ele>
        <time>2011-06-10T19:55:33Z</time>
      </trkpt>
      <trkpt lat="45.57164" lon="2.80556">
        <ele>1114.3</ele>
        <time>2011-06-10T19:55:46Z</time>
      </trkpt>
      <trkpt lat="45.57149" lon="2.80596">
        <ele>1108.2</ele>
        <time>2011-06-10T19:56:21Z</time>
      </trkpt>
      <trkpt lat="45.57135" lon="2.80605">
        <ele>1109.4</ele>
        <time>2011-06-10T19:56:38Z</time>
      </trkpt>
      <trkpt lat="45.5712" lon="2.80601">
        <ele>1113.1</ele>
        <time>2011-06-10T19:56:56Z</time>
      </trkpt>
      <trkpt lat="45.57108" lon="2.80603">
        <ele>1116.4</ele>
        <time>2011-06-10T19:57:08Z</time>
      </trkpt>
      <trkpt lat="45.57086" lon="2.8065">
        <ele>1129.7</ele>
        <time>2011-06-10T19:57:53Z</time>
      </trkpt>
      <trkpt lat="45.57085" lon="2.80712">
        <ele>1124.1</ele>
        <time>2011-06-10T19:58:40Z</time>
      </trkpt>
      <trkpt lat="45.57089" lon="2.80734">
        <ele>1116.2</ele>
        <time>2011-06-10T19:58:59Z</time>
      </trkpt>
      <trkpt lat="45.57084" lon="2.80759">
        <ele>1110.7</ele>
        <time>2011-06-10T19:59:19Z</time>
      </trkpt>
      <trkpt lat="45.57075" lon="2.80777">
        <ele>1108.9</ele>
        <time>2011-06-10T19:59:36Z</time>
      </trkpt>
      <trkpt lat="45.57056" lon="2.80781">
        <ele>1115.3</ele>
        <time>2011-06-10T19:59:58Z</time>
      </trkpt>
      <trkpt lat="45.57017" lon="2.80804">
        <ele>1110.3</ele>
        <time>2011-06-10T20:00:44Z</time>
      </trkpt>
      <trkpt lat="45.56982" lon="2.80793">
        <ele>1117</ele>
        <time>2011-06-10T20:01:24Z</time>
      </trkpt>
      <trkpt lat="45.56932" lon="2.808">
        <ele>1119</ele>
        <time>2011-06-10T20:02:18Z</time>
      </trkpt>
      <trkpt lat="45.56865" lon="2.80792">
        <ele>1135.4</ele>
        <time>2011-06-10T20:03:32Z</time>
      </trkpt>
      <trkpt lat="45.56832" lon="2.8082">
        <ele>1130.6</ele>
        <time>2011-06-10T20:04:14Z</time>
      </trkpt>
      <trkpt lat="45.56808" lon="2.80821">
        <ele>1132.5</ele>
        <time>2011-06-10T20:04:39Z</time>
      </trkpt>
      <trkpt lat="45.56776" lon="2.80813">
        <ele>1138.6</ele>
        <time>2011-06-10T20:05:15Z</time>
      </trkpt>
      <trkpt lat="45.56718" lon="2.80818">
        <ele>1147.9</ele>
        <time>2011-06-10T20:06:19Z</time>
      </trkpt>
      <trkpt lat="45.56692" lon="2.80841">
        <ele>1139.9</ele>
        <time>2011-06-10T20:06:53Z</time>
      </trkpt>
      <trkpt lat="45.56599" lon="2.80839">
        <ele>1143.4</ele>
        <time>2011-06-10T20:08:33Z</time>
      </trkpt>
      <trkpt lat="45.56575" lon="2.80831">
        <ele>1148.5</ele>
        <time>2011-06-10T20:09:00Z</time>
      </trkpt>
      <trkpt lat="45.56558" lon="2.80831">
        <ele>1150</ele>
        <time>2011-06-10T20:09:19Z</time>
      </trkpt>
      <trkpt lat="45.56474" lon="2.80812">
        <ele>1144.7</ele>
        <time>2011-06-10T20:10:51Z</time>
      </trkpt>
      <trkpt lat="45.56462" lon="2.80761">
        <ele>1156.7</ele>
        <time>2011-06-10T20:11:33Z</time>
      </trkpt>
      <trkpt lat="45.56451" lon="2.80727">
        <ele>1162.9</ele>
        <time>2011-06-10T20:12:03Z</time>
      </trkpt>
      <trkpt lat="45.56428" lon="2.80705">
        <ele>1164.8</ele>
        <time>2011-06-10T20:12:32Z</time>
      </trkpt>
      <trkpt lat="45.56387" lon="2.80707">
        <ele>1158.9</ele>
        <time>2011-06-10T20:13:17Z</time>
      </trkpt>
      <trkpt lat="45.56378" lon="2.80703">
        <ele>1158.3</ele>
        <time>2011-06-10T20:13:27Z</time>
      </trkpt>
      <trkpt lat="45.56361" lon="2.80635">
        <ele>1171.7</ele>
        <time>2011-06-10T20:14:23Z</time>
      </trkpt>
      <trkpt lat="45.5635" lon="2.80622">
        <ele>1174.1</ele>
        <time>2011-06-10T20:14:40Z</time>
      </trkpt>
      <trkpt lat="45.56325" lon="2.8062">
        <ele>1176.9</ele>
        <time>2011-06-10T20:15:07Z</time>
      </trkpt>
      <trkpt lat="45.56303" lon="2.80625">
        <ele>1183.2</ele>
        <time>2011-06-10T20:15:31Z</time>
      </trkpt>
      <trkpt lat="45.56227" lon="2.80696">
        <ele>1188.3</ele>
        <time>2011-06-10T20:17:10Z</time>
      </trkpt>
      <trkpt lat="45.56189" lon="2.80711">
        <ele>1193.2</ele>
        <time>2011-06-10T20:17:52Z</time>
      </trkpt>
      <trkpt lat="45.56165" lon="2.80737">
        <ele>1186.9</ele>
        <time>2011-06-10T20:18:25Z</time>
      </trkpt>
      <trkpt lat="45.56117" lon="2.80748">
        <ele>1186.9</ele>
        <time>2011-06-10T20:19:18Z</time>
      </trkpt>
      <trkpt lat="45.56037" lon="2.80768">
        <ele>1193</ele>
        <time>2011-06-10T20:20:47Z</time>
      </trkpt>
      <trkpt lat="45.56019" lon="2.80785">
        <ele>1193.8</ele>
        <time>2011-06-10T20:21:10Z</time>
      </trkpt>
      <trkpt lat="45.56011" lon="2.80802">
        <ele>1191.7</ele>
        <time>2011-06-10T20:21:26Z</time>
      </trkpt>
      <trkpt lat="45.55987" lon="2.8084">
        <ele>1192.8</ele>
        <time>2011-06-10T20:22:04Z</time>
      </trkpt>
      <trkpt lat="45.55965" lon="2.80926">
        <ele>1185.8</ele>
        <time>2011-06-10T20:23:14Z</time>
      </trkpt>
      <trkpt lat="45.55939" lon="2.80992">
        <ele>1175.2</ele>
        <time>2011-06-10T20:24:12Z</time>
      </trkpt>
      <trkpt lat="45.5592" lon="2.81024">
        <ele>1168.4</ele>
        <time>2011-06-10T20:24:44Z</time>
      </trkpt>
      <trkpt lat="45.55887" lon="2.81045">
        <ele>1168.1</ele>
        <time>2011-06-10T20:25:23Z</time>
      </trkpt>
      <trkpt lat="45.55797" lon="2.81061">
        <ele>1174.8</ele>
        <time>2011-06-10T20:27:02Z</time>
      </trkpt>
      <trkpt lat="45.55769" lon="2.81047">
        <ele>1180.7</ele>
        <time>2011-06-10T20:27:34Z</time>
      </trkpt>
      <trkpt lat="45.55732" lon="2.81015">
        <ele>1191.8</ele>
        <time>2011-06-10T20:28:23Z</time>
      </trkpt>
      <trkpt lat="45.55695" lon="2.81017">
        <ele>1191.9</ele>
        <time>2011-06-10T20:29:03Z</time>
      </trkpt>
      <trkpt lat="45.55562" lon="2.80942">
        <ele>1217.8</ele>
        <time>2011-06-10T20:31:39Z</time>
      </trkpt>
      <trkpt lat="45.55546" lon="2.80933">
        <ele>1219.3</ele>
        <time>2011-06-10T20:31:58Z</time>
      </trkpt>
      <trkpt lat="45.55567" lon="2.80928">
        <ele>1222.8</ele>
        <time>2011-06-10T20:32:22Z</time>
      </trkpt>
      <trkpt lat="45.55621" lon="2.80928">
        <ele>1238.3</ele>
        <time>2011-06-10T20:33:22Z</time>
      </trkpt>
      <trkpt lat="45.55659" lon="2.80941">
        <ele>1236.1</ele>
        <time>2011-06-10T20:33:37Z</time>
      </trkpt>
      <trkpt lat="45.55701" lon="2.80934">
        <ele>1241.3</ele>
        <time>2011-06-10T20:33:54Z</time>
      </trkpt>
      <trkpt lat="45.55733" lon="2.8092">
        <ele>1246.2</ele>
        <time>2011-06-10T20:34:08Z</time>
      </trkpt>
      <trkpt lat="45.55761" lon="2.8092">
        <ele>1245.1</ele>
        <time>2011-06-10T20:34:19Z</time>
      </trkpt>
      <trkpt lat="45.55794" lon="2.80885">
        <ele>1252.8</ele>
        <time>2011-06-10T20:34:35Z</time>
      </trkpt>
      <trkpt lat="45.55815" lon="2.80859">
        <ele>1255.1</ele>
        <time>2011-06-10T20:34:46Z</time>
      </trkpt>
      <trkpt lat="45.55841" lon="2.80842">
        <ele>1252.3</ele>
        <time>2011-06-10T20:34:57Z</time>
      </trkpt>
      <trkpt lat="45.55865" lon="2.8083">
        <ele>1248.2</ele>
        <time>2011-06-10T20:35:07Z</time>
      </trkpt>
      <trkpt lat="45.55889" lon="2.80801">
        <ele>1245.7</ele>
        <time>2011-06-10T20:35:19Z</time>
      </trkpt>
      <trkpt lat="45.55907" lon="2.80754">
        <ele>1250.2</ele>
        <time>2011-06-10T20:35:33Z</time>
      </trkpt>
      <trkpt lat="45.55922" lon="2.80724">
        <ele>1254</ele>
        <time>2011-06-10T20:35:44Z</time>
      </trkpt>
      <trkpt lat="45.55959" lon="2.80724">
        <ele>1243</ele>
        <time>2011-06-10T20:35:59Z</time>
      </trkpt>
      <trkpt lat="45.55978" lon="2.80711">
        <ele>1242.6</ele>
        <time>2011-06-10T20:36:07Z</time>
      </trkpt>
      <trkpt lat="45.56023" lon="2.80672">
        <ele>1243.1</ele>
        <time>2011-06-10T20:36:28Z</time>
      </trkpt>
      <trkpt lat="45.56045" lon="2.80666">
        <ele>1238.2</ele>
        <time>2011-06-10T20:36:37Z</time>
      </trkpt>
      <trkpt lat="45.56075" lon="2.80677">
        <ele>1226.3</ele>
        <time>2011-06-10T20:36:50Z</time>
      </trkpt>
      <trkpt lat="45.5611" lon="2.80673">
        <ele>1222</ele>
        <time>2011-06-10T20:37:04Z</time>
      </trkpt>
      <trkpt lat="45.56154" lon="2.80661">
        <ele>1218.9</ele>
        <time>2011-06-10T20:37:22Z</time>
      </trkpt>
      <trkpt lat="45.56199" lon="2.80644">
        <ele>1217.1</ele>
        <time>2011-06-10T20:37:40Z</time>
      </trkpt>
      <trkpt lat="45.56242" lon="2.80595">
        <ele>1221.4</ele>
        <time>2011-06-10T20:38:02Z</time>
      </trkpt>
      <trkpt lat="45.56297" lon="2.80546">
        <ele>1223.8</ele>
        <time>2011-06-10T20:38:28Z</time>
      </trkpt>
      <trkpt lat="45.56355" lon="2.80514">
        <ele>1223.1</ele>
        <time>2011-06-10T20:38:53Z</time>
      </trkpt>
      <trkpt lat="45.56397" lon="2.80528">
        <ele>1222.7</ele>
        <time>2011-06-10T20:39:11Z</time>
      </trkpt>
      <trkpt lat="45.5642" lon="2.80579">
        <ele>1217.6</ele>
        <time>2011-06-10T20:39:28Z</time>
      </trkpt>
      <trkpt lat="45.56468" lon="2.80562">
        <ele>1236.2</ele>
        <time>2011-06-10T20:39:47Z</time>
      </trkpt>
      <trkpt lat="45.56492" lon="2.80568">
        <ele>1237.7</ele>
        <time>2011-06-10T20:39:57Z</time>
      </trkpt>
      <trkpt lat="45.56511" lon="2.80579">
        <ele>1236.8</ele>
        <time>2011-06-10T20:40:06Z</time>
      </trkpt>
      <trkpt lat="45.56535" lon="2.80627">
        <ele>1230.9</ele>
        <time>2011-06-10T20:40:22Z</time>
      </trkpt>
      <trkpt lat="45.56553" lon="2.80653">
        <ele>1229.3</ele>
        <time>2011-06-10T20:40:32Z</time>
      </trkpt>
      <trkpt lat="45.56588" lon="2.80647">
        <ele>1234.2</ele>
        <time>2011-06-10T20:40:46Z</time>
      </trkpt>
      <trkpt lat="45.56637" lon="2.8063">
        <ele>1233.6</ele>
        <time>2011-06-10T20:41:07Z</time>
      </trkpt>
      <trkpt lat="45.56728" lon="2.8055">
        <ele>1238.4</ele>
        <time>2011-06-10T20:41:49Z</time>
      </trkpt>
      <trkpt lat="45.56769" lon="2.8052">
        <ele>1237.5</ele>
        <time>2011-06-10T20:42:08Z</time>
      </trkpt>
      <trkpt lat="45.56814" lon="2.80475">
        <ele>1236.4</ele>
        <time>2011-06-10T20:42:30Z</time>
      </trkpt>
      <trkpt lat="45.56825" lon="2.80461">
        <ele>1236.4</ele>
        <time>2011-06-10T20:42:36Z</time>
      </trkpt>
      <trkpt lat="45.56851" lon="2.80416">
        <ele>1237.9</ele>
        <time>2011-06-10T20:42:52Z</time>
      </trkpt>
      <trkpt lat="45.56894" lon="2.80345">
        <ele>1240.4</ele>
        <time>2011-06-10T20:43:19Z</time>
      </trkpt>
      <trkpt lat="45.5692" lon="2.80276">
        <ele>1246.1</ele>
        <time>2011-06-10T20:43:40Z</time>
      </trkpt>
      <trkpt lat="45.56912" lon="2.80257">
        <ele>1247.8</ele>
        <time>2011-06-10T20:43:47Z</time>
      </trkpt>
      <trkpt lat="45.56896" lon="2.80255">
        <ele>1248.6</ele>
        <time>2011-06-10T20:43:53Z</time>
      </trkpt>
      <trkpt lat="45.56908" lon="2.80231">
        <ele>1248.9</ele>
        <time>2011-06-10T20:44:01Z</time>
      </trkpt>
      <trkpt lat="45.56916" lon="2.80219">
        <ele>1249.6</ele>
        <time>2011-06-10T20:44:05Z</time>
      </trkpt>
      <trkpt lat="45.56909" lon="2.80188">
        <ele>1250.5</ele>
        <time>2011-06-10T20:44:14Z</time>
      </trkpt>
      <trkpt lat="45.57021" lon="2.80106">
        <ele>1249.6</ele>
        <time>2011-06-10T20:45:05Z</time>
      </trkpt>
      <trkpt lat="45.57195" lon="2.79875">
        <ele>1244.4</ele>
        <time>2011-06-10T20:46:40Z</time>
      </trkpt>
      <trkpt lat="45.57279" lon="2.79743">
        <ele>1235.9</ele>
        <time>2011-06-10T20:47:30Z</time>
      </trkpt>
      <trkpt lat="45.57301" lon="2.79695">
        <ele>1231.3</ele>
        <time>2011-06-10T20:47:46Z</time>
      </trkpt>
      <trkpt lat="45.5735" lon="2.79641">
        <ele>1222.6</ele>
        <time>2011-06-10T20:48:11Z</time>
      </trkpt>
      <trkpt lat="45.57265" lon="2.79534">
        <ele>1217.8</ele>
        <time>2011-06-10T20:48:57Z</time>
      </trkpt>
      <trkpt lat="45.57116" lon="2.795">
        <ele>1216.2</ele>
        <time>2011-06-10T20:49:57Z</time>
      </trkpt>
      <trkpt lat="45.5699" lon="2.79529">
        <ele>1214</ele>
        <time>2011-06-10T20:50:48Z</time>
      </trkpt>
      <trkpt lat="45.56918" lon="2.79532">
        <ele>1211.7</ele>
        <time>2011-06-10T20:51:17Z</time>
      </trkpt>
      <trkpt lat="45.56836" lon="2.79591">
        <ele>1211</ele>
        <time>2011-06-10T20:51:54Z</time>
      </trkpt>
      <trkpt lat="45.56795" lon="2.79626">
        <ele>1222.2</ele>
        <time>2011-06-10T20:52:14Z</time>
      </trkpt>
      <trkpt lat="45.56766" lon="2.79617">
        <ele>1225</ele>
        <time>2011-06-10T20:52:26Z</time>
      </trkpt>
      <trkpt lat="45.56742" lon="2.79606">
        <ele>1226</ele>
        <time>2011-06-10T20:52:36Z</time>
      </trkpt>
      <trkpt lat="45.56687" lon="2.79583">
        <ele>1223.6</ele>
        <time>2011-06-10T20:52:59Z</time>
      </trkpt>
      <trkpt lat="45.56635" lon="2.79573">
        <ele>1220</ele>
        <time>2011-06-10T20:53:20Z</time>
      </trkpt>
      <trkpt lat="45.56577" lon="2.79568">
        <ele>1216.6</ele>
        <time>2011-06-10T20:53:43Z</time>
      </trkpt>
      <trkpt lat="45.56524" lon="2.79562">
        <ele>1213.5</ele>
        <time>2011-06-10T20:54:04Z</time>
      </trkpt>
      <trkpt lat="45.56417" lon="2.79582">
        <ele>1211.5</ele>
        <time>2011-06-10T20:54:47Z</time>
      </trkpt>
      <trkpt lat="45.56358" lon="2.79592">
        <ele>1208.1</ele>
        <time>2011-06-10T20:55:11Z</time>
      </trkpt>
      <trkpt lat="45.5632" lon="2.79595">
        <ele>1205.6</ele>
        <time>2011-06-10T20:55:26Z</time>
      </trkpt>
      <trkpt lat="45.56296" lon="2.79574">
        <ele>1200.5</ele>
        <time>2011-06-10T20:55:38Z</time>
      </trkpt>
      <trkpt lat="45.56278" lon="2.79547">
        <ele>1197</ele>
        <time>2011-06-10T20:55:48Z</time>
      </trkpt>
      <trkpt lat="45.56335" lon="2.79533">
        <ele>1196.7</ele>
        <time>2011-06-10T20:56:55Z</time>
      </trkpt>
      <trkpt lat="45.56431" lon="2.7945">
        <ele>1189</ele>
        <time>2011-06-10T20:59:05Z</time>
      </trkpt>
      <trkpt lat="45.56461" lon="2.79343">
        <ele>1176.5</ele>
        <time>2011-06-10T21:00:28Z</time>
      </trkpt>
      <trkpt lat="45.56529" lon="2.79291">
        <ele>1159.2</ele>
        <time>2011-06-10T21:02:30Z</time>
      </trkpt>
      <trkpt lat="45.56608" lon="2.79247">
        <ele>1140.3</ele>
        <time>2011-06-10T21:04:36Z</time>
      </trkpt>
      <trkpt lat="45.5665" lon="2.79217">
        <ele>1141.4</ele>
        <time>2011-06-10T21:05:12Z</time>
      </trkpt>
      <trkpt lat="45.56744" lon="2.79166">
        <ele>1134.6</ele>
        <time>2011-06-10T21:07:09Z</time>
      </trkpt>
      <trkpt lat="45.56793" lon="2.79159">
        <ele>1130.7</ele>
        <time>2011-06-10T21:08:05Z</time>
      </trkpt>
      <trkpt lat="45.569" lon="2.79096">
        <ele>1113.5</ele>
        <time>2011-06-10T21:10:21Z</time>
      </trkpt>
      <trkpt lat="45.56904" lon="2.79074">
        <ele>1110.1</ele>
        <time>2011-10-24T14:14:17Z</time>
      </trkpt>
      <trkpt lat="45.57" lon="2.78983">
        <ele>1090.1</ele>
        <time>2014-07-03T01:51:23Z</time>
      </trkpt>
      <trkpt lat="45.57155" lon="2.78943">
        <ele>1078.1</ele>
        <time>2018-02-18T13:49:23Z</time>
      </trkpt>
      <trkpt lat="45.57204" lon="2.789">
        <ele>1069.8</ele>
        <time>2019-06-24T08:58:28Z</time>
      </trkpt>
      <trkpt lat="45.57317" lon="2.78795">
        <ele>1053.4</ele>
        <time>2022-08-15T07:01:54Z</time>
      </trkpt>
      <trkpt lat="45.57381" lon="2.78784">
        <ele>1048.3</ele>
        <time>2011-06-10T21:21:19Z</time>
      </trkpt>
      <trkpt lat="45.57432" lon="2.78753">
        <ele>1050.3</ele>
        <time>2011-06-10T21:22:31Z</time>
      </trkpt>
      <trkpt lat="45.57463" lon="2.78712">
        <ele>1053.5</ele>
        <time>2011-06-10T21:23:20Z</time>
      </trkpt>
      <trkpt lat="45.57476" lon="2.78646">
        <ele>1053.2</ele>
        <time>2011-06-10T21:24:04Z</time>
      </trkpt>
      <trkpt lat="45.57499" lon="2.78559">
        <ele>1049</ele>
        <time>2011-06-10T21:25:12Z</time>
      </trkpt>
      <trkpt lat="45.57572" lon="2.78472">
        <ele>1052.2</ele>
        <time>2011-06-10T21:27:10Z</time>
      </trkpt>
      <trkpt lat="45.57604" lon="2.78437">
        <ele>1053.3</ele>
        <time>2011-06-10T21:27:57Z</time>
      </trkpt>
      <trkpt lat="45.57675" lon="2.7829">
        <ele>1054.7</ele>
        <time>2011-06-10T21:30:20Z</time>
      </trkpt>
      <trkpt lat="45.57714" lon="2.7821">
        <ele>1054.1</ele>
        <time>2011-06-10T21:31:39Z</time>
      </trkpt>
      <trkpt lat="45.57778" lon="2.78126">
        <ele>1059.5</ele>
        <time>2011-06-10T21:33:21Z</time>
      </trkpt>
      <trkpt lat="45.57791" lon="2.78102">
        <ele>1059.3</ele>
        <time>2011-06-10T21:33:30Z</time>
      </trkpt>
      <trkpt lat="45.57803" lon="2.7808">
        <ele>1060.8</ele>
        <time>2011-06-10T21:33:38Z</time>
      </trkpt>
      <trkpt lat="45.57817" lon="2.78066">
        <ele>1063.5</ele>
        <time>2011-06-10T21:33:45Z</time>
      </trkpt>
      <trkpt lat="45.57831" lon="2.78051">
        <ele>1065.6</ele>
        <time>2011-06-10T21:33:52Z</time>
      </trkpt>
      <trkpt lat="45.57866" lon="2.78027">
        <ele>1073.2</ele>
        <time>2011-06-10T21:34:07Z</time>
      </trkpt>
      <trkpt lat="45.57897" lon="2.78012">
        <ele>1078.7</ele>
        <time>2011-06-10T21:34:20Z</time>
      </trkpt>
      <trkpt lat="45.57929" lon="2.78006">
        <ele>1081.6</ele>
        <time>2011-06-10T21:34:33Z</time>
      </trkpt>
      <trkpt lat="45.57943" lon="2.78006">
        <ele>1081.9</ele>
        <time>2011-06-10T21:34:39Z</time>
      </trkpt>
      <trkpt lat="45.57955" lon="2.78014">
        <ele>1082.5</ele>
        <time>2011-06-10T21:34:44Z</time>
      </trkpt>
      <trkpt lat="45.57969" lon="2.78025">
        <ele>1083.3</ele>
        <time>2011-06-10T21:34:50Z</time>
      </trkpt>
      <trkpt lat="45.57988" lon="2.78038">
        <ele>1084.7</ele>
        <time>2011-06-10T21:34:59Z</time>
      </trkpt>
      <trkpt lat="45.5801" lon="2.78041">
        <ele>1086.2</ele>
        <time>2011-06-10T21:35:08Z</time>
      </trkpt>
      <trkpt lat="45.58049" lon="2.78041">
        <ele>1089.6</ele>
        <time>2011-06-10T21:35:23Z</time>
      </trkpt>
      <trkpt lat="45.58073" lon="2.78034">
        <ele>1091.2</ele>
        <time>2011-06-10T21:35:33Z</time>
      </trkpt>
      <trkpt lat="45.58096" lon="2.78036">
        <ele>1094.1</ele>
        <time>2011-06-10T21:35:42Z</time>
      </trkpt>
      <trkpt lat="45.58117" lon="2.78032">
        <ele>1095.9</ele>
        <time>2011-06-10T21:35:51Z</time>
      </trkpt>
      <trkpt lat="45.58138" lon="2.78011">
        <ele>1095.5</ele>
        <time>2011-06-10T21:36:01Z</time>
      </trkpt>
      <trkpt lat="45.58142" lon="2.78031">
        <ele>1098.2</ele>
        <time>2011-06-10T21:36:07Z</time>
      </trkpt>
      <trkpt lat="45.58119" lon="2.78078">
        <ele>1101.5</ele>
        <time>2011-06-10T21:36:23Z</time>
      </trkpt>
      <trkpt lat="45.58099" lon="2.78127">
        <ele>1104.4</ele>
        <time>2011-06-10T21:36:39Z</time>
      </trkpt>
      <trkpt lat="45.58095" lon="2.78145">
        <ele>1105.7</ele>
        <time>2011-06-10T21:36:44Z</time>
      </trkpt>
      <trkpt lat="45.58097" lon="2.7817">
        <ele>1108.2</ele>
        <time>2011-06-10T21:36:51Z</time>
      </trkpt>
      <trkpt lat="45.58106" lon="2.78212">
        <ele>1113.5</ele>
        <time>2011-06-10T21:37:03Z</time>
      </trkpt>
      <trkpt lat="45.58106" lon="2.78233">
        <ele>1115.7</ele>
        <time>2011-06-10T21:37:09Z</time>
      </trkpt>
      <trkpt lat="45.58088" lon="2.78361">
        <ele>1127.2</ele>
        <time>2011-06-10T21:37:46Z</time>
      </trkpt>
      <trkpt lat="45.58073" lon="2.78498">
        <ele>1138.5</ele>
        <time>2011-06-10T21:38:24Z</time>
      </trkpt>
      <trkpt lat="45.5806" lon="2.78572">
        <ele>1142.8</ele>
        <time>2011-06-10T21:38:46Z</time>
      </trkpt>
      <trkpt lat="45.58039" lon="2.78648">
        <ele>1146.2</ele>
        <time>2011-06-10T21:39:09Z</time>
      </trkpt>
      <trkpt lat="45.58014" lon="2.7872">
        <ele>1147.7</ele>
        <time>2011-06-10T21:39:31Z</time>
      </trkpt>
      <trkpt lat="45.57988" lon="2.78799">
        <ele>1150</ele>
        <time>2011-06-10T21:39:56Z</time>
      </trkpt>
      <trkpt lat="45.57959" lon="2.78908">
        <ele>1151.9</ele>
        <time>2011-06-10T21:40:29Z</time>
      </trkpt>
      <trkpt lat="45.57957" lon="2.78935">
        <ele>1152.4</ele>
        <time>2011-06-10T21:40:36Z</time>
      </trkpt>
      <trkpt lat="45.57957" lon="2.78964">
        <ele>1153.3</ele>
        <time>2011-06-10T21:40:44Z</time>
      </trkpt>
      <trkpt lat="45.57978" lon="2.79116">
        <ele>1155.6</ele>
        <time>2011-06-10T21:41:28Z</time>
      </trkpt>
      <trkpt lat="45.57978" lon="2.79144">
        <ele>1155.3</ele>
        <time>2011-06-10T21:41:36Z</time>
      </trkpt>
      <trkpt lat="45.57969" lon="2.7923">
        <ele>1155.7</ele>
        <time>2011-06-10T21:42:00Z</time>
      </trkpt>
      <trkpt lat="45.57972" lon="2.79251">
        <ele>1155.9</ele>
        <time>2011-06-10T21:42:06Z</time>
      </trkpt>
      <trkpt lat="45.58086" lon="2.79359">
        <ele>1155.9</ele>
        <time>2011-06-10T21:43:01Z</time>
      </trkpt>
      <trkpt lat="45.58037" lon="2.79373">
        <ele>1158.5</ele>
        <time>2011-06-10T21:43:21Z</time>
      </trkpt>
      <trkpt lat="45.58043" lon="2.79438">
        <ele>1159.5</ele>
        <time>2011-06-10T21:43:39Z</time>
      </trkpt>
      <trkpt lat="45.58052" lon="2.79486">
        <ele>1159.6</ele>
        <time>2011-06-10T21:43:53Z</time>
      </trkpt>
      <trkpt lat="45.5806" lon="2.79525">
        <ele>1159.5</ele>
        <time>2011-06-10T21:44:04Z</time>
      </trkpt>
      <trkpt lat="45.5806" lon="2.79566">
        <ele>1158.5</ele>
        <time>2011-06-10T21:44:16Z</time>
      </trkpt>
      <trkpt lat="45.58064" lon="2.79632">
        <ele>1154.2</ele>
        <time>2011-06-10T21:44:34Z</time>
      </trkpt>
      <trkpt lat="45.58064" lon="2.7973">
        <ele>1142.6</ele>
        <time>2011-06-10T21:45:02Z</time>
      </trkpt>
      <trkpt lat="45.58054" lon="2.79784">
        <ele>1134.2</ele>
        <time>2011-06-10T21:45:17Z</time>
      </trkpt>
      <trkpt lat="45.58059" lon="2.79805">
        <ele>1128.3</ele>
        <time>2011-06-10T21:45:24Z</time>
      </trkpt>
      <trkpt lat="45.58067" lon="2.7983">
        <ele>1120.8</ele>
        <time>2011-06-10T21:45:31Z</time>
      </trkpt>
      <trkpt lat="45.58046" lon="2.79864">
        <ele>1112.3</ele>
        <time>2011-06-10T21:45:44Z</time>
      </trkpt>
      <trkpt lat="45.58014" lon="2.79893">
        <ele>1104.3</ele>
        <time>2011-06-10T21:45:59Z</time>
      </trkpt>
      <trkpt lat="45.58002" lon="2.79915">
        <ele>1098.6</ele>
        <time>2011-06-10T21:46:07Z</time>
      </trkpt>
      <trkpt lat="45.57983" lon="2.79966">
        <ele>1088.5</ele>
        <time>2011-06-10T21:46:23Z</time>
      </trkpt>
      <trkpt lat="45.57958" lon="2.8001">
        <ele>1077.6</ele>
        <time>2011-06-10T21:46:39Z</time>
      </trkpt>
      <trkpt lat="45.57929" lon="2.80026">
        <ele>1075.6</ele>
        <time>2011-06-10T21:46:51Z</time>
      </trkpt>
      <trkpt lat="45.57901" lon="2.80075">
        <ele>1062.5</ele>
        <time>2011-06-10T21:47:09Z</time>
      </trkpt>
      <trkpt lat="45.57868" lon="2.80098">
        <ele>1059</ele>
        <time>2011-06-10T21:47:24Z</time>
      </trkpt>
      <trkpt lat="45.57846" lon="2.80141">
        <ele>1048.6</ele>
        <time>2011-06-10T21:47:39Z</time>
      </trkpt>
      <trkpt lat="45.57824" lon="2.80177">
        <ele>1042.6</ele>
        <time>2011-06-10T21:47:52Z</time>
      </trkpt>
      <trkpt lat="45.57802" lon="2.80211">
        <ele>1038.4</ele>
        <time>2011-06-10T21:48:05Z</time>
      </trkpt>
      <trkpt lat="45.57777" lon="2.80253">
        <ele>1034.1</ele>
        <time>2011-06-10T21:48:21Z</time>
      </trkpt>
      <trkpt lat="45.57743" lon="2.80302">
        <ele>1031.4</ele>
        <time>2011-06-10T21:48:40Z</time>
      </trkpt>
      <trkpt lat="45.57726" lon="2.80347">
        <ele>1028</ele>
        <time>2011-06-10T21:48:54Z</time>
      </trkpt>
      <trkpt lat="45.57717" lon="2.80357">
        <ele>1028</ele>
        <time>2011-06-10T21:48:59Z</time>
      </trkpt>
      <trkpt lat="45.57651" lon="2.80403">
        <ele>1031.8</ele>
        <time>2011-06-10T21:49:28Z</time>
      </trkpt>
      <trkpt lat="45.57594" lon="2.80441">
        <ele>1035.9</ele>
        <time>2011-06-10T21:49:53Z</time>
      </trkpt>
      <trkpt lat="45.57541" lon="2.80495">
        <ele>1038.2</ele>
        <time>2011-06-10T21:50:20Z</time>
      </trkpt>
      <trkpt lat="45.57448" lon="2.80604">
        <ele>1044.6</ele>
        <time>2011-06-10T21:51:08Z</time>
      </trkpt>
      <trkpt lat="45.57366" lon="2.80696">
        <ele>1047.5</ele>
        <time>2011-06-10T21:51:49Z</time>
      </trkpt>
      <trkpt lat="45.57307" lon="2.80778">
        <ele>1049.1</ele>
        <time>2011-06-10T21:52:22Z</time>
      </trkpt>
      <trkpt lat="45.57352" lon="2.80935">
        <ele>1053</ele>
        <time>2011-06-10T21:52:45Z</time>
      </trkpt>
    </trkseg>
  </trk>
  <trk>
    <name><![CDATA[TV 2022 Retour court]]></name>
    <extensions>
      <line xmlns="http://www.topografix.com/GPX/gpx_style/0/2">
        <color>ffa200</color>
        <width>4</width>
          <extensions>
            <sens>1</sens>
          </extensions>
      </line>
    </extensions>
    <trkseg>
      <trkpt lat="45.57417" lon="2.80938">
        <ele>1038.2</ele>
        <time>2013-09-01T08:36:09Z</time>
      </trkpt>
      <trkpt lat="45.57466" lon="2.80905">
        <ele>1041.2</ele>
        <time>2013-09-01T08:36:29Z</time>
      </trkpt>
      <trkpt lat="45.57498" lon="2.8102">
        <ele>1050.5</ele>
        <time>2013-09-01T08:37:03Z</time>
      </trkpt>
      <trkpt lat="45.57591" lon="2.80983">
        <ele>1050.7</ele>
        <time>2013-09-01T08:37:40Z</time>
      </trkpt>
      <trkpt lat="45.57669" lon="2.80946">
        <ele>1051.8</ele>
        <time>2013-09-01T08:38:12Z</time>
      </trkpt>
      <trkpt lat="45.57709" lon="2.80911">
        <ele>1047.3</ele>
        <time>2013-09-01T08:38:31Z</time>
      </trkpt>
      <trkpt lat="45.57751" lon="2.80865">
        <ele>1041.5</ele>
        <time>2013-09-01T08:38:51Z</time>
      </trkpt>
      <trkpt lat="45.57834" lon="2.80769">
        <ele>1030.2</ele>
        <time>2013-09-01T08:39:32Z</time>
      </trkpt>
      <trkpt lat="45.57902" lon="2.80716">
        <ele>1027.5</ele>
        <time>2013-09-01T08:40:03Z</time>
      </trkpt>
      <trkpt lat="45.58036" lon="2.80652">
        <ele>1029.6</ele>
        <time>2013-09-01T08:40:57Z</time>
      </trkpt>
      <trkpt lat="45.58109" lon="2.80599">
        <ele>1030</ele>
        <time>2013-09-01T08:41:29Z</time>
      </trkpt>
      <trkpt lat="45.58158" lon="2.80547">
        <ele>1027.6</ele>
        <time>2013-09-01T08:41:52Z</time>
      </trkpt>
      <trkpt lat="45.58308" lon="2.80373">
        <ele>1016.8</ele>
        <time>2013-09-01T08:43:07Z</time>
      </trkpt>
      <trkpt lat="45.58348" lon="2.80369">
        <ele>1024.8</ele>
        <time>2013-09-01T08:43:23Z</time>
      </trkpt>
      <trkpt lat="45.5843" lon="2.80324">
        <ele>1029.3</ele>
        <time>2013-09-01T08:43:57Z</time>
      </trkpt>
      <trkpt lat="45.58683" lon="2.80163">
        <ele>1013.8</ele>
        <time>2013-09-01T08:45:44Z</time>
      </trkpt>
      <trkpt lat="45.58754" lon="2.80172">
        <ele>1011.4</ele>
        <time>2013-09-01T08:46:11Z</time>
      </trkpt>
      <trkpt lat="45.58791" lon="2.80223">
        <ele>1013.1</ele>
        <time>2013-09-01T08:46:31Z</time>
      </trkpt>
      <trkpt lat="45.58826" lon="2.80303">
        <ele>1012.6</ele>
        <time>2013-09-01T08:46:57Z</time>
      </trkpt>
      <trkpt lat="45.58821" lon="2.80335">
        <ele>1014.3</ele>
        <time>2013-09-01T08:47:06Z</time>
      </trkpt>
      <trkpt lat="45.58822" lon="2.80462">
        <ele>1020.5</ele>
        <time>2013-09-01T08:47:40Z</time>
      </trkpt>
      <trkpt lat="45.5884" lon="2.80609">
        <ele>1038.4</ele>
        <time>2013-09-01T08:48:21Z</time>
      </trkpt>
      <trkpt lat="45.5886" lon="2.80844">
        <ele>1042.8</ele>
        <time>2013-09-01T08:49:25Z</time>
      </trkpt>
      <trkpt lat="45.5884" lon="2.80902">
        <ele>1040.5</ele>
        <time>2013-09-01T08:49:43Z</time>
      </trkpt>
      <trkpt lat="45.58839" lon="2.80914">
        <ele>1056.6</ele>
        <time>2013-09-01T08:49:49Z</time>
      </trkpt>
      <trkpt lat="45.58947" lon="2.81029">
        <ele>1035.6</ele>
        <time>2013-09-01T08:50:42Z</time>
      </trkpt>
      <trkpt lat="45.58982" lon="2.81115">
        <ele>1040.3</ele>
        <time>2013-09-01T08:51:09Z</time>
      </trkpt>
      <trkpt lat="45.58991" lon="2.81312">
        <ele>1050.2</ele>
        <time>2013-09-01T08:52:02Z</time>
      </trkpt>
      <trkpt lat="45.59059" lon="2.81471">
        <ele>1069.9</ele>
        <time>2013-09-01T08:52:53Z</time>
      </trkpt>
      <trkpt lat="45.59132" lon="2.81547">
        <ele>1076.3</ele>
        <time>2013-09-01T08:53:28Z</time>
      </trkpt>
      <trkpt lat="45.59212" lon="2.81703">
        <ele>1085.8</ele>
        <time>2013-09-01T08:54:21Z</time>
      </trkpt>
      <trkpt lat="45.59218" lon="2.81803">
        <ele>1098.3</ele>
        <time>2013-09-01T08:54:48Z</time>
      </trkpt>
      <trkpt lat="45.59236" lon="2.81886">
        <ele>1113.5</ele>
        <time>2013-09-01T08:55:12Z</time>
      </trkpt>
      <trkpt lat="45.59258" lon="2.81974">
        <ele>1130.5</ele>
        <time>2013-09-01T08:55:38Z</time>
      </trkpt>
      <trkpt lat="45.59276" lon="2.8204">
        <ele>1144.1</ele>
        <time>2013-09-01T08:55:58Z</time>
      </trkpt>
      <trkpt lat="45.59285" lon="2.82032">
        <ele>1144.6</ele>
        <time>2013-09-01T08:56:02Z</time>
      </trkpt>
      <trkpt lat="45.59288" lon="2.81962">
        <ele>1130.4</ele>
        <time>2013-09-01T08:56:21Z</time>
      </trkpt>
      <trkpt lat="45.59294" lon="2.81934">
        <ele>1124.1</ele>
        <time>2013-09-01T08:56:30Z</time>
      </trkpt>
      <trkpt lat="45.59313" lon="2.81907">
        <ele>1117.2</ele>
        <time>2013-09-01T08:56:40Z</time>
      </trkpt>
      <trkpt lat="45.59322" lon="2.81909">
        <ele>1117.5</ele>
        <time>2013-09-01T08:56:44Z</time>
      </trkpt>
      <trkpt lat="45.59327" lon="2.81923">
        <ele>1120.8</ele>
        <time>2013-09-01T08:56:48Z</time>
      </trkpt>
      <trkpt lat="45.59321" lon="2.81953">
        <ele>1130.2</ele>
        <time>2013-09-01T08:56:57Z</time>
      </trkpt>
      <trkpt lat="45.59315" lon="2.81986">
        <ele>1139.2</ele>
        <time>2013-09-01T08:57:07Z</time>
      </trkpt>
      <trkpt lat="45.59321" lon="2.82068">
        <ele>1160.6</ele>
        <time>2013-09-01T08:57:30Z</time>
      </trkpt>
      <trkpt lat="45.59349" lon="2.82141">
        <ele>1176.9</ele>
        <time>2013-09-01T08:57:53Z</time>
      </trkpt>
      <trkpt lat="45.59366" lon="2.82222">
        <ele>1189.3</ele>
        <time>2013-09-01T08:58:17Z</time>
      </trkpt>
      <trkpt lat="45.59399" lon="2.82347">
        <ele>1207</ele>
        <time>2013-09-01T08:58:54Z</time>
      </trkpt>
      <trkpt lat="45.59448" lon="2.82432">
        <ele>1214.5</ele>
        <time>2013-09-01T08:59:23Z</time>
      </trkpt>
      <trkpt lat="45.59449" lon="2.82396">
        <ele>1215.3</ele>
        <time>2013-09-01T08:59:33Z</time>
      </trkpt>
      <trkpt lat="45.59464" lon="2.82395">
        <ele>1217</ele>
        <time>2013-09-01T08:59:39Z</time>
      </trkpt>
      <trkpt lat="45.59561" lon="2.82585">
        <ele>1227.5</ele>
        <time>2013-09-01T09:00:43Z</time>
      </trkpt>
      <trkpt lat="45.59669" lon="2.82797">
        <ele>1235.7</ele>
        <time>2013-09-01T09:01:54Z</time>
      </trkpt>
      <trkpt lat="45.59755" lon="2.82911">
        <ele>1246.9</ele>
        <time>2013-09-01T09:02:39Z</time>
      </trkpt>
      <trkpt lat="45.59774" lon="2.82991">
        <ele>1245.8</ele>
        <time>2013-09-01T09:03:02Z</time>
      </trkpt>
      <trkpt lat="45.5975" lon="2.83044">
        <ele>1247.6</ele>
        <time>2013-09-01T09:03:19Z</time>
      </trkpt>
      <trkpt lat="45.59736" lon="2.83091">
        <ele>1249.9</ele>
        <time>2013-09-01T09:03:33Z</time>
      </trkpt>
      <trkpt lat="45.5976" lon="2.83108">
        <ele>1251.6</ele>
        <time>2013-09-01T09:03:43Z</time>
      </trkpt>
      <trkpt lat="45.59807" lon="2.83123">
        <ele>1250.9</ele>
        <time>2013-09-01T09:04:02Z</time>
      </trkpt>
      <trkpt lat="45.59826" lon="2.83142">
        <ele>1251.4</ele>
        <time>2013-09-01T09:04:11Z</time>
      </trkpt>
      <trkpt lat="45.59893" lon="2.83309">
        <ele>1262.8</ele>
        <time>2013-09-01T09:05:03Z</time>
      </trkpt>
      <trkpt lat="45.59936" lon="2.83421">
        <ele>1270.5</ele>
        <time>2013-09-01T09:05:38Z</time>
      </trkpt>
      <trkpt lat="45.5999" lon="2.83576">
        <ele>1279.4</ele>
        <time>2013-09-01T09:06:25Z</time>
      </trkpt>
      <trkpt lat="45.60023" lon="2.83715">
        <ele>1287.5</ele>
        <time>2013-09-01T09:07:05Z</time>
      </trkpt>
      <trkpt lat="45.60041" lon="2.83834">
        <ele>1294.6</ele>
        <time>2013-09-01T09:07:37Z</time>
      </trkpt>
      <trkpt lat="45.60061" lon="2.83927">
        <ele>1299.2</ele>
        <time>2013-09-01T09:08:04Z</time>
      </trkpt>
      <trkpt lat="45.60082" lon="2.84035">
        <ele>1307.5</ele>
        <time>2013-09-01T09:08:34Z</time>
      </trkpt>
      <trkpt lat="45.60084" lon="2.84115">
        <ele>1314.1</ele>
        <time>2013-09-01T09:08:56Z</time>
      </trkpt>
      <trkpt lat="45.60076" lon="2.84187">
        <ele>1320.1</ele>
        <time>2013-09-01T09:09:16Z</time>
      </trkpt>
      <trkpt lat="45.60067" lon="2.84225">
        <ele>1323.3</ele>
        <time>2013-09-01T09:09:27Z</time>
      </trkpt>
      <trkpt lat="45.60051" lon="2.8426">
        <ele>1327.7</ele>
        <time>2013-09-01T09:09:38Z</time>
      </trkpt>
      <trkpt lat="45.60051" lon="2.84313">
        <ele>1331.4</ele>
        <time>2013-09-01T09:09:53Z</time>
      </trkpt>
      <trkpt lat="45.60046" lon="2.84352">
        <ele>1334.5</ele>
        <time>2013-09-01T09:10:03Z</time>
      </trkpt>
      <trkpt lat="45.60033" lon="2.84395">
        <ele>1338.6</ele>
        <time>2013-09-01T09:10:16Z</time>
      </trkpt>
      <trkpt lat="45.60006" lon="2.84473">
        <ele>1345.3</ele>
        <time>2013-09-01T09:10:40Z</time>
      </trkpt>
      <trkpt lat="45.59964" lon="2.84509">
        <ele>1350.8</ele>
        <time>2013-09-01T09:10:59Z</time>
      </trkpt>
      <trkpt lat="45.59999" lon="2.8466">
        <ele>1355.6</ele>
        <time>2013-09-01T09:11:42Z</time>
      </trkpt>
      <trkpt lat="45.60266" lon="2.84993">
        <ele>1377.7</ele>
        <time>2013-09-01T09:13:59Z</time>
      </trkpt>
      <trkpt lat="45.60425" lon="2.85117">
        <ele>1377.8</ele>
        <time>2013-09-01T09:15:09Z</time>
      </trkpt>
      <trkpt lat="45.60438" lon="2.85134">
        <ele>1378.2</ele>
        <time>2013-09-01T09:15:16Z</time>
      </trkpt>
      <trkpt lat="45.60452" lon="2.85182">
        <ele>1380.3</ele>
        <time>2013-09-01T09:15:30Z</time>
      </trkpt>
      <trkpt lat="45.60485" lon="2.85253">
        <ele>1384.1</ele>
        <time>2013-09-01T09:15:53Z</time>
      </trkpt>
      <trkpt lat="45.6053" lon="2.85304">
        <ele>1387.3</ele>
        <time>2013-09-01T09:16:15Z</time>
      </trkpt>
      <trkpt lat="45.60573" lon="2.85388">
        <ele>1393.4</ele>
        <time>2013-09-01T09:16:43Z</time>
      </trkpt>
      <trkpt lat="45.60584" lon="2.85396">
        <ele>1394.3</ele>
        <time>2013-09-01T09:16:48Z</time>
      </trkpt>
      <trkpt lat="45.60691" lon="2.85419">
        <ele>1399</ele>
        <time>2013-09-01T09:17:30Z</time>
      </trkpt>
      <trkpt lat="45.60769" lon="2.85421">
        <ele>1401.3</ele>
        <time>2013-09-01T09:18:00Z</time>
      </trkpt>
      <trkpt lat="45.6088" lon="2.85442">
        <ele>1403.7</ele>
        <time>2013-09-01T09:18:44Z</time>
      </trkpt>
      <trkpt lat="45.60934" lon="2.85481">
        <ele>1406.8</ele>
        <time>2013-09-01T09:19:07Z</time>
      </trkpt>
      <trkpt lat="45.61037" lon="2.85574">
        <ele>1414.7</ele>
        <time>2013-09-01T09:19:54Z</time>
      </trkpt>
      <trkpt lat="45.61118" lon="2.85664">
        <ele>1410</ele>
        <time>2013-09-01T09:20:34Z</time>
      </trkpt>
      <trkpt lat="45.61159" lon="2.85754">
        <ele>1402</ele>
        <time>2013-09-01T09:21:03Z</time>
      </trkpt>
      <trkpt lat="45.61263" lon="2.85983">
        <ele>1389.5</ele>
        <time>2013-09-01T09:22:17Z</time>
      </trkpt>
      <trkpt lat="45.61294" lon="2.86063">
        <ele>1388.3</ele>
        <time>2013-09-01T09:22:42Z</time>
      </trkpt>
      <trkpt lat="45.61283" lon="2.86139">
        <ele>1383.1</ele>
        <time>2013-09-01T09:23:03Z</time>
      </trkpt>
      <trkpt lat="45.61263" lon="2.8612">
        <ele>1378.7</ele>
        <time>2013-09-01T09:23:12Z</time>
      </trkpt>
      <trkpt lat="45.61234" lon="2.86081">
        <ele>1374.9</ele>
        <time>2013-09-01T09:23:27Z</time>
      </trkpt>
      <trkpt lat="45.61206" lon="2.86053">
        <ele>1371.2</ele>
        <time>2013-09-01T09:23:41Z</time>
      </trkpt>
      <trkpt lat="45.612" lon="2.86068">
        <ele>1369.3</ele>
        <time>2013-09-01T09:23:45Z</time>
      </trkpt>
      <trkpt lat="45.61215" lon="2.8612">
        <ele>1367.9</ele>
        <time>2013-09-01T09:24:01Z</time>
      </trkpt>
      <trkpt lat="45.61215" lon="2.86172">
        <ele>1362.9</ele>
        <time>2013-09-01T09:24:15Z</time>
      </trkpt>
      <trkpt lat="45.61225" lon="2.86232">
        <ele>1363.7</ele>
        <time>2013-09-01T09:24:31Z</time>
      </trkpt>
      <trkpt lat="45.61179" lon="2.86372">
        <ele>1352.8</ele>
        <time>2013-09-01T09:25:14Z</time>
      </trkpt>
      <trkpt lat="45.61155" lon="2.86448">
        <ele>1346.2</ele>
        <time>2013-09-01T09:25:36Z</time>
      </trkpt>
      <trkpt lat="45.61141" lon="2.86526">
        <ele>1343.1</ele>
        <time>2013-09-01T09:25:58Z</time>
      </trkpt>
      <trkpt lat="45.61134" lon="2.86523">
        <ele>1341.4</ele>
        <time>2013-09-01T09:26:01Z</time>
      </trkpt>
      <trkpt lat="45.61109" lon="2.86422">
        <ele>1331.9</ele>
        <time>2013-09-01T09:26:30Z</time>
      </trkpt>
      <trkpt lat="45.61098" lon="2.86432">
        <ele>1330</ele>
        <time>2013-09-01T09:26:35Z</time>
      </trkpt>
      <trkpt lat="45.61048" lon="2.865">
        <ele>1321.6</ele>
        <time>2013-09-01T09:27:02Z</time>
      </trkpt>
      <trkpt lat="45.61039" lon="2.86547">
        <ele>1318.5</ele>
        <time>2013-09-01T09:27:15Z</time>
      </trkpt>
      <trkpt lat="45.60999" lon="2.8657">
        <ele>1305.5</ele>
        <time>2013-09-01T09:27:32Z</time>
      </trkpt>
      <trkpt lat="45.60988" lon="2.86593">
        <ele>1304.1</ele>
        <time>2013-09-01T09:27:40Z</time>
      </trkpt>
      <trkpt lat="45.60985" lon="2.86713">
        <ele>1295.6</ele>
        <time>2013-09-01T09:28:12Z</time>
      </trkpt>
      <trkpt lat="45.61015" lon="2.86895">
        <ele>1286.7</ele>
        <time>2013-09-01T09:29:03Z</time>
      </trkpt>
      <trkpt lat="45.60963" lon="2.86988">
        <ele>1274.6</ele>
        <time>2013-09-01T09:29:36Z</time>
      </trkpt>
      <trkpt lat="45.60931" lon="2.87139">
        <ele>1266.7</ele>
        <time>2013-09-01T09:30:18Z</time>
      </trkpt>
      <trkpt lat="45.60933" lon="2.87175">
        <ele>1264</ele>
        <time>2013-09-01T09:30:28Z</time>
      </trkpt>
      <trkpt lat="45.60952" lon="2.87178">
        <ele>1260</ele>
        <time>2013-09-01T09:30:36Z</time>
      </trkpt>
      <trkpt lat="45.60972" lon="2.87149">
        <ele>1260.7</ele>
        <time>2013-09-01T09:30:47Z</time>
      </trkpt>
      <trkpt lat="45.60985" lon="2.87105">
        <ele>1263.6</ele>
        <time>2013-09-01T09:31:00Z</time>
      </trkpt>
      <trkpt lat="45.61006" lon="2.87092">
        <ele>1263.9</ele>
        <time>2013-09-01T09:31:09Z</time>
      </trkpt>
      <trkpt lat="45.61125" lon="2.87308">
        <ele>1243.1</ele>
        <time>2013-09-01T09:32:23Z</time>
      </trkpt>
      <trkpt lat="45.61188" lon="2.87547">
        <ele>1226.4</ele>
        <time>2013-09-01T09:33:33Z</time>
      </trkpt>
      <trkpt lat="45.61278" lon="2.87674">
        <ele>1216.4</ele>
        <time>2013-09-01T09:34:22Z</time>
      </trkpt>
      <trkpt lat="45.61242" lon="2.87687">
        <ele>1211.7</ele>
        <time>2013-09-01T09:34:36Z</time>
      </trkpt>
      <trkpt lat="45.61166" lon="2.87664">
        <ele>1209.4</ele>
        <time>2013-09-01T09:35:06Z</time>
      </trkpt>
      <trkpt lat="45.61107" lon="2.87669">
        <ele>1211.6</ele>
        <time>2013-09-01T09:35:29Z</time>
      </trkpt>
      <trkpt lat="45.61082" lon="2.87768">
        <ele>1217.1</ele>
        <time>2013-09-01T09:35:58Z</time>
      </trkpt>
      <trkpt lat="45.61071" lon="2.8768">
        <ele>1221.1</ele>
        <time>2013-09-01T09:36:22Z</time>
      </trkpt>
      <trkpt lat="45.61064" lon="2.87677">
        <ele>1223.1</ele>
        <time>2013-09-01T09:36:25Z</time>
      </trkpt>
      <trkpt lat="45.61051" lon="2.88075">
        <ele>1221.9</ele>
        <time>2013-09-01T09:38:12Z</time>
      </trkpt>
      <trkpt lat="45.61057" lon="2.88299">
        <ele>1225.5</ele>
        <time>2013-09-01T09:39:13Z</time>
      </trkpt>
      <trkpt lat="45.6112" lon="2.88718">
        <ele>1235.5</ele>
        <time>2013-09-01T09:41:09Z</time>
      </trkpt>
      <trkpt lat="45.61097" lon="2.89386">
        <ele>1238.6</ele>
        <time>2013-09-01T09:44:10Z</time>
      </trkpt>
      <trkpt lat="45.61096" lon="2.89501">
        <ele>1236.9</ele>
        <time>2013-09-01T09:44:41Z</time>
      </trkpt>
      <trkpt lat="45.61074" lon="2.89501">
        <ele>1238.1</ele>
        <time>2013-09-01T09:44:49Z</time>
      </trkpt>
      <trkpt lat="45.60954" lon="2.89462">
        <ele>1239.2</ele>
        <time>2013-09-01T09:45:37Z</time>
      </trkpt>
      <trkpt lat="45.60898" lon="2.89437">
        <ele>1236.6</ele>
        <time>2013-09-01T09:46:00Z</time>
      </trkpt>
      <trkpt lat="45.60853" lon="2.89413">
        <ele>1232.8</ele>
        <time>2013-09-01T09:46:18Z</time>
      </trkpt>
      <trkpt lat="45.60822" lon="2.89421">
        <ele>1229.2</ele>
        <time>2013-09-01T09:46:30Z</time>
      </trkpt>
      <trkpt lat="45.60787" lon="2.89463">
        <ele>1225.5</ele>
        <time>2013-09-01T09:46:48Z</time>
      </trkpt>
      <trkpt lat="45.60751" lon="2.89561">
        <ele>1218.4</ele>
        <time>2013-09-01T09:47:18Z</time>
      </trkpt>
      <trkpt lat="45.60706" lon="2.89658">
        <ele>1205.7</ele>
        <time>2013-09-01T09:47:50Z</time>
      </trkpt>
      <trkpt lat="45.60643" lon="2.8984">
        <ele>1193</ele>
        <time>2013-09-01T09:48:45Z</time>
      </trkpt>
      <trkpt lat="45.60518" lon="2.90093">
        <ele>1168</ele>
        <time>2013-09-01T09:50:10Z</time>
      </trkpt>
      <trkpt lat="45.60459" lon="2.90262">
        <ele>1155.9</ele>
        <time>2013-09-01T09:51:01Z</time>
      </trkpt>
      <trkpt lat="45.60343" lon="2.90438">
        <ele>1133.4</ele>
        <time>2013-09-01T09:52:07Z</time>
      </trkpt>
      <trkpt lat="45.60343" lon="2.90496">
        <ele>1133.4</ele>
        <time>2013-09-01T09:52:22Z</time>
      </trkpt>
      <trkpt lat="45.60136" lon="2.90626">
        <ele>1109.7</ele>
        <time>2013-09-01T09:53:50Z</time>
      </trkpt>
      <trkpt lat="45.60033" lon="2.90775">
        <ele>1095.8</ele>
        <time>2013-09-01T09:54:47Z</time>
      </trkpt>
      <trkpt lat="45.59943" lon="2.90853">
        <ele>1086</ele>
        <time>2013-09-01T09:55:28Z</time>
      </trkpt>
      <trkpt lat="45.59853" lon="2.90964">
        <ele>1078.8</ele>
        <time>2013-09-01T09:56:14Z</time>
      </trkpt>
      <trkpt lat="45.59736" lon="2.91048">
        <ele>1085.2</ele>
        <time>2013-09-01T09:57:04Z</time>
      </trkpt>
      <trkpt lat="45.5966" lon="2.91185">
        <ele>1094.2</ele>
        <time>2013-09-01T09:57:52Z</time>
      </trkpt>
      <trkpt lat="45.5939" lon="2.91457">
        <ele>1085.2</ele>
        <time>2013-09-01T09:59:59Z</time>
      </trkpt>
      <trkpt lat="45.59363" lon="2.91538">
        <ele>1082.8</ele>
        <time>2013-09-01T10:00:24Z</time>
      </trkpt>
      <trkpt lat="45.59257" lon="2.91714">
        <ele>1065.8</ele>
        <time>2013-09-01T10:00:55Z</time>
      </trkpt>
      <trkpt lat="45.5925" lon="2.91724">
        <ele>1071.6</ele>
        <time>2013-09-01T10:01:07Z</time>
      </trkpt>
      <trkpt lat="45.59262" lon="2.91704">
        <ele>1066.6</ele>
        <time>2013-09-01T10:01:16Z</time>
      </trkpt>
      <trkpt lat="45.59278" lon="2.91677">
        <ele>1069.5</ele>
        <time>2013-09-01T10:01:26Z</time>
      </trkpt>
      <trkpt lat="45.59248" lon="2.91745">
        <ele>1065.8</ele>
        <time>2013-09-01T10:01:51Z</time>
      </trkpt>
      <trkpt lat="45.59242" lon="2.91794">
        <ele>1066.7</ele>
        <time>2013-09-01T10:02:09Z</time>
      </trkpt>
      <trkpt lat="45.59241" lon="2.9188">
        <ele>1055.5</ele>
        <time>2013-09-01T10:02:15Z</time>
      </trkpt>
      <trkpt lat="45.5921" lon="2.9188">
        <ele>1063.8</ele>
        <time>2013-09-01T10:02:17Z</time>
      </trkpt>
      <trkpt lat="45.59175" lon="2.91886">
        <ele>1054.7</ele>
        <time>2013-09-01T10:02:32Z</time>
      </trkpt>
      <trkpt lat="45.59147" lon="2.91889">
        <ele>1048.5</ele>
        <time>2013-09-01T10:02:36Z</time>
      </trkpt>
      <trkpt lat="45.59128" lon="2.91802">
        <ele>1050.6</ele>
        <time>2013-09-01T10:02:53Z</time>
      </trkpt>
      <trkpt lat="45.59102" lon="2.91748">
        <ele>1047.5</ele>
        <time>2013-09-01T10:03:05Z</time>
      </trkpt>
      <trkpt lat="45.59092" lon="2.91735">
        <ele>1043.7</ele>
        <time>2013-09-01T10:03:16Z</time>
      </trkpt>
      <trkpt lat="45.59067" lon="2.91757">
        <ele>1036.5</ele>
        <time>2013-09-01T10:03:20Z</time>
      </trkpt>
      <trkpt lat="45.59055" lon="2.91765">
        <ele>1038.1</ele>
        <time>2013-09-01T10:03:32Z</time>
      </trkpt>
      <trkpt lat="45.59042" lon="2.9178">
        <ele>1037.5</ele>
        <time>2013-09-01T10:03:39Z</time>
      </trkpt>
      <trkpt lat="45.59" lon="2.91783">
        <ele>1036.7</ele>
        <time>2013-09-01T10:03:55Z</time>
      </trkpt>
      <trkpt lat="45.58951" lon="2.91782">
        <ele>1038.7</ele>
        <time>2013-09-01T10:04:14Z</time>
      </trkpt>
      <trkpt lat="45.5893" lon="2.91771">
        <ele>1040.3</ele>
        <time>2013-09-01T10:04:22Z</time>
      </trkpt>
      <trkpt lat="45.58916" lon="2.91785">
        <ele>1041.4</ele>
        <time>2013-09-01T10:04:29Z</time>
      </trkpt>
      <trkpt lat="45.58904" lon="2.91805">
        <ele>1042.1</ele>
        <time>2013-09-01T10:04:36Z</time>
      </trkpt>
      <trkpt lat="45.58865" lon="2.91791">
        <ele>1045.3</ele>
        <time>2013-09-01T10:04:52Z</time>
      </trkpt>
      <trkpt lat="45.58799" lon="2.9177">
        <ele>1049.2</ele>
        <time>2013-09-01T10:05:18Z</time>
      </trkpt>
      <trkpt lat="45.58766" lon="2.91776">
        <ele>1050.3</ele>
        <time>2013-09-01T10:05:31Z</time>
      </trkpt>
      <trkpt lat="45.58537" lon="2.91892">
        <ele>1052</ele>
        <time>2013-09-01T10:07:05Z</time>
      </trkpt>
      <trkpt lat="45.58492" lon="2.91937">
        <ele>1049.7</ele>
        <time>2013-09-01T10:07:26Z</time>
      </trkpt>
      <trkpt lat="45.58317" lon="2.92061">
        <ele>1065.3</ele>
        <time>2013-09-01T10:08:42Z</time>
      </trkpt>
      <trkpt lat="45.58317" lon="2.92145">
        <ele>1064.9</ele>
        <time>2013-09-01T10:09:05Z</time>
      </trkpt>
      <trkpt lat="45.58276" lon="2.92301">
        <ele>1066.1</ele>
        <time>2013-09-01T10:09:50Z</time>
      </trkpt>
      <trkpt lat="45.58267" lon="2.92554">
        <ele>1038.7</ele>
        <time>2013-09-01T10:10:59Z</time>
      </trkpt>
      <trkpt lat="45.58263" lon="2.92674">
        <ele>1038.7</ele>
        <time>2013-09-01T10:11:32Z</time>
      </trkpt>
      <trkpt lat="45.58194" lon="2.92847">
        <ele>1038.1</ele>
        <time>2013-09-01T10:12:35Z</time>
      </trkpt>
      <trkpt lat="45.58195" lon="2.92889">
        <ele>1042.6</ele>
        <time>2022-08-30T20:47:44Z</time>
      </trkpt>
      <trkpt lat="45.58175" lon="2.92977">
        <ele>1048</ele>
        <time>2022-08-30T20:47:52Z</time>
      </trkpt>
      <trkpt lat="45.58212" lon="2.93149">
        <ele>1031.4</ele>
        <time>2022-08-30T20:48:06Z</time>
      </trkpt>
      <trkpt lat="45.58302" lon="2.93284">
        <ele>1011.4</ele>
        <time>2022-08-30T20:48:21Z</time>
      </trkpt>
      <trkpt lat="45.58434" lon="2.93346">
        <ele>995.8</ele>
        <time>2022-08-30T20:48:36Z</time>
      </trkpt>
      <trkpt lat="45.58432" lon="2.93451">
        <ele>989.6</ele>
        <time>2022-08-30T20:48:44Z</time>
      </trkpt>
      <trkpt lat="45.58392" lon="2.93492">
        <ele>980.6</ele>
        <time>2022-08-30T20:48:53Z</time>
      </trkpt>
      <trkpt lat="45.58356" lon="2.93495">
        <ele>975.9</ele>
        <time>2022-08-30T20:48:59Z</time>
      </trkpt>
      <trkpt lat="45.58372" lon="2.93524">
        <ele>974.1</ele>
        <time>2022-08-30T20:49:22Z</time>
      </trkpt>
      <trkpt lat="45.58509" lon="2.93571">
        <ele>970.7</ele>
        <time>2013-09-01T10:16:37Z</time>
      </trkpt>
      <trkpt lat="45.58493" lon="2.93598">
        <ele>963.9</ele>
        <time>2013-09-01T10:17:32Z</time>
      </trkpt>
      <trkpt lat="45.58335" lon="2.93627">
        <ele>961.3</ele>
        <time>2013-09-01T10:18:07Z</time>
      </trkpt>
      <trkpt lat="45.58245" lon="2.93658">
        <ele>951.6</ele>
        <time>2013-09-01T10:18:40Z</time>
      </trkpt>
      <trkpt lat="45.581" lon="2.93774">
        <ele>931.3</ele>
        <time>2013-09-01T10:19:31Z</time>
      </trkpt>
      <trkpt lat="45.58063" lon="2.93789">
        <ele>927</ele>
        <time>2013-09-01T10:19:44Z</time>
      </trkpt>
      <trkpt lat="45.58038" lon="2.93789">
        <ele>925</ele>
        <time>2013-09-01T10:19:57Z</time>
      </trkpt>
      <trkpt lat="45.5794" lon="2.93874">
        <ele>910.4</ele>
        <time>2013-09-01T10:20:12Z</time>
      </trkpt>
      <trkpt lat="45.57874" lon="2.94035">
        <ele>908</ele>
        <time>2013-09-01T10:20:23Z</time>
      </trkpt>
      <trkpt lat="45.57785" lon="2.94147">
        <ele>894.7</ele>
        <time>2013-09-01T10:20:32Z</time>
      </trkpt>
      <trkpt lat="45.57734" lon="2.94227">
        <ele>883.3</ele>
        <time>2013-09-01T10:20:46Z</time>
      </trkpt>
      <trkpt lat="45.57799" lon="2.94219">
        <ele>887.7</ele>
        <time>2013-09-01T10:21:11Z</time>
      </trkpt>
      <trkpt lat="45.57968" lon="2.9411">
        <ele>863.4</ele>
        <time>2013-09-01T10:22:23Z</time>
      </trkpt>
      <trkpt lat="45.58078" lon="2.94115">
        <ele>858.5</ele>
        <time>2013-09-01T10:23:06Z</time>
      </trkpt>
      <trkpt lat="45.58216" lon="2.94172">
        <ele>859.9</ele>
        <time>2013-09-01T10:24:01Z</time>
      </trkpt>
      <trkpt lat="45.58248" lon="2.94172">
        <ele>863.4</ele>
        <time>2013-09-01T10:24:14Z</time>
      </trkpt>
      <trkpt lat="45.58281" lon="2.94191">
        <ele>866.4</ele>
        <time>2013-09-01T10:24:27Z</time>
      </trkpt>
      <trkpt lat="45.58313" lon="2.94282">
        <ele>866.3</ele>
        <time>2013-09-01T10:24:55Z</time>
      </trkpt>
      <trkpt lat="45.58374" lon="2.94373">
        <ele>863.8</ele>
        <time>2013-09-01T10:25:29Z</time>
      </trkpt>
      <trkpt lat="45.58449" lon="2.94396">
        <ele>872.9</ele>
        <time>2013-09-01T10:25:59Z</time>
      </trkpt>
      <trkpt lat="45.58502" lon="2.94401">
        <ele>879.7</ele>
        <time>2013-09-01T10:26:20Z</time>
      </trkpt>
      <trkpt lat="45.58512" lon="2.94417">
        <ele>881.3</ele>
        <time>2013-09-01T10:26:25Z</time>
      </trkpt>
      <trkpt lat="45.58537" lon="2.94417">
        <ele>885.6</ele>
        <time>2013-09-01T10:26:35Z</time>
      </trkpt>
      <trkpt lat="45.58579" lon="2.94476">
        <ele>893.4</ele>
        <time>2013-09-01T10:26:58Z</time>
      </trkpt>
      <trkpt lat="45.58581" lon="2.94554">
        <ele>892.9</ele>
        <time>2013-09-01T10:27:19Z</time>
      </trkpt>
      <trkpt lat="45.58599" lon="2.94624">
        <ele>890.9</ele>
        <time>2013-09-01T10:27:39Z</time>
      </trkpt>
      <trkpt lat="45.58635" lon="2.94669">
        <ele>892.1</ele>
        <time>2013-09-01T10:27:58Z</time>
      </trkpt>
      <trkpt lat="45.58663" lon="2.94723">
        <ele>891.2</ele>
        <time>2013-09-01T10:28:16Z</time>
      </trkpt>
      <trkpt lat="45.58671" lon="2.94759">
        <ele>889.5</ele>
        <time>2013-09-01T10:28:26Z</time>
      </trkpt>
      <trkpt lat="45.58673" lon="2.94829">
        <ele>884.4</ele>
        <time>2013-09-01T10:28:45Z</time>
      </trkpt>
      <trkpt lat="45.58673" lon="2.94872">
        <ele>880.6</ele>
        <time>2013-09-01T10:28:57Z</time>
      </trkpt>
      <trkpt lat="45.58679" lon="2.9489">
        <ele>880.6</ele>
        <time>2013-09-01T10:29:02Z</time>
      </trkpt>
      <trkpt lat="45.58691" lon="2.94922">
        <ele>882</ele>
        <time>2013-09-01T10:29:12Z</time>
      </trkpt>
      <trkpt lat="45.58698" lon="2.94946">
        <ele>883.9</ele>
        <time>2013-09-01T10:29:19Z</time>
      </trkpt>
      <trkpt lat="45.58691" lon="2.95019">
        <ele>884.2</ele>
        <time>2013-09-01T10:29:39Z</time>
      </trkpt>
      <trkpt lat="45.58711" lon="2.95131">
        <ele>884.3</ele>
        <time>2013-09-01T10:30:11Z</time>
      </trkpt>
      <trkpt lat="45.58714" lon="2.95168">
        <ele>881.2</ele>
        <time>2013-09-01T10:30:21Z</time>
      </trkpt>
      <trkpt lat="45.5871" lon="2.95213">
        <ele>874.6</ele>
        <time>2013-09-01T10:30:33Z</time>
      </trkpt>
      <trkpt lat="45.58772" lon="2.95354">
        <ele>867.1</ele>
        <time>2013-09-01T10:31:18Z</time>
      </trkpt>
      <trkpt lat="45.58793" lon="2.95384">
        <ele>865.7</ele>
        <time>2013-09-01T10:31:30Z</time>
      </trkpt>
      <trkpt lat="45.58811" lon="2.95439">
        <ele>858.1</ele>
        <time>2013-09-01T10:31:47Z</time>
      </trkpt>
      <trkpt lat="45.58842" lon="2.95486">
        <ele>855.7</ele>
        <time>2013-09-01T10:32:04Z</time>
      </trkpt>
      <trkpt lat="45.58853" lon="2.95512">
        <ele>854.8</ele>
        <time>2013-09-01T10:32:12Z</time>
      </trkpt>
      <trkpt lat="45.58842" lon="2.95564">
        <ele>846.8</ele>
        <time>2013-09-01T10:32:27Z</time>
      </trkpt>
      <trkpt lat="45.58836" lon="2.95641">
        <ele>837.5</ele>
        <time>2013-09-01T10:32:48Z</time>
      </trkpt>
      <trkpt lat="45.58856" lon="2.95793">
        <ele>827.6</ele>
        <time>2013-09-01T10:33:30Z</time>
      </trkpt>
      <trkpt lat="45.58843" lon="2.95878">
        <ele>821.5</ele>
        <time>2013-09-01T10:33:54Z</time>
      </trkpt>
      <trkpt lat="45.58843" lon="2.95911">
        <ele>821.3</ele>
        <time>2013-09-01T10:34:03Z</time>
      </trkpt>
      <trkpt lat="45.5883" lon="2.95954">
        <ele>820.3</ele>
        <time>2013-09-01T10:34:16Z</time>
      </trkpt>
      <trkpt lat="45.58819" lon="2.96041">
        <ele>817.2</ele>
        <time>2013-09-01T10:34:40Z</time>
      </trkpt>
      <trkpt lat="45.58804" lon="2.96106">
        <ele>814.2</ele>
        <time>2013-09-01T10:34:58Z</time>
      </trkpt>
      <trkpt lat="45.58776" lon="2.9617">
        <ele>814.7</ele>
        <time>2013-09-01T10:35:19Z</time>
      </trkpt>
      <trkpt lat="45.58764" lon="2.96208">
        <ele>816.7</ele>
        <time>2013-09-01T10:35:30Z</time>
      </trkpt>
      <trkpt lat="45.5886" lon="2.9625">
        <ele>732.4</ele>
        <time>2013-09-01T10:36:19Z</time>
        <extensions>
          <gpxtpx:TrackPointExtension xmlns:gpxtpx="http://www.garmin.com/xmlschemas/TrackPointExtension/v1">
            <gpxtpx:hr>148</gpxtpx:hr>
          </gpxtpx:TrackPointExtension>
        </extensions>
      </trkpt>
      <trkpt lat="45.58975" lon="2.96314">
        <ele>803.9</ele>
        <time>2013-09-01T10:37:05Z</time>
      </trkpt>
      <trkpt lat="45.58984" lon="2.96331">
        <ele>804</ele>
        <time>2013-09-01T10:37:10Z</time>
      </trkpt>
      <trkpt lat="45.58984" lon="2.96346">
        <ele>803.7</ele>
        <time>2013-09-01T10:37:14Z</time>
      </trkpt>
      <trkpt lat="45.58983" lon="2.96357">
        <ele>803.4</ele>
        <time>2013-09-01T10:37:16Z</time>
      </trkpt>
      <trkpt lat="45.58997" lon="2.96365">
        <ele>804.7</ele>
        <time>2013-09-01T10:37:21Z</time>
      </trkpt>
      <trkpt lat="45.59023" lon="2.9638">
        <ele>809.7</ele>
        <time>2013-09-01T10:37:31Z</time>
      </trkpt>
      <trkpt lat="45.59048" lon="2.96419">
        <ele>816</ele>
        <time>2013-09-01T10:37:43Z</time>
      </trkpt>
      <trkpt lat="45.59059" lon="2.96444">
        <ele>819.2</ele>
        <time>2013-09-01T10:37:50Z</time>
      </trkpt>
      <trkpt lat="45.5906" lon="2.96478">
        <ele>820.6</ele>
        <time>2013-09-01T10:37:58Z</time>
      </trkpt>
      <trkpt lat="45.59052" lon="2.96523">
        <ele>818.3</ele>
        <time>2013-09-01T10:38:09Z</time>
      </trkpt>
      <trkpt lat="45.59054" lon="2.96548">
        <ele>818.2</ele>
        <time>2013-09-01T10:38:15Z</time>
      </trkpt>
      <trkpt lat="45.59114" lon="2.96685">
        <ele>751.6</ele>
        <time>2013-09-01T10:38:58Z</time>
        <extensions>
          <gpxtpx:TrackPointExtension xmlns:gpxtpx="http://www.garmin.com/xmlschemas/TrackPointExtension/v1">
            <gpxtpx:hr>177</gpxtpx:hr>
          </gpxtpx:TrackPointExtension>
        </extensions>
      </trkpt>
      <trkpt lat="45.5912" lon="2.96695">
        <ele>752</ele>
        <time>2013-09-01T10:39:03Z</time>
        <extensions>
          <gpxtpx:TrackPointExtension xmlns:gpxtpx="http://www.garmin.com/xmlschemas/TrackPointExtension/v1">
            <gpxtpx:hr>177</gpxtpx:hr>
          </gpxtpx:TrackPointExtension>
        </extensions>
      </trkpt>
      <trkpt lat="45.5921" lon="2.96564">
        <ele>769.4</ele>
        <time>2013-09-01T10:40:19Z</time>
        <extensions>
          <gpxtpx:TrackPointExtension xmlns:gpxtpx="http://www.garmin.com/xmlschemas/TrackPointExtension/v1">
            <gpxtpx:hr>180</gpxtpx:hr>
          </gpxtpx:TrackPointExtension>
        </extensions>
      </trkpt>
      <trkpt lat="45.5925" lon="2.96564">
        <ele>772.8</ele>
        <time>2013-09-01T10:40:41Z</time>
        <extensions>
          <gpxtpx:TrackPointExtension xmlns:gpxtpx="http://www.garmin.com/xmlschemas/TrackPointExtension/v1">
            <gpxtpx:hr>178</gpxtpx:hr>
          </gpxtpx:TrackPointExtension>
        </extensions>
      </trkpt>
      <trkpt lat="45.59336" lon="2.96792">
        <ele>796</ele>
        <time>2013-09-01T10:42:21Z</time>
        <extensions>
          <gpxtpx:TrackPointExtension xmlns:gpxtpx="http://www.garmin.com/xmlschemas/TrackPointExtension/v1">
            <gpxtpx:hr>182</gpxtpx:hr>
          </gpxtpx:TrackPointExtension>
        </extensions>
      </trkpt>
      <trkpt lat="45.59342" lon="2.96912">
        <ele>796</ele>
        <time>2013-09-01T10:42:43Z</time>
        <extensions>
          <gpxtpx:TrackPointExtension xmlns:gpxtpx="http://www.garmin.com/xmlschemas/TrackPointExtension/v1">
            <gpxtpx:hr>179</gpxtpx:hr>
          </gpxtpx:TrackPointExtension>
        </extensions>
      </trkpt>
      <trkpt lat="45.59388" lon="2.97012">
        <ele>800.4</ele>
        <time>2013-09-01T10:43:05Z</time>
        <extensions>
          <gpxtpx:TrackPointExtension xmlns:gpxtpx="http://www.garmin.com/xmlschemas/TrackPointExtension/v1">
            <gpxtpx:hr>178</gpxtpx:hr>
          </gpxtpx:TrackPointExtension>
        </extensions>
      </trkpt>
      <trkpt lat="45.59406" lon="2.97208">
        <ele>802.6</ele>
        <time>2013-09-01T10:43:42Z</time>
        <extensions>
          <gpxtpx:TrackPointExtension xmlns:gpxtpx="http://www.garmin.com/xmlschemas/TrackPointExtension/v1">
            <gpxtpx:hr>173</gpxtpx:hr>
          </gpxtpx:TrackPointExtension>
        </extensions>
      </trkpt>
      <trkpt lat="45.59466" lon="2.9728">
        <ele>803</ele>
        <time>2013-09-01T10:44:02Z</time>
        <extensions>
          <gpxtpx:TrackPointExtension xmlns:gpxtpx="http://www.garmin.com/xmlschemas/TrackPointExtension/v1">
            <gpxtpx:hr>169</gpxtpx:hr>
          </gpxtpx:TrackPointExtension>
        </extensions>
      </trkpt>
      <trkpt lat="45.59541" lon="2.97348">
        <ele>804.6</ele>
        <time>2013-09-01T10:44:24Z</time>
        <extensions>
          <gpxtpx:TrackPointExtension xmlns:gpxtpx="http://www.garmin.com/xmlschemas/TrackPointExtension/v1">
            <gpxtpx:hr>164</gpxtpx:hr>
          </gpxtpx:TrackPointExtension>
        </extensions>
      </trkpt>
      <trkpt lat="45.59574" lon="2.97448">
        <ele>806.2</ele>
        <time>2013-09-01T10:44:45Z</time>
        <extensions>
          <gpxtpx:TrackPointExtension xmlns:gpxtpx="http://www.garmin.com/xmlschemas/TrackPointExtension/v1">
            <gpxtpx:hr>161</gpxtpx:hr>
          </gpxtpx:TrackPointExtension>
        </extensions>
      </trkpt>
      <trkpt lat="45.5961" lon="2.97484">
        <ele>811.6</ele>
        <time>2013-09-01T10:45:07Z</time>
        <extensions>
          <gpxtpx:TrackPointExtension xmlns:gpxtpx="http://www.garmin.com/xmlschemas/TrackPointExtension/v1">
            <gpxtpx:hr>170</gpxtpx:hr>
          </gpxtpx:TrackPointExtension>
        </extensions>
      </trkpt>
      <trkpt lat="45.59659" lon="2.97551">
        <ele>818.2</ele>
        <time>2013-09-01T10:45:42Z</time>
        <extensions>
          <gpxtpx:TrackPointExtension xmlns:gpxtpx="http://www.garmin.com/xmlschemas/TrackPointExtension/v1">
            <gpxtpx:hr>176</gpxtpx:hr>
          </gpxtpx:TrackPointExtension>
        </extensions>
      </trkpt>
      <trkpt lat="45.59694" lon="2.97955">
        <ele>847</ele>
        <time>2013-09-01T10:48:02Z</time>
        <extensions>
          <gpxtpx:TrackPointExtension xmlns:gpxtpx="http://www.garmin.com/xmlschemas/TrackPointExtension/v1">
            <gpxtpx:hr>181</gpxtpx:hr>
          </gpxtpx:TrackPointExtension>
        </extensions>
      </trkpt>
      <trkpt lat="45.59824" lon="2.98004">
        <ele>863.6</ele>
        <time>2013-09-01T10:49:12Z</time>
        <extensions>
          <gpxtpx:TrackPointExtension xmlns:gpxtpx="http://www.garmin.com/xmlschemas/TrackPointExtension/v1">
            <gpxtpx:hr>183</gpxtpx:hr>
          </gpxtpx:TrackPointExtension>
        </extensions>
      </trkpt>
      <trkpt lat="45.60038" lon="2.9812">
        <ele>872</ele>
        <time>2013-09-01T10:50:27Z</time>
        <extensions>
          <gpxtpx:TrackPointExtension xmlns:gpxtpx="http://www.garmin.com/xmlschemas/TrackPointExtension/v1">
            <gpxtpx:hr>174</gpxtpx:hr>
          </gpxtpx:TrackPointExtension>
        </extensions>
      </trkpt>
      <trkpt lat="45.60194" lon="2.98184">
        <ele>874</ele>
        <time>2013-09-01T10:51:13Z</time>
        <extensions>
          <gpxtpx:TrackPointExtension xmlns:gpxtpx="http://www.garmin.com/xmlschemas/TrackPointExtension/v1">
            <gpxtpx:hr>159</gpxtpx:hr>
          </gpxtpx:TrackPointExtension>
        </extensions>
      </trkpt>
      <trkpt lat="45.60263" lon="2.98179">
        <ele>940.1</ele>
        <time>2013-09-01T10:51:48Z</time>
      </trkpt>
      <trkpt lat="45.60278" lon="2.98191">
        <ele>936.9</ele>
        <time>2013-09-01T10:51:55Z</time>
      </trkpt>
      <trkpt lat="45.60297" lon="2.98169">
        <ele>935.3</ele>
        <time>2013-09-01T10:52:04Z</time>
      </trkpt>
      <trkpt lat="45.60358" lon="2.98163">
        <ele>925.3</ele>
        <time>2013-09-01T10:52:28Z</time>
      </trkpt>
      <trkpt lat="45.60446" lon="2.98161">
        <ele>906.8</ele>
        <time>2013-09-01T10:53:02Z</time>
      </trkpt>
      <trkpt lat="45.60508" lon="2.98189">
        <ele>885.3</ele>
        <time>2013-09-01T10:53:28Z</time>
      </trkpt>
      <trkpt lat="45.60543" lon="2.98236">
        <ele>877</ele>
        <time>2013-09-01T10:53:47Z</time>
      </trkpt>
      <trkpt lat="45.6054" lon="2.98292">
        <ele>874</ele>
        <time>2013-09-01T10:54:02Z</time>
      </trkpt>
      <trkpt lat="45.60521" lon="2.98333">
        <ele>870.1</ele>
        <time>2013-09-01T10:54:16Z</time>
      </trkpt>
      <trkpt lat="45.6054" lon="2.98345">
        <ele>870.9</ele>
        <time>2013-09-01T10:54:24Z</time>
      </trkpt>
      <trkpt lat="45.60556" lon="2.98369">
        <ele>872.4</ele>
        <time>2013-09-01T10:54:33Z</time>
      </trkpt>
      <trkpt lat="45.60564" lon="2.984">
        <ele>874</ele>
        <time>2013-09-01T10:54:42Z</time>
      </trkpt>
      <trkpt lat="45.60556" lon="2.98532">
        <ele>876</ele>
        <time>2013-09-01T10:55:18Z</time>
      </trkpt>
      <trkpt lat="45.60563" lon="2.9861">
        <ele>879.7</ele>
        <time>2013-09-01T10:55:39Z</time>
      </trkpt>
      <trkpt lat="45.60563" lon="2.98632">
        <ele>880</ele>
        <time>2013-09-01T10:55:45Z</time>
      </trkpt>
      <trkpt lat="45.60552" lon="2.98677">
        <ele>878.2</ele>
        <time>2013-09-01T10:55:58Z</time>
      </trkpt>
      <trkpt lat="45.60559" lon="2.98702">
        <ele>879.3</ele>
        <time>2013-09-01T10:56:05Z</time>
      </trkpt>
      <trkpt lat="45.60575" lon="2.98741">
        <ele>882.9</ele>
        <time>2013-09-01T10:56:17Z</time>
      </trkpt>
      <trkpt lat="45.60597" lon="2.98781">
        <ele>886</ele>
        <time>2013-09-01T10:56:31Z</time>
      </trkpt>
      <trkpt lat="45.60607" lon="2.98789">
        <ele>887.5</ele>
        <time>2013-09-01T10:56:36Z</time>
      </trkpt>
      <trkpt lat="45.60625" lon="2.98791">
        <ele>891.2</ele>
        <time>2013-09-01T10:56:43Z</time>
      </trkpt>
      <trkpt lat="45.60637" lon="2.9879">
        <ele>893.7</ele>
        <time>2013-09-01T10:56:47Z</time>
      </trkpt>
      <trkpt lat="45.60712" lon="2.98717">
        <ele>907.3</ele>
        <time>2013-09-01T10:57:23Z</time>
      </trkpt>
      <trkpt lat="45.60728" lon="2.98718">
        <ele>909.9</ele>
        <time>2013-09-01T10:57:29Z</time>
      </trkpt>
      <trkpt lat="45.60759" lon="2.98751">
        <ele>913.8</ele>
        <time>2013-09-01T10:57:44Z</time>
      </trkpt>
      <trkpt lat="45.60789" lon="2.98802">
        <ele>915.4</ele>
        <time>2013-09-01T10:58:02Z</time>
      </trkpt>
      <trkpt lat="45.6082" lon="2.98904">
        <ele>915.2</ele>
        <time>2013-09-01T10:58:32Z</time>
      </trkpt>
      <trkpt lat="45.60881" lon="2.99187">
        <ele>924.4</ele>
        <time>2013-09-01T10:59:52Z</time>
      </trkpt>
      <trkpt lat="45.6089" lon="2.99251">
        <ele>926.4</ele>
        <time>2013-09-01T11:00:10Z</time>
      </trkpt>
      <trkpt lat="45.60905" lon="2.99324">
        <ele>925</ele>
        <time>2013-09-01T11:00:30Z</time>
      </trkpt>
      <trkpt lat="45.60954" lon="2.99472">
        <ele>912</ele>
        <time>2013-09-01T11:01:15Z</time>
      </trkpt>
      <trkpt lat="45.6099" lon="2.99446">
        <ele>915.8</ele>
        <time>2013-09-01T11:01:31Z</time>
      </trkpt>
      <trkpt lat="45.61061" lon="2.99381">
        <ele>925.2</ele>
        <time>2013-09-01T11:02:04Z</time>
      </trkpt>
      <trkpt lat="45.61097" lon="2.99329">
        <ele>935.7</ele>
        <time>2013-09-01T11:02:24Z</time>
      </trkpt>
      <trkpt lat="45.61313" lon="2.99303">
        <ele>923.9</ele>
        <time>2013-09-01T11:03:47Z</time>
      </trkpt>
      <trkpt lat="45.61503" lon="2.99249">
        <ele>923.5</ele>
        <time>2013-09-01T11:05:03Z</time>
      </trkpt>
      <trkpt lat="45.61624" lon="2.99243">
        <ele>922.5</ele>
        <time>2013-09-01T11:05:49Z</time>
      </trkpt>
      <trkpt lat="45.61744" lon="2.99222">
        <ele>916.9</ele>
        <time>2013-09-01T11:06:36Z</time>
      </trkpt>
      <trkpt lat="45.61827" lon="2.99235">
        <ele>920.3</ele>
        <time>2013-09-01T11:07:08Z</time>
      </trkpt>
      <trkpt lat="45.61859" lon="2.99266">
        <ele>922.4</ele>
        <time>2013-09-01T11:07:23Z</time>
      </trkpt>
      <trkpt lat="45.61917" lon="2.99382">
        <ele>926.9</ele>
        <time>2013-09-01T11:08:02Z</time>
      </trkpt>
      <trkpt lat="45.61924" lon="2.99584">
        <ele>919.3</ele>
        <time>2013-09-01T11:08:56Z</time>
      </trkpt>
      <trkpt lat="45.61953" lon="2.99589">
        <ele>924.4</ele>
        <time>2013-09-01T11:09:08Z</time>
      </trkpt>
      <trkpt lat="45.61963" lon="2.99612">
        <ele>926.6</ele>
        <time>2013-09-01T11:09:15Z</time>
      </trkpt>
      <trkpt lat="45.61962" lon="2.99656">
        <ele>926.9</ele>
        <time>2013-09-01T11:09:27Z</time>
      </trkpt>
      <trkpt lat="45.61991" lon="2.99681">
        <ele>930.5</ele>
        <time>2013-09-01T11:09:40Z</time>
      </trkpt>
      <trkpt lat="45.6201" lon="2.9968">
        <ele>931.4</ele>
        <time>2013-09-01T11:09:48Z</time>
      </trkpt>
      <trkpt lat="45.62042" lon="2.99675">
        <ele>931.4</ele>
        <time>2013-09-01T11:10:00Z</time>
      </trkpt>
      <trkpt lat="45.62093" lon="2.99636">
        <ele>927.9</ele>
        <time>2013-09-01T11:10:23Z</time>
      </trkpt>
      <trkpt lat="45.62109" lon="2.99614">
        <ele>926.3</ele>
        <time>2013-09-01T11:10:31Z</time>
      </trkpt>
      <trkpt lat="45.62135" lon="2.99552">
        <ele>923</ele>
        <time>2013-09-01T11:10:51Z</time>
      </trkpt>
      <trkpt lat="45.62153" lon="2.99396">
        <ele>917.6</ele>
        <time>2013-09-01T11:11:34Z</time>
      </trkpt>
      <trkpt lat="45.62148" lon="2.99334">
        <ele>917.5</ele>
        <time>2013-09-01T11:11:51Z</time>
      </trkpt>
      <trkpt lat="45.62126" lon="2.99264">
        <ele>917.6</ele>
        <time>2013-09-01T11:12:11Z</time>
      </trkpt>
      <trkpt lat="45.62118" lon="2.9911">
        <ele>905.8</ele>
        <time>2013-09-01T11:12:53Z</time>
      </trkpt>
      <trkpt lat="45.6215" lon="2.99122">
        <ele>897.1</ele>
        <time>2013-09-01T11:13:06Z</time>
      </trkpt>
      <trkpt lat="45.62203" lon="2.9911">
        <ele>884.1</ele>
        <time>2013-09-01T11:13:28Z</time>
      </trkpt>
      <trkpt lat="45.62222" lon="2.99091">
        <ele>879.6</ele>
        <time>2013-09-01T11:13:37Z</time>
      </trkpt>
      <trkpt lat="45.62242" lon="2.99069">
        <ele>875.3</ele>
        <time>2013-09-01T11:13:47Z</time>
      </trkpt>
      <trkpt lat="45.62309" lon="2.99079">
        <ele>859.8</ele>
        <time>2013-09-01T11:14:13Z</time>
      </trkpt>
      <trkpt lat="45.62339" lon="2.99065">
        <ele>854.7</ele>
        <time>2013-09-01T11:14:26Z</time>
      </trkpt>
      <trkpt lat="45.62373" lon="2.9909">
        <ele>845.1</ele>
        <time>2013-09-01T11:14:41Z</time>
      </trkpt>
      <trkpt lat="45.62391" lon="2.99097">
        <ele>841.3</ele>
        <time>2013-09-01T11:14:48Z</time>
      </trkpt>
      <trkpt lat="45.62396" lon="2.99057">
        <ele>844.1</ele>
        <time>2013-09-01T11:14:59Z</time>
      </trkpt>
      <trkpt lat="45.62404" lon="2.99032">
        <ele>844.2</ele>
        <time>2013-09-01T11:15:07Z</time>
      </trkpt>
      <trkpt lat="45.62414" lon="2.9902">
        <ele>842.8</ele>
        <time>2013-09-01T11:15:12Z</time>
      </trkpt>
      <trkpt lat="45.62447" lon="2.99013">
        <ele>844</ele>
        <time>2013-09-01T11:15:25Z</time>
      </trkpt>
      <trkpt lat="45.62448" lon="2.98971">
        <ele>843.4</ele>
        <time>2013-09-01T11:15:36Z</time>
      </trkpt>
      <trkpt lat="45.62461" lon="2.98939">
        <ele>843.2</ele>
        <time>2013-09-01T11:15:46Z</time>
      </trkpt>
      <trkpt lat="45.62481" lon="2.98926">
        <ele>846.1</ele>
        <time>2013-09-01T11:15:54Z</time>
      </trkpt>
      <trkpt lat="45.62507" lon="2.9892">
        <ele>852.6</ele>
        <time>2013-09-01T11:16:05Z</time>
      </trkpt>
      <trkpt lat="45.62543" lon="2.98901">
        <ele>859.6</ele>
        <time>2013-09-01T11:16:20Z</time>
      </trkpt>
      <trkpt lat="45.62584" lon="2.98869">
        <ele>856.7</ele>
        <time>2013-09-01T11:16:38Z</time>
      </trkpt>
      <trkpt lat="45.62612" lon="2.98876">
        <ele>859.6</ele>
        <time>2013-09-01T11:16:49Z</time>
      </trkpt>
      <trkpt lat="45.62626" lon="2.98864">
        <ele>855.6</ele>
        <time>2013-09-01T11:16:56Z</time>
      </trkpt>
      <trkpt lat="45.62759" lon="2.98978">
        <ele>856.5</ele>
        <time>2013-09-01T11:17:56Z</time>
      </trkpt>
      <trkpt lat="45.62778" lon="2.99009">
        <ele>856.6</ele>
        <time>2013-09-01T11:18:07Z</time>
      </trkpt>
      <trkpt lat="45.62802" lon="2.99032">
        <ele>856.6</ele>
        <time>2013-09-01T11:18:18Z</time>
      </trkpt>
      <trkpt lat="45.62855" lon="2.99055">
        <ele>854.2</ele>
        <time>2013-09-01T11:18:39Z</time>
      </trkpt>
      <trkpt lat="45.6298" lon="2.99117">
        <ele>857.4</ele>
        <time>2013-09-01T11:19:30Z</time>
      </trkpt>
      <trkpt lat="45.63028" lon="2.99104">
        <ele>860.2</ele>
        <time>2013-09-01T11:19:50Z</time>
      </trkpt>
      <trkpt lat="45.63147" lon="2.99096">
        <ele>865.7</ele>
        <time>2013-09-01T11:20:35Z</time>
      </trkpt>
      <trkpt lat="45.63207" lon="2.99145">
        <ele>866.2</ele>
        <time>2013-09-01T11:21:02Z</time>
      </trkpt>
      <trkpt lat="45.63391" lon="2.99043">
        <ele>871</ele>
        <time>2013-09-01T11:22:18Z</time>
      </trkpt>
      <trkpt lat="45.63455" lon="2.99026">
        <ele>871.5</ele>
        <time>2013-09-01T11:22:44Z</time>
      </trkpt>
      <trkpt lat="45.63579" lon="2.98981">
        <ele>873.1</ele>
        <time>2013-09-01T11:23:33Z</time>
      </trkpt>
      <trkpt lat="45.63678" lon="2.98917">
        <ele>875.5</ele>
        <time>2013-09-01T11:24:15Z</time>
      </trkpt>
      <trkpt lat="45.63707" lon="2.99102">
        <ele>876.1</ele>
        <time>2013-09-01T11:25:06Z</time>
      </trkpt>
      <trkpt lat="45.63739" lon="2.99166">
        <ele>877.1</ele>
        <time>2013-09-01T11:25:28Z</time>
      </trkpt>
      <trkpt lat="45.63803" lon="2.9931">
        <ele>877</ele>
        <time>2013-09-01T11:26:14Z</time>
      </trkpt>
      <trkpt lat="45.63861" lon="2.99359">
        <ele>879.1</ele>
        <time>2013-09-01T11:26:40Z</time>
      </trkpt>
      <trkpt lat="45.63923" lon="2.9948">
        <ele>888.9</ele>
        <time>2013-09-01T11:27:20Z</time>
      </trkpt>
      <trkpt lat="45.6396" lon="2.99534">
        <ele>894.3</ele>
        <time>2013-09-01T11:27:41Z</time>
      </trkpt>
      <trkpt lat="45.63963" lon="2.99585">
        <ele>896.8</ele>
        <time>2013-09-01T11:27:55Z</time>
      </trkpt>
      <trkpt lat="45.6395" lon="2.99647">
        <ele>901.5</ele>
        <time>2013-09-01T11:28:13Z</time>
      </trkpt>
      <trkpt lat="45.63934" lon="2.99657">
        <ele>903</ele>
        <time>2013-09-01T11:28:19Z</time>
      </trkpt>
      <trkpt lat="45.6392" lon="2.99659">
        <ele>904.1</ele>
        <time>2013-09-01T11:28:25Z</time>
      </trkpt>
      <trkpt lat="45.63919" lon="2.99673">
        <ele>905.2</ele>
        <time>2013-09-01T11:28:28Z</time>
      </trkpt>
      <trkpt lat="45.6397" lon="2.99747">
        <ele>904.5</ele>
        <time>2013-09-01T11:28:57Z</time>
      </trkpt>
      <trkpt lat="45.63997" lon="2.9978">
        <ele>905</ele>
        <time>2013-09-01T11:29:10Z</time>
      </trkpt>
      <trkpt lat="45.63975" lon="2.99834">
        <ele>905.5</ele>
        <time>2013-09-01T11:29:27Z</time>
      </trkpt>
      <trkpt lat="45.63983" lon="2.99961">
        <ele>904</ele>
        <time>2013-09-01T11:30:02Z</time>
      </trkpt>
      <trkpt lat="45.63965" lon="3.0017">
        <ele>910.1</ele>
        <time>2013-09-01T11:30:59Z</time>
      </trkpt>
      <trkpt lat="45.6396" lon="3.0023">
        <ele>915.9</ele>
        <time>2013-09-01T11:31:15Z</time>
      </trkpt>
      <trkpt lat="45.64004" lon="3.00293">
        <ele>915.4</ele>
        <time>2013-09-01T11:31:39Z</time>
      </trkpt>
      <trkpt lat="45.64014" lon="3.00382">
        <ele>911.2</ele>
        <time>2013-09-01T11:32:03Z</time>
      </trkpt>
      <trkpt lat="45.63998" lon="3.00419">
        <ele>909.8</ele>
        <time>2013-09-01T11:32:15Z</time>
      </trkpt>
      <trkpt lat="45.64031" lon="3.00394">
        <ele>907.8</ele>
        <time>2013-09-01T11:32:30Z</time>
      </trkpt>
      <trkpt lat="45.64062" lon="3.00371">
        <ele>904.1</ele>
        <time>2013-09-01T11:32:43Z</time>
      </trkpt>
      <trkpt lat="45.64091" lon="3.00384">
        <ele>897</ele>
        <time>2013-09-01T11:32:55Z</time>
      </trkpt>
      <trkpt lat="45.64115" lon="3.00369">
        <ele>893.1</ele>
        <time>2013-09-01T11:33:06Z</time>
      </trkpt>
      <trkpt lat="45.64188" lon="3.00376">
        <ele>887</ele>
        <time>2013-09-01T11:33:34Z</time>
      </trkpt>
      <trkpt lat="45.64221" lon="3.00357">
        <ele>888.1</ele>
        <time>2013-09-01T11:33:48Z</time>
      </trkpt>
      <trkpt lat="45.64252" lon="3.00382">
        <ele>889.5</ele>
        <time>2013-09-01T11:34:01Z</time>
      </trkpt>
      <trkpt lat="45.64273" lon="3.00458">
        <ele>890.8</ele>
        <time>2013-09-01T11:34:24Z</time>
      </trkpt>
      <trkpt lat="45.643" lon="3.00508">
        <ele>894.6</ele>
        <time>2013-09-01T11:34:41Z</time>
      </trkpt>
      <trkpt lat="45.64325" lon="3.00495">
        <ele>899.1</ele>
        <time>2013-09-01T11:34:51Z</time>
      </trkpt>
      <trkpt lat="45.64325" lon="3.00477">
        <ele>899.1</ele>
        <time>2013-09-01T11:34:56Z</time>
      </trkpt>
      <trkpt lat="45.64311" lon="3.00454">
        <ele>896.5</ele>
        <time>2013-09-01T11:35:05Z</time>
      </trkpt>
      <trkpt lat="45.64309" lon="3.00421">
        <ele>896.5</ele>
        <time>2013-09-01T11:35:13Z</time>
      </trkpt>
      <trkpt lat="45.64327" lon="3.00399">
        <ele>900.3</ele>
        <time>2013-09-01T11:35:23Z</time>
      </trkpt>
      <trkpt lat="45.64354" lon="3.00391">
        <ele>904.6</ele>
        <time>2013-09-01T11:35:33Z</time>
      </trkpt>
      <trkpt lat="45.6439" lon="3.00386">
        <ele>910</ele>
        <time>2013-09-01T11:35:48Z</time>
      </trkpt>
      <trkpt lat="45.64428" lon="3.00366">
        <ele>913.2</ele>
        <time>2013-09-01T11:36:03Z</time>
      </trkpt>
      <trkpt lat="45.64503" lon="3.0036">
        <ele>919.7</ele>
        <time>2013-09-01T11:36:32Z</time>
      </trkpt>
      <trkpt lat="45.64634" lon="3.00337">
        <ele>925</ele>
        <time>2013-09-01T11:37:23Z</time>
      </trkpt>
      <trkpt lat="45.64664" lon="3.00323">
        <ele>926.5</ele>
        <time>2013-09-01T11:37:35Z</time>
      </trkpt>
      <trkpt lat="45.64705" lon="3.00329">
        <ele>930.5</ele>
        <time>2013-09-01T11:37:52Z</time>
      </trkpt>
      <trkpt lat="45.64739" lon="3.00282">
        <ele>929.9</ele>
        <time>2013-09-01T11:38:10Z</time>
      </trkpt>
      <trkpt lat="45.64818" lon="3.00165">
        <ele>934.6</ele>
        <time>2013-09-01T11:38:54Z</time>
      </trkpt>
      <trkpt lat="45.64878" lon="3.00107">
        <ele>941</ele>
        <time>2013-09-01T11:39:22Z</time>
      </trkpt>
      <trkpt lat="45.65042" lon="3.00052">
        <ele>960.8</ele>
        <time>2013-09-01T11:40:27Z</time>
      </trkpt>
      <trkpt lat="45.65088" lon="3.00025">
        <ele>961.6</ele>
        <time>2013-09-01T11:40:47Z</time>
      </trkpt>
      <trkpt lat="45.65185" lon="2.99998">
        <ele>962.8</ele>
        <time>2013-09-01T11:41:25Z</time>
      </trkpt>
      <trkpt lat="45.65309" lon="3.00021">
        <ele>964.3</ele>
        <time>2013-09-01T11:42:13Z</time>
      </trkpt>
      <trkpt lat="45.65411" lon="3.00013">
        <ele>965</ele>
        <time>2013-09-01T11:42:53Z</time>
      </trkpt>
      <trkpt lat="45.65662" lon="2.99928">
        <ele>964.1</ele>
        <time>2013-09-01T11:44:32Z</time>
      </trkpt>
      <trkpt lat="45.65764" lon="2.99959">
        <ele>953.3</ele>
        <time>2013-09-01T11:45:13Z</time>
      </trkpt>
      <trkpt lat="45.65799" lon="2.99978">
        <ele>951.9</ele>
        <time>2013-09-01T11:45:28Z</time>
      </trkpt>
      <trkpt lat="45.6586" lon="2.99964">
        <ele>950.8</ele>
        <time>2013-09-01T11:45:51Z</time>
      </trkpt>
      <trkpt lat="45.65937" lon="2.99972">
        <ele>945.3</ele>
        <time>2013-09-01T11:46:21Z</time>
      </trkpt>
      <trkpt lat="45.66012" lon="2.99946">
        <ele>938.2</ele>
        <time>2013-09-01T11:46:51Z</time>
      </trkpt>
      <trkpt lat="45.66078" lon="2.99952">
        <ele>931.1</ele>
        <time>2013-09-01T11:47:17Z</time>
      </trkpt>
      <trkpt lat="45.66133" lon="2.99976">
        <ele>927.6</ele>
        <time>2013-09-01T11:47:39Z</time>
      </trkpt>
      <trkpt lat="45.66407" lon="3.00042">
        <ele>895.9</ele>
        <time>2013-09-01T11:49:27Z</time>
      </trkpt>
      <trkpt lat="45.66426" lon="3.00113">
        <ele>891.8</ele>
        <time>2013-09-01T11:49:48Z</time>
      </trkpt>
      <trkpt lat="45.66428" lon="3.00142">
        <ele>890.6</ele>
        <time>2013-09-01T11:49:56Z</time>
      </trkpt>
      <trkpt lat="45.66439" lon="3.00181">
        <ele>886.1</ele>
        <time>2013-09-01T11:50:07Z</time>
      </trkpt>
      <trkpt lat="45.66448" lon="3.00178">
        <ele>883.1</ele>
        <time>2013-09-01T11:50:11Z</time>
      </trkpt>
      <trkpt lat="45.66464" lon="3.00159">
        <ele>878.6</ele>
        <time>2013-09-01T11:50:19Z</time>
      </trkpt>
      <trkpt lat="45.66481" lon="3.00106">
        <ele>874.8</ele>
        <time>2013-09-01T11:50:35Z</time>
      </trkpt>
      <trkpt lat="45.6649" lon="3.00069">
        <ele>872.9</ele>
        <time>2013-09-01T11:50:45Z</time>
      </trkpt>
      <trkpt lat="45.66501" lon="3.0005">
        <ele>869.1</ele>
        <time>2013-09-01T11:50:52Z</time>
      </trkpt>
      <trkpt lat="45.66518" lon="3.00052">
        <ele>862.9</ele>
        <time>2013-09-01T11:50:59Z</time>
      </trkpt>
      <trkpt lat="45.6654" lon="3.00128">
        <ele>854</ele>
        <time>2013-09-01T11:51:21Z</time>
      </trkpt>
      <trkpt lat="45.66566" lon="3.00203">
        <ele>842.8</ele>
        <time>2013-09-01T11:51:45Z</time>
      </trkpt>
      <trkpt lat="45.66584" lon="3.0019">
        <ele>839.7</ele>
        <time>2013-09-01T11:51:52Z</time>
      </trkpt>
      <trkpt lat="45.66618" lon="3.00184">
        <ele>835.6</ele>
        <time>2013-09-01T11:52:06Z</time>
      </trkpt>
      <trkpt lat="45.6664" lon="3.00137">
        <ele>834.5</ele>
        <time>2013-09-01T11:52:21Z</time>
      </trkpt>
      <trkpt lat="45.66674" lon="3.00061">
        <ele>832.2</ele>
        <time>2013-09-01T11:52:45Z</time>
      </trkpt>
      <trkpt lat="45.66694" lon="3.00044">
        <ele>831.7</ele>
        <time>2013-09-01T11:52:54Z</time>
      </trkpt>
      <trkpt lat="45.66743" lon="3.00048">
        <ele>829.8</ele>
        <time>2013-09-01T11:53:13Z</time>
      </trkpt>
      <trkpt lat="45.66774" lon="3.00041">
        <ele>828.9</ele>
        <time>2013-09-01T11:53:25Z</time>
      </trkpt>
      <trkpt lat="45.66799" lon="3.00049">
        <ele>827.7</ele>
        <time>2013-09-01T11:53:35Z</time>
      </trkpt>
      <trkpt lat="45.66821" lon="3.00003">
        <ele>828.1</ele>
        <time>2013-09-01T11:53:50Z</time>
      </trkpt>
      <trkpt lat="45.66834" lon="2.99946">
        <ele>829.2</ele>
        <time>2013-09-01T11:54:07Z</time>
      </trkpt>
      <trkpt lat="45.6691" lon="2.99914">
        <ele>828.5</ele>
        <time>2013-09-01T11:54:37Z</time>
      </trkpt>
      <trkpt lat="45.66985" lon="2.99754">
        <ele>836.9</ele>
        <time>2013-09-01T11:55:29Z</time>
      </trkpt>
      <trkpt lat="45.67018" lon="2.99739">
        <ele>837.4</ele>
        <time>2013-09-01T11:55:42Z</time>
      </trkpt>
      <trkpt lat="45.6707" lon="2.9964">
        <ele>839.9</ele>
        <time>2013-09-01T11:56:16Z</time>
      </trkpt>
      <trkpt lat="45.67079" lon="2.99551">
        <ele>842.6</ele>
        <time>2013-09-01T11:56:40Z</time>
      </trkpt>
      <trkpt lat="45.67068" lon="2.99484">
        <ele>845.3</ele>
        <time>2013-09-01T11:56:59Z</time>
      </trkpt>
      <trkpt lat="45.67082" lon="2.99346">
        <ele>849.9</ele>
        <time>2013-09-01T11:57:36Z</time>
      </trkpt>
      <trkpt lat="45.67156" lon="2.99297">
        <ele>853.2</ele>
        <time>2013-09-01T11:58:08Z</time>
      </trkpt>
      <trkpt lat="45.67224" lon="2.99216">
        <ele>854.1</ele>
        <time>2013-09-01T11:58:42Z</time>
      </trkpt>
      <trkpt lat="45.67244" lon="2.99232">
        <ele>852.6</ele>
        <time>2013-09-01T11:58:51Z</time>
      </trkpt>
      <trkpt lat="45.67293" lon="2.99328">
        <ele>850</ele>
        <time>2013-09-01T11:59:23Z</time>
      </trkpt>
      <trkpt lat="45.67357" lon="2.99333">
        <ele>850</ele>
        <time>2013-09-01T11:59:48Z</time>
      </trkpt>
      <trkpt lat="45.67381" lon="2.99312">
        <ele>850</ele>
        <time>2013-09-01T11:59:58Z</time>
      </trkpt>
      <trkpt lat="45.67391" lon="2.99292">
        <ele>850.2</ele>
        <time>2013-09-01T12:00:05Z</time>
      </trkpt>
      <trkpt lat="45.674" lon="2.99221">
        <ele>851</ele>
        <time>2013-09-01T12:00:25Z</time>
      </trkpt>
      <trkpt lat="45.67409" lon="2.99188">
        <ele>852.1</ele>
        <time>2013-09-01T12:00:35Z</time>
      </trkpt>
      <trkpt lat="45.67501" lon="2.99164">
        <ele>857.7</ele>
        <time>2013-09-01T12:01:11Z</time>
      </trkpt>
      <trkpt lat="45.67533" lon="2.99102">
        <ele>858.4</ele>
        <time>2013-09-01T12:01:32Z</time>
      </trkpt>
      <trkpt lat="45.67544" lon="2.98975">
        <ele>859.9</ele>
        <time>2013-09-01T12:02:06Z</time>
      </trkpt>
      <trkpt lat="45.67603" lon="2.98855">
        <ele>860</ele>
        <time>2013-09-01T12:02:46Z</time>
      </trkpt>
      <trkpt lat="45.67656" lon="2.98816">
        <ele>860.9</ele>
        <time>2013-09-01T12:03:08Z</time>
      </trkpt>
      <trkpt lat="45.67709" lon="2.9866">
        <ele>868.4</ele>
        <time>2013-09-01T12:03:56Z</time>
      </trkpt>
      <trkpt lat="45.67772" lon="2.98554">
        <ele>873.8</ele>
        <time>2013-09-01T12:04:33Z</time>
      </trkpt>
      <trkpt lat="45.67862" lon="2.98447">
        <ele>879.5</ele>
        <time>2013-09-01T12:05:18Z</time>
      </trkpt>
      <trkpt lat="45.67929" lon="2.98216">
        <ele>883.3</ele>
        <time>2013-09-01T12:06:26Z</time>
      </trkpt>
      <trkpt lat="45.6793" lon="2.98112">
        <ele>883.5</ele>
        <time>2013-09-01T12:06:54Z</time>
      </trkpt>
      <trkpt lat="45.67995" lon="2.98044">
        <ele>888</ele>
        <time>2013-09-01T12:07:25Z</time>
      </trkpt>
      <trkpt lat="45.6804" lon="2.9794">
        <ele>893.3</ele>
        <time>2013-09-01T12:07:58Z</time>
      </trkpt>
      <trkpt lat="45.68071" lon="2.97891">
        <ele>896.9</ele>
        <time>2013-09-01T12:08:16Z</time>
      </trkpt>
      <trkpt lat="45.68115" lon="2.97839">
        <ele>899.9</ele>
        <time>2013-09-01T12:08:38Z</time>
      </trkpt>
      <trkpt lat="45.68166" lon="2.97925">
        <ele>898.4</ele>
        <time>2013-09-01T12:09:09Z</time>
      </trkpt>
      <trkpt lat="45.6836" lon="2.97964">
        <ele>906.9</ele>
        <time>2013-09-01T12:10:24Z</time>
      </trkpt>
      <trkpt lat="45.68408" lon="2.97982">
        <ele>909.9</ele>
        <time>2013-09-01T12:10:44Z</time>
      </trkpt>
      <trkpt lat="45.68453" lon="2.97961">
        <ele>913.5</ele>
        <time>2013-09-01T12:11:02Z</time>
      </trkpt>
      <trkpt lat="45.68532" lon="2.98034">
        <ele>914.1</ele>
        <time>2013-09-01T12:11:38Z</time>
      </trkpt>
      <trkpt lat="45.68595" lon="2.98068">
        <ele>913.5</ele>
        <time>2013-09-01T12:12:04Z</time>
      </trkpt>
      <trkpt lat="45.68613" lon="2.98169">
        <ele>910.6</ele>
        <time>2013-09-01T12:12:33Z</time>
      </trkpt>
      <trkpt lat="45.68667" lon="2.9826">
        <ele>908.3</ele>
        <time>2013-09-01T12:13:05Z</time>
      </trkpt>
      <trkpt lat="45.68676" lon="2.98312">
        <ele>906.8</ele>
        <time>2013-09-01T12:13:19Z</time>
      </trkpt>
      <trkpt lat="45.68676" lon="2.9839">
        <ele>904.2</ele>
        <time>2013-09-01T12:13:40Z</time>
      </trkpt>
      <trkpt lat="45.68692" lon="2.98431">
        <ele>903.5</ele>
        <time>2013-09-01T12:13:53Z</time>
      </trkpt>
      <trkpt lat="45.68742" lon="2.98468">
        <ele>904</ele>
        <time>2013-09-01T12:14:15Z</time>
      </trkpt>
      <trkpt lat="45.68766" lon="2.98535">
        <ele>902</ele>
        <time>2013-09-01T12:14:35Z</time>
      </trkpt>
      <trkpt lat="45.6882" lon="2.98637">
        <ele>907.2</ele>
        <time>2013-09-01T12:15:10Z</time>
      </trkpt>
      <trkpt lat="45.68884" lon="2.98676">
        <ele>911</ele>
        <time>2013-09-01T12:15:37Z</time>
      </trkpt>
      <trkpt lat="45.68935" lon="2.98681">
        <ele>912.4</ele>
        <time>2013-09-01T12:15:56Z</time>
      </trkpt>
      <trkpt lat="45.69003" lon="2.98754">
        <ele>913.6</ele>
        <time>2013-09-01T12:16:29Z</time>
      </trkpt>
      <trkpt lat="45.6903" lon="2.988">
        <ele>912.7</ele>
        <time>2013-09-01T12:16:46Z</time>
      </trkpt>
      <trkpt lat="45.69046" lon="2.9879">
        <ele>913.4</ele>
        <time>2013-09-01T12:16:53Z</time>
      </trkpt>
      <trkpt lat="45.69059" lon="2.98748">
        <ele>915.7</ele>
        <time>2013-09-01T12:17:05Z</time>
      </trkpt>
      <trkpt lat="45.69143" lon="2.98759">
        <ele>916.1</ele>
        <time>2013-09-01T12:17:38Z</time>
      </trkpt>
      <trkpt lat="45.69116" lon="2.98811">
        <ele>914.4</ele>
        <time>2013-09-01T12:17:55Z</time>
      </trkpt>
      <trkpt lat="45.69103" lon="2.98886">
        <ele>911.5</ele>
        <time>2013-09-01T12:18:16Z</time>
      </trkpt>
      <trkpt lat="45.69107" lon="2.9893">
        <ele>910.1</ele>
        <time>2013-09-01T12:18:28Z</time>
      </trkpt>
      <trkpt lat="45.69172" lon="2.99055">
        <ele>909.2</ele>
        <time>2013-09-01T12:19:10Z</time>
      </trkpt>
      <trkpt lat="45.69199" lon="2.99133">
        <ele>908.3</ele>
        <time>2013-09-01T12:19:33Z</time>
      </trkpt>
      <trkpt lat="45.69222" lon="2.99263">
        <ele>907.4</ele>
        <time>2013-09-01T12:20:10Z</time>
      </trkpt>
      <trkpt lat="45.69287" lon="2.99406">
        <ele>903.9</ele>
        <time>2013-09-01T12:20:56Z</time>
      </trkpt>
      <trkpt lat="45.69339" lon="2.99468">
        <ele>900.4</ele>
        <time>2013-09-01T12:21:22Z</time>
      </trkpt>
      <trkpt lat="45.69396" lon="2.99554">
        <ele>905</ele>
        <time>2013-09-01T12:21:54Z</time>
      </trkpt>
      <trkpt lat="45.69419" lon="2.99468">
        <ele>907.3</ele>
        <time>2013-09-01T12:22:19Z</time>
      </trkpt>
      <trkpt lat="45.69452" lon="2.99414">
        <ele>911.9</ele>
        <time>2013-09-01T12:22:38Z</time>
      </trkpt>
      <trkpt lat="45.69563" lon="2.99364">
        <ele>902.1</ele>
        <time>2013-09-01T12:23:24Z</time>
      </trkpt>
      <trkpt lat="45.6963" lon="2.9937">
        <ele>889.9</ele>
        <time>2013-09-01T12:23:50Z</time>
      </trkpt>
      <trkpt lat="45.69651" lon="2.99473">
        <ele>881.3</ele>
        <time>2013-09-01T12:24:19Z</time>
      </trkpt>
      <trkpt lat="45.69754" lon="2.99538">
        <ele>875.7</ele>
        <time>2013-09-01T12:25:02Z</time>
      </trkpt>
      <trkpt lat="45.69815" lon="2.99609">
        <ele>871.2</ele>
        <time>2013-09-01T12:25:33Z</time>
      </trkpt>
      <trkpt lat="45.69847" lon="2.99718">
        <ele>871.5</ele>
        <time>2013-09-01T12:26:05Z</time>
      </trkpt>
      <trkpt lat="45.69858" lon="2.99848">
        <ele>873.5</ele>
        <time>2013-09-01T12:26:40Z</time>
      </trkpt>
      <trkpt lat="45.6987" lon="2.99907">
        <ele>873.3</ele>
        <time>2013-09-01T12:26:57Z</time>
      </trkpt>
      <trkpt lat="45.69917" lon="2.99985">
        <ele>869.3</ele>
        <time>2013-09-01T12:27:25Z</time>
      </trkpt>
      <trkpt lat="45.69984" lon="3.00013">
        <ele>862.5</ele>
        <time>2013-09-01T12:27:51Z</time>
      </trkpt>
      <trkpt lat="45.70014" lon="3.00051">
        <ele>859.6</ele>
        <time>2013-09-01T12:28:07Z</time>
      </trkpt>
      <trkpt lat="45.70072" lon="3.00135">
        <ele>854.2</ele>
        <time>2013-09-01T12:28:39Z</time>
      </trkpt>
      <trkpt lat="45.70167" lon="3.00246">
        <ele>846.4</ele>
        <time>2013-09-01T12:29:26Z</time>
      </trkpt>
      <trkpt lat="45.70257" lon="3.00265">
        <ele>843.1</ele>
        <time>2013-09-01T12:30:02Z</time>
      </trkpt>
      <trkpt lat="45.703" lon="3.00271">
        <ele>842.1</ele>
        <time>2013-09-01T12:30:18Z</time>
      </trkpt>
      <trkpt lat="45.70318" lon="3.00279">
        <ele>841.2</ele>
        <time>2013-09-01T12:30:26Z</time>
      </trkpt>
      <trkpt lat="45.70325" lon="3.00289">
        <ele>840.6</ele>
        <time>2013-09-01T12:30:29Z</time>
      </trkpt>
      <trkpt lat="45.70367" lon="3.00266">
        <ele>841</ele>
        <time>2013-09-01T12:30:47Z</time>
      </trkpt>
      <trkpt lat="45.70376" lon="3.00251">
        <ele>842.1</ele>
        <time>2013-09-01T12:30:52Z</time>
      </trkpt>
      <trkpt lat="45.70382" lon="3.00229">
        <ele>843.9</ele>
        <time>2013-09-01T12:30:59Z</time>
      </trkpt>
      <trkpt lat="45.70408" lon="3.00223">
        <ele>846.1</ele>
        <time>2013-09-01T12:31:09Z</time>
      </trkpt>
      <trkpt lat="45.70416" lon="3.00202">
        <ele>848.9</ele>
        <time>2013-09-01T12:31:15Z</time>
      </trkpt>
      <trkpt lat="45.70426" lon="3.00194">
        <ele>850.5</ele>
        <time>2013-09-01T12:31:20Z</time>
      </trkpt>
      <trkpt lat="45.70438" lon="3.00211">
        <ele>849.4</ele>
        <time>2013-09-01T12:31:26Z</time>
      </trkpt>
      <trkpt lat="45.7046" lon="3.00234">
        <ele>847.6</ele>
        <time>2013-09-01T12:31:37Z</time>
      </trkpt>
      <trkpt lat="45.70474" lon="3.00241">
        <ele>847.4</ele>
        <time>2013-09-01T12:31:42Z</time>
      </trkpt>
      <trkpt lat="45.70494" lon="3.00238">
        <ele>848.8</ele>
        <time>2013-09-01T12:31:50Z</time>
      </trkpt>
      <trkpt lat="45.70554" lon="3.00187">
        <ele>857.7</ele>
        <time>2013-09-01T12:32:17Z</time>
      </trkpt>
      <trkpt lat="45.7057" lon="3.00168">
        <ele>859.1</ele>
        <time>2013-09-01T12:32:26Z</time>
      </trkpt>
      <trkpt lat="45.70587" lon="3.00154">
        <ele>860.1</ele>
        <time>2013-09-01T12:32:33Z</time>
      </trkpt>
      <trkpt lat="45.70609" lon="3.00158">
        <ele>858.9</ele>
        <time>2013-09-01T12:32:42Z</time>
      </trkpt>
      <trkpt lat="45.70652" lon="3.00224">
        <ele>848.7</ele>
        <time>2013-09-01T12:33:06Z</time>
      </trkpt>
      <trkpt lat="45.70656" lon="3.00259">
        <ele>844.5</ele>
        <time>2013-09-01T12:33:16Z</time>
      </trkpt>
      <trkpt lat="45.7067" lon="3.00287">
        <ele>841.8</ele>
        <time>2013-09-01T12:33:25Z</time>
      </trkpt>
      <trkpt lat="45.70676" lon="3.00304">
        <ele>840.5</ele>
        <time>2013-09-01T12:33:30Z</time>
      </trkpt>
      <trkpt lat="45.70697" lon="3.00334">
        <ele>838.5</ele>
        <time>2013-09-01T12:33:42Z</time>
      </trkpt>
      <trkpt lat="45.70748" lon="3.00342">
        <ele>836.7</ele>
        <time>2013-09-01T12:34:02Z</time>
      </trkpt>
      <trkpt lat="45.70777" lon="3.00354">
        <ele>835.6</ele>
        <time>2013-09-01T12:34:14Z</time>
      </trkpt>
      <trkpt lat="45.7105" lon="3.00354">
        <ele>843</ele>
        <time>2013-09-01T12:35:59Z</time>
      </trkpt>
      <trkpt lat="45.71141" lon="3.00373">
        <ele>846.4</ele>
        <time>2013-09-01T12:36:35Z</time>
      </trkpt>
      <trkpt lat="45.71198" lon="3.0035">
        <ele>848.8</ele>
        <time>2013-09-01T12:36:58Z</time>
      </trkpt>
      <trkpt lat="45.71392" lon="3.00401">
        <ele>861.9</ele>
        <time>2013-09-01T12:38:14Z</time>
      </trkpt>
      <trkpt lat="45.71494" lon="3.00463">
        <ele>878.6</ele>
        <time>2013-09-01T12:38:57Z</time>
      </trkpt>
      <trkpt lat="45.71532" lon="3.00498">
        <ele>886.9</ele>
        <time>2013-09-01T12:39:15Z</time>
      </trkpt>
      <trkpt lat="45.71597" lon="3.00494">
        <ele>894.3</ele>
        <time>2013-09-01T12:39:40Z</time>
      </trkpt>
      <trkpt lat="45.71632" lon="3.00486">
        <ele>897.3</ele>
        <time>2013-09-01T12:39:54Z</time>
      </trkpt>
      <trkpt lat="45.71669" lon="3.00525">
        <ele>903.3</ele>
        <time>2013-09-01T12:40:12Z</time>
      </trkpt>
      <trkpt lat="45.71769" lon="3.00592">
        <ele>905.9</ele>
        <time>2013-09-01T12:40:55Z</time>
      </trkpt>
      <trkpt lat="45.71845" lon="3.00538">
        <ele>903</ele>
        <time>2013-09-01T12:41:27Z</time>
      </trkpt>
      <trkpt lat="45.71817" lon="3.00687">
        <ele>899.8</ele>
        <time>2013-09-01T12:42:09Z</time>
      </trkpt>
      <trkpt lat="45.71829" lon="3.00865">
        <ele>898.8</ele>
        <time>2013-09-01T12:42:57Z</time>
      </trkpt>
      <trkpt lat="45.71891" lon="3.01032">
        <ele>894.7</ele>
        <time>2013-09-01T12:43:48Z</time>
      </trkpt>
      <trkpt lat="45.71941" lon="3.01225">
        <ele>890.8</ele>
        <time>2013-09-01T12:44:44Z</time>
      </trkpt>
      <trkpt lat="45.71926" lon="3.01338">
        <ele>887.8</ele>
        <time>2013-09-01T12:45:15Z</time>
      </trkpt>
      <trkpt lat="45.71932" lon="3.01453">
        <ele>891.8</ele>
        <time>2013-09-01T12:45:46Z</time>
      </trkpt>
      <trkpt lat="45.71921" lon="3.01606">
        <ele>888.3</ele>
        <time>2013-09-01T12:46:28Z</time>
      </trkpt>
      <trkpt lat="45.71943" lon="3.01743">
        <ele>883.7</ele>
        <time>2013-09-01T12:47:06Z</time>
      </trkpt>
      <trkpt lat="45.72013" lon="3.0175">
        <ele>883.5</ele>
        <time>2013-09-01T12:47:33Z</time>
      </trkpt>
      <trkpt lat="45.72032" lon="3.01763">
        <ele>873.3</ele>
        <time>2013-09-01T12:47:42Z</time>
      </trkpt>
      <trkpt lat="45.72043" lon="3.01785">
        <ele>872.4</ele>
        <time>2013-09-01T12:47:49Z</time>
      </trkpt>
      <trkpt lat="45.72055" lon="3.01828">
        <ele>870.3</ele>
        <time>2013-09-01T12:48:01Z</time>
      </trkpt>
      <trkpt lat="45.72069" lon="3.01804">
        <ele>870.5</ele>
        <time>2013-09-01T12:48:10Z</time>
      </trkpt>
      <trkpt lat="45.72089" lon="3.01807">
        <ele>869.9</ele>
        <time>2013-09-01T12:48:17Z</time>
      </trkpt>
      <trkpt lat="45.72104" lon="3.01823">
        <ele>869.7</ele>
        <time>2013-09-01T12:48:25Z</time>
      </trkpt>
      <trkpt lat="45.72135" lon="3.01822">
        <ele>871.4</ele>
        <time>2013-09-01T12:48:37Z</time>
      </trkpt>
      <trkpt lat="45.7215" lon="3.01768">
        <ele>872.8</ele>
        <time>2013-09-01T12:48:53Z</time>
      </trkpt>
      <trkpt lat="45.72174" lon="3.01729">
        <ele>875.1</ele>
        <time>2013-09-01T12:49:07Z</time>
      </trkpt>
      <trkpt lat="45.72219" lon="3.01617">
        <ele>882.2</ele>
        <time>2013-09-01T12:49:42Z</time>
      </trkpt>
      <trkpt lat="45.72259" lon="3.01513">
        <ele>885.5</ele>
        <time>2013-09-01T12:50:14Z</time>
      </trkpt>
      <trkpt lat="45.72285" lon="3.01482">
        <ele>885.2</ele>
        <time>2013-09-01T12:50:27Z</time>
      </trkpt>
      <trkpt lat="45.72313" lon="3.01463">
        <ele>885.1</ele>
        <time>2013-09-01T12:50:39Z</time>
      </trkpt>
      <trkpt lat="45.72325" lon="3.01443">
        <ele>885.4</ele>
        <time>2013-09-01T12:50:46Z</time>
      </trkpt>
      <trkpt lat="45.72349" lon="3.01395">
        <ele>887.8</ele>
        <time>2013-09-01T12:51:02Z</time>
      </trkpt>
      <trkpt lat="45.72372" lon="3.01371">
        <ele>889.7</ele>
        <time>2013-09-01T12:51:13Z</time>
      </trkpt>
      <trkpt lat="45.72425" lon="3.01279">
        <ele>891.6</ele>
        <time>2013-09-01T12:51:45Z</time>
      </trkpt>
      <trkpt lat="45.72448" lon="3.01215">
        <ele>893.8</ele>
        <time>2013-09-01T12:52:04Z</time>
      </trkpt>
      <trkpt lat="45.72488" lon="3.01143">
        <ele>898.3</ele>
        <time>2013-09-01T12:52:29Z</time>
      </trkpt>
      <trkpt lat="45.72511" lon="3.01075">
        <ele>904.7</ele>
        <time>2013-09-01T12:52:50Z</time>
      </trkpt>
      <trkpt lat="45.72545" lon="3.00959">
        <ele>911.3</ele>
        <time>2013-09-01T12:53:24Z</time>
      </trkpt>
      <trkpt lat="45.72537" lon="3.00953">
        <ele>911.4</ele>
        <time>2013-09-01T12:53:28Z</time>
      </trkpt>
      <trkpt lat="45.72553" lon="3.00862">
        <ele>914.1</ele>
        <time>2013-09-01T12:53:53Z</time>
      </trkpt>
      <trkpt lat="45.72589" lon="3.00746">
        <ele>918.2</ele>
        <time>2013-09-01T12:54:27Z</time>
      </trkpt>
      <trkpt lat="45.72619" lon="3.0061">
        <ele>925.4</ele>
        <time>2013-09-01T12:55:06Z</time>
      </trkpt>
      <trkpt lat="45.72635" lon="3.00577">
        <ele>928</ele>
        <time>2013-09-01T12:55:17Z</time>
      </trkpt>
      <trkpt lat="45.72649" lon="3.0056">
        <ele>929.9</ele>
        <time>2013-09-01T12:55:24Z</time>
      </trkpt>
      <trkpt lat="45.72714" lon="3.00514">
        <ele>936.6</ele>
        <time>2013-09-01T12:55:52Z</time>
      </trkpt>
      <trkpt lat="45.72764" lon="3.00516">
        <ele>937.2</ele>
        <time>2013-09-01T12:56:11Z</time>
      </trkpt>
      <trkpt lat="45.72809" lon="3.00515">
        <ele>937.5</ele>
        <time>2013-09-01T12:56:29Z</time>
      </trkpt>
      <trkpt lat="45.72845" lon="3.00514">
        <ele>937.7</ele>
        <time>2013-09-01T12:56:43Z</time>
      </trkpt>
      <trkpt lat="45.72877" lon="3.00495">
        <ele>939.1</ele>
        <time>2013-09-01T12:56:56Z</time>
      </trkpt>
      <trkpt lat="45.72917" lon="3.0047">
        <ele>941</ele>
        <time>2013-09-01T12:57:13Z</time>
      </trkpt>
      <trkpt lat="45.73028" lon="3.00224">
        <ele>956.8</ele>
        <time>2013-09-01T12:58:32Z</time>
      </trkpt>
      <trkpt lat="45.73049" lon="3.00131">
        <ele>964.1</ele>
        <time>2013-09-01T12:58:59Z</time>
      </trkpt>
      <trkpt lat="45.7318" lon="3.00149">
        <ele>957.3</ele>
        <time>2013-09-01T12:59:49Z</time>
      </trkpt>
      <trkpt lat="45.73289" lon="3.00151">
        <ele>957</ele>
        <time>2013-09-01T13:00:32Z</time>
      </trkpt>
      <trkpt lat="45.73352" lon="3.00198">
        <ele>959.9</ele>
        <time>2013-09-01T13:00:59Z</time>
      </trkpt>
      <trkpt lat="45.73406" lon="3.00177">
        <ele>966.6</ele>
        <time>2013-09-01T13:01:21Z</time>
      </trkpt>
      <trkpt lat="45.73474" lon="3.00115">
        <ele>977.5</ele>
        <time>2013-09-01T13:01:52Z</time>
      </trkpt>
      <trkpt lat="45.73494" lon="3.00107">
        <ele>979.3</ele>
        <time>2013-09-01T13:02:00Z</time>
      </trkpt>
      <trkpt lat="45.73553" lon="3.00149">
        <ele>979.7</ele>
        <time>2013-09-01T13:02:26Z</time>
      </trkpt>
      <trkpt lat="45.73656" lon="3.00315">
        <ele>976</ele>
        <time>2013-09-01T13:03:26Z</time>
      </trkpt>
      <trkpt lat="45.73728" lon="3.00328">
        <ele>979.6</ele>
        <time>2013-09-01T13:03:54Z</time>
      </trkpt>
      <trkpt lat="45.73749" lon="3.00263">
        <ele>986.1</ele>
        <time>2013-09-01T13:04:13Z</time>
      </trkpt>
      <trkpt lat="45.73754" lon="3.00188">
        <ele>995.4</ele>
        <time>2013-09-01T13:04:34Z</time>
      </trkpt>
      <trkpt lat="45.73758" lon="3.00162">
        <ele>998.8</ele>
        <time>2013-09-01T13:04:41Z</time>
      </trkpt>
      <trkpt lat="45.7381" lon="3.00154">
        <ele>1001.2</ele>
        <time>2013-09-01T13:05:02Z</time>
      </trkpt>
      <trkpt lat="45.73913" lon="3.00087">
        <ele>1004.8</ele>
        <time>2013-09-01T13:05:45Z</time>
      </trkpt>
      <trkpt lat="45.74017" lon="3.00053">
        <ele>1003.5</ele>
        <time>2013-09-01T13:06:26Z</time>
      </trkpt>
      <trkpt lat="45.74171" lon="3.00061">
        <ele>994.6</ele>
        <time>2013-09-01T13:07:26Z</time>
      </trkpt>
      <trkpt lat="45.74216" lon="3.00094">
        <ele>990.8</ele>
        <time>2013-09-01T13:07:46Z</time>
      </trkpt>
      <trkpt lat="45.74401" lon="3.0012">
        <ele>981.6</ele>
        <time>2013-09-01T13:08:58Z</time>
      </trkpt>
      <trkpt lat="45.74477" lon="3.0004">
        <ele>982.2</ele>
        <time>2013-09-01T13:09:34Z</time>
      </trkpt>
      <trkpt lat="45.74518" lon="2.99998">
        <ele>981.8</ele>
        <time>2013-09-01T13:09:54Z</time>
      </trkpt>
      <trkpt lat="45.74574" lon="3.00076">
        <ele>975</ele>
        <time>2013-09-01T13:10:24Z</time>
      </trkpt>
      <trkpt lat="45.7466" lon="3.00102">
        <ele>971.3</ele>
        <time>2013-09-01T13:10:58Z</time>
      </trkpt>
      <trkpt lat="45.7468" lon="3.00037">
        <ele>973.3</ele>
        <time>2013-09-01T13:11:17Z</time>
      </trkpt>
      <trkpt lat="45.74843" lon="3.00029">
        <ele>968</ele>
        <time>2013-09-01T13:12:20Z</time>
      </trkpt>
      <trkpt lat="45.75012" lon="2.9998">
        <ele>964.9</ele>
        <time>2013-09-01T13:13:27Z</time>
      </trkpt>
      <trkpt lat="45.75206" lon="2.99855">
        <ele>950.9</ele>
        <time>2013-09-01T13:14:49Z</time>
      </trkpt>
      <trkpt lat="45.75274" lon="2.99824">
        <ele>943.3</ele>
        <time>2013-09-01T13:15:17Z</time>
      </trkpt>
      <trkpt lat="45.7528" lon="2.99832">
        <ele>941.5</ele>
        <time>2013-09-01T13:15:20Z</time>
      </trkpt>
      <trkpt lat="45.75277" lon="2.99862">
        <ele>938.8</ele>
        <time>2013-09-01T13:15:29Z</time>
      </trkpt>
      <trkpt lat="45.75289" lon="2.99868">
        <ele>936.4</ele>
        <time>2013-09-01T13:15:34Z</time>
      </trkpt>
      <trkpt lat="45.75345" lon="2.99846">
        <ele>931.1</ele>
        <time>2013-09-01T13:15:56Z</time>
      </trkpt>
      <trkpt lat="45.75404" lon="2.99844">
        <ele>925.8</ele>
        <time>2013-09-01T13:16:19Z</time>
      </trkpt>
      <trkpt lat="45.75416" lon="2.99657">
        <ele>933.5</ele>
        <time>2013-09-01T13:17:10Z</time>
      </trkpt>
      <trkpt lat="45.75409" lon="2.99527">
        <ele>939.5</ele>
        <time>2013-09-01T13:17:45Z</time>
      </trkpt>
      <trkpt lat="45.75416" lon="2.99368">
        <ele>946</ele>
        <time>2013-09-01T13:18:28Z</time>
      </trkpt>
      <trkpt lat="45.7538" lon="2.99218">
        <ele>947.2</ele>
        <time>2013-09-01T13:19:11Z</time>
      </trkpt>
      <trkpt lat="45.75375" lon="2.99015">
        <ele>942.2</ele>
        <time>2013-09-01T13:20:05Z</time>
      </trkpt>
      <trkpt lat="45.75386" lon="2.98747">
        <ele>939.1</ele>
        <time>2013-09-01T13:21:18Z</time>
      </trkpt>
      <trkpt lat="45.75389" lon="2.98526">
        <ele>932.6</ele>
        <time>2013-09-01T13:22:17Z</time>
      </trkpt>
      <trkpt lat="45.75382" lon="2.98394">
        <ele>925.8</ele>
        <time>2013-09-01T13:22:53Z</time>
      </trkpt>
      <trkpt lat="45.75409" lon="2.98207">
        <ele>917.5</ele>
        <time>2013-09-01T13:23:45Z</time>
      </trkpt>
      <trkpt lat="45.75495" lon="2.97955">
        <ele>927.9</ele>
        <time>2013-09-01T13:25:01Z</time>
      </trkpt>
      <trkpt lat="45.75544" lon="2.97749">
        <ele>940.4</ele>
        <time>2013-09-01T13:25:59Z</time>
      </trkpt>
      <trkpt lat="45.75564" lon="2.97718">
        <ele>941.9</ele>
        <time>2013-09-01T13:26:11Z</time>
      </trkpt>
      <trkpt lat="45.75598" lon="2.97593">
        <ele>947.1</ele>
        <time>2013-09-01T13:26:47Z</time>
      </trkpt>
      <trkpt lat="45.75619" lon="2.97534">
        <ele>948.6</ele>
        <time>2013-09-01T13:27:05Z</time>
      </trkpt>
      <trkpt lat="45.75626" lon="2.97492">
        <ele>949.8</ele>
        <time>2013-09-01T13:27:17Z</time>
      </trkpt>
      <trkpt lat="45.75657" lon="2.9737">
        <ele>952.1</ele>
        <time>2013-09-01T13:27:52Z</time>
      </trkpt>
      <trkpt lat="45.75704" lon="2.97193">
        <ele>955.4</ele>
        <time>2013-09-01T13:28:43Z</time>
      </trkpt>
      <trkpt lat="45.7572" lon="2.97055">
        <ele>955.7</ele>
        <time>2013-09-01T13:29:20Z</time>
      </trkpt>
      <trkpt lat="45.7577" lon="2.96884">
        <ele>956.6</ele>
        <time>2013-09-01T13:30:10Z</time>
      </trkpt>
      <trkpt lat="45.75799" lon="2.96754">
        <ele>960</ele>
        <time>2013-09-01T13:30:47Z</time>
      </trkpt>
      <trkpt lat="45.75829" lon="2.96619">
        <ele>963.4</ele>
        <time>2013-09-01T13:31:26Z</time>
      </trkpt>
      <trkpt lat="45.75828" lon="2.96531">
        <ele>963.1</ele>
        <time>2013-09-01T13:31:49Z</time>
      </trkpt>
      <trkpt lat="45.75583" lon="2.96612">
        <ele>960.7</ele>
        <time>2013-09-01T13:33:26Z</time>
      </trkpt>
      <trkpt lat="45.7533" lon="2.96725">
        <ele>956.2</ele>
        <time>2013-09-01T13:35:09Z</time>
      </trkpt>
      <trkpt lat="45.75295" lon="2.96678">
        <ele>955.5</ele>
        <time>2013-09-01T13:35:27Z</time>
      </trkpt>
      <trkpt lat="45.75295" lon="2.96565">
        <ele>957.3</ele>
        <time>2013-09-01T13:35:58Z</time>
      </trkpt>
      <trkpt lat="45.75284" lon="2.96499">
        <ele>957.3</ele>
        <time>2013-09-01T13:36:16Z</time>
      </trkpt>
      <trkpt lat="45.75284" lon="2.96261">
        <ele>962.1</ele>
        <time>2013-09-01T13:37:20Z</time>
      </trkpt>
      <trkpt lat="45.75195" lon="2.96245">
        <ele>962.7</ele>
        <time>2013-09-01T13:37:55Z</time>
      </trkpt>
      <trkpt lat="45.75085" lon="2.96097">
        <ele>970.6</ele>
        <time>2013-09-01T13:38:54Z</time>
      </trkpt>
      <trkpt lat="45.74988" lon="2.96101">
        <ele>974.9</ele>
        <time>2013-09-01T13:39:31Z</time>
      </trkpt>
      <trkpt lat="45.75066" lon="2.96015">
        <ele>977.1</ele>
        <time>2013-09-01T13:40:09Z</time>
      </trkpt>
      <trkpt lat="45.75139" lon="2.95906">
        <ele>982.3</ele>
        <time>2013-09-01T13:40:50Z</time>
      </trkpt>
      <trkpt lat="45.75185" lon="2.95805">
        <ele>987.4</ele>
        <time>2013-09-01T13:41:23Z</time>
      </trkpt>
      <trkpt lat="45.75346" lon="2.95739">
        <ele>984.8</ele>
        <time>2013-09-01T13:42:28Z</time>
      </trkpt>
      <trkpt lat="45.75376" lon="2.95555">
        <ele>990.4</ele>
        <time>2013-09-01T13:43:18Z</time>
      </trkpt>
      <trkpt lat="45.75406" lon="2.95516">
        <ele>992.8</ele>
        <time>2013-09-01T13:43:34Z</time>
      </trkpt>
      <trkpt lat="45.75546" lon="2.95676">
        <ele>993.2</ele>
        <time>2013-09-01T13:44:43Z</time>
      </trkpt>
      <trkpt lat="45.75592" lon="2.95801">
        <ele>1000.2</ele>
        <time>2013-09-01T13:45:21Z</time>
      </trkpt>
      <trkpt lat="45.7564" lon="2.95863">
        <ele>1003.1</ele>
        <time>2013-09-01T13:45:46Z</time>
      </trkpt>
      <trkpt lat="45.75667" lon="2.95762">
        <ele>1014.7</ele>
        <time>2013-09-01T13:46:16Z</time>
      </trkpt>
      <trkpt lat="45.75672" lon="2.95696">
        <ele>1023.3</ele>
        <time>2013-09-01T13:46:34Z</time>
      </trkpt>
      <trkpt lat="45.75578" lon="2.9559">
        <ele>1022.9</ele>
        <time>2013-09-01T13:47:20Z</time>
      </trkpt>
      <trkpt lat="45.755" lon="2.95364">
        <ele>1046.2</ele>
        <time>2013-09-01T13:48:29Z</time>
      </trkpt>
      <trkpt lat="45.75497" lon="2.9522">
        <ele>1067.4</ele>
        <time>2013-09-01T13:49:09Z</time>
      </trkpt>
      <trkpt lat="45.75511" lon="2.95072">
        <ele>1078.3</ele>
        <time>2013-09-01T13:49:49Z</time>
      </trkpt>
      <trkpt lat="45.75602" lon="2.95006">
        <ele>1084.7</ele>
        <time>2013-09-01T13:50:29Z</time>
      </trkpt>
      <trkpt lat="45.75681" lon="2.94951">
        <ele>1081.3</ele>
        <time>2013-09-01T13:51:02Z</time>
      </trkpt>
      <trkpt lat="45.75698" lon="2.94914">
        <ele>1076.1</ele>
        <time>2013-09-01T13:51:15Z</time>
      </trkpt>
      <trkpt lat="45.7574" lon="2.94864">
        <ele>1060.7</ele>
        <time>2013-09-01T13:51:36Z</time>
      </trkpt>
      <trkpt lat="45.75785" lon="2.94877">
        <ele>1047.3</ele>
        <time>2013-09-01T13:51:55Z</time>
      </trkpt>
      <trkpt lat="45.75815" lon="2.94916">
        <ele>1049.1</ele>
        <time>2013-09-01T13:52:10Z</time>
      </trkpt>
      <trkpt lat="45.75875" lon="2.94916">
        <ele>1041.3</ele>
        <time>2013-09-01T13:52:34Z</time>
      </trkpt>
      <trkpt lat="45.75905" lon="2.94875">
        <ele>1035.4</ele>
        <time>2013-09-01T13:52:50Z</time>
      </trkpt>
      <trkpt lat="45.75991" lon="2.9496">
        <ele>1035.6</ele>
        <time>2013-09-01T13:53:30Z</time>
      </trkpt>
      <trkpt lat="45.76052" lon="2.94991">
        <ele>1038.4</ele>
        <time>2013-09-01T13:53:56Z</time>
      </trkpt>
      <trkpt lat="45.76139" lon="2.95088">
        <ele>1041.2</ele>
        <time>2013-09-01T13:54:38Z</time>
      </trkpt>
      <trkpt lat="45.76246" lon="2.95166">
        <ele>1041.1</ele>
        <time>2013-09-01T13:55:25Z</time>
      </trkpt>
      <trkpt lat="45.76318" lon="2.95145">
        <ele>1030.8</ele>
        <time>2013-09-01T13:55:53Z</time>
      </trkpt>
      <trkpt lat="45.76352" lon="2.95106">
        <ele>1025.1</ele>
        <time>2013-09-01T13:56:10Z</time>
      </trkpt>
      <trkpt lat="45.76352" lon="2.94893">
        <ele>1019.2</ele>
        <time>2013-09-01T13:57:08Z</time>
      </trkpt>
      <trkpt lat="45.76354" lon="2.94745">
        <ele>1016.2</ele>
        <time>2013-09-01T13:57:48Z</time>
      </trkpt>
      <trkpt lat="45.76347" lon="2.94651">
        <ele>1015.7</ele>
        <time>2013-09-01T13:58:13Z</time>
      </trkpt>
      <trkpt lat="45.76372" lon="2.94651">
        <ele>1010.3</ele>
        <time>2013-09-01T13:58:23Z</time>
      </trkpt>
      <trkpt lat="45.76405" lon="2.94732">
        <ele>1009.4</ele>
        <time>2013-09-01T13:58:48Z</time>
      </trkpt>
      <trkpt lat="45.76432" lon="2.94867">
        <ele>1012</ele>
        <time>2013-09-01T13:59:26Z</time>
      </trkpt>
      <trkpt lat="45.76449" lon="2.94937">
        <ele>1013.9</ele>
        <time>2013-09-01T13:59:46Z</time>
      </trkpt>
      <trkpt lat="45.7658" lon="2.94991">
        <ele>1015.7</ele>
        <time>2013-09-01T14:00:39Z</time>
      </trkpt>
      <trkpt lat="45.76679" lon="2.95004">
        <ele>1019</ele>
        <time>2013-09-01T14:01:17Z</time>
      </trkpt>
      <trkpt lat="45.76841" lon="2.9495">
        <ele>1022.7</ele>
        <time>2013-09-01T14:02:21Z</time>
      </trkpt>
      <trkpt lat="45.77042" lon="2.94854">
        <ele>1013.6</ele>
        <time>2013-09-01T14:03:43Z</time>
      </trkpt>
      <trkpt lat="45.7718" lon="2.94825">
        <ele>1013.1</ele>
        <time>2013-09-01T14:04:37Z</time>
      </trkpt>
      <trkpt lat="45.77292" lon="2.94841">
        <ele>1014</ele>
        <time>2013-09-01T14:05:21Z</time>
      </trkpt>
      <trkpt lat="45.77423" lon="2.94963">
        <ele>1026.5</ele>
        <time>2013-09-01T14:06:21Z</time>
      </trkpt>
      <trkpt lat="45.77503" lon="2.95103">
        <ele>1047.4</ele>
        <time>2013-09-01T14:07:11Z</time>
      </trkpt>
      <trkpt lat="45.77524" lon="2.95208">
        <ele>1064.3</ele>
        <time>2013-09-01T14:07:41Z</time>
      </trkpt>
      <trkpt lat="45.77565" lon="2.95284">
        <ele>1075.6</ele>
        <time>2013-09-01T14:08:07Z</time>
      </trkpt>
      <trkpt lat="45.77596" lon="2.95291">
        <ele>1078.1</ele>
        <time>2013-09-01T14:08:19Z</time>
      </trkpt>
      <trkpt lat="45.77714" lon="2.95232">
        <ele>1071.4</ele>
        <time>2013-09-01T14:09:07Z</time>
      </trkpt>
      <trkpt lat="45.77862" lon="2.95268">
        <ele>1064.1</ele>
        <time>2013-09-01T14:10:06Z</time>
      </trkpt>
      <trkpt lat="45.77938" lon="2.95325">
        <ele>1068</ele>
        <time>2013-09-01T14:10:39Z</time>
      </trkpt>
      <trkpt lat="45.78015" lon="2.95364">
        <ele>1068.9</ele>
        <time>2013-09-01T14:11:10Z</time>
      </trkpt>
      <trkpt lat="45.78044" lon="2.95413">
        <ele>1069.4</ele>
        <time>2013-09-01T14:11:28Z</time>
      </trkpt>
      <trkpt lat="45.78087" lon="2.95541">
        <ele>1071.1</ele>
        <time>2013-09-01T14:12:06Z</time>
      </trkpt>
      <trkpt lat="45.78139" lon="2.95647">
        <ele>1070.1</ele>
        <time>2013-09-01T14:12:41Z</time>
      </trkpt>
      <trkpt lat="45.7815" lon="2.95704">
        <ele>1070.9</ele>
        <time>2013-09-01T14:12:57Z</time>
      </trkpt>
      <trkpt lat="45.78213" lon="2.95816">
        <ele>1071.8</ele>
        <time>2013-09-01T14:13:35Z</time>
      </trkpt>
      <trkpt lat="45.78272" lon="2.96026">
        <ele>1080</ele>
        <time>2013-09-01T14:14:37Z</time>
      </trkpt>
      <trkpt lat="45.78326" lon="2.96124">
        <ele>1086.4</ele>
        <time>2013-09-01T14:15:10Z</time>
      </trkpt>
      <trkpt lat="45.78383" lon="2.96128">
        <ele>1088.5</ele>
        <time>2013-09-01T14:15:32Z</time>
      </trkpt>
      <trkpt lat="45.78461" lon="2.96093">
        <ele>1090.9</ele>
        <time>2013-09-01T14:16:04Z</time>
      </trkpt>
      <trkpt lat="45.78512" lon="2.96167">
        <ele>1103.5</ele>
        <time>2013-09-01T14:16:32Z</time>
      </trkpt>
      <trkpt lat="45.78582" lon="2.96077">
        <ele>1091.7</ele>
        <time>2013-09-01T14:17:09Z</time>
      </trkpt>
      <trkpt lat="45.78617" lon="2.95987">
        <ele>1083.4</ele>
        <time>2013-09-01T14:17:37Z</time>
      </trkpt>
      <trkpt lat="45.78596" lon="2.95855">
        <ele>1090.5</ele>
        <time>2013-09-01T14:18:13Z</time>
      </trkpt>
      <trkpt lat="45.78586" lon="2.95704">
        <ele>1084.5</ele>
        <time>2013-09-01T14:18:54Z</time>
      </trkpt>
      <trkpt lat="45.78594" lon="2.95525">
        <ele>1090.4</ele>
        <time>2013-09-01T14:19:43Z</time>
      </trkpt>
      <trkpt lat="45.78611" lon="2.95419">
        <ele>1097.8</ele>
        <time>2013-09-01T14:20:12Z</time>
      </trkpt>
      <trkpt lat="45.78609" lon="2.95328">
        <ele>1096.1</ele>
        <time>2013-09-01T14:20:37Z</time>
      </trkpt>
      <trkpt lat="45.78627" lon="2.95172">
        <ele>1093.8</ele>
        <time>2013-09-01T14:21:19Z</time>
      </trkpt>
      <trkpt lat="45.78629" lon="2.95081">
        <ele>1083.8</ele>
        <time>2013-09-01T14:21:44Z</time>
      </trkpt>
      <trkpt lat="45.78627" lon="2.95034">
        <ele>1077.3</ele>
        <time>2013-09-01T14:21:57Z</time>
      </trkpt>
      <trkpt lat="45.7865" lon="2.94938">
        <ele>1068.2</ele>
        <time>2013-09-01T14:22:25Z</time>
      </trkpt>
      <trkpt lat="45.78618" lon="2.94769">
        <ele>1049.8</ele>
        <time>2013-09-01T14:23:12Z</time>
      </trkpt>
      <trkpt lat="45.78605" lon="2.94657">
        <ele>1048.1</ele>
        <time>2013-09-01T14:23:43Z</time>
      </trkpt>
      <trkpt lat="45.78618" lon="2.94598">
        <ele>1045.5</ele>
        <time>2013-09-01T14:24:00Z</time>
      </trkpt>
      <trkpt lat="45.7865" lon="2.94509">
        <ele>1041.1</ele>
        <time>2013-09-01T14:24:27Z</time>
      </trkpt>
      <trkpt lat="45.78708" lon="2.94444">
        <ele>1043.6</ele>
        <time>2013-09-01T14:24:55Z</time>
      </trkpt>
      <trkpt lat="45.78783" lon="2.9445">
        <ele>1047.4</ele>
        <time>2013-09-01T14:25:24Z</time>
      </trkpt>
      <trkpt lat="45.78844" lon="2.94429">
        <ele>1049.6</ele>
        <time>2013-09-01T14:25:48Z</time>
      </trkpt>
      <trkpt lat="45.78893" lon="2.94403">
        <ele>1049.6</ele>
        <time>2013-09-01T14:26:08Z</time>
      </trkpt>
      <trkpt lat="45.79027" lon="2.94413">
        <ele>1039.5</ele>
        <time>2013-09-01T14:27:01Z</time>
      </trkpt>
      <trkpt lat="45.79092" lon="2.94429">
        <ele>1036.6</ele>
        <time>2013-09-01T14:27:26Z</time>
      </trkpt>
      <trkpt lat="45.79124" lon="2.94431">
        <ele>1038.8</ele>
        <time>2013-09-01T14:27:39Z</time>
      </trkpt>
      <trkpt lat="45.792" lon="2.94489">
        <ele>1048</ele>
        <time>2013-09-01T14:28:12Z</time>
      </trkpt>
      <trkpt lat="45.79238" lon="2.94546">
        <ele>1052.4</ele>
        <time>2013-09-01T14:28:33Z</time>
      </trkpt>
      <trkpt lat="45.79283" lon="2.94613">
        <ele>1055</ele>
        <time>2013-09-01T14:28:58Z</time>
      </trkpt>
      <trkpt lat="45.79438" lon="2.94832">
        <ele>1042.7</ele>
        <time>2013-09-01T14:30:22Z</time>
      </trkpt>
      <trkpt lat="45.79512" lon="2.94922">
        <ele>1030.4</ele>
        <time>2013-09-01T14:31:00Z</time>
      </trkpt>
      <trkpt lat="45.79543" lon="2.94964">
        <ele>1025.3</ele>
        <time>2013-09-01T14:31:17Z</time>
      </trkpt>
      <trkpt lat="45.79566" lon="2.95032">
        <ele>1015.5</ele>
        <time>2013-09-01T14:31:37Z</time>
      </trkpt>
      <trkpt lat="45.79587" lon="2.95055">
        <ele>1012.4</ele>
        <time>2013-09-01T14:31:48Z</time>
      </trkpt>
      <trkpt lat="45.79627" lon="2.95058">
        <ele>1011.9</ele>
        <time>2013-09-01T14:32:03Z</time>
      </trkpt>
      <trkpt lat="45.79705" lon="2.95026">
        <ele>1016.1</ele>
        <time>2013-09-01T14:32:34Z</time>
      </trkpt>
      <trkpt lat="45.79784" lon="2.95021">
        <ele>1015.4</ele>
        <time>2013-09-01T14:33:05Z</time>
      </trkpt>
      <trkpt lat="45.79816" lon="2.95019">
        <ele>1014.4</ele>
        <time>2013-09-01T14:33:17Z</time>
      </trkpt>
      <trkpt lat="45.79857" lon="2.94993">
        <ele>1013.4</ele>
        <time>2013-09-01T14:33:35Z</time>
      </trkpt>
      <trkpt lat="45.79897" lon="2.94982">
        <ele>1009.7</ele>
        <time>2013-09-01T14:33:50Z</time>
      </trkpt>
      <trkpt lat="45.79917" lon="2.95013">
        <ele>1005.7</ele>
        <time>2013-09-01T14:34:02Z</time>
      </trkpt>
      <trkpt lat="45.79989" lon="2.95094">
        <ele>998.8</ele>
        <time>2013-09-01T14:34:37Z</time>
      </trkpt>
      <trkpt lat="45.80041" lon="2.95089">
        <ele>995.1</ele>
        <time>2013-09-01T14:34:57Z</time>
      </trkpt>
      <trkpt lat="45.80084" lon="2.95117">
        <ele>991.9</ele>
        <time>2013-09-01T14:35:16Z</time>
      </trkpt>
      <trkpt lat="45.80111" lon="2.9512">
        <ele>989.1</ele>
        <time>2013-09-01T14:35:26Z</time>
      </trkpt>
      <trkpt lat="45.80188" lon="2.95143">
        <ele>980.6</ele>
        <time>2013-09-01T14:35:57Z</time>
      </trkpt>
      <trkpt lat="45.80246" lon="2.95141">
        <ele>975.4</ele>
        <time>2013-09-01T14:36:19Z</time>
      </trkpt>
      <trkpt lat="45.8029" lon="2.95128">
        <ele>973.8</ele>
        <time>2013-09-01T14:36:37Z</time>
      </trkpt>
      <trkpt lat="45.80316" lon="2.95125">
        <ele>972.6</ele>
        <time>2013-09-01T14:36:47Z</time>
      </trkpt>
      <trkpt lat="45.80363" lon="2.95073">
        <ele>964.3</ele>
        <time>2013-09-01T14:37:10Z</time>
      </trkpt>
      <trkpt lat="45.80436" lon="2.95037">
        <ele>959.7</ele>
        <time>2013-09-01T14:37:40Z</time>
      </trkpt>
      <trkpt lat="45.80499" lon="2.95011">
        <ele>955</ele>
        <time>2013-09-01T14:38:05Z</time>
      </trkpt>
      <trkpt lat="45.80531" lon="2.94995">
        <ele>954.6</ele>
        <time>2013-09-01T14:38:19Z</time>
      </trkpt>
      <trkpt lat="45.80587" lon="2.95019">
        <ele>956.4</ele>
        <time>2013-09-01T14:38:41Z</time>
      </trkpt>
      <trkpt lat="45.8067" lon="2.95029">
        <ele>961.4</ele>
        <time>2013-09-01T14:39:13Z</time>
      </trkpt>
      <trkpt lat="45.80876" lon="2.95094">
        <ele>964.4</ele>
        <time>2013-09-01T14:40:35Z</time>
      </trkpt>
      <trkpt lat="45.80957" lon="2.95107">
        <ele>963.5</ele>
        <time>2013-09-01T14:41:06Z</time>
      </trkpt>
      <trkpt lat="45.8107" lon="2.95084">
        <ele>966.2</ele>
        <time>2013-09-01T14:41:51Z</time>
      </trkpt>
      <trkpt lat="45.81169" lon="2.95076">
        <ele>957.5</ele>
        <time>2013-09-01T14:42:29Z</time>
      </trkpt>
      <trkpt lat="45.81225" lon="2.9511">
        <ele>955.8</ele>
        <time>2013-09-01T14:42:52Z</time>
      </trkpt>
      <trkpt lat="45.81264" lon="2.95148">
        <ele>954.9</ele>
        <time>2013-09-01T14:43:11Z</time>
      </trkpt>
      <trkpt lat="45.81279" lon="2.95167">
        <ele>956.1</ele>
        <time>2013-09-01T14:43:18Z</time>
      </trkpt>
      <trkpt lat="45.8129" lon="2.95159">
        <ele>956.7</ele>
        <time>2013-09-01T14:43:23Z</time>
      </trkpt>
      <trkpt lat="45.813" lon="2.95213">
        <ele>959.4</ele>
        <time>2013-09-01T14:43:38Z</time>
      </trkpt>
      <trkpt lat="45.81313" lon="2.9525">
        <ele>960.5</ele>
        <time>2013-09-01T14:43:49Z</time>
      </trkpt>
      <trkpt lat="45.81327" lon="2.95278">
        <ele>959.6</ele>
        <time>2013-09-01T14:43:59Z</time>
      </trkpt>
      <trkpt lat="45.81333" lon="2.95328">
        <ele>958.2</ele>
        <time>2013-09-01T14:44:12Z</time>
      </trkpt>
      <trkpt lat="45.81351" lon="2.95343">
        <ele>956.5</ele>
        <time>2013-09-01T14:44:20Z</time>
      </trkpt>
      <trkpt lat="45.81374" lon="2.95346">
        <ele>955</ele>
        <time>2013-09-01T14:44:29Z</time>
      </trkpt>
      <trkpt lat="45.81388" lon="2.95343">
        <ele>954.3</ele>
        <time>2013-09-01T14:44:35Z</time>
      </trkpt>
      <trkpt lat="45.81408" lon="2.95315">
        <ele>955.2</ele>
        <time>2013-09-01T14:44:46Z</time>
      </trkpt>
      <trkpt lat="45.81432" lon="2.95312">
        <ele>955</ele>
        <time>2013-09-01T14:44:55Z</time>
      </trkpt>
      <trkpt lat="45.81457" lon="2.95336">
        <ele>953</ele>
        <time>2013-09-01T14:45:07Z</time>
      </trkpt>
      <trkpt lat="45.81462" lon="2.95351">
        <ele>952.5</ele>
        <time>2013-09-01T14:45:11Z</time>
      </trkpt>
      <trkpt lat="45.81451" lon="2.95416">
        <ele>950.5</ele>
        <time>2013-09-01T14:45:29Z</time>
      </trkpt>
      <trkpt lat="45.81415" lon="2.95538">
        <ele>950.5</ele>
        <time>2013-09-01T14:46:05Z</time>
      </trkpt>
      <trkpt lat="45.81415" lon="2.95697">
        <ele>950.4</ele>
        <time>2013-09-01T14:46:48Z</time>
      </trkpt>
      <trkpt lat="45.81435" lon="2.95816">
        <ele>953.6</ele>
        <time>2013-09-01T14:47:21Z</time>
      </trkpt>
      <trkpt lat="45.81775" lon="2.96034">
        <ele>962.8</ele>
        <time>2013-09-01T14:49:45Z</time>
      </trkpt>
      <trkpt lat="45.81933" lon="2.9617">
        <ele>964.6</ele>
        <time>2013-09-01T14:50:56Z</time>
      </trkpt>
      <trkpt lat="45.82043" lon="2.96242">
        <ele>971.7</ele>
        <time>2013-09-01T14:51:43Z</time>
      </trkpt>
      <trkpt lat="45.82159" lon="2.96276">
        <ele>974.8</ele>
        <time>2013-09-01T14:52:28Z</time>
      </trkpt>
      <trkpt lat="45.82259" lon="2.96292">
        <ele>978.7</ele>
        <time>2013-09-01T14:53:07Z</time>
      </trkpt>
      <trkpt lat="45.82293" lon="2.96322">
        <ele>980.5</ele>
        <time>2013-09-01T14:53:23Z</time>
      </trkpt>
      <trkpt lat="45.82253" lon="2.96332">
        <ele>963</ele>
        <time>2013-09-01T14:53:40Z</time>
      </trkpt>
      <trkpt lat="45.82169" lon="2.96367">
        <ele>960.5</ele>
        <time>2013-09-01T14:54:14Z</time>
      </trkpt>
      <trkpt lat="45.82093" lon="2.96398">
        <ele>959.3</ele>
        <time>2013-09-01T14:54:44Z</time>
      </trkpt>
      <trkpt lat="45.82066" lon="2.9641">
        <ele>958.5</ele>
        <time>2013-09-01T14:54:55Z</time>
      </trkpt>
      <trkpt lat="45.82069" lon="2.96502">
        <ele>961.2</ele>
        <time>2013-09-01T14:55:20Z</time>
      </trkpt>
      <trkpt lat="45.82049" lon="2.96677">
        <ele>969</ele>
        <time>2013-09-01T14:56:08Z</time>
      </trkpt>
      <trkpt lat="45.82059" lon="2.96895">
        <ele>972.9</ele>
        <time>2013-09-01T14:57:07Z</time>
      </trkpt>
      <trkpt lat="45.82073" lon="2.97217">
        <ele>958.7</ele>
        <time>2013-09-01T14:58:34Z</time>
      </trkpt>
      <trkpt lat="45.82117" lon="2.9739">
        <ele>952.1</ele>
        <time>2013-09-01T14:59:23Z</time>
      </trkpt>
      <trkpt lat="45.82162" lon="2.97515">
        <ele>945.4</ele>
        <time>2013-09-01T15:00:01Z</time>
      </trkpt>
      <trkpt lat="45.82247" lon="2.97601">
        <ele>935.9</ele>
        <time>2013-09-01T15:00:42Z</time>
      </trkpt>
      <trkpt lat="45.82272" lon="2.97659">
        <ele>930.2</ele>
        <time>2013-09-01T15:01:00Z</time>
      </trkpt>
      <trkpt lat="45.8228" lon="2.97696">
        <ele>928.3</ele>
        <time>2013-09-01T15:01:11Z</time>
      </trkpt>
      <trkpt lat="45.82305" lon="2.97737">
        <ele>925</ele>
        <time>2013-09-01T15:01:25Z</time>
      </trkpt>
      <trkpt lat="45.82357" lon="2.97776">
        <ele>920.1</ele>
        <time>2013-09-01T15:01:48Z</time>
      </trkpt>
      <trkpt lat="45.82419" lon="2.97827">
        <ele>912.4</ele>
        <time>2013-09-01T15:02:16Z</time>
      </trkpt>
      <trkpt lat="45.82532" lon="2.97895">
        <ele>899.2</ele>
        <time>2013-09-01T15:03:04Z</time>
      </trkpt>
      <trkpt lat="45.82584" lon="2.97991">
        <ele>892</ele>
        <time>2013-09-01T15:03:36Z</time>
      </trkpt>
      <trkpt lat="45.82714" lon="2.9834">
        <ele>887.9</ele>
        <time>2013-09-01T15:05:23Z</time>
      </trkpt>
      <trkpt lat="45.82613" lon="2.98371">
        <ele>889.6</ele>
        <time>2013-09-01T15:06:03Z</time>
      </trkpt>
      <trkpt lat="45.82367" lon="2.98471">
        <ele>899.5</ele>
        <time>2013-09-01T15:07:42Z</time>
      </trkpt>
      <trkpt lat="45.82245" lon="2.98591">
        <ele>893.6</ele>
        <time>2013-09-01T15:08:39Z</time>
      </trkpt>
      <trkpt lat="45.82174" lon="2.98706">
        <ele>892.4</ele>
        <time>2013-09-01T15:09:20Z</time>
      </trkpt>
      <trkpt lat="45.82096" lon="2.98749">
        <ele>903.2</ele>
        <time>2013-09-01T15:09:53Z</time>
      </trkpt>
      <trkpt lat="45.8206" lon="2.98798">
        <ele>905.6</ele>
        <time>2013-09-01T15:10:12Z</time>
      </trkpt>
      <trkpt lat="45.8205" lon="2.98839">
        <ele>906.4</ele>
        <time>2013-09-01T15:10:24Z</time>
      </trkpt>
      <trkpt lat="45.82014" lon="2.98915">
        <ele>907.4</ele>
        <time>2013-09-01T15:10:49Z</time>
      </trkpt>
      <trkpt lat="45.82007" lon="2.98999">
        <ele>906.3</ele>
        <time>2013-09-01T15:11:11Z</time>
      </trkpt>
      <trkpt lat="45.81801" lon="2.99282">
        <ele>904.8</ele>
        <time>2013-09-01T15:13:02Z</time>
      </trkpt>
      <trkpt lat="45.81739" lon="2.99422">
        <ele>901.7</ele>
        <time>2013-09-01T15:13:47Z</time>
      </trkpt>
      <trkpt lat="45.81713" lon="2.99481">
        <ele>904.9</ele>
        <time>2013-09-01T15:14:05Z</time>
      </trkpt>
      <trkpt lat="45.81701" lon="2.99547">
        <ele>907</ele>
        <time>2013-09-01T15:14:24Z</time>
      </trkpt>
      <trkpt lat="45.81688" lon="2.99645">
        <ele>911.1</ele>
        <time>2013-09-01T15:14:51Z</time>
      </trkpt>
      <trkpt lat="45.81693" lon="2.99739">
        <ele>913.5</ele>
        <time>2013-09-01T15:15:16Z</time>
      </trkpt>
      <trkpt lat="45.81699" lon="2.99793">
        <ele>915.3</ele>
        <time>2013-09-01T15:15:31Z</time>
      </trkpt>
      <trkpt lat="45.81691" lon="2.99803">
        <ele>916.1</ele>
        <time>2013-09-01T15:15:35Z</time>
      </trkpt>
      <trkpt lat="45.81668" lon="2.99833">
        <ele>917.9</ele>
        <time>2013-09-01T15:15:47Z</time>
      </trkpt>
      <trkpt lat="45.81661" lon="2.9985">
        <ele>919.2</ele>
        <time>2013-09-01T15:15:52Z</time>
      </trkpt>
      <trkpt lat="45.81608" lon="2.99927">
        <ele>924.1</ele>
        <time>2013-09-01T15:16:22Z</time>
      </trkpt>
      <trkpt lat="45.81565" lon="3.00001">
        <ele>923.9</ele>
        <time>2013-09-01T15:16:47Z</time>
      </trkpt>
      <trkpt lat="45.81528" lon="3.00042">
        <ele>924.2</ele>
        <time>2013-09-01T15:17:06Z</time>
      </trkpt>
      <trkpt lat="45.81504" lon="3.00085">
        <ele>922.9</ele>
        <time>2013-09-01T15:17:21Z</time>
      </trkpt>
      <trkpt lat="45.81492" lon="3.00123">
        <ele>922.9</ele>
        <time>2013-09-01T15:17:32Z</time>
      </trkpt>
      <trkpt lat="45.81464" lon="3.00229">
        <ele>920.9</ele>
        <time>2013-09-01T15:18:02Z</time>
      </trkpt>
      <trkpt lat="45.81441" lon="3.00276">
        <ele>920.4</ele>
        <time>2013-09-01T15:18:18Z</time>
      </trkpt>
      <trkpt lat="45.81432" lon="3.00318">
        <ele>919</ele>
        <time>2013-09-01T15:18:29Z</time>
      </trkpt>
      <trkpt lat="45.81429" lon="3.00341">
        <ele>917.8</ele>
        <time>2013-09-01T15:18:36Z</time>
      </trkpt>
      <trkpt lat="45.81429" lon="3.0038">
        <ele>914.3</ele>
        <time>2013-09-01T15:18:46Z</time>
      </trkpt>
      <trkpt lat="45.81408" lon="3.00451">
        <ele>908.7</ele>
        <time>2013-09-01T15:19:08Z</time>
      </trkpt>
      <trkpt lat="45.81376" lon="3.00506">
        <ele>907.8</ele>
        <time>2013-09-01T15:19:27Z</time>
      </trkpt>
      <trkpt lat="45.81358" lon="3.00537">
        <ele>907.1</ele>
        <time>2013-09-01T15:19:38Z</time>
      </trkpt>
      <trkpt lat="45.81325" lon="3.00551">
        <ele>909.6</ele>
        <time>2013-09-01T15:19:51Z</time>
      </trkpt>
      <trkpt lat="45.81246" lon="3.0058">
        <ele>911.5</ele>
        <time>2013-09-01T15:20:22Z</time>
      </trkpt>
      <trkpt lat="45.81195" lon="3.00583">
        <ele>910.6</ele>
        <time>2013-09-01T15:20:42Z</time>
      </trkpt>
      <trkpt lat="45.81157" lon="3.00588">
        <ele>909.1</ele>
        <time>2013-09-01T15:20:57Z</time>
      </trkpt>
      <trkpt lat="45.81122" lon="3.00594">
        <ele>906.9</ele>
        <time>2013-09-01T15:21:11Z</time>
      </trkpt>
      <trkpt lat="45.811" lon="3.00607">
        <ele>903.6</ele>
        <time>2013-09-01T15:21:20Z</time>
      </trkpt>
      <trkpt lat="45.81084" lon="3.00636">
        <ele>896.8</ele>
        <time>2013-09-01T15:21:30Z</time>
      </trkpt>
      <trkpt lat="45.81076" lon="3.0066">
        <ele>891.8</ele>
        <time>2013-09-01T15:21:38Z</time>
      </trkpt>
      <trkpt lat="45.81073" lon="3.0068">
        <ele>888.8</ele>
        <time>2013-09-01T15:21:43Z</time>
      </trkpt>
      <trkpt lat="45.81055" lon="3.00717">
        <ele>885</ele>
        <time>2013-09-01T15:21:55Z</time>
      </trkpt>
      <trkpt lat="45.80964" lon="3.008">
        <ele>882.4</ele>
        <time>2013-09-01T15:22:37Z</time>
      </trkpt>
      <trkpt lat="45.80923" lon="3.00831">
        <ele>881</ele>
        <time>2013-09-01T15:22:55Z</time>
      </trkpt>
      <trkpt lat="45.80905" lon="3.00827">
        <ele>881.8</ele>
        <time>2013-09-01T15:23:02Z</time>
      </trkpt>
      <trkpt lat="45.80861" lon="3.00795">
        <ele>886.9</ele>
        <time>2013-09-01T15:23:21Z</time>
      </trkpt>
      <trkpt lat="45.80801" lon="3.00752">
        <ele>892.1</ele>
        <time>2013-09-01T15:23:47Z</time>
      </trkpt>
      <trkpt lat="45.80776" lon="3.00739">
        <ele>892.2</ele>
        <time>2013-09-01T15:23:57Z</time>
      </trkpt>
      <trkpt lat="45.80753" lon="3.00736">
        <ele>890.9</ele>
        <time>2013-09-01T15:24:06Z</time>
      </trkpt>
      <trkpt lat="45.80744" lon="3.00739">
        <ele>889.7</ele>
        <time>2013-09-01T15:24:10Z</time>
      </trkpt>
      <trkpt lat="45.80729" lon="3.00761">
        <ele>885.4</ele>
        <time>2013-09-01T15:24:18Z</time>
      </trkpt>
      <trkpt lat="45.80709" lon="3.008">
        <ele>880.9</ele>
        <time>2013-09-01T15:24:31Z</time>
      </trkpt>
      <trkpt lat="45.80703" lon="3.00826">
        <ele>878.6</ele>
        <time>2013-09-01T15:24:39Z</time>
      </trkpt>
      <trkpt lat="45.80708" lon="3.00841">
        <ele>877.5</ele>
        <time>2013-09-01T15:24:43Z</time>
      </trkpt>
      <trkpt lat="45.80734" lon="3.0088">
        <ele>874.2</ele>
        <time>2013-09-01T15:24:58Z</time>
      </trkpt>
      <trkpt lat="45.80735" lon="3.00908">
        <ele>871.9</ele>
        <time>2013-09-01T15:25:05Z</time>
      </trkpt>
      <trkpt lat="45.80749" lon="3.00997">
        <ele>860.6</ele>
        <time>2013-09-01T15:25:30Z</time>
      </trkpt>
      <trkpt lat="45.8075" lon="3.01031">
        <ele>858.2</ele>
        <time>2013-09-01T15:25:40Z</time>
      </trkpt>
      <trkpt lat="45.80745" lon="3.0105">
        <ele>858</ele>
        <time>2013-09-01T15:25:45Z</time>
      </trkpt>
      <trkpt lat="45.80735" lon="3.01074">
        <ele>859.2</ele>
        <time>2013-09-01T15:25:53Z</time>
      </trkpt>
      <trkpt lat="45.80724" lon="3.01037">
        <ele>863.3</ele>
        <time>2013-09-01T15:26:03Z</time>
      </trkpt>
      <trkpt lat="45.80702" lon="3.00976">
        <ele>870</ele>
        <time>2013-09-01T15:26:22Z</time>
      </trkpt>
      <trkpt lat="45.80692" lon="3.00965">
        <ele>872</ele>
        <time>2013-09-01T15:26:27Z</time>
      </trkpt>
      <trkpt lat="45.8069" lon="3.00969">
        <ele>872.2</ele>
        <time>2013-09-01T15:26:28Z</time>
      </trkpt>
      <trkpt lat="45.80695" lon="3.00996">
        <ele>870.2</ele>
        <time>2013-09-01T15:26:36Z</time>
      </trkpt>
      <trkpt lat="45.80691" lon="3.01008">
        <ele>870.6</ele>
        <time>2013-09-01T15:26:40Z</time>
      </trkpt>
      <trkpt lat="45.80691" lon="3.01017">
        <ele>870.5</ele>
        <time>2013-09-01T15:26:42Z</time>
      </trkpt>
      <trkpt lat="45.80679" lon="3.01026">
        <ele>872.6</ele>
        <time>2013-09-01T15:26:47Z</time>
      </trkpt>
      <trkpt lat="45.80664" lon="3.0101">
        <ele>875.6</ele>
        <time>2013-09-01T15:26:55Z</time>
      </trkpt>
      <trkpt lat="45.80656" lon="3.00988">
        <ele>877.4</ele>
        <time>2013-09-01T15:27:01Z</time>
      </trkpt>
      <trkpt lat="45.80628" lon="3.00952">
        <ele>883</ele>
        <time>2013-09-01T15:27:16Z</time>
      </trkpt>
      <trkpt lat="45.80607" lon="3.00962">
        <ele>887</ele>
        <time>2013-09-01T15:27:25Z</time>
      </trkpt>
      <trkpt lat="45.80589" lon="3.00948">
        <ele>890.3</ele>
        <time>2013-09-01T15:27:33Z</time>
      </trkpt>
      <trkpt lat="45.80547" lon="3.00966">
        <ele>898.9</ele>
        <time>2013-09-01T15:27:50Z</time>
      </trkpt>
      <trkpt lat="45.80502" lon="3.00995">
        <ele>906.9</ele>
        <time>2013-09-01T15:28:09Z</time>
      </trkpt>
      <trkpt lat="45.80465" lon="3.01053">
        <ele>908.7</ele>
        <time>2013-09-01T15:28:31Z</time>
      </trkpt>
      <trkpt lat="45.80443" lon="3.01076">
        <ele>911.2</ele>
        <time>2013-09-01T15:28:41Z</time>
      </trkpt>
      <trkpt lat="45.80406" lon="3.01088">
        <ele>916.3</ele>
        <time>2013-09-01T15:28:56Z</time>
      </trkpt>
      <trkpt lat="45.80349" lon="3.01065">
        <ele>921.9</ele>
        <time>2013-09-01T15:29:19Z</time>
      </trkpt>
      <trkpt lat="45.80295" lon="3.01043">
        <ele>923.7</ele>
        <time>2013-09-01T15:29:41Z</time>
      </trkpt>
      <trkpt lat="45.80265" lon="3.01037">
        <ele>922.5</ele>
        <time>2013-09-01T15:29:52Z</time>
      </trkpt>
      <trkpt lat="45.80207" lon="3.01066">
        <ele>915.4</ele>
        <time>2013-09-01T15:30:16Z</time>
      </trkpt>
      <trkpt lat="45.80131" lon="3.01092">
        <ele>912.6</ele>
        <time>2013-09-01T15:30:46Z</time>
      </trkpt>
      <trkpt lat="45.80096" lon="3.01095">
        <ele>915</ele>
        <time>2013-09-01T15:31:00Z</time>
      </trkpt>
      <trkpt lat="45.80055" lon="3.01104">
        <ele>914</ele>
        <time>2013-09-01T15:31:16Z</time>
      </trkpt>
      <trkpt lat="45.79998" lon="3.01104">
        <ele>913.5</ele>
        <time>2013-09-01T15:31:38Z</time>
      </trkpt>
      <trkpt lat="45.79931" lon="3.01093">
        <ele>916.2</ele>
        <time>2013-09-01T15:32:04Z</time>
      </trkpt>
      <trkpt lat="45.79964" lon="3.01245">
        <ele>900.1</ele>
        <time>2013-09-01T15:32:47Z</time>
      </trkpt>
      <trkpt lat="45.79948" lon="3.0158">
        <ele>859.8</ele>
        <time>2013-09-01T15:34:19Z</time>
      </trkpt>
      <trkpt lat="45.7994" lon="3.01725">
        <ele>839.3</ele>
        <time>2013-09-01T15:34:58Z</time>
      </trkpt>
      <trkpt lat="45.79945" lon="3.01853">
        <ele>824</ele>
        <time>2013-09-01T15:35:33Z</time>
      </trkpt>
      <trkpt lat="45.79961" lon="3.01896">
        <ele>821.6</ele>
        <time>2013-09-01T15:35:47Z</time>
      </trkpt>
      <trkpt lat="45.79956" lon="3.02048">
        <ele>819.3</ele>
        <time>2013-09-01T15:36:28Z</time>
      </trkpt>
      <trkpt lat="45.79959" lon="3.02098">
        <ele>815.9</ele>
        <time>2013-09-01T15:36:41Z</time>
      </trkpt>
      <trkpt lat="45.79977" lon="3.0215">
        <ele>810.2</ele>
        <time>2013-09-01T15:36:57Z</time>
      </trkpt>
      <trkpt lat="45.79961" lon="3.02225">
        <ele>803.8</ele>
        <time>2013-09-01T15:37:18Z</time>
      </trkpt>
      <trkpt lat="45.79956" lon="3.02337">
        <ele>795.9</ele>
        <time>2013-09-01T15:37:49Z</time>
      </trkpt>
      <trkpt lat="45.79961" lon="3.02399">
        <ele>789.6</ele>
        <time>2013-09-01T15:38:06Z</time>
      </trkpt>
      <trkpt lat="45.7995" lon="3.02449">
        <ele>784.3</ele>
        <time>2013-09-01T15:38:20Z</time>
      </trkpt>
      <trkpt lat="45.7992" lon="3.02477">
        <ele>782.8</ele>
        <time>2013-09-01T15:38:34Z</time>
      </trkpt>
      <trkpt lat="45.79902" lon="3.02498">
        <ele>781.4</ele>
        <time>2013-09-01T15:38:43Z</time>
      </trkpt>
      <trkpt lat="45.79909" lon="3.02558">
        <ele>774.9</ele>
        <time>2013-09-01T15:38:59Z</time>
      </trkpt>
      <trkpt lat="45.79902" lon="3.02615">
        <ele>772.7</ele>
        <time>2013-09-01T15:39:15Z</time>
      </trkpt>
      <trkpt lat="45.79843" lon="3.02771">
        <ele>773.5</ele>
        <time>2013-09-01T15:40:03Z</time>
      </trkpt>
      <trkpt lat="45.79819" lon="3.0278">
        <ele>770.7</ele>
        <time>2013-09-01T15:40:12Z</time>
      </trkpt>
      <trkpt lat="45.79803" lon="3.02791">
        <ele>767.4</ele>
        <time>2013-09-01T15:40:19Z</time>
      </trkpt>
      <trkpt lat="45.79793" lon="3.02809">
        <ele>764.2</ele>
        <time>2013-09-01T15:40:26Z</time>
      </trkpt>
      <trkpt lat="45.79774" lon="3.028">
        <ele>763.9</ele>
        <time>2013-09-01T15:40:33Z</time>
      </trkpt>
      <trkpt lat="45.7976" lon="3.02792">
        <ele>763.4</ele>
        <time>2013-09-01T15:40:39Z</time>
      </trkpt>
      <trkpt lat="45.79745" lon="3.02799">
        <ele>761.5</ele>
        <time>2013-09-01T15:40:45Z</time>
      </trkpt>
      <trkpt lat="45.79734" lon="3.02823">
        <ele>758.9</ele>
        <time>2013-09-01T15:40:53Z</time>
      </trkpt>
      <trkpt lat="45.79731" lon="3.02845">
        <ele>756</ele>
        <time>2013-09-01T15:40:59Z</time>
      </trkpt>
      <trkpt lat="45.79728" lon="3.02859">
        <ele>753.4</ele>
        <time>2013-09-01T15:41:03Z</time>
      </trkpt>
      <trkpt lat="45.79709" lon="3.02887">
        <ele>747.4</ele>
        <time>2013-09-01T15:41:14Z</time>
      </trkpt>
      <trkpt lat="45.79694" lon="3.02913">
        <ele>742.9</ele>
        <time>2013-09-01T15:41:23Z</time>
      </trkpt>
      <trkpt lat="45.79691" lon="3.02931">
        <ele>740.6</ele>
        <time>2013-09-01T15:41:28Z</time>
      </trkpt>
      <trkpt lat="45.79694" lon="3.02967">
        <ele>736.4</ele>
        <time>2013-09-01T15:41:38Z</time>
      </trkpt>
      <trkpt lat="45.79687" lon="3.02993">
        <ele>733.7</ele>
        <time>2013-09-01T15:41:46Z</time>
      </trkpt>
      <trkpt lat="45.79676" lon="3.03017">
        <ele>731.2</ele>
        <time>2013-09-01T15:41:54Z</time>
      </trkpt>
      <trkpt lat="45.79682" lon="3.03053">
        <ele>717.2</ele>
        <time>2013-09-01T15:42:05Z</time>
      </trkpt>
      <trkpt lat="45.79705" lon="3.03094">
        <ele>715.5</ele>
        <time>2013-09-01T15:42:19Z</time>
      </trkpt>
      <trkpt lat="45.79718" lon="3.03152">
        <ele>711.8</ele>
        <time>2013-09-01T15:42:35Z</time>
      </trkpt>
      <trkpt lat="45.79725" lon="3.03226">
        <ele>706.9</ele>
        <time>2013-09-01T15:42:55Z</time>
      </trkpt>
      <trkpt lat="45.7973" lon="3.03282">
        <ele>704.2</ele>
        <time>2013-09-01T15:43:11Z</time>
      </trkpt>
      <trkpt lat="45.79765" lon="3.03399">
        <ele>702.5</ele>
        <time>2013-09-01T15:43:45Z</time>
      </trkpt>
      <trkpt lat="45.79809" lon="3.03476">
        <ele>700.5</ele>
        <time>2013-09-01T15:44:12Z</time>
      </trkpt>
      <trkpt lat="45.79868" lon="3.0355">
        <ele>697.7</ele>
        <time>2013-09-01T15:44:42Z</time>
      </trkpt>
      <trkpt lat="45.79907" lon="3.03625">
        <ele>696.7</ele>
        <time>2013-09-01T15:45:07Z</time>
      </trkpt>
      <trkpt lat="45.7996" lon="3.03756">
        <ele>693.3</ele>
        <time>2013-09-01T15:45:48Z</time>
      </trkpt>
      <trkpt lat="45.79972" lon="3.03834">
        <ele>687.3</ele>
        <time>2013-09-01T15:46:10Z</time>
      </trkpt>
      <trkpt lat="45.79954" lon="3.04067">
        <ele>677</ele>
        <time>2013-09-01T15:47:13Z</time>
      </trkpt>
      <trkpt lat="45.7996" lon="3.04117">
        <ele>676</ele>
        <time>2013-09-01T15:47:27Z</time>
      </trkpt>
      <trkpt lat="45.79991" lon="3.04159">
        <ele>673.7</ele>
        <time>2013-09-01T15:47:43Z</time>
      </trkpt>
      <trkpt lat="45.80008" lon="3.0419">
        <ele>669.3</ele>
        <time>2013-09-01T15:47:54Z</time>
      </trkpt>
      <trkpt lat="45.80022" lon="3.0422">
        <ele>666.5</ele>
        <time>2013-09-01T15:48:04Z</time>
      </trkpt>
      <trkpt lat="45.80025" lon="3.04272">
        <ele>666.1</ele>
        <time>2013-09-01T15:48:18Z</time>
      </trkpt>
      <trkpt lat="45.80033" lon="3.04302">
        <ele>664.1</ele>
        <time>2013-09-01T15:48:27Z</time>
      </trkpt>
      <trkpt lat="45.8004" lon="3.04321">
        <ele>662.7</ele>
        <time>2013-09-01T15:48:33Z</time>
      </trkpt>
      <trkpt lat="45.80071" lon="3.04327">
        <ele>660</ele>
        <time>2013-09-01T15:48:45Z</time>
      </trkpt>
      <trkpt lat="45.80085" lon="3.04334">
        <ele>658.9</ele>
        <time>2013-09-01T15:48:50Z</time>
      </trkpt>
      <trkpt lat="45.8009" lon="3.04368">
        <ele>658.2</ele>
        <time>2013-09-01T15:49:00Z</time>
      </trkpt>
      <trkpt lat="45.80087" lon="3.04401">
        <ele>653.6</ele>
        <time>2013-09-01T15:49:09Z</time>
      </trkpt>
      <trkpt lat="45.80067" lon="3.04446">
        <ele>648</ele>
        <time>2013-09-01T15:49:23Z</time>
      </trkpt>
      <trkpt lat="45.80059" lon="3.04471">
        <ele>644.5</ele>
        <time>2013-09-01T15:49:31Z</time>
      </trkpt>
      <trkpt lat="45.80064" lon="3.04493">
        <ele>640.5</ele>
        <time>2013-09-01T15:49:37Z</time>
      </trkpt>
      <trkpt lat="45.80077" lon="3.04501">
        <ele>638.6</ele>
        <time>2013-09-01T15:49:43Z</time>
      </trkpt>
      <trkpt lat="45.8009" lon="3.04507">
        <ele>637</ele>
        <time>2013-09-01T15:49:48Z</time>
      </trkpt>
      <trkpt lat="45.80091" lon="3.04516">
        <ele>635.8</ele>
        <time>2013-09-01T15:49:51Z</time>
      </trkpt>
      <trkpt lat="45.80091" lon="3.04533">
        <ele>633.5</ele>
        <time>2013-09-01T15:49:55Z</time>
      </trkpt>
      <trkpt lat="45.80104" lon="3.04534">
        <ele>632.1</ele>
        <time>2013-09-01T15:50:01Z</time>
      </trkpt>
      <trkpt lat="45.80122" lon="3.04517">
        <ele>630.9</ele>
        <time>2013-09-01T15:50:09Z</time>
      </trkpt>
      <trkpt lat="45.80188" lon="3.04463">
        <ele>622.1</ele>
        <time>2013-09-01T15:50:38Z</time>
      </trkpt>
      <trkpt lat="45.80234" lon="3.04419">
        <ele>616.4</ele>
        <time>2013-09-01T15:51:00Z</time>
      </trkpt>
      <trkpt lat="45.80262" lon="3.04389">
        <ele>613.1</ele>
        <time>2013-09-01T15:51:14Z</time>
      </trkpt>
      <trkpt lat="45.80271" lon="3.04389">
        <ele>611.4</ele>
        <time>2013-09-01T15:51:17Z</time>
      </trkpt>
      <trkpt lat="45.80287" lon="3.04396">
        <ele>608.7</ele>
        <time>2013-09-01T15:51:24Z</time>
      </trkpt>
      <trkpt lat="45.80296" lon="3.04405">
        <ele>607.3</ele>
        <time>2013-09-01T15:51:28Z</time>
      </trkpt>
      <trkpt lat="45.80298" lon="3.04409">
        <ele>607</ele>
        <time>2013-09-01T15:51:29Z</time>
      </trkpt>
      <trkpt lat="45.80301" lon="3.04421">
        <ele>606.5</ele>
        <time>2013-09-01T15:51:33Z</time>
      </trkpt>
      <trkpt lat="45.80303" lon="3.0445">
        <ele>603.3</ele>
        <time>2013-09-01T15:51:41Z</time>
      </trkpt>
      <trkpt lat="45.803" lon="3.04476">
        <ele>599.8</ele>
        <time>2013-09-01T15:51:48Z</time>
      </trkpt>
      <trkpt lat="45.80301" lon="3.04495">
        <ele>596.2</ele>
        <time>2013-09-01T15:51:53Z</time>
      </trkpt>
      <trkpt lat="45.80307" lon="3.0452">
        <ele>591.1</ele>
        <time>2013-09-01T15:52:00Z</time>
      </trkpt>
      <trkpt lat="45.8031" lon="3.04541">
        <ele>586.5</ele>
        <time>2013-09-01T15:52:06Z</time>
      </trkpt>
      <trkpt lat="45.80313" lon="3.04557">
        <ele>582.1</ele>
        <time>2013-09-01T15:52:11Z</time>
      </trkpt>
      <trkpt lat="45.80325" lon="3.04572">
        <ele>579.3</ele>
        <time>2013-09-01T15:52:17Z</time>
      </trkpt>
      <trkpt lat="45.80355" lon="3.04592">
        <ele>580.2</ele>
        <time>2013-09-01T15:52:30Z</time>
      </trkpt>
      <trkpt lat="45.80384" lon="3.04601">
        <ele>582</ele>
        <time>2013-09-01T15:52:41Z</time>
      </trkpt>
      <trkpt lat="45.80386" lon="3.04601">
        <ele>581.8</ele>
        <time>2013-09-01T15:52:42Z</time>
      </trkpt>
      <trkpt lat="45.8041" lon="3.04619">
        <ele>575.2</ele>
        <time>2013-09-01T15:52:53Z</time>
      </trkpt>
      <trkpt lat="45.80413" lon="3.04621">
        <ele>574.5</ele>
        <time>2013-09-01T15:52:54Z</time>
      </trkpt>
      <trkpt lat="45.80423" lon="3.04629">
        <ele>571.5</ele>
        <time>2013-09-01T15:52:59Z</time>
      </trkpt>
      <trkpt lat="45.80434" lon="3.04631">
        <ele>570.5</ele>
        <time>2013-09-01T15:53:03Z</time>
      </trkpt>
      <trkpt lat="45.80439" lon="3.0463">
        <ele>570.7</ele>
        <time>2013-09-01T15:53:05Z</time>
      </trkpt>
      <trkpt lat="45.80445" lon="3.04621">
        <ele>573.1</ele>
        <time>2013-09-01T15:53:09Z</time>
      </trkpt>
      <trkpt lat="45.80448" lon="3.04623">
        <ele>572.2</ele>
        <time>2013-09-01T15:53:10Z</time>
      </trkpt>
      <trkpt lat="45.80451" lon="3.04626">
        <ele>571.1</ele>
        <time>2013-09-01T15:53:12Z</time>
      </trkpt>
      <trkpt lat="45.80451" lon="3.04631">
        <ele>569.9</ele>
        <time>2013-09-01T15:53:13Z</time>
      </trkpt>
      <trkpt lat="45.80452" lon="3.04641">
        <ele>567.1</ele>
        <time>2013-09-01T15:53:16Z</time>
      </trkpt>
      <trkpt lat="45.80445" lon="3.04661">
        <ele>561.9</ele>
        <time>2013-09-01T15:53:22Z</time>
      </trkpt>
      <trkpt lat="45.80428" lon="3.04666">
        <ele>560.1</ele>
        <time>2013-09-01T15:53:29Z</time>
      </trkpt>
      <trkpt lat="45.80408" lon="3.04655">
        <ele>563.3</ele>
        <time>2013-09-01T15:53:37Z</time>
      </trkpt>
      <trkpt lat="45.80393" lon="3.04655">
        <ele>563.4</ele>
        <time>2013-09-01T15:53:43Z</time>
      </trkpt>
      <trkpt lat="45.8039" lon="3.04658">
        <ele>562.7</ele>
        <time>2013-09-01T15:53:44Z</time>
      </trkpt>
      <trkpt lat="45.8038" lon="3.04666">
        <ele>560.2</ele>
        <time>2013-09-01T15:53:49Z</time>
      </trkpt>
      <trkpt lat="45.8036" lon="3.04688">
        <ele>550.2</ele>
        <time>2013-09-01T15:53:59Z</time>
      </trkpt>
      <trkpt lat="45.80334" lon="3.04671">
        <ele>550.7</ele>
        <time>2013-09-01T15:54:10Z</time>
      </trkpt>
      <trkpt lat="45.80317" lon="3.04658">
        <ele>552.4</ele>
        <time>2013-09-01T15:54:18Z</time>
      </trkpt>
      <trkpt lat="45.80274" lon="3.04637">
        <ele>562.7</ele>
        <time>2013-09-01T15:54:35Z</time>
      </trkpt>
      <trkpt lat="45.80268" lon="3.04646">
        <ele>561.9</ele>
        <time>2013-09-01T15:54:39Z</time>
      </trkpt>
      <trkpt lat="45.80257" lon="3.04691">
        <ele>560.3</ele>
        <time>2013-09-01T15:54:52Z</time>
      </trkpt>
      <trkpt lat="45.80243" lon="3.04729">
        <ele>559.5</ele>
        <time>2013-09-01T15:55:03Z</time>
      </trkpt>
      <trkpt lat="45.8024" lon="3.04764">
        <ele>552.9</ele>
        <time>2013-09-01T15:55:13Z</time>
      </trkpt>
      <trkpt lat="45.80235" lon="3.0478">
        <ele>550.2</ele>
        <time>2013-09-01T15:55:18Z</time>
      </trkpt>
      <trkpt lat="45.80221" lon="3.04803">
        <ele>547.4</ele>
        <time>2013-09-01T15:55:26Z</time>
      </trkpt>
      <trkpt lat="45.80203" lon="3.04821">
        <ele>546.4</ele>
        <time>2013-09-01T15:55:35Z</time>
      </trkpt>
      <trkpt lat="45.80177" lon="3.04864">
        <ele>539.6</ele>
        <time>2013-09-01T15:55:50Z</time>
      </trkpt>
      <trkpt lat="45.80163" lon="3.04899">
        <ele>534.7</ele>
        <time>2013-09-01T15:56:01Z</time>
      </trkpt>
      <trkpt lat="45.8016" lon="3.0491">
        <ele>532.7</ele>
        <time>2013-09-01T15:56:05Z</time>
      </trkpt>
      <trkpt lat="45.80161" lon="3.0492">
        <ele>530.9</ele>
        <time>2013-09-01T15:56:07Z</time>
      </trkpt>
      <trkpt lat="45.80158" lon="3.04925">
        <ele>527.6</ele>
        <time>2013-09-01T15:56:09Z</time>
      </trkpt>
      <trkpt lat="45.80136" lon="3.04972">
        <ele>526.3</ele>
        <time>2013-09-01T15:56:24Z</time>
      </trkpt>
      <trkpt lat="45.80097" lon="3.05021">
        <ele>525.2</ele>
        <time>2013-09-01T15:56:45Z</time>
      </trkpt>
      <trkpt lat="45.80093" lon="3.05042">
        <ele>522.4</ele>
        <time>2013-09-01T15:56:51Z</time>
      </trkpt>
      <trkpt lat="45.80097" lon="3.05094">
        <ele>513.5</ele>
        <time>2013-09-01T15:57:05Z</time>
      </trkpt>
      <trkpt lat="45.80046" lon="3.05154">
        <ele>504</ele>
        <time>2013-09-01T15:57:30Z</time>
      </trkpt>
      <trkpt lat="45.80027" lon="3.05177">
        <ele>502</ele>
        <time>2013-09-01T15:57:40Z</time>
      </trkpt>
      <trkpt lat="45.80014" lon="3.05221">
        <ele>498.6</ele>
        <time>2013-09-01T15:57:53Z</time>
      </trkpt>
      <trkpt lat="45.80012" lon="3.05312">
        <ele>496.1</ele>
        <time>2013-09-01T15:58:18Z</time>
      </trkpt>
      <trkpt lat="45.80011" lon="3.05367">
        <ele>496.7</ele>
        <time>2013-09-01T15:58:33Z</time>
      </trkpt>
      <trkpt lat="45.80021" lon="3.05424">
        <ele>496.9</ele>
        <time>2013-09-01T15:58:49Z</time>
      </trkpt>
      <trkpt lat="45.8002" lon="3.05468">
        <ele>498</ele>
        <time>2013-09-01T15:59:00Z</time>
      </trkpt>
      <trkpt lat="45.80059" lon="3.05541">
        <ele>496.2</ele>
        <time>2013-09-01T15:59:25Z</time>
      </trkpt>
      <trkpt lat="45.80071" lon="3.05604">
        <ele>495.7</ele>
        <time>2013-09-01T15:59:43Z</time>
      </trkpt>
      <trkpt lat="45.80117" lon="3.05614">
        <ele>497.7</ele>
        <time>2013-09-01T16:00:01Z</time>
      </trkpt>
      <trkpt lat="45.80108" lon="3.05642">
        <ele>498.6</ele>
        <time>2013-09-01T16:00:09Z</time>
      </trkpt>
      <trkpt lat="45.80063" lon="3.05671">
        <ele>501.5</ele>
        <time>2013-09-01T16:00:28Z</time>
      </trkpt>
      <trkpt lat="45.79959" lon="3.05702">
        <ele>501.9</ele>
        <time>2013-09-01T16:01:09Z</time>
      </trkpt>
      <trkpt lat="45.79849" lon="3.05814">
        <ele>504</ele>
        <time>2013-09-01T16:02:01Z</time>
      </trkpt>
      <trkpt lat="45.79867" lon="3.05855">
        <ele>507.5</ele>
        <time>2013-09-01T16:02:15Z</time>
      </trkpt>
      <trkpt lat="45.79935" lon="3.05866">
        <ele>515.2</ele>
        <time>2013-09-01T16:02:41Z</time>
      </trkpt>
      <trkpt lat="45.79984" lon="3.05855">
        <ele>524</ele>
        <time>2013-09-01T16:03:01Z</time>
      </trkpt>
      <trkpt lat="45.79993" lon="3.0586">
        <ele>526.3</ele>
        <time>2013-09-01T16:03:04Z</time>
      </trkpt>
      <trkpt lat="45.80014" lon="3.05938">
        <ele>540.3</ele>
        <time>2013-09-01T16:03:27Z</time>
      </trkpt>
      <trkpt lat="45.79998" lon="3.06089">
        <ele>557.7</ele>
        <time>2013-09-01T16:04:09Z</time>
      </trkpt>
      <trkpt lat="45.80022" lon="3.06123">
        <ele>565.3</ele>
        <time>2013-09-01T16:04:22Z</time>
      </trkpt>
      <trkpt lat="45.80057" lon="3.06136">
        <ele>567.1</ele>
        <time>2013-09-01T16:04:36Z</time>
      </trkpt>
      <trkpt lat="45.80147" lon="3.061">
        <ele>558.8</ele>
        <time>2013-09-01T16:05:13Z</time>
      </trkpt>
      <trkpt lat="45.80347" lon="3.06175">
        <ele>563</ele>
        <time>2013-09-01T16:06:32Z</time>
      </trkpt>
      <trkpt lat="45.80401" lon="3.06198">
        <ele>561.1</ele>
        <time>2013-09-01T16:06:54Z</time>
      </trkpt>
      <trkpt lat="45.80474" lon="3.06172">
        <ele>547.9</ele>
        <time>2013-09-01T16:07:24Z</time>
      </trkpt>
      <trkpt lat="45.80552" lon="3.06222">
        <ele>541.3</ele>
        <time>2013-09-01T16:07:57Z</time>
      </trkpt>
      <trkpt lat="45.80629" lon="3.06313">
        <ele>538.2</ele>
        <time>2013-09-01T16:08:35Z</time>
      </trkpt>
      <trkpt lat="45.80683" lon="3.06398">
        <ele>534.7</ele>
        <time>2013-09-01T16:09:06Z</time>
      </trkpt>
      <trkpt lat="45.8072" lon="3.06505">
        <ele>534.3</ele>
        <time>2013-09-01T16:09:39Z</time>
      </trkpt>
      <trkpt lat="45.80733" lon="3.06547">
        <ele>536.1</ele>
        <time>2013-09-01T16:09:51Z</time>
      </trkpt>
      <trkpt lat="45.8076" lon="3.06585">
        <ele>536.9</ele>
        <time>2013-09-01T16:10:06Z</time>
      </trkpt>
      <trkpt lat="45.80826" lon="3.06604">
        <ele>539.3</ele>
        <time>2013-09-01T16:10:32Z</time>
      </trkpt>
      <trkpt lat="45.8092" lon="3.06645">
        <ele>543.5</ele>
        <time>2013-09-01T16:11:10Z</time>
      </trkpt>
      <trkpt lat="45.81049" lon="3.0676">
        <ele>545.4</ele>
        <time>2013-09-01T16:12:08Z</time>
      </trkpt>
      <trkpt lat="45.81042" lon="3.06814">
        <ele>551.2</ele>
        <time>2013-09-01T16:12:23Z</time>
      </trkpt>
      <trkpt lat="45.8106" lon="3.06832">
        <ele>550.9</ele>
        <time>2013-09-01T16:12:32Z</time>
      </trkpt>
      <trkpt lat="45.81085" lon="3.06809">
        <ele>545.3</ele>
        <time>2013-09-01T16:12:44Z</time>
      </trkpt>
      <trkpt lat="45.81214" lon="3.06952">
        <ele>535.7</ele>
        <time>2013-09-01T16:13:47Z</time>
      </trkpt>
      <trkpt lat="45.81234" lon="3.06853">
        <ele>527.6</ele>
        <time>2013-09-01T16:14:15Z</time>
      </trkpt>
      <trkpt lat="45.81301" lon="3.0663">
        <ele>506.4</ele>
        <time>2013-09-01T16:15:21Z</time>
      </trkpt>
      <trkpt lat="45.81311" lon="3.06562">
        <ele>500.4</ele>
        <time>2013-09-01T16:15:39Z</time>
      </trkpt>
      <trkpt lat="45.81304" lon="3.06492">
        <ele>493.3</ele>
        <time>2013-09-01T16:15:59Z</time>
      </trkpt>
      <trkpt lat="45.81335" lon="3.06508">
        <ele>493.7</ele>
        <time>2013-09-01T16:16:11Z</time>
      </trkpt>
      <trkpt lat="45.81396" lon="3.06637">
        <ele>498.3</ele>
        <time>2013-09-01T16:16:53Z</time>
      </trkpt>
      <trkpt lat="45.81412" lon="3.06762">
        <ele>502.8</ele>
        <time>2013-09-01T16:17:28Z</time>
      </trkpt>
      <trkpt lat="45.81484" lon="3.06734">
        <ele>496.7</ele>
        <time>2013-09-01T16:17:57Z</time>
      </trkpt>
      <trkpt lat="45.81545" lon="3.06856">
        <ele>493.6</ele>
        <time>2013-09-01T16:18:37Z</time>
      </trkpt>
      <trkpt lat="45.81579" lon="3.06908">
        <ele>488.6</ele>
        <time>2013-09-01T16:18:56Z</time>
      </trkpt>
      <trkpt lat="45.81597" lon="3.0691">
        <ele>486</ele>
        <time>2013-09-01T16:19:03Z</time>
      </trkpt>
      <trkpt lat="45.81633" lon="3.07082">
        <ele>488.8</ele>
        <time>2013-09-01T16:19:52Z</time>
      </trkpt>
      <trkpt lat="45.81653" lon="3.07139">
        <ele>489.6</ele>
        <time>2013-09-01T16:20:09Z</time>
      </trkpt>
      <trkpt lat="45.81649" lon="3.07199">
        <ele>490.5</ele>
        <time>2013-09-01T16:20:25Z</time>
      </trkpt>
      <trkpt lat="45.81647" lon="3.07233">
        <ele>489.1</ele>
        <time>2013-09-01T16:20:34Z</time>
      </trkpt>
      <trkpt lat="45.81638" lon="3.0729">
        <ele>488.9</ele>
        <time>2013-09-01T16:20:50Z</time>
      </trkpt>
      <trkpt lat="45.81649" lon="3.07339">
        <ele>487.2</ele>
        <time>2013-09-01T16:21:04Z</time>
      </trkpt>
      <trkpt lat="45.81664" lon="3.07321">
        <ele>483.4</ele>
        <time>2013-09-01T16:21:11Z</time>
      </trkpt>
      <trkpt lat="45.81692" lon="3.07316">
        <ele>476</ele>
        <time>2013-09-01T16:21:23Z</time>
      </trkpt>
      <trkpt lat="45.81725" lon="3.07321">
        <ele>467</ele>
        <time>2013-09-01T16:21:36Z</time>
      </trkpt>
      <trkpt lat="45.81737" lon="3.07344">
        <ele>462.2</ele>
        <time>2013-09-01T16:21:44Z</time>
      </trkpt>
      <trkpt lat="45.81746" lon="3.07469">
        <ele>454.9</ele>
        <time>2013-09-01T16:22:18Z</time>
      </trkpt>
      <trkpt lat="45.81788" lon="3.07464">
        <ele>442.2</ele>
        <time>2013-09-01T16:22:35Z</time>
      </trkpt>
      <trkpt lat="45.8185" lon="3.07513">
        <ele>424.5</ele>
        <time>2013-09-01T16:23:03Z</time>
      </trkpt>
      <trkpt lat="45.81939" lon="3.0755">
        <ele>405.6</ele>
        <time>2013-09-01T16:23:39Z</time>
      </trkpt>
      <trkpt lat="45.81992" lon="3.07524">
        <ele>396.9</ele>
        <time>2013-09-01T16:24:01Z</time>
      </trkpt>
      <trkpt lat="45.82023" lon="3.07547">
        <ele>392.8</ele>
        <time>2013-09-01T16:24:15Z</time>
      </trkpt>
      <trkpt lat="45.82037" lon="3.07594">
        <ele>390.8</ele>
        <time>2013-09-01T16:24:28Z</time>
      </trkpt>
      <trkpt lat="45.82181" lon="3.07589">
        <ele>382</ele>
        <time>2013-09-01T16:25:24Z</time>
      </trkpt>
      <trkpt lat="45.82206" lon="3.07588">
        <ele>375.5</ele>
        <time>2013-09-01T16:25:34Z</time>
      </trkpt>
      <trkpt lat="45.82202" lon="3.07713">
        <ele>375.6</ele>
        <time>2013-09-01T16:26:08Z</time>
      </trkpt>
      <trkpt lat="45.82217" lon="3.07815">
        <ele>375.7</ele>
        <time>2013-09-01T16:26:36Z</time>
      </trkpt>
    </trkseg>
  </trk>
  <trk>
    <name><![CDATA[TV 2022 Retour Long]]></name>
    <extensions>
      <line xmlns="http://www.topografix.com/GPX/gpx_style/0/2">
        <color>ff1900</color>
        <width>4</width>
          <extensions>
            <sens>1</sens>
          </extensions>
      </line>
    </extensions>
    <trkseg>
      <trkpt lat="45.57417" lon="2.80938">
        <ele>1038.2</ele>
        <time>2013-09-01T04:22:04Z</time>
      </trkpt>
      <trkpt lat="45.57466" lon="2.80905">
        <ele>1041.2</ele>
        <time>2013-09-01T04:22:44Z</time>
      </trkpt>
      <trkpt lat="45.57498" lon="2.8102">
        <ele>1050.5</ele>
        <time>2013-09-01T04:23:49Z</time>
      </trkpt>
      <trkpt lat="45.57591" lon="2.80983">
        <ele>1050.7</ele>
        <time>2013-09-01T04:25:01Z</time>
      </trkpt>
      <trkpt lat="45.57669" lon="2.80946">
        <ele>1051.8</ele>
        <time>2013-09-01T04:26:02Z</time>
      </trkpt>
      <trkpt lat="45.57709" lon="2.80911">
        <ele>1047.3</ele>
        <time>2013-09-01T04:26:37Z</time>
      </trkpt>
      <trkpt lat="45.57751" lon="2.80865">
        <ele>1041.5</ele>
        <time>2013-09-01T04:27:16Z</time>
      </trkpt>
      <trkpt lat="45.57834" lon="2.80769">
        <ele>1030.2</ele>
        <time>2013-09-01T04:28:36Z</time>
      </trkpt>
      <trkpt lat="45.57902" lon="2.80716">
        <ele>1027.5</ele>
        <time>2013-09-01T04:29:34Z</time>
      </trkpt>
      <trkpt lat="45.58036" lon="2.80652">
        <ele>1029.6</ele>
        <time>2013-09-01T04:31:20Z</time>
      </trkpt>
      <trkpt lat="45.58109" lon="2.80599">
        <ele>1030</ele>
        <time>2013-09-01T04:32:20Z</time>
      </trkpt>
      <trkpt lat="45.58158" lon="2.80547">
        <ele>1027.6</ele>
        <time>2013-09-01T04:33:06Z</time>
      </trkpt>
      <trkpt lat="45.58308" lon="2.80373">
        <ele>1016.8</ele>
        <time>2013-09-01T04:35:30Z</time>
      </trkpt>
      <trkpt lat="45.58348" lon="2.80369">
        <ele>1024.8</ele>
        <time>2013-09-01T04:36:00Z</time>
      </trkpt>
      <trkpt lat="45.5843" lon="2.80324">
        <ele>1029.3</ele>
        <time>2013-09-01T04:37:06Z</time>
      </trkpt>
      <trkpt lat="45.58683" lon="2.80163">
        <ele>1013.8</ele>
        <time>2013-09-01T04:40:32Z</time>
      </trkpt>
      <trkpt lat="45.58754" lon="2.80172">
        <ele>1011.4</ele>
        <time>2013-09-01T04:41:25Z</time>
      </trkpt>
      <trkpt lat="45.58791" lon="2.80223">
        <ele>1013.1</ele>
        <time>2013-09-01T04:42:03Z</time>
      </trkpt>
      <trkpt lat="45.58826" lon="2.80303">
        <ele>1012.6</ele>
        <time>2013-09-01T04:42:52Z</time>
      </trkpt>
      <trkpt lat="45.58821" lon="2.80335">
        <ele>1014.3</ele>
        <time>2013-09-01T04:43:09Z</time>
      </trkpt>
      <trkpt lat="45.58822" lon="2.80462">
        <ele>1020.5</ele>
        <time>2013-09-01T04:44:16Z</time>
      </trkpt>
      <trkpt lat="45.5884" lon="2.80609">
        <ele>1038.4</ele>
        <time>2013-09-01T04:45:35Z</time>
      </trkpt>
      <trkpt lat="45.5886" lon="2.80844">
        <ele>1042.8</ele>
        <time>2013-09-01T04:47:38Z</time>
      </trkpt>
      <trkpt lat="45.5884" lon="2.80902">
        <ele>1040.5</ele>
        <time>2013-09-01T04:48:11Z</time>
      </trkpt>
      <trkpt lat="45.58839" lon="2.80914">
        <ele>1056.6</ele>
        <time>2013-09-01T04:48:24Z</time>
      </trkpt>
      <trkpt lat="45.58947" lon="2.81029">
        <ele>1035.6</ele>
        <time>2013-09-01T04:50:05Z</time>
      </trkpt>
      <trkpt lat="45.58982" lon="2.81115">
        <ele>1040.3</ele>
        <time>2013-09-01T04:50:57Z</time>
      </trkpt>
      <trkpt lat="45.58991" lon="2.81312">
        <ele>1050.2</ele>
        <time>2013-09-01T04:52:40Z</time>
      </trkpt>
      <trkpt lat="45.59059" lon="2.81471">
        <ele>1069.9</ele>
        <time>2013-09-01T04:54:18Z</time>
      </trkpt>
      <trkpt lat="45.59132" lon="2.81547">
        <ele>1076.3</ele>
        <time>2013-09-01T04:55:25Z</time>
      </trkpt>
      <trkpt lat="45.59212" lon="2.81703">
        <ele>1085.8</ele>
        <time>2013-09-01T04:57:06Z</time>
      </trkpt>
      <trkpt lat="45.59218" lon="2.81803">
        <ele>1098.3</ele>
        <time>2013-09-01T04:57:59Z</time>
      </trkpt>
      <trkpt lat="45.59236" lon="2.81886">
        <ele>1113.5</ele>
        <time>2013-09-01T04:58:46Z</time>
      </trkpt>
      <trkpt lat="45.59258" lon="2.81974">
        <ele>1130.5</ele>
        <time>2013-09-01T04:59:35Z</time>
      </trkpt>
      <trkpt lat="45.59276" lon="2.8204">
        <ele>1144.1</ele>
        <time>2013-09-01T05:00:13Z</time>
      </trkpt>
      <trkpt lat="45.59285" lon="2.82032">
        <ele>1144.6</ele>
        <time>2013-09-01T05:00:21Z</time>
      </trkpt>
      <trkpt lat="45.59288" lon="2.81962">
        <ele>1130.4</ele>
        <time>2013-09-01T05:00:59Z</time>
      </trkpt>
      <trkpt lat="45.59294" lon="2.81934">
        <ele>1124.1</ele>
        <time>2013-09-01T05:01:15Z</time>
      </trkpt>
      <trkpt lat="45.59313" lon="2.81907">
        <ele>1117.2</ele>
        <time>2013-09-01T05:01:35Z</time>
      </trkpt>
      <trkpt lat="45.59322" lon="2.81909">
        <ele>1117.5</ele>
        <time>2013-09-01T05:01:41Z</time>
      </trkpt>
      <trkpt lat="45.59327" lon="2.81923">
        <ele>1120.8</ele>
        <time>2013-09-01T05:01:50Z</time>
      </trkpt>
      <trkpt lat="45.59321" lon="2.81953">
        <ele>1130.2</ele>
        <time>2013-09-01T05:02:07Z</time>
      </trkpt>
      <trkpt lat="45.59315" lon="2.81986">
        <ele>1139.2</ele>
        <time>2013-09-01T05:02:26Z</time>
      </trkpt>
      <trkpt lat="45.59321" lon="2.82068">
        <ele>1160.6</ele>
        <time>2013-09-01T05:03:11Z</time>
      </trkpt>
      <trkpt lat="45.59349" lon="2.82141">
        <ele>1176.9</ele>
        <time>2013-09-01T05:03:56Z</time>
      </trkpt>
      <trkpt lat="45.59366" lon="2.82222">
        <ele>1189.3</ele>
        <time>2013-09-01T05:04:41Z</time>
      </trkpt>
      <trkpt lat="45.59399" lon="2.82347">
        <ele>1207</ele>
        <time>2013-09-01T05:05:52Z</time>
      </trkpt>
      <trkpt lat="45.59448" lon="2.82432">
        <ele>1214.5</ele>
        <time>2013-09-01T05:06:49Z</time>
      </trkpt>
      <trkpt lat="45.59449" lon="2.82396">
        <ele>1215.3</ele>
        <time>2013-09-01T05:07:08Z</time>
      </trkpt>
      <trkpt lat="45.59464" lon="2.82395">
        <ele>1217</ele>
        <time>2013-09-01T05:07:19Z</time>
      </trkpt>
      <trkpt lat="45.59561" lon="2.82585">
        <ele>1227.5</ele>
        <time>2013-09-01T05:09:22Z</time>
      </trkpt>
      <trkpt lat="45.59669" lon="2.82797">
        <ele>1235.7</ele>
        <time>2013-09-01T05:11:38Z</time>
      </trkpt>
      <trkpt lat="45.59755" lon="2.82911">
        <ele>1246.9</ele>
        <time>2013-09-01T05:13:06Z</time>
      </trkpt>
      <trkpt lat="45.59774" lon="2.82991">
        <ele>1245.8</ele>
        <time>2013-09-01T05:13:50Z</time>
      </trkpt>
      <trkpt lat="45.5975" lon="2.83044">
        <ele>1247.6</ele>
        <time>2013-09-01T05:14:23Z</time>
      </trkpt>
      <trkpt lat="45.59736" lon="2.83091">
        <ele>1249.9</ele>
        <time>2013-09-01T05:14:50Z</time>
      </trkpt>
      <trkpt lat="45.5976" lon="2.83108">
        <ele>1251.6</ele>
        <time>2013-09-01T05:15:10Z</time>
      </trkpt>
      <trkpt lat="45.59807" lon="2.83123">
        <ele>1250.9</ele>
        <time>2013-09-01T05:15:46Z</time>
      </trkpt>
      <trkpt lat="45.59826" lon="2.83142">
        <ele>1251.4</ele>
        <time>2013-09-01T05:16:03Z</time>
      </trkpt>
      <trkpt lat="45.59893" lon="2.83309">
        <ele>1262.8</ele>
        <time>2013-09-01T05:17:44Z</time>
      </trkpt>
      <trkpt lat="45.59936" lon="2.83421">
        <ele>1270.5</ele>
        <time>2013-09-01T05:18:50Z</time>
      </trkpt>
      <trkpt lat="45.5999" lon="2.83576">
        <ele>1279.4</ele>
        <time>2013-09-01T05:20:21Z</time>
      </trkpt>
      <trkpt lat="45.60023" lon="2.83715">
        <ele>1287.5</ele>
        <time>2013-09-01T05:21:37Z</time>
      </trkpt>
      <trkpt lat="45.60041" lon="2.83834">
        <ele>1294.6</ele>
        <time>2013-09-01T05:22:41Z</time>
      </trkpt>
      <trkpt lat="45.60061" lon="2.83927">
        <ele>1299.2</ele>
        <time>2013-09-01T05:23:32Z</time>
      </trkpt>
      <trkpt lat="45.60082" lon="2.84035">
        <ele>1307.5</ele>
        <time>2013-09-01T05:24:30Z</time>
      </trkpt>
      <trkpt lat="45.60084" lon="2.84115">
        <ele>1314.1</ele>
        <time>2013-09-01T05:25:12Z</time>
      </trkpt>
      <trkpt lat="45.60076" lon="2.84187">
        <ele>1320.1</ele>
        <time>2013-09-01T05:25:51Z</time>
      </trkpt>
      <trkpt lat="45.60067" lon="2.84225">
        <ele>1323.3</ele>
        <time>2013-09-01T05:26:11Z</time>
      </trkpt>
      <trkpt lat="45.60051" lon="2.8426">
        <ele>1327.7</ele>
        <time>2013-09-01T05:26:33Z</time>
      </trkpt>
      <trkpt lat="45.60051" lon="2.84313">
        <ele>1331.4</ele>
        <time>2013-09-01T05:27:01Z</time>
      </trkpt>
      <trkpt lat="45.60046" lon="2.84352">
        <ele>1334.5</ele>
        <time>2013-09-01T05:27:21Z</time>
      </trkpt>
      <trkpt lat="45.60033" lon="2.84395">
        <ele>1338.6</ele>
        <time>2013-09-01T05:27:46Z</time>
      </trkpt>
      <trkpt lat="45.60006" lon="2.84473">
        <ele>1345.3</ele>
        <time>2013-09-01T05:28:32Z</time>
      </trkpt>
      <trkpt lat="45.59964" lon="2.84509">
        <ele>1350.8</ele>
        <time>2013-09-01T05:29:08Z</time>
      </trkpt>
      <trkpt lat="45.59999" lon="2.8466">
        <ele>1355.6</ele>
        <time>2013-09-01T05:30:31Z</time>
      </trkpt>
      <trkpt lat="45.60266" lon="2.84993">
        <ele>1377.7</ele>
        <time>2013-09-01T05:34:55Z</time>
      </trkpt>
      <trkpt lat="45.60425" lon="2.85117">
        <ele>1377.8</ele>
        <time>2013-09-01T05:37:10Z</time>
      </trkpt>
      <trkpt lat="45.60438" lon="2.85134">
        <ele>1378.2</ele>
        <time>2013-09-01T05:37:23Z</time>
      </trkpt>
      <trkpt lat="45.60452" lon="2.85182">
        <ele>1380.3</ele>
        <time>2013-09-01T05:37:50Z</time>
      </trkpt>
      <trkpt lat="45.60485" lon="2.85253">
        <ele>1384.1</ele>
        <time>2013-09-01T05:38:35Z</time>
      </trkpt>
      <trkpt lat="45.6053" lon="2.85304">
        <ele>1387.3</ele>
        <time>2013-09-01T05:39:18Z</time>
      </trkpt>
      <trkpt lat="45.60573" lon="2.85388">
        <ele>1393.4</ele>
        <time>2013-09-01T05:40:12Z</time>
      </trkpt>
      <trkpt lat="45.60584" lon="2.85396">
        <ele>1394.3</ele>
        <time>2013-09-01T05:40:21Z</time>
      </trkpt>
      <trkpt lat="45.60691" lon="2.85419">
        <ele>1399</ele>
        <time>2013-09-01T05:41:42Z</time>
      </trkpt>
      <trkpt lat="45.60769" lon="2.85421">
        <ele>1401.3</ele>
        <time>2013-09-01T05:42:40Z</time>
      </trkpt>
      <trkpt lat="45.6088" lon="2.85442">
        <ele>1403.7</ele>
        <time>2013-09-01T05:44:03Z</time>
      </trkpt>
      <trkpt lat="45.60934" lon="2.85481">
        <ele>1406.8</ele>
        <time>2013-09-01T05:44:48Z</time>
      </trkpt>
      <trkpt lat="45.61037" lon="2.85574">
        <ele>1414.7</ele>
        <time>2013-09-01T05:46:19Z</time>
      </trkpt>
      <trkpt lat="45.61118" lon="2.85664">
        <ele>1410</ele>
        <time>2013-09-01T05:47:35Z</time>
      </trkpt>
      <trkpt lat="45.61159" lon="2.85754">
        <ele>1402</ele>
        <time>2013-09-01T05:48:32Z</time>
      </trkpt>
      <trkpt lat="45.61263" lon="2.85983">
        <ele>1389.5</ele>
        <time>2013-09-01T05:50:54Z</time>
      </trkpt>
      <trkpt lat="45.61294" lon="2.86063">
        <ele>1388.3</ele>
        <time>2013-09-01T05:51:41Z</time>
      </trkpt>
      <trkpt lat="45.61283" lon="2.86139">
        <ele>1383.1</ele>
        <time>2013-09-01T05:52:22Z</time>
      </trkpt>
      <trkpt lat="45.61263" lon="2.8612">
        <ele>1378.7</ele>
        <time>2013-09-01T05:52:39Z</time>
      </trkpt>
      <trkpt lat="45.61234" lon="2.86081">
        <ele>1374.9</ele>
        <time>2013-09-01T05:53:09Z</time>
      </trkpt>
      <trkpt lat="45.61206" lon="2.86053">
        <ele>1371.2</ele>
        <time>2013-09-01T05:53:35Z</time>
      </trkpt>
      <trkpt lat="45.612" lon="2.86068">
        <ele>1369.3</ele>
        <time>2013-09-01T05:53:44Z</time>
      </trkpt>
      <trkpt lat="45.61215" lon="2.8612">
        <ele>1367.9</ele>
        <time>2013-09-01T05:54:13Z</time>
      </trkpt>
      <trkpt lat="45.61215" lon="2.86172">
        <ele>1362.9</ele>
        <time>2013-09-01T05:54:41Z</time>
      </trkpt>
      <trkpt lat="45.61225" lon="2.86232">
        <ele>1363.7</ele>
        <time>2013-09-01T05:55:13Z</time>
      </trkpt>
      <trkpt lat="45.61179" lon="2.86372">
        <ele>1352.8</ele>
        <time>2013-09-01T05:56:34Z</time>
      </trkpt>
      <trkpt lat="45.61155" lon="2.86448">
        <ele>1346.2</ele>
        <time>2013-09-01T05:57:17Z</time>
      </trkpt>
      <trkpt lat="45.61141" lon="2.86526">
        <ele>1343.1</ele>
        <time>2013-09-01T05:57:59Z</time>
      </trkpt>
      <trkpt lat="45.61134" lon="2.86523">
        <ele>1341.4</ele>
        <time>2013-09-01T05:58:05Z</time>
      </trkpt>
      <trkpt lat="45.61109" lon="2.86422">
        <ele>1331.9</ele>
        <time>2013-09-01T05:59:01Z</time>
      </trkpt>
      <trkpt lat="45.61098" lon="2.86432">
        <ele>1330</ele>
        <time>2013-09-01T05:59:11Z</time>
      </trkpt>
      <trkpt lat="45.61048" lon="2.865">
        <ele>1321.6</ele>
        <time>2013-09-01T06:00:03Z</time>
      </trkpt>
      <trkpt lat="45.61039" lon="2.86547">
        <ele>1318.5</ele>
        <time>2013-09-01T06:00:28Z</time>
      </trkpt>
      <trkpt lat="45.60999" lon="2.8657">
        <ele>1305.5</ele>
        <time>2013-09-01T06:01:01Z</time>
      </trkpt>
      <trkpt lat="45.60988" lon="2.86593">
        <ele>1304.1</ele>
        <time>2013-09-01T06:01:16Z</time>
      </trkpt>
      <trkpt lat="45.60985" lon="2.86713">
        <ele>1295.6</ele>
        <time>2013-09-01T06:02:18Z</time>
      </trkpt>
      <trkpt lat="45.61015" lon="2.86895">
        <ele>1286.7</ele>
        <time>2013-09-01T06:03:56Z</time>
      </trkpt>
      <trkpt lat="45.60963" lon="2.86988">
        <ele>1274.6</ele>
        <time>2013-09-01T06:04:59Z</time>
      </trkpt>
      <trkpt lat="45.60931" lon="2.87139">
        <ele>1266.7</ele>
        <time>2013-09-01T06:06:21Z</time>
      </trkpt>
      <trkpt lat="45.60933" lon="2.87175">
        <ele>1264</ele>
        <time>2013-09-01T06:06:40Z</time>
      </trkpt>
      <trkpt lat="45.60952" lon="2.87178">
        <ele>1260</ele>
        <time>2013-09-01T06:06:55Z</time>
      </trkpt>
      <trkpt lat="45.60972" lon="2.87149">
        <ele>1260.7</ele>
        <time>2013-09-01T06:07:16Z</time>
      </trkpt>
      <trkpt lat="45.60985" lon="2.87105">
        <ele>1263.6</ele>
        <time>2013-09-01T06:07:41Z</time>
      </trkpt>
      <trkpt lat="45.61006" lon="2.87092">
        <ele>1263.9</ele>
        <time>2013-09-01T06:07:58Z</time>
      </trkpt>
      <trkpt lat="45.61125" lon="2.87308">
        <ele>1243.1</ele>
        <time>2013-09-01T06:10:22Z</time>
      </trkpt>
      <trkpt lat="45.61188" lon="2.87547">
        <ele>1226.4</ele>
        <time>2013-09-01T06:12:35Z</time>
      </trkpt>
      <trkpt lat="45.61278" lon="2.87674">
        <ele>1216.4</ele>
        <time>2013-09-01T06:14:09Z</time>
      </trkpt>
      <trkpt lat="45.61242" lon="2.87687">
        <ele>1211.7</ele>
        <time>2013-09-01T06:14:37Z</time>
      </trkpt>
      <trkpt lat="45.61166" lon="2.87664">
        <ele>1209.4</ele>
        <time>2013-09-01T06:15:35Z</time>
      </trkpt>
      <trkpt lat="45.61107" lon="2.87669">
        <ele>1211.6</ele>
        <time>2013-09-01T06:16:19Z</time>
      </trkpt>
      <trkpt lat="45.61082" lon="2.87768">
        <ele>1217.1</ele>
        <time>2013-09-01T06:17:14Z</time>
      </trkpt>
      <trkpt lat="45.61071" lon="2.8768">
        <ele>1221.1</ele>
        <time>2013-09-01T06:18:01Z</time>
      </trkpt>
      <trkpt lat="45.61064" lon="2.87677">
        <ele>1223.1</ele>
        <time>2013-09-01T06:18:06Z</time>
      </trkpt>
      <trkpt lat="45.61051" lon="2.88075">
        <ele>1221.9</ele>
        <time>2013-09-01T06:21:33Z</time>
      </trkpt>
      <trkpt lat="45.61057" lon="2.88299">
        <ele>1225.5</ele>
        <time>2013-09-01T06:23:30Z</time>
      </trkpt>
      <trkpt lat="45.6112" lon="2.88718">
        <ele>1235.5</ele>
        <time>2013-09-01T06:27:13Z</time>
      </trkpt>
      <trkpt lat="45.61097" lon="2.89386">
        <ele>1238.6</ele>
        <time>2013-09-01T06:33:02Z</time>
      </trkpt>
      <trkpt lat="45.61096" lon="2.89501">
        <ele>1236.9</ele>
        <time>2013-09-01T06:34:02Z</time>
      </trkpt>
      <trkpt lat="45.61074" lon="2.89501">
        <ele>1238.1</ele>
        <time>2013-09-01T06:34:18Z</time>
      </trkpt>
      <trkpt lat="45.60954" lon="2.89462">
        <ele>1239.2</ele>
        <time>2013-09-01T06:35:49Z</time>
      </trkpt>
      <trkpt lat="45.60898" lon="2.89437">
        <ele>1236.6</ele>
        <time>2013-09-01T06:36:34Z</time>
      </trkpt>
      <trkpt lat="45.60853" lon="2.89413">
        <ele>1232.8</ele>
        <time>2013-09-01T06:37:09Z</time>
      </trkpt>
      <trkpt lat="45.60822" lon="2.89421">
        <ele>1229.2</ele>
        <time>2013-09-01T06:37:32Z</time>
      </trkpt>
      <trkpt lat="45.60787" lon="2.89463">
        <ele>1225.5</ele>
        <time>2013-09-01T06:38:07Z</time>
      </trkpt>
      <trkpt lat="45.60751" lon="2.89561">
        <ele>1218.4</ele>
        <time>2013-09-01T06:39:04Z</time>
      </trkpt>
      <trkpt lat="45.60706" lon="2.89658">
        <ele>1205.7</ele>
        <time>2013-09-01T06:40:06Z</time>
      </trkpt>
      <trkpt lat="45.60643" lon="2.8984">
        <ele>1193</ele>
        <time>2013-09-01T06:41:52Z</time>
      </trkpt>
      <trkpt lat="45.60518" lon="2.90093">
        <ele>1168</ele>
        <time>2013-09-01T06:44:34Z</time>
      </trkpt>
      <trkpt lat="45.60459" lon="2.90262">
        <ele>1155.9</ele>
        <time>2013-09-01T06:46:13Z</time>
      </trkpt>
      <trkpt lat="45.60343" lon="2.90438">
        <ele>1133.4</ele>
        <time>2013-09-01T06:48:20Z</time>
      </trkpt>
      <trkpt lat="45.60343" lon="2.90496">
        <ele>1133.4</ele>
        <time>2013-09-01T06:48:50Z</time>
      </trkpt>
      <trkpt lat="45.60136" lon="2.90626">
        <ele>1109.7</ele>
        <time>2013-09-01T06:51:39Z</time>
      </trkpt>
      <trkpt lat="45.60033" lon="2.90775">
        <ele>1095.8</ele>
        <time>2013-09-01T06:53:29Z</time>
      </trkpt>
      <trkpt lat="45.59943" lon="2.90853">
        <ele>1086</ele>
        <time>2013-09-01T06:54:47Z</time>
      </trkpt>
      <trkpt lat="45.59853" lon="2.90964">
        <ele>1078.8</ele>
        <time>2013-09-01T06:56:15Z</time>
      </trkpt>
      <trkpt lat="45.59736" lon="2.91048">
        <ele>1085.2</ele>
        <time>2013-09-01T06:57:53Z</time>
      </trkpt>
      <trkpt lat="45.5966" lon="2.91185">
        <ele>1094.2</ele>
        <time>2013-09-01T06:59:24Z</time>
      </trkpt>
      <trkpt lat="45.5939" lon="2.91457">
        <ele>1085.2</ele>
        <time>2013-09-01T07:03:30Z</time>
      </trkpt>
      <trkpt lat="45.59363" lon="2.91538">
        <ele>1082.8</ele>
        <time>2013-09-01T07:04:17Z</time>
      </trkpt>
      <trkpt lat="45.59306" lon="2.91618">
        <ele>1076.3</ele>
        <time>2013-09-01T07:05:16Z</time>
      </trkpt>
      <trkpt lat="45.59266" lon="2.91689">
        <ele>1067.3</ele>
        <time>2013-09-01T07:05:40Z</time>
      </trkpt>
      <trkpt lat="45.59252" lon="2.91728">
        <ele>1065.5</ele>
        <time>2013-09-01T07:05:55Z</time>
      </trkpt>
      <trkpt lat="45.59248" lon="2.9177">
        <ele>1067.1</ele>
        <time>2013-09-01T07:06:08Z</time>
      </trkpt>
      <trkpt lat="45.5924" lon="2.91808">
        <ele>1066.4</ele>
        <time>2013-09-01T07:06:57Z</time>
      </trkpt>
      <trkpt lat="45.59241" lon="2.9188">
        <ele>1061.7</ele>
        <time>2013-09-01T07:07:32Z</time>
      </trkpt>
      <trkpt lat="45.59159" lon="2.91898">
        <ele>1051.3</ele>
        <time>2013-09-01T07:07:43Z</time>
      </trkpt>
      <trkpt lat="45.59141" lon="2.91836">
        <ele>1050.6</ele>
        <time>2013-09-01T07:08:10Z</time>
      </trkpt>
      <trkpt lat="45.59113" lon="2.91766">
        <ele>1045.9</ele>
        <time>2013-09-01T07:08:24Z</time>
      </trkpt>
      <trkpt lat="45.59102" lon="2.91748">
        <ele>1043</ele>
        <time>2013-09-01T07:08:55Z</time>
      </trkpt>
      <trkpt lat="45.59092" lon="2.91739">
        <ele>1041</ele>
        <time>2013-09-01T07:09:17Z</time>
      </trkpt>
      <trkpt lat="45.59078" lon="2.91746">
        <ele>1038.2</ele>
        <time>2013-09-01T07:09:40Z</time>
      </trkpt>
      <trkpt lat="45.5906" lon="2.91759">
        <ele>1037.2</ele>
        <time>2013-09-01T07:09:48Z</time>
      </trkpt>
      <trkpt lat="45.59055" lon="2.91765">
        <ele>1038.1</ele>
        <time>2013-09-01T07:10:11Z</time>
      </trkpt>
      <trkpt lat="45.59042" lon="2.9178">
        <ele>1037.5</ele>
        <time>2013-09-01T07:10:24Z</time>
      </trkpt>
      <trkpt lat="45.59" lon="2.91783">
        <ele>1036.7</ele>
        <time>2013-09-01T07:10:55Z</time>
      </trkpt>
      <trkpt lat="45.58951" lon="2.91782">
        <ele>1038.7</ele>
        <time>2013-09-01T07:11:32Z</time>
      </trkpt>
      <trkpt lat="45.5893" lon="2.91771">
        <ele>1040.3</ele>
        <time>2013-09-01T07:11:48Z</time>
      </trkpt>
      <trkpt lat="45.58916" lon="2.91785">
        <ele>1041.4</ele>
        <time>2013-09-01T07:12:01Z</time>
      </trkpt>
      <trkpt lat="45.58904" lon="2.91805">
        <ele>1042.1</ele>
        <time>2013-09-01T07:12:15Z</time>
      </trkpt>
      <trkpt lat="45.58865" lon="2.91791">
        <ele>1045.3</ele>
        <time>2013-09-01T07:12:46Z</time>
      </trkpt>
      <trkpt lat="45.58799" lon="2.9177">
        <ele>1049.2</ele>
        <time>2013-09-01T07:13:36Z</time>
      </trkpt>
      <trkpt lat="45.58766" lon="2.91776">
        <ele>1050.3</ele>
        <time>2013-09-01T07:14:01Z</time>
      </trkpt>
      <trkpt lat="45.58537" lon="2.91892">
        <ele>1052</ele>
        <time>2013-09-01T07:17:01Z</time>
      </trkpt>
      <trkpt lat="45.58492" lon="2.91937">
        <ele>1049.7</ele>
        <time>2013-09-01T07:17:42Z</time>
      </trkpt>
      <trkpt lat="45.58317" lon="2.92061">
        <ele>1065.3</ele>
        <time>2013-09-01T07:20:08Z</time>
      </trkpt>
      <trkpt lat="45.58317" lon="2.92145">
        <ele>1064.9</ele>
        <time>2013-09-01T07:20:52Z</time>
      </trkpt>
      <trkpt lat="45.58276" lon="2.92301">
        <ele>1066.1</ele>
        <time>2013-09-01T07:22:19Z</time>
      </trkpt>
      <trkpt lat="45.58267" lon="2.92554">
        <ele>1038.7</ele>
        <time>2013-09-01T07:24:32Z</time>
      </trkpt>
      <trkpt lat="45.58252" lon="2.92502">
        <ele>1040.4</ele>
        <time>2013-09-01T07:25:02Z</time>
      </trkpt>
      <trkpt lat="45.5824" lon="2.92473">
        <ele>1044.1</ele>
        <time>2013-09-01T07:25:20Z</time>
      </trkpt>
      <trkpt lat="45.58214" lon="2.92449">
        <ele>1044.1</ele>
        <time>2013-09-01T07:25:42Z</time>
      </trkpt>
      <trkpt lat="45.58194" lon="2.92426">
        <ele>1046.3</ele>
        <time>2013-09-01T07:26:02Z</time>
      </trkpt>
      <trkpt lat="45.58138" lon="2.9243">
        <ele>1030.1</ele>
        <time>2013-09-01T07:26:45Z</time>
      </trkpt>
      <trkpt lat="45.58115" lon="2.92447">
        <ele>1016.9</ele>
        <time>2013-09-01T07:27:07Z</time>
      </trkpt>
      <trkpt lat="45.58065" lon="2.92498">
        <ele>983.8</ele>
        <time>2013-09-01T07:27:57Z</time>
      </trkpt>
      <trkpt lat="45.58011" lon="2.92479">
        <ele>978.9</ele>
        <time>2013-09-01T07:28:39Z</time>
      </trkpt>
      <trkpt lat="45.57993" lon="2.92484">
        <ele>972.4</ele>
        <time>2013-09-01T07:28:53Z</time>
      </trkpt>
      <trkpt lat="45.57953" lon="2.92461">
        <ele>976</ele>
        <time>2013-09-01T07:29:25Z</time>
      </trkpt>
      <trkpt lat="45.57954" lon="2.92414">
        <ele>994.5</ele>
        <time>2013-09-01T07:29:53Z</time>
      </trkpt>
      <trkpt lat="45.57961" lon="2.92368">
        <ele>1010.2</ele>
        <time>2013-09-01T07:30:19Z</time>
      </trkpt>
      <trkpt lat="45.57968" lon="2.92342">
        <ele>1015.5</ele>
        <time>2013-09-01T07:30:34Z</time>
      </trkpt>
      <trkpt lat="45.57947" lon="2.92324">
        <ele>1013.2</ele>
        <time>2013-09-01T07:30:52Z</time>
      </trkpt>
      <trkpt lat="45.57933" lon="2.92301">
        <ele>1012.9</ele>
        <time>2013-09-01T07:31:09Z</time>
      </trkpt>
      <trkpt lat="45.57887" lon="2.92282">
        <ele>1003.9</ele>
        <time>2013-09-01T07:31:45Z</time>
      </trkpt>
      <trkpt lat="45.57919" lon="2.92087">
        <ele>1000.7</ele>
        <time>2013-09-01T07:33:29Z</time>
      </trkpt>
      <trkpt lat="45.57937" lon="2.91954">
        <ele>990.1</ele>
        <time>2013-09-01T07:34:40Z</time>
      </trkpt>
      <trkpt lat="45.57937" lon="2.91843">
        <ele>982.4</ele>
        <time>2013-09-01T07:35:38Z</time>
      </trkpt>
      <trkpt lat="45.57927" lon="2.91795">
        <ele>976.5</ele>
        <time>2013-09-01T07:36:04Z</time>
      </trkpt>
      <trkpt lat="45.57937" lon="2.9175">
        <ele>976.3</ele>
        <time>2013-09-01T07:36:29Z</time>
      </trkpt>
      <trkpt lat="45.57921" lon="2.91717">
        <ele>970.2</ele>
        <time>2013-09-01T07:36:50Z</time>
      </trkpt>
      <trkpt lat="45.57915" lon="2.9167">
        <ele>965.7</ele>
        <time>2013-09-01T07:37:15Z</time>
      </trkpt>
      <trkpt lat="45.57907" lon="2.91646">
        <ele>963</ele>
        <time>2013-09-01T07:37:29Z</time>
      </trkpt>
      <trkpt lat="45.57871" lon="2.91645">
        <ele>959.5</ele>
        <time>2013-09-01T07:37:56Z</time>
      </trkpt>
      <trkpt lat="45.57873" lon="2.916">
        <ele>958</ele>
        <time>2013-09-01T07:38:19Z</time>
      </trkpt>
      <trkpt lat="45.57867" lon="2.91549">
        <ele>954.8</ele>
        <time>2013-09-01T07:38:46Z</time>
      </trkpt>
      <trkpt lat="45.57841" lon="2.91494">
        <ele>948.5</ele>
        <time>2013-09-01T07:39:21Z</time>
      </trkpt>
      <trkpt lat="45.57829" lon="2.91459">
        <ele>941.9</ele>
        <time>2013-09-01T07:39:42Z</time>
      </trkpt>
      <trkpt lat="45.57795" lon="2.9144">
        <ele>933</ele>
        <time>2013-09-01T07:40:09Z</time>
      </trkpt>
      <trkpt lat="45.57759" lon="2.91444">
        <ele>921.8</ele>
        <time>2013-09-01T07:40:38Z</time>
      </trkpt>
      <trkpt lat="45.57731" lon="2.91526">
        <ele>918</ele>
        <time>2013-09-01T07:41:25Z</time>
      </trkpt>
      <trkpt lat="45.57719" lon="2.91539">
        <ele>914.6</ele>
        <time>2013-09-01T07:41:37Z</time>
      </trkpt>
      <trkpt lat="45.57711" lon="2.91563">
        <ele>915.3</ele>
        <time>2013-09-01T07:41:51Z</time>
      </trkpt>
      <trkpt lat="45.57691" lon="2.91575">
        <ele>909.7</ele>
        <time>2013-09-01T07:42:07Z</time>
      </trkpt>
      <trkpt lat="45.57661" lon="2.91629">
        <ele>908.5</ele>
        <time>2013-09-01T07:42:43Z</time>
      </trkpt>
      <trkpt lat="45.57627" lon="2.91675">
        <ele>905.2</ele>
        <time>2013-09-01T07:43:18Z</time>
      </trkpt>
      <trkpt lat="45.57602" lon="2.91701">
        <ele>901.3</ele>
        <time>2013-09-01T07:43:41Z</time>
      </trkpt>
      <trkpt lat="45.57555" lon="2.91767">
        <ele>897.6</ele>
        <time>2013-09-01T07:44:30Z</time>
      </trkpt>
      <trkpt lat="45.57534" lon="2.91784">
        <ele>894.7</ele>
        <time>2013-09-01T07:44:48Z</time>
      </trkpt>
      <trkpt lat="45.57545" lon="2.91745">
        <ele>889.9</ele>
        <time>2013-09-01T07:45:10Z</time>
      </trkpt>
      <trkpt lat="45.57547" lon="2.91724">
        <ele>886.8</ele>
        <time>2013-09-01T07:45:21Z</time>
      </trkpt>
      <trkpt lat="45.57533" lon="2.91701">
        <ele>879.7</ele>
        <time>2013-09-01T07:45:38Z</time>
      </trkpt>
      <trkpt lat="45.57507" lon="2.91711">
        <ele>876.9</ele>
        <time>2013-09-01T07:45:57Z</time>
      </trkpt>
      <trkpt lat="45.57502" lon="2.91673">
        <ele>874.4</ele>
        <time>2013-09-01T07:46:18Z</time>
      </trkpt>
      <trkpt lat="45.57487" lon="2.91649">
        <ele>873</ele>
        <time>2013-09-01T07:46:35Z</time>
      </trkpt>
      <trkpt lat="45.57364" lon="2.91573">
        <ele>875</ele>
        <time>2013-09-01T07:48:14Z</time>
      </trkpt>
      <trkpt lat="45.57335" lon="2.9154">
        <ele>875</ele>
        <time>2013-09-01T07:48:42Z</time>
      </trkpt>
      <trkpt lat="45.57278" lon="2.91471">
        <ele>875</ele>
        <time>2013-09-01T07:49:37Z</time>
      </trkpt>
      <trkpt lat="45.57216" lon="2.91438">
        <ele>876</ele>
        <time>2013-09-01T07:50:27Z</time>
      </trkpt>
      <trkpt lat="45.57169" lon="2.91359">
        <ele>876.3</ele>
        <time>2013-09-01T07:51:21Z</time>
      </trkpt>
      <trkpt lat="45.57083" lon="2.91356">
        <ele>877</ele>
        <time>2013-09-01T07:52:25Z</time>
      </trkpt>
      <trkpt lat="45.5703" lon="2.913">
        <ele>878</ele>
        <time>2013-09-01T07:53:14Z</time>
      </trkpt>
      <trkpt lat="45.56999" lon="2.91287">
        <ele>878</ele>
        <time>2013-09-01T07:53:38Z</time>
      </trkpt>
      <trkpt lat="45.56968" lon="2.91245">
        <ele>878</ele>
        <time>2013-09-01T07:54:10Z</time>
      </trkpt>
      <trkpt lat="45.56967" lon="2.91215">
        <ele>878</ele>
        <time>2013-09-01T07:54:25Z</time>
      </trkpt>
      <trkpt lat="45.56976" lon="2.91133">
        <ele>877.1</ele>
        <time>2013-09-01T07:55:08Z</time>
      </trkpt>
      <trkpt lat="45.56975" lon="2.91115">
        <ele>877</ele>
        <time>2013-09-01T07:55:18Z</time>
      </trkpt>
      <trkpt lat="45.56952" lon="2.91088">
        <ele>879.4</ele>
        <time>2013-09-01T07:55:40Z</time>
      </trkpt>
      <trkpt lat="45.56913" lon="2.91144">
        <ele>877.9</ele>
        <time>2013-09-01T07:56:36Z</time>
      </trkpt>
      <trkpt lat="45.5688" lon="2.91113">
        <ele>876.2</ele>
        <time>2013-09-01T07:57:05Z</time>
      </trkpt>
      <trkpt lat="45.56858" lon="2.9108">
        <ele>876.2</ele>
        <time>2013-09-01T07:57:28Z</time>
      </trkpt>
      <trkpt lat="45.56829" lon="2.91076">
        <ele>877.9</ele>
        <time>2013-09-01T07:57:50Z</time>
      </trkpt>
      <trkpt lat="45.56784" lon="2.91243">
        <ele>878.8</ele>
        <time>2013-09-01T07:59:23Z</time>
      </trkpt>
      <trkpt lat="45.56752" lon="2.91517">
        <ele>898.7</ele>
        <time>2013-09-01T08:01:49Z</time>
      </trkpt>
      <trkpt lat="45.56746" lon="2.91688">
        <ele>893.5</ele>
        <time>2013-09-01T08:03:18Z</time>
      </trkpt>
      <trkpt lat="45.5678" lon="2.91813">
        <ele>885.1</ele>
        <time>2013-09-01T08:04:28Z</time>
      </trkpt>
      <trkpt lat="45.56738" lon="2.92065">
        <ele>885.5</ele>
        <time>2013-09-01T08:06:43Z</time>
      </trkpt>
      <trkpt lat="45.56704" lon="2.92198">
        <ele>893.8</ele>
        <time>2013-09-01T08:07:57Z</time>
      </trkpt>
      <trkpt lat="45.5671" lon="2.92272">
        <ele>901.4</ele>
        <time>2013-09-01T08:08:36Z</time>
      </trkpt>
      <trkpt lat="45.5676" lon="2.92406">
        <ele>892.2</ele>
        <time>2013-09-01T08:09:55Z</time>
      </trkpt>
      <trkpt lat="45.56768" lon="2.92595">
        <ele>890.5</ele>
        <time>2013-09-01T08:11:34Z</time>
      </trkpt>
      <trkpt lat="45.56772" lon="2.92825">
        <ele>887.9</ele>
        <time>2013-09-01T08:13:34Z</time>
      </trkpt>
      <trkpt lat="45.56789" lon="2.92886">
        <ele>882.4</ele>
        <time>2013-09-01T08:14:08Z</time>
      </trkpt>
      <trkpt lat="45.56787" lon="2.92896">
        <ele>800.4</ele>
        <time>2013-09-01T08:15:04Z</time>
        <extensions>
          <gpxtpx:TrackPointExtension xmlns:gpxtpx="http://www.garmin.com/xmlschemas/TrackPointExtension/v1">
            <gpxtpx:hr>130</gpxtpx:hr>
          </gpxtpx:TrackPointExtension>
        </extensions>
      </trkpt>
      <trkpt lat="45.56774" lon="2.93102">
        <ele>800.4</ele>
        <time>2013-09-01T08:15:33Z</time>
        <extensions>
          <gpxtpx:TrackPointExtension xmlns:gpxtpx="http://www.garmin.com/xmlschemas/TrackPointExtension/v1">
            <gpxtpx:hr>146</gpxtpx:hr>
          </gpxtpx:TrackPointExtension>
        </extensions>
      </trkpt>
      <trkpt lat="45.56817" lon="2.93267">
        <ele>811.2</ele>
        <time>2013-09-01T08:16:12Z</time>
        <extensions>
          <gpxtpx:TrackPointExtension xmlns:gpxtpx="http://www.garmin.com/xmlschemas/TrackPointExtension/v1">
            <gpxtpx:hr>167</gpxtpx:hr>
          </gpxtpx:TrackPointExtension>
        </extensions>
      </trkpt>
      <trkpt lat="45.56815" lon="2.93472">
        <ele>823.6</ele>
        <time>2013-09-01T08:17:02Z</time>
        <extensions>
          <gpxtpx:TrackPointExtension xmlns:gpxtpx="http://www.garmin.com/xmlschemas/TrackPointExtension/v1">
            <gpxtpx:hr>171</gpxtpx:hr>
          </gpxtpx:TrackPointExtension>
        </extensions>
      </trkpt>
      <trkpt lat="45.56823" lon="2.93578">
        <ele>823</ele>
        <time>2013-09-01T08:17:16Z</time>
        <extensions>
          <gpxtpx:TrackPointExtension xmlns:gpxtpx="http://www.garmin.com/xmlschemas/TrackPointExtension/v1">
            <gpxtpx:hr>161</gpxtpx:hr>
          </gpxtpx:TrackPointExtension>
        </extensions>
      </trkpt>
      <trkpt lat="45.56827" lon="2.93641">
        <ele>820.4</ele>
        <time>2013-09-01T08:17:21Z</time>
        <extensions>
          <gpxtpx:TrackPointExtension xmlns:gpxtpx="http://www.garmin.com/xmlschemas/TrackPointExtension/v1">
            <gpxtpx:hr>158</gpxtpx:hr>
          </gpxtpx:TrackPointExtension>
        </extensions>
      </trkpt>
      <trkpt lat="45.56835" lon="2.9372">
        <ele>815.6</ele>
        <time>2013-09-01T08:17:26Z</time>
        <extensions>
          <gpxtpx:TrackPointExtension xmlns:gpxtpx="http://www.garmin.com/xmlschemas/TrackPointExtension/v1">
            <gpxtpx:hr>152</gpxtpx:hr>
          </gpxtpx:TrackPointExtension>
        </extensions>
      </trkpt>
      <trkpt lat="45.56862" lon="2.93847">
        <ele>803.8</ele>
        <time>2013-09-01T08:17:38Z</time>
        <extensions>
          <gpxtpx:TrackPointExtension xmlns:gpxtpx="http://www.garmin.com/xmlschemas/TrackPointExtension/v1">
            <gpxtpx:hr>137</gpxtpx:hr>
          </gpxtpx:TrackPointExtension>
        </extensions>
      </trkpt>
      <trkpt lat="45.56767" lon="2.93688">
        <ele>807.4</ele>
        <time>2013-09-01T08:18:14Z</time>
        <extensions>
          <gpxtpx:TrackPointExtension xmlns:gpxtpx="http://www.garmin.com/xmlschemas/TrackPointExtension/v1">
            <gpxtpx:hr>157</gpxtpx:hr>
          </gpxtpx:TrackPointExtension>
        </extensions>
      </trkpt>
      <trkpt lat="45.56715" lon="2.93507">
        <ele>820.2</ele>
        <time>2013-09-01T08:19:04Z</time>
        <extensions>
          <gpxtpx:TrackPointExtension xmlns:gpxtpx="http://www.garmin.com/xmlschemas/TrackPointExtension/v1">
            <gpxtpx:hr>172</gpxtpx:hr>
          </gpxtpx:TrackPointExtension>
        </extensions>
      </trkpt>
      <trkpt lat="45.56645" lon="2.93565">
        <ele>815.6</ele>
        <time>2013-09-01T08:19:21Z</time>
        <extensions>
          <gpxtpx:TrackPointExtension xmlns:gpxtpx="http://www.garmin.com/xmlschemas/TrackPointExtension/v1">
            <gpxtpx:hr>162</gpxtpx:hr>
          </gpxtpx:TrackPointExtension>
        </extensions>
      </trkpt>
      <trkpt lat="45.56482" lon="2.93727">
        <ele>791</ele>
        <time>2013-09-01T08:19:56Z</time>
        <extensions>
          <gpxtpx:TrackPointExtension xmlns:gpxtpx="http://www.garmin.com/xmlschemas/TrackPointExtension/v1">
            <gpxtpx:hr>140</gpxtpx:hr>
          </gpxtpx:TrackPointExtension>
        </extensions>
      </trkpt>
      <trkpt lat="45.56356" lon="2.93739">
        <ele>783</ele>
        <time>2013-09-01T08:20:17Z</time>
        <extensions>
          <gpxtpx:TrackPointExtension xmlns:gpxtpx="http://www.garmin.com/xmlschemas/TrackPointExtension/v1">
            <gpxtpx:hr>132</gpxtpx:hr>
          </gpxtpx:TrackPointExtension>
        </extensions>
      </trkpt>
      <trkpt lat="45.56188" lon="2.93692">
        <ele>781</ele>
        <time>2013-09-01T08:20:47Z</time>
        <extensions>
          <gpxtpx:TrackPointExtension xmlns:gpxtpx="http://www.garmin.com/xmlschemas/TrackPointExtension/v1">
            <gpxtpx:hr>142</gpxtpx:hr>
          </gpxtpx:TrackPointExtension>
        </extensions>
      </trkpt>
      <trkpt lat="45.56174" lon="2.9379">
        <ele>855.9</ele>
        <time>2013-09-01T08:23:58Z</time>
      </trkpt>
      <trkpt lat="45.56131" lon="2.93818">
        <ele>856</ele>
        <time>2013-09-01T08:25:30Z</time>
      </trkpt>
      <trkpt lat="45.56055" lon="2.93951">
        <ele>856</ele>
        <time>2013-09-01T08:29:26Z</time>
      </trkpt>
      <trkpt lat="45.56037" lon="2.93998">
        <ele>856.4</ele>
        <time>2013-09-01T08:30:39Z</time>
      </trkpt>
      <trkpt lat="45.56093" lon="2.94149">
        <ele>854.4</ele>
        <time>2013-09-01T08:34:33Z</time>
      </trkpt>
      <trkpt lat="45.5616" lon="2.94224">
        <ele>852.5</ele>
        <time>2013-09-01T08:37:20Z</time>
      </trkpt>
      <trkpt lat="45.56183" lon="2.94299">
        <ele>853.1</ele>
        <time>2013-09-01T08:39:13Z</time>
      </trkpt>
      <trkpt lat="45.56235" lon="2.94377">
        <ele>853.6</ele>
        <time>2013-09-01T08:41:41Z</time>
      </trkpt>
      <trkpt lat="45.56233" lon="2.9451">
        <ele>859.8</ele>
        <time>2013-09-01T08:44:44Z</time>
      </trkpt>
      <trkpt lat="45.56194" lon="2.94671">
        <ele>874.3</ele>
        <time>2013-09-01T08:48:40Z</time>
      </trkpt>
      <trkpt lat="45.56122" lon="2.94705">
        <ele>888.5</ele>
        <time>2013-09-01T08:51:10Z</time>
      </trkpt>
      <trkpt lat="45.56061" lon="2.94689">
        <ele>898.7</ele>
        <time>2013-09-01T08:53:14Z</time>
      </trkpt>
      <trkpt lat="45.56027" lon="2.94674">
        <ele>906.5</ele>
        <time>2013-09-01T08:54:25Z</time>
      </trkpt>
      <trkpt lat="45.56021" lon="2.94681">
        <ele>909.4</ele>
        <time>2013-09-01T08:54:41Z</time>
      </trkpt>
      <trkpt lat="45.56052" lon="2.94757">
        <ele>908.5</ele>
        <time>2013-09-01T08:56:41Z</time>
      </trkpt>
      <trkpt lat="45.56057" lon="2.94785">
        <ele>906.9</ele>
        <time>2013-09-01T08:57:22Z</time>
      </trkpt>
      <trkpt lat="45.56043" lon="2.94822">
        <ele>908.7</ele>
        <time>2013-09-01T08:58:19Z</time>
      </trkpt>
      <trkpt lat="45.55979" lon="2.94817">
        <ele>923.3</ele>
        <time>2013-09-01T09:00:28Z</time>
      </trkpt>
      <trkpt lat="45.55964" lon="2.94836">
        <ele>926.1</ele>
        <time>2013-09-01T09:01:06Z</time>
      </trkpt>
      <trkpt lat="45.5595" lon="2.94867">
        <ele>928.5</ele>
        <time>2013-09-01T09:01:57Z</time>
      </trkpt>
      <trkpt lat="45.55976" lon="2.94989">
        <ele>938.6</ele>
        <time>2013-09-01T09:04:53Z</time>
      </trkpt>
      <trkpt lat="45.55979" lon="2.95062">
        <ele>945.1</ele>
        <time>2013-09-01T09:06:33Z</time>
      </trkpt>
      <trkpt lat="45.56003" lon="2.95119">
        <ele>955.8</ele>
        <time>2013-09-01T09:08:06Z</time>
      </trkpt>
      <trkpt lat="45.55987" lon="2.95197">
        <ele>963.2</ele>
        <time>2013-09-01T09:09:59Z</time>
      </trkpt>
      <trkpt lat="45.56003" lon="2.95197">
        <ele>967.2</ele>
        <time>2013-09-01T09:10:31Z</time>
      </trkpt>
      <trkpt lat="45.56096" lon="2.95134">
        <ele>974.2</ele>
        <time>2013-09-01T09:13:54Z</time>
      </trkpt>
      <trkpt lat="45.56166" lon="2.95181">
        <ele>990.2</ele>
        <time>2013-09-01T09:16:29Z</time>
      </trkpt>
      <trkpt lat="45.56305" lon="2.95282">
        <ele>1018.2</ele>
        <time>2013-09-01T09:21:38Z</time>
      </trkpt>
      <trkpt lat="45.5636" lon="2.95298">
        <ele>1021.1</ele>
        <time>2013-09-01T09:23:29Z</time>
      </trkpt>
      <trkpt lat="45.56357" lon="2.95314">
        <ele>1026.2</ele>
        <time>2013-09-01T09:23:54Z</time>
      </trkpt>
      <trkpt lat="45.56231" lon="2.95321">
        <ele>1022</ele>
        <time>2013-09-01T09:28:01Z</time>
      </trkpt>
      <trkpt lat="45.56197" lon="2.95337">
        <ele>1021.1</ele>
        <time>2013-09-01T09:29:11Z</time>
      </trkpt>
      <trkpt lat="45.56159" lon="2.95558">
        <ele>1042.2</ele>
        <time>2013-09-01T09:34:26Z</time>
      </trkpt>
      <trkpt lat="45.56176" lon="2.95701">
        <ele>1049</ele>
        <time>2013-09-01T09:37:45Z</time>
      </trkpt>
      <trkpt lat="45.56182" lon="2.95986">
        <ele>1043.9</ele>
        <time>2013-09-01T09:44:18Z</time>
      </trkpt>
      <trkpt lat="45.56153" lon="2.96306">
        <ele>1035.2</ele>
        <time>2013-09-01T09:51:41Z</time>
      </trkpt>
      <trkpt lat="45.56119" lon="2.96506">
        <ele>1017.5</ele>
        <time>2013-09-01T09:56:26Z</time>
      </trkpt>
      <trkpt lat="45.56126" lon="2.96672">
        <ele>1007.3</ele>
        <time>2013-09-01T10:00:16Z</time>
      </trkpt>
      <trkpt lat="45.56169" lon="2.96964">
        <ele>981.1</ele>
        <time>2013-09-01T10:07:07Z</time>
      </trkpt>
      <trkpt lat="45.56156" lon="2.97008">
        <ele>971.9</ele>
        <time>2013-09-01T10:08:15Z</time>
      </trkpt>
      <trkpt lat="45.56144" lon="2.96992">
        <ele>970.6</ele>
        <time>2013-09-01T10:08:47Z</time>
      </trkpt>
      <trkpt lat="45.56126" lon="2.96956">
        <ele>970.4</ele>
        <time>2013-09-01T10:09:49Z</time>
      </trkpt>
      <trkpt lat="45.56115" lon="2.96958">
        <ele>967.1</ele>
        <time>2013-09-01T10:10:11Z</time>
      </trkpt>
      <trkpt lat="45.56103" lon="2.96948">
        <ele>963.8</ele>
        <time>2013-09-01T10:10:40Z</time>
      </trkpt>
      <trkpt lat="45.56098" lon="2.97004">
        <ele>888.8</ele>
        <time>2013-09-01T10:13:14Z</time>
        <extensions>
          <gpxtpx:TrackPointExtension xmlns:gpxtpx="http://www.garmin.com/xmlschemas/TrackPointExtension/v1">
            <gpxtpx:hr>142</gpxtpx:hr>
          </gpxtpx:TrackPointExtension>
        </extensions>
      </trkpt>
      <trkpt lat="45.56137" lon="2.97358">
        <ele>873.2</ele>
        <time>2013-09-01T10:13:52Z</time>
        <extensions>
          <gpxtpx:TrackPointExtension xmlns:gpxtpx="http://www.garmin.com/xmlschemas/TrackPointExtension/v1">
            <gpxtpx:hr>153</gpxtpx:hr>
          </gpxtpx:TrackPointExtension>
        </extensions>
      </trkpt>
      <trkpt lat="45.56166" lon="2.97301">
        <ele>874.6</ele>
        <time>2013-09-01T10:14:02Z</time>
        <extensions>
          <gpxtpx:TrackPointExtension xmlns:gpxtpx="http://www.garmin.com/xmlschemas/TrackPointExtension/v1">
            <gpxtpx:hr>158</gpxtpx:hr>
          </gpxtpx:TrackPointExtension>
        </extensions>
      </trkpt>
      <trkpt lat="45.56197" lon="2.97169">
        <ele>867.8</ele>
        <time>2013-09-01T10:14:13Z</time>
        <extensions>
          <gpxtpx:TrackPointExtension xmlns:gpxtpx="http://www.garmin.com/xmlschemas/TrackPointExtension/v1">
            <gpxtpx:hr>150</gpxtpx:hr>
          </gpxtpx:TrackPointExtension>
        </extensions>
      </trkpt>
      <trkpt lat="45.56308" lon="2.97032">
        <ele>854.6</ele>
        <time>2013-09-01T10:14:29Z</time>
        <extensions>
          <gpxtpx:TrackPointExtension xmlns:gpxtpx="http://www.garmin.com/xmlschemas/TrackPointExtension/v1">
            <gpxtpx:hr>146</gpxtpx:hr>
          </gpxtpx:TrackPointExtension>
        </extensions>
      </trkpt>
      <trkpt lat="45.56405" lon="2.96845">
        <ele>851.2</ele>
        <time>2013-09-01T10:14:50Z</time>
        <extensions>
          <gpxtpx:TrackPointExtension xmlns:gpxtpx="http://www.garmin.com/xmlschemas/TrackPointExtension/v1">
            <gpxtpx:hr>141</gpxtpx:hr>
          </gpxtpx:TrackPointExtension>
        </extensions>
      </trkpt>
      <trkpt lat="45.56511" lon="2.96746">
        <ele>844</ele>
        <time>2013-09-01T10:15:05Z</time>
        <extensions>
          <gpxtpx:TrackPointExtension xmlns:gpxtpx="http://www.garmin.com/xmlschemas/TrackPointExtension/v1">
            <gpxtpx:hr>135</gpxtpx:hr>
          </gpxtpx:TrackPointExtension>
        </extensions>
      </trkpt>
      <trkpt lat="45.56655" lon="2.9669">
        <ele>828</ele>
        <time>2013-09-01T10:15:23Z</time>
        <extensions>
          <gpxtpx:TrackPointExtension xmlns:gpxtpx="http://www.garmin.com/xmlschemas/TrackPointExtension/v1">
            <gpxtpx:hr>132</gpxtpx:hr>
          </gpxtpx:TrackPointExtension>
        </extensions>
      </trkpt>
      <trkpt lat="45.56777" lon="2.96666">
        <ele>803.2</ele>
        <time>2013-09-01T10:15:55Z</time>
        <extensions>
          <gpxtpx:TrackPointExtension xmlns:gpxtpx="http://www.garmin.com/xmlschemas/TrackPointExtension/v1">
            <gpxtpx:hr>134</gpxtpx:hr>
          </gpxtpx:TrackPointExtension>
        </extensions>
      </trkpt>
      <trkpt lat="45.56825" lon="2.96629">
        <ele>800.8</ele>
        <time>2013-09-01T10:16:21Z</time>
        <extensions>
          <gpxtpx:TrackPointExtension xmlns:gpxtpx="http://www.garmin.com/xmlschemas/TrackPointExtension/v1">
            <gpxtpx:hr>146</gpxtpx:hr>
          </gpxtpx:TrackPointExtension>
        </extensions>
      </trkpt>
      <trkpt lat="45.56874" lon="2.96557">
        <ele>798.6</ele>
        <time>2013-09-01T10:17:00Z</time>
        <extensions>
          <gpxtpx:TrackPointExtension xmlns:gpxtpx="http://www.garmin.com/xmlschemas/TrackPointExtension/v1">
            <gpxtpx:hr>150</gpxtpx:hr>
          </gpxtpx:TrackPointExtension>
        </extensions>
      </trkpt>
      <trkpt lat="45.56897" lon="2.96428">
        <ele>797.8</ele>
        <time>2013-09-01T10:17:25Z</time>
        <extensions>
          <gpxtpx:TrackPointExtension xmlns:gpxtpx="http://www.garmin.com/xmlschemas/TrackPointExtension/v1">
            <gpxtpx:hr>156</gpxtpx:hr>
          </gpxtpx:TrackPointExtension>
        </extensions>
      </trkpt>
      <trkpt lat="45.56866" lon="2.96285">
        <ele>805</ele>
        <time>2013-09-01T10:18:14Z</time>
        <extensions>
          <gpxtpx:TrackPointExtension xmlns:gpxtpx="http://www.garmin.com/xmlschemas/TrackPointExtension/v1">
            <gpxtpx:hr>169</gpxtpx:hr>
          </gpxtpx:TrackPointExtension>
        </extensions>
      </trkpt>
      <trkpt lat="45.56876" lon="2.96255">
        <ele>804.6</ele>
        <time>2013-09-01T10:18:19Z</time>
        <extensions>
          <gpxtpx:TrackPointExtension xmlns:gpxtpx="http://www.garmin.com/xmlschemas/TrackPointExtension/v1">
            <gpxtpx:hr>168</gpxtpx:hr>
          </gpxtpx:TrackPointExtension>
        </extensions>
      </trkpt>
      <trkpt lat="45.56904" lon="2.96145">
        <ele>796.6</ele>
        <time>2013-09-01T10:18:44Z</time>
        <extensions>
          <gpxtpx:TrackPointExtension xmlns:gpxtpx="http://www.garmin.com/xmlschemas/TrackPointExtension/v1">
            <gpxtpx:hr>166</gpxtpx:hr>
          </gpxtpx:TrackPointExtension>
        </extensions>
      </trkpt>
      <trkpt lat="45.56922" lon="2.9607">
        <ele>870.1</ele>
        <time>2013-09-01T10:19:06Z</time>
      </trkpt>
      <trkpt lat="45.56963" lon="2.9589">
        <ele>849.7</ele>
        <time>2013-09-01T10:19:40Z</time>
      </trkpt>
      <trkpt lat="45.56967" lon="2.9583">
        <ele>850.9</ele>
        <time>2013-09-01T10:19:51Z</time>
      </trkpt>
      <trkpt lat="45.56997" lon="2.95714">
        <ele>844.3</ele>
        <time>2013-09-01T10:20:14Z</time>
      </trkpt>
      <trkpt lat="45.56996" lon="2.95633">
        <ele>848.3</ele>
        <time>2013-09-01T10:20:29Z</time>
      </trkpt>
      <trkpt lat="45.56992" lon="2.95555">
        <ele>846.7</ele>
        <time>2013-09-01T10:20:43Z</time>
      </trkpt>
      <trkpt lat="45.57019" lon="2.95534">
        <ele>837.6</ele>
        <time>2013-09-01T10:20:51Z</time>
      </trkpt>
      <trkpt lat="45.57081" lon="2.95538">
        <ele>826.4</ele>
        <time>2013-09-01T10:21:07Z</time>
      </trkpt>
      <trkpt lat="45.57112" lon="2.95539">
        <ele>823.1</ele>
        <time>2013-09-01T10:21:15Z</time>
      </trkpt>
      <trkpt lat="45.57148" lon="2.95559">
        <ele>821.3</ele>
        <time>2013-09-01T10:21:25Z</time>
      </trkpt>
      <trkpt lat="45.57154" lon="2.95594">
        <ele>820.3</ele>
        <time>2013-09-01T10:21:32Z</time>
      </trkpt>
      <trkpt lat="45.57163" lon="2.95603">
        <ele>820</ele>
        <time>2013-09-01T10:21:35Z</time>
      </trkpt>
      <trkpt lat="45.57182" lon="2.95608">
        <ele>819.8</ele>
        <time>2013-09-01T10:21:40Z</time>
      </trkpt>
      <trkpt lat="45.5719" lon="2.95626">
        <ele>819.5</ele>
        <time>2013-09-01T10:21:44Z</time>
      </trkpt>
      <trkpt lat="45.57152" lon="2.95699">
        <ele>818.8</ele>
        <time>2013-09-01T10:22:00Z</time>
      </trkpt>
      <trkpt lat="45.57146" lon="2.95729">
        <ele>818.4</ele>
        <time>2013-09-01T10:22:06Z</time>
      </trkpt>
      <trkpt lat="45.57167" lon="2.95836">
        <ele>817</ele>
        <time>2013-09-01T10:22:26Z</time>
      </trkpt>
      <trkpt lat="45.57163" lon="2.95895">
        <ele>816.6</ele>
        <time>2013-09-01T10:22:37Z</time>
      </trkpt>
      <trkpt lat="45.57147" lon="2.95966">
        <ele>815.4</ele>
        <time>2013-09-01T10:22:50Z</time>
      </trkpt>
      <trkpt lat="45.57147" lon="2.96037">
        <ele>812.9</ele>
        <time>2013-09-01T10:23:03Z</time>
      </trkpt>
      <trkpt lat="45.57153" lon="2.9617">
        <ele>811.8</ele>
        <time>2013-09-01T10:23:27Z</time>
      </trkpt>
      <trkpt lat="45.57173" lon="2.96225">
        <ele>810.9</ele>
        <time>2013-09-01T10:23:39Z</time>
      </trkpt>
      <trkpt lat="45.57172" lon="2.96287">
        <ele>815.4</ele>
        <time>2013-09-01T10:23:50Z</time>
      </trkpt>
      <trkpt lat="45.5716" lon="2.9632">
        <ele>819.1</ele>
        <time>2013-09-01T10:23:57Z</time>
      </trkpt>
      <trkpt lat="45.57162" lon="2.96355">
        <ele>821.1</ele>
        <time>2013-09-01T10:24:03Z</time>
      </trkpt>
      <trkpt lat="45.57156" lon="2.96392">
        <ele>822.5</ele>
        <time>2013-09-01T10:24:10Z</time>
      </trkpt>
      <trkpt lat="45.57145" lon="2.96407">
        <ele>823.5</ele>
        <time>2013-09-01T10:24:14Z</time>
      </trkpt>
      <trkpt lat="45.57173" lon="2.96409">
        <ele>820.8</ele>
        <time>2013-09-01T10:24:21Z</time>
      </trkpt>
      <trkpt lat="45.57212" lon="2.96407">
        <ele>816.8</ele>
        <time>2013-09-01T10:24:31Z</time>
      </trkpt>
      <trkpt lat="45.57259" lon="2.96383">
        <ele>813.3</ele>
        <time>2013-09-01T10:24:44Z</time>
      </trkpt>
      <trkpt lat="45.57279" lon="2.96372">
        <ele>812.2</ele>
        <time>2013-09-01T10:24:50Z</time>
      </trkpt>
      <trkpt lat="45.57318" lon="2.96354">
        <ele>806.4</ele>
        <time>2013-09-01T10:25:01Z</time>
      </trkpt>
      <trkpt lat="45.57352" lon="2.96311">
        <ele>805.4</ele>
        <time>2013-09-01T10:25:12Z</time>
      </trkpt>
      <trkpt lat="45.57377" lon="2.96257">
        <ele>806.8</ele>
        <time>2013-09-01T10:25:24Z</time>
      </trkpt>
      <trkpt lat="45.57391" lon="2.96237">
        <ele>806.9</ele>
        <time>2013-09-01T10:25:29Z</time>
      </trkpt>
      <trkpt lat="45.57409" lon="2.96238">
        <ele>806.2</ele>
        <time>2013-09-01T10:25:34Z</time>
      </trkpt>
      <trkpt lat="45.5743" lon="2.96275">
        <ele>803.7</ele>
        <time>2013-09-01T10:25:42Z</time>
      </trkpt>
      <trkpt lat="45.57446" lon="2.96326">
        <ele>800.9</ele>
        <time>2013-09-01T10:25:52Z</time>
      </trkpt>
      <trkpt lat="45.57465" lon="2.96366">
        <ele>799.5</ele>
        <time>2013-09-01T10:26:01Z</time>
      </trkpt>
      <trkpt lat="45.57495" lon="2.96402">
        <ele>798.2</ele>
        <time>2013-09-01T10:26:12Z</time>
      </trkpt>
      <trkpt lat="45.57543" lon="2.96407">
        <ele>797.1</ele>
        <time>2013-09-01T10:26:24Z</time>
      </trkpt>
      <trkpt lat="45.5758" lon="2.96413">
        <ele>796.9</ele>
        <time>2013-09-01T10:26:34Z</time>
      </trkpt>
      <trkpt lat="45.57624" lon="2.96467">
        <ele>796.6</ele>
        <time>2013-09-01T10:26:49Z</time>
      </trkpt>
      <trkpt lat="45.57665" lon="2.96483">
        <ele>797</ele>
        <time>2013-09-01T10:27:00Z</time>
      </trkpt>
      <trkpt lat="45.5764" lon="2.96506">
        <ele>796</ele>
        <time>2013-09-01T10:27:07Z</time>
      </trkpt>
      <trkpt lat="45.57621" lon="2.96566">
        <ele>794.5</ele>
        <time>2013-09-01T10:27:19Z</time>
      </trkpt>
      <trkpt lat="45.57598" lon="2.96704">
        <ele>794</ele>
        <time>2013-09-01T10:27:45Z</time>
      </trkpt>
      <trkpt lat="45.57595" lon="2.96732">
        <ele>794.3</ele>
        <time>2013-09-01T10:27:50Z</time>
      </trkpt>
      <trkpt lat="45.57589" lon="2.96776">
        <ele>794.9</ele>
        <time>2013-09-01T10:27:58Z</time>
      </trkpt>
      <trkpt lat="45.57595" lon="2.96798">
        <ele>795.7</ele>
        <time>2013-09-01T10:28:03Z</time>
      </trkpt>
      <trkpt lat="45.57626" lon="2.96792">
        <ele>795</ele>
        <time>2013-09-01T10:28:11Z</time>
      </trkpt>
      <trkpt lat="45.57651" lon="2.96791">
        <ele>793.2</ele>
        <time>2013-09-01T10:28:17Z</time>
      </trkpt>
      <trkpt lat="45.57651" lon="2.96767">
        <ele>792.9</ele>
        <time>2013-09-01T10:28:22Z</time>
      </trkpt>
      <trkpt lat="45.5766" lon="2.96757">
        <ele>792.3</ele>
        <time>2013-09-01T10:28:25Z</time>
      </trkpt>
      <trkpt lat="45.57703" lon="2.96757">
        <ele>787.6</ele>
        <time>2013-09-01T10:28:36Z</time>
      </trkpt>
      <trkpt lat="45.5773" lon="2.96734">
        <ele>785.1</ele>
        <time>2013-09-01T10:28:44Z</time>
      </trkpt>
      <trkpt lat="45.57769" lon="2.9671">
        <ele>783.5</ele>
        <time>2013-09-01T10:28:55Z</time>
      </trkpt>
      <trkpt lat="45.57786" lon="2.96706">
        <ele>783.1</ele>
        <time>2013-09-01T10:28:59Z</time>
      </trkpt>
      <trkpt lat="45.57802" lon="2.96711">
        <ele>782.9</ele>
        <time>2013-09-01T10:29:04Z</time>
      </trkpt>
      <trkpt lat="45.57814" lon="2.96736">
        <ele>782.5</ele>
        <time>2013-09-01T10:29:09Z</time>
      </trkpt>
      <trkpt lat="45.57826" lon="2.96755">
        <ele>782.2</ele>
        <time>2013-09-01T10:29:14Z</time>
      </trkpt>
      <trkpt lat="45.57843" lon="2.96768">
        <ele>782.4</ele>
        <time>2013-09-01T10:29:19Z</time>
      </trkpt>
      <trkpt lat="45.57882" lon="2.96766">
        <ele>783.7</ele>
        <time>2013-09-01T10:29:29Z</time>
      </trkpt>
      <trkpt lat="45.57885" lon="2.96793">
        <ele>783.9</ele>
        <time>2013-09-01T10:29:34Z</time>
      </trkpt>
      <trkpt lat="45.57892" lon="2.96815">
        <ele>784.1</ele>
        <time>2013-09-01T10:29:38Z</time>
      </trkpt>
      <trkpt lat="45.5791" lon="2.96829">
        <ele>784.4</ele>
        <time>2013-09-01T10:29:43Z</time>
      </trkpt>
      <trkpt lat="45.57963" lon="2.96851">
        <ele>785.5</ele>
        <time>2013-09-01T10:29:58Z</time>
      </trkpt>
      <trkpt lat="45.57998" lon="2.96881">
        <ele>786.1</ele>
        <time>2013-09-01T10:30:08Z</time>
      </trkpt>
      <trkpt lat="45.58022" lon="2.96912">
        <ele>787.2</ele>
        <time>2013-09-01T10:30:17Z</time>
      </trkpt>
      <trkpt lat="45.58037" lon="2.96902">
        <ele>787.5</ele>
        <time>2013-09-01T10:30:21Z</time>
      </trkpt>
      <trkpt lat="45.58049" lon="2.96886">
        <ele>787.8</ele>
        <time>2013-09-01T10:30:25Z</time>
      </trkpt>
      <trkpt lat="45.58083" lon="2.9679">
        <ele>790.2</ele>
        <time>2013-09-01T10:30:45Z</time>
      </trkpt>
      <trkpt lat="45.5811" lon="2.96761">
        <ele>792</ele>
        <time>2013-09-01T10:30:53Z</time>
      </trkpt>
      <trkpt lat="45.5812" lon="2.96732">
        <ele>793.9</ele>
        <time>2013-09-01T10:30:59Z</time>
      </trkpt>
      <trkpt lat="45.58132" lon="2.96693">
        <ele>718.2</ele>
        <time>2013-09-01T10:31:19Z</time>
        <extensions>
          <gpxtpx:TrackPointExtension xmlns:gpxtpx="http://www.garmin.com/xmlschemas/TrackPointExtension/v1">
            <gpxtpx:hr>172</gpxtpx:hr>
          </gpxtpx:TrackPointExtension>
        </extensions>
      </trkpt>
      <trkpt lat="45.58173" lon="2.96708">
        <ele>726.6</ele>
        <time>2013-09-01T10:31:52Z</time>
        <extensions>
          <gpxtpx:TrackPointExtension xmlns:gpxtpx="http://www.garmin.com/xmlschemas/TrackPointExtension/v1">
            <gpxtpx:hr>178</gpxtpx:hr>
          </gpxtpx:TrackPointExtension>
        </extensions>
      </trkpt>
      <trkpt lat="45.58212" lon="2.9664">
        <ele>739.2</ele>
        <time>2013-09-01T10:32:43Z</time>
        <extensions>
          <gpxtpx:TrackPointExtension xmlns:gpxtpx="http://www.garmin.com/xmlschemas/TrackPointExtension/v1">
            <gpxtpx:hr>180</gpxtpx:hr>
          </gpxtpx:TrackPointExtension>
        </extensions>
      </trkpt>
      <trkpt lat="45.58385" lon="2.96544">
        <ele>762.2</ele>
        <time>2013-09-01T10:34:43Z</time>
        <extensions>
          <gpxtpx:TrackPointExtension xmlns:gpxtpx="http://www.garmin.com/xmlschemas/TrackPointExtension/v1">
            <gpxtpx:hr>181</gpxtpx:hr>
          </gpxtpx:TrackPointExtension>
        </extensions>
      </trkpt>
      <trkpt lat="45.58415" lon="2.96534">
        <ele>766.4</ele>
        <time>2013-09-01T10:35:05Z</time>
        <extensions>
          <gpxtpx:TrackPointExtension xmlns:gpxtpx="http://www.garmin.com/xmlschemas/TrackPointExtension/v1">
            <gpxtpx:hr>180</gpxtpx:hr>
          </gpxtpx:TrackPointExtension>
        </extensions>
      </trkpt>
      <trkpt lat="45.58569" lon="2.96447">
        <ele>751.4</ele>
        <time>2013-09-01T10:35:33Z</time>
        <extensions>
          <gpxtpx:TrackPointExtension xmlns:gpxtpx="http://www.garmin.com/xmlschemas/TrackPointExtension/v1">
            <gpxtpx:hr>164</gpxtpx:hr>
          </gpxtpx:TrackPointExtension>
        </extensions>
      </trkpt>
      <trkpt lat="45.58699" lon="2.96448">
        <ele>746.6</ele>
        <time>2013-09-01T10:35:52Z</time>
        <extensions>
          <gpxtpx:TrackPointExtension xmlns:gpxtpx="http://www.garmin.com/xmlschemas/TrackPointExtension/v1">
            <gpxtpx:hr>150</gpxtpx:hr>
          </gpxtpx:TrackPointExtension>
        </extensions>
      </trkpt>
      <trkpt lat="45.5879" lon="2.96395">
        <ele>736.8</ele>
        <time>2013-09-01T10:36:06Z</time>
        <extensions>
          <gpxtpx:TrackPointExtension xmlns:gpxtpx="http://www.garmin.com/xmlschemas/TrackPointExtension/v1">
            <gpxtpx:hr>140</gpxtpx:hr>
          </gpxtpx:TrackPointExtension>
        </extensions>
      </trkpt>
      <trkpt lat="45.58854" lon="2.96263">
        <ele>732.4</ele>
        <time>2013-09-01T10:36:19Z</time>
        <extensions>
          <gpxtpx:TrackPointExtension xmlns:gpxtpx="http://www.garmin.com/xmlschemas/TrackPointExtension/v1">
            <gpxtpx:hr>148</gpxtpx:hr>
          </gpxtpx:TrackPointExtension>
        </extensions>
      </trkpt>
      <trkpt lat="45.5886" lon="2.9625">
        <ele>732.4</ele>
        <time>2013-09-01T10:36:19Z</time>
        <extensions>
          <gpxtpx:TrackPointExtension xmlns:gpxtpx="http://www.garmin.com/xmlschemas/TrackPointExtension/v1">
            <gpxtpx:hr>148</gpxtpx:hr>
          </gpxtpx:TrackPointExtension>
        </extensions>
      </trkpt>
      <trkpt lat="45.58975" lon="2.96314">
        <ele>803.9</ele>
        <time>2013-09-01T10:37:05Z</time>
      </trkpt>
      <trkpt lat="45.58984" lon="2.96331">
        <ele>804</ele>
        <time>2013-09-01T10:37:10Z</time>
      </trkpt>
      <trkpt lat="45.58984" lon="2.96346">
        <ele>803.7</ele>
        <time>2013-09-01T10:37:14Z</time>
      </trkpt>
      <trkpt lat="45.58983" lon="2.96357">
        <ele>803.4</ele>
        <time>2013-09-01T10:37:16Z</time>
      </trkpt>
      <trkpt lat="45.58997" lon="2.96365">
        <ele>804.7</ele>
        <time>2013-09-01T10:37:21Z</time>
      </trkpt>
      <trkpt lat="45.59023" lon="2.9638">
        <ele>809.7</ele>
        <time>2013-09-01T10:37:31Z</time>
      </trkpt>
      <trkpt lat="45.59048" lon="2.96419">
        <ele>816</ele>
        <time>2013-09-01T10:37:43Z</time>
      </trkpt>
      <trkpt lat="45.59059" lon="2.96444">
        <ele>819.2</ele>
        <time>2013-09-01T10:37:50Z</time>
      </trkpt>
      <trkpt lat="45.5906" lon="2.96478">
        <ele>820.6</ele>
        <time>2013-09-01T10:37:58Z</time>
      </trkpt>
      <trkpt lat="45.59052" lon="2.96523">
        <ele>818.3</ele>
        <time>2013-09-01T10:38:09Z</time>
      </trkpt>
      <trkpt lat="45.59054" lon="2.96548">
        <ele>818.2</ele>
        <time>2013-09-01T10:38:15Z</time>
      </trkpt>
      <trkpt lat="45.59114" lon="2.96685">
        <ele>751.6</ele>
        <time>2013-09-01T10:38:58Z</time>
        <extensions>
          <gpxtpx:TrackPointExtension xmlns:gpxtpx="http://www.garmin.com/xmlschemas/TrackPointExtension/v1">
            <gpxtpx:hr>177</gpxtpx:hr>
          </gpxtpx:TrackPointExtension>
        </extensions>
      </trkpt>
      <trkpt lat="45.5912" lon="2.96695">
        <ele>752</ele>
        <time>2013-09-01T10:39:03Z</time>
        <extensions>
          <gpxtpx:TrackPointExtension xmlns:gpxtpx="http://www.garmin.com/xmlschemas/TrackPointExtension/v1">
            <gpxtpx:hr>177</gpxtpx:hr>
          </gpxtpx:TrackPointExtension>
        </extensions>
      </trkpt>
      <trkpt lat="45.5921" lon="2.96564">
        <ele>769.4</ele>
        <time>2013-09-01T10:40:19Z</time>
        <extensions>
          <gpxtpx:TrackPointExtension xmlns:gpxtpx="http://www.garmin.com/xmlschemas/TrackPointExtension/v1">
            <gpxtpx:hr>180</gpxtpx:hr>
          </gpxtpx:TrackPointExtension>
        </extensions>
      </trkpt>
      <trkpt lat="45.5925" lon="2.96564">
        <ele>772.8</ele>
        <time>2013-09-01T10:40:41Z</time>
        <extensions>
          <gpxtpx:TrackPointExtension xmlns:gpxtpx="http://www.garmin.com/xmlschemas/TrackPointExtension/v1">
            <gpxtpx:hr>178</gpxtpx:hr>
          </gpxtpx:TrackPointExtension>
        </extensions>
      </trkpt>
      <trkpt lat="45.59336" lon="2.96792">
        <ele>796</ele>
        <time>2013-09-01T10:42:21Z</time>
        <extensions>
          <gpxtpx:TrackPointExtension xmlns:gpxtpx="http://www.garmin.com/xmlschemas/TrackPointExtension/v1">
            <gpxtpx:hr>182</gpxtpx:hr>
          </gpxtpx:TrackPointExtension>
        </extensions>
      </trkpt>
      <trkpt lat="45.59342" lon="2.96912">
        <ele>796</ele>
        <time>2013-09-01T10:42:43Z</time>
        <extensions>
          <gpxtpx:TrackPointExtension xmlns:gpxtpx="http://www.garmin.com/xmlschemas/TrackPointExtension/v1">
            <gpxtpx:hr>179</gpxtpx:hr>
          </gpxtpx:TrackPointExtension>
        </extensions>
      </trkpt>
      <trkpt lat="45.59388" lon="2.97012">
        <ele>800.4</ele>
        <time>2013-09-01T10:43:05Z</time>
        <extensions>
          <gpxtpx:TrackPointExtension xmlns:gpxtpx="http://www.garmin.com/xmlschemas/TrackPointExtension/v1">
            <gpxtpx:hr>178</gpxtpx:hr>
          </gpxtpx:TrackPointExtension>
        </extensions>
      </trkpt>
      <trkpt lat="45.59406" lon="2.97208">
        <ele>802.6</ele>
        <time>2013-09-01T10:43:42Z</time>
        <extensions>
          <gpxtpx:TrackPointExtension xmlns:gpxtpx="http://www.garmin.com/xmlschemas/TrackPointExtension/v1">
            <gpxtpx:hr>173</gpxtpx:hr>
          </gpxtpx:TrackPointExtension>
        </extensions>
      </trkpt>
      <trkpt lat="45.59466" lon="2.9728">
        <ele>803</ele>
        <time>2013-09-01T10:44:02Z</time>
        <extensions>
          <gpxtpx:TrackPointExtension xmlns:gpxtpx="http://www.garmin.com/xmlschemas/TrackPointExtension/v1">
            <gpxtpx:hr>169</gpxtpx:hr>
          </gpxtpx:TrackPointExtension>
        </extensions>
      </trkpt>
      <trkpt lat="45.59541" lon="2.97348">
        <ele>804.6</ele>
        <time>2013-09-01T10:44:24Z</time>
        <extensions>
          <gpxtpx:TrackPointExtension xmlns:gpxtpx="http://www.garmin.com/xmlschemas/TrackPointExtension/v1">
            <gpxtpx:hr>164</gpxtpx:hr>
          </gpxtpx:TrackPointExtension>
        </extensions>
      </trkpt>
      <trkpt lat="45.59574" lon="2.97448">
        <ele>806.2</ele>
        <time>2013-09-01T10:44:45Z</time>
        <extensions>
          <gpxtpx:TrackPointExtension xmlns:gpxtpx="http://www.garmin.com/xmlschemas/TrackPointExtension/v1">
            <gpxtpx:hr>161</gpxtpx:hr>
          </gpxtpx:TrackPointExtension>
        </extensions>
      </trkpt>
      <trkpt lat="45.5961" lon="2.97484">
        <ele>811.6</ele>
        <time>2013-09-01T10:45:07Z</time>
        <extensions>
          <gpxtpx:TrackPointExtension xmlns:gpxtpx="http://www.garmin.com/xmlschemas/TrackPointExtension/v1">
            <gpxtpx:hr>170</gpxtpx:hr>
          </gpxtpx:TrackPointExtension>
        </extensions>
      </trkpt>
      <trkpt lat="45.59659" lon="2.97551">
        <ele>818.2</ele>
        <time>2013-09-01T10:45:42Z</time>
        <extensions>
          <gpxtpx:TrackPointExtension xmlns:gpxtpx="http://www.garmin.com/xmlschemas/TrackPointExtension/v1">
            <gpxtpx:hr>176</gpxtpx:hr>
          </gpxtpx:TrackPointExtension>
        </extensions>
      </trkpt>
      <trkpt lat="45.59694" lon="2.97955">
        <ele>847</ele>
        <time>2013-09-01T10:48:02Z</time>
        <extensions>
          <gpxtpx:TrackPointExtension xmlns:gpxtpx="http://www.garmin.com/xmlschemas/TrackPointExtension/v1">
            <gpxtpx:hr>181</gpxtpx:hr>
          </gpxtpx:TrackPointExtension>
        </extensions>
      </trkpt>
      <trkpt lat="45.59824" lon="2.98004">
        <ele>863.6</ele>
        <time>2013-09-01T10:49:12Z</time>
        <extensions>
          <gpxtpx:TrackPointExtension xmlns:gpxtpx="http://www.garmin.com/xmlschemas/TrackPointExtension/v1">
            <gpxtpx:hr>183</gpxtpx:hr>
          </gpxtpx:TrackPointExtension>
        </extensions>
      </trkpt>
      <trkpt lat="45.60038" lon="2.9812">
        <ele>872</ele>
        <time>2013-09-01T10:50:27Z</time>
        <extensions>
          <gpxtpx:TrackPointExtension xmlns:gpxtpx="http://www.garmin.com/xmlschemas/TrackPointExtension/v1">
            <gpxtpx:hr>174</gpxtpx:hr>
          </gpxtpx:TrackPointExtension>
        </extensions>
      </trkpt>
      <trkpt lat="45.60194" lon="2.98184">
        <ele>874</ele>
        <time>2013-09-01T10:51:13Z</time>
        <extensions>
          <gpxtpx:TrackPointExtension xmlns:gpxtpx="http://www.garmin.com/xmlschemas/TrackPointExtension/v1">
            <gpxtpx:hr>159</gpxtpx:hr>
          </gpxtpx:TrackPointExtension>
        </extensions>
      </trkpt>
      <trkpt lat="45.60263" lon="2.98179">
        <ele>940.1</ele>
        <time>2013-09-01T10:52:20Z</time>
      </trkpt>
      <trkpt lat="45.60278" lon="2.98191">
        <ele>936.9</ele>
        <time>2013-09-01T10:52:34Z</time>
      </trkpt>
      <trkpt lat="45.60297" lon="2.98169">
        <ele>935.3</ele>
        <time>2013-09-01T10:52:52Z</time>
      </trkpt>
      <trkpt lat="45.60358" lon="2.98163">
        <ele>925.3</ele>
        <time>2013-09-01T10:53:37Z</time>
      </trkpt>
      <trkpt lat="45.60446" lon="2.98161">
        <ele>906.8</ele>
        <time>2013-09-01T10:54:44Z</time>
      </trkpt>
      <trkpt lat="45.60508" lon="2.98189">
        <ele>885.3</ele>
        <time>2013-09-01T10:55:34Z</time>
      </trkpt>
      <trkpt lat="45.60543" lon="2.98236">
        <ele>877</ele>
        <time>2013-09-01T10:56:10Z</time>
      </trkpt>
      <trkpt lat="45.6054" lon="2.98292">
        <ele>874</ele>
        <time>2013-09-01T10:56:40Z</time>
      </trkpt>
      <trkpt lat="45.60521" lon="2.98333">
        <ele>870.1</ele>
        <time>2013-09-01T10:57:05Z</time>
      </trkpt>
      <trkpt lat="45.6054" lon="2.98345">
        <ele>870.9</ele>
        <time>2013-09-01T10:57:21Z</time>
      </trkpt>
      <trkpt lat="45.60556" lon="2.98369">
        <ele>872.4</ele>
        <time>2013-09-01T10:57:38Z</time>
      </trkpt>
      <trkpt lat="45.60564" lon="2.984">
        <ele>874</ele>
        <time>2013-09-01T10:57:55Z</time>
      </trkpt>
      <trkpt lat="45.60556" lon="2.98532">
        <ele>876</ele>
        <time>2013-09-01T10:59:05Z</time>
      </trkpt>
      <trkpt lat="45.60563" lon="2.9861">
        <ele>879.7</ele>
        <time>2013-09-01T10:59:46Z</time>
      </trkpt>
      <trkpt lat="45.60563" lon="2.98632">
        <ele>880</ele>
        <time>2013-09-01T10:59:57Z</time>
      </trkpt>
      <trkpt lat="45.60552" lon="2.98677">
        <ele>878.2</ele>
        <time>2013-09-01T11:00:21Z</time>
      </trkpt>
      <trkpt lat="45.60559" lon="2.98702">
        <ele>879.3</ele>
        <time>2013-09-01T11:00:36Z</time>
      </trkpt>
      <trkpt lat="45.60575" lon="2.98741">
        <ele>882.9</ele>
        <time>2013-09-01T11:00:59Z</time>
      </trkpt>
      <trkpt lat="45.60597" lon="2.98781">
        <ele>886</ele>
        <time>2013-09-01T11:01:26Z</time>
      </trkpt>
      <trkpt lat="45.60607" lon="2.98789">
        <ele>887.5</ele>
        <time>2013-09-01T11:01:35Z</time>
      </trkpt>
      <trkpt lat="45.60625" lon="2.98791">
        <ele>891.2</ele>
        <time>2013-09-01T11:01:48Z</time>
      </trkpt>
      <trkpt lat="45.60637" lon="2.9879">
        <ele>893.7</ele>
        <time>2013-09-01T11:01:57Z</time>
      </trkpt>
      <trkpt lat="45.60712" lon="2.98717">
        <ele>907.3</ele>
        <time>2013-09-01T11:03:05Z</time>
      </trkpt>
      <trkpt lat="45.60728" lon="2.98718">
        <ele>909.9</ele>
        <time>2013-09-01T11:03:18Z</time>
      </trkpt>
      <trkpt lat="45.60759" lon="2.98751">
        <ele>913.8</ele>
        <time>2013-09-01T11:03:46Z</time>
      </trkpt>
      <trkpt lat="45.60789" lon="2.98802">
        <ele>915.4</ele>
        <time>2013-09-01T11:04:21Z</time>
      </trkpt>
      <trkpt lat="45.6082" lon="2.98904">
        <ele>915.2</ele>
        <time>2013-09-01T11:05:19Z</time>
      </trkpt>
      <trkpt lat="45.60881" lon="2.99187">
        <ele>924.4</ele>
        <time>2013-09-01T11:07:53Z</time>
      </trkpt>
      <trkpt lat="45.6089" lon="2.99251">
        <ele>926.4</ele>
        <time>2013-09-01T11:08:27Z</time>
      </trkpt>
      <trkpt lat="45.60905" lon="2.99324">
        <ele>925</ele>
        <time>2013-09-01T11:09:07Z</time>
      </trkpt>
      <trkpt lat="45.60954" lon="2.99472">
        <ele>912</ele>
        <time>2013-09-01T11:10:33Z</time>
      </trkpt>
      <trkpt lat="45.6099" lon="2.99446">
        <ele>915.8</ele>
        <time>2013-09-01T11:11:03Z</time>
      </trkpt>
      <trkpt lat="45.61061" lon="2.99381">
        <ele>925.2</ele>
        <time>2013-09-01T11:12:06Z</time>
      </trkpt>
      <trkpt lat="45.61097" lon="2.99329">
        <ele>935.7</ele>
        <time>2013-09-01T11:12:45Z</time>
      </trkpt>
      <trkpt lat="45.61313" lon="2.99303">
        <ele>923.9</ele>
        <time>2013-09-01T11:15:26Z</time>
      </trkpt>
      <trkpt lat="45.61503" lon="2.99249">
        <ele>923.5</ele>
        <time>2013-09-01T11:17:51Z</time>
      </trkpt>
      <trkpt lat="45.61624" lon="2.99243">
        <ele>922.5</ele>
        <time>2013-09-01T11:19:20Z</time>
      </trkpt>
      <trkpt lat="45.61744" lon="2.99222">
        <ele>916.9</ele>
        <time>2013-09-01T11:20:51Z</time>
      </trkpt>
      <trkpt lat="45.61827" lon="2.99235">
        <ele>920.3</ele>
        <time>2013-09-01T11:21:53Z</time>
      </trkpt>
      <trkpt lat="45.61859" lon="2.99266">
        <ele>922.4</ele>
        <time>2013-09-01T11:22:21Z</time>
      </trkpt>
      <trkpt lat="45.61917" lon="2.99382">
        <ele>926.9</ele>
        <time>2013-09-01T11:23:36Z</time>
      </trkpt>
      <trkpt lat="45.61924" lon="2.99584">
        <ele>919.3</ele>
        <time>2013-09-01T11:25:21Z</time>
      </trkpt>
      <trkpt lat="45.61953" lon="2.99589">
        <ele>924.4</ele>
        <time>2013-09-01T11:25:43Z</time>
      </trkpt>
      <trkpt lat="45.61963" lon="2.99612">
        <ele>926.6</ele>
        <time>2013-09-01T11:25:57Z</time>
      </trkpt>
      <trkpt lat="45.61962" lon="2.99656">
        <ele>926.9</ele>
        <time>2013-09-01T11:26:20Z</time>
      </trkpt>
      <trkpt lat="45.61991" lon="2.99681">
        <ele>930.5</ele>
        <time>2013-09-01T11:26:46Z</time>
      </trkpt>
      <trkpt lat="45.6201" lon="2.9968">
        <ele>931.4</ele>
        <time>2013-09-01T11:27:00Z</time>
      </trkpt>
      <trkpt lat="45.62042" lon="2.99675">
        <ele>931.4</ele>
        <time>2013-09-01T11:27:24Z</time>
      </trkpt>
      <trkpt lat="45.62093" lon="2.99636">
        <ele>927.9</ele>
        <time>2013-09-01T11:28:07Z</time>
      </trkpt>
      <trkpt lat="45.62109" lon="2.99614">
        <ele>926.3</ele>
        <time>2013-09-01T11:28:24Z</time>
      </trkpt>
      <trkpt lat="45.62135" lon="2.99552">
        <ele>923</ele>
        <time>2013-09-01T11:29:01Z</time>
      </trkpt>
      <trkpt lat="45.62153" lon="2.99396">
        <ele>917.6</ele>
        <time>2013-09-01T11:30:23Z</time>
      </trkpt>
      <trkpt lat="45.62148" lon="2.99334">
        <ele>917.5</ele>
        <time>2013-09-01T11:30:56Z</time>
      </trkpt>
      <trkpt lat="45.62126" lon="2.99264">
        <ele>917.6</ele>
        <time>2013-09-01T11:31:36Z</time>
      </trkpt>
      <trkpt lat="45.62118" lon="2.9911">
        <ele>905.8</ele>
        <time>2013-09-01T11:32:57Z</time>
      </trkpt>
      <trkpt lat="45.6215" lon="2.99122">
        <ele>897.1</ele>
        <time>2013-09-01T11:33:22Z</time>
      </trkpt>
      <trkpt lat="45.62203" lon="2.9911">
        <ele>884.1</ele>
        <time>2013-09-01T11:34:03Z</time>
      </trkpt>
      <trkpt lat="45.62222" lon="2.99091">
        <ele>879.6</ele>
        <time>2013-09-01T11:34:21Z</time>
      </trkpt>
      <trkpt lat="45.62242" lon="2.99069">
        <ele>875.3</ele>
        <time>2013-09-01T11:34:40Z</time>
      </trkpt>
      <trkpt lat="45.62309" lon="2.99079">
        <ele>859.8</ele>
        <time>2013-09-01T11:35:31Z</time>
      </trkpt>
      <trkpt lat="45.62339" lon="2.99065">
        <ele>854.7</ele>
        <time>2013-09-01T11:35:55Z</time>
      </trkpt>
      <trkpt lat="45.62373" lon="2.9909">
        <ele>845.1</ele>
        <time>2013-09-01T11:36:24Z</time>
      </trkpt>
      <trkpt lat="45.62391" lon="2.99097">
        <ele>841.3</ele>
        <time>2013-09-01T11:36:38Z</time>
      </trkpt>
      <trkpt lat="45.62396" lon="2.99057">
        <ele>844.1</ele>
        <time>2013-09-01T11:36:59Z</time>
      </trkpt>
      <trkpt lat="45.62404" lon="2.99032">
        <ele>844.2</ele>
        <time>2013-09-01T11:37:14Z</time>
      </trkpt>
      <trkpt lat="45.62414" lon="2.9902">
        <ele>842.8</ele>
        <time>2013-09-01T11:37:24Z</time>
      </trkpt>
      <trkpt lat="45.62447" lon="2.99013">
        <ele>844</ele>
        <time>2013-09-01T11:37:48Z</time>
      </trkpt>
      <trkpt lat="45.62448" lon="2.98971">
        <ele>843.4</ele>
        <time>2013-09-01T11:38:10Z</time>
      </trkpt>
      <trkpt lat="45.62461" lon="2.98939">
        <ele>843.2</ele>
        <time>2013-09-01T11:38:29Z</time>
      </trkpt>
      <trkpt lat="45.62481" lon="2.98926">
        <ele>846.1</ele>
        <time>2013-09-01T11:38:46Z</time>
      </trkpt>
      <trkpt lat="45.62507" lon="2.9892">
        <ele>852.6</ele>
        <time>2013-09-01T11:39:06Z</time>
      </trkpt>
      <trkpt lat="45.62543" lon="2.98901">
        <ele>859.6</ele>
        <time>2013-09-01T11:39:35Z</time>
      </trkpt>
      <trkpt lat="45.62584" lon="2.98869">
        <ele>856.7</ele>
        <time>2013-09-01T11:40:09Z</time>
      </trkpt>
      <trkpt lat="45.62612" lon="2.98876">
        <ele>859.6</ele>
        <time>2013-09-01T11:40:31Z</time>
      </trkpt>
      <trkpt lat="45.62626" lon="2.98864">
        <ele>855.6</ele>
        <time>2013-09-01T11:40:43Z</time>
      </trkpt>
      <trkpt lat="45.62759" lon="2.98978">
        <ele>856.5</ele>
        <time>2013-09-01T11:42:39Z</time>
      </trkpt>
      <trkpt lat="45.62778" lon="2.99009">
        <ele>856.6</ele>
        <time>2013-09-01T11:43:01Z</time>
      </trkpt>
      <trkpt lat="45.62802" lon="2.99032">
        <ele>856.6</ele>
        <time>2013-09-01T11:43:22Z</time>
      </trkpt>
      <trkpt lat="45.62855" lon="2.99055">
        <ele>854.2</ele>
        <time>2013-09-01T11:44:03Z</time>
      </trkpt>
      <trkpt lat="45.6298" lon="2.99117">
        <ele>857.4</ele>
        <time>2013-09-01T11:45:42Z</time>
      </trkpt>
      <trkpt lat="45.63028" lon="2.99104">
        <ele>860.2</ele>
        <time>2013-09-01T11:46:18Z</time>
      </trkpt>
      <trkpt lat="45.63147" lon="2.99096">
        <ele>865.7</ele>
        <time>2013-09-01T11:47:47Z</time>
      </trkpt>
      <trkpt lat="45.63207" lon="2.99145">
        <ele>866.2</ele>
        <time>2013-09-01T11:48:39Z</time>
      </trkpt>
      <trkpt lat="45.63391" lon="2.99043">
        <ele>871</ele>
        <time>2013-09-01T11:51:05Z</time>
      </trkpt>
      <trkpt lat="45.63455" lon="2.99026">
        <ele>871.5</ele>
        <time>2013-09-01T11:51:54Z</time>
      </trkpt>
      <trkpt lat="45.63579" lon="2.98981">
        <ele>873.1</ele>
        <time>2013-09-01T11:53:29Z</time>
      </trkpt>
      <trkpt lat="45.63678" lon="2.98917">
        <ele>875.5</ele>
        <time>2013-09-01T11:54:49Z</time>
      </trkpt>
      <trkpt lat="45.63707" lon="2.99102">
        <ele>876.1</ele>
        <time>2013-09-01T11:56:28Z</time>
      </trkpt>
      <trkpt lat="45.63739" lon="2.99166">
        <ele>877.1</ele>
        <time>2013-09-01T11:57:10Z</time>
      </trkpt>
      <trkpt lat="45.63803" lon="2.9931">
        <ele>877</ele>
        <time>2013-09-01T11:58:38Z</time>
      </trkpt>
      <trkpt lat="45.63861" lon="2.99359">
        <ele>879.1</ele>
        <time>2013-09-01T11:59:28Z</time>
      </trkpt>
      <trkpt lat="45.63923" lon="2.9948">
        <ele>888.9</ele>
        <time>2013-09-01T12:00:46Z</time>
      </trkpt>
      <trkpt lat="45.6396" lon="2.99534">
        <ele>894.3</ele>
        <time>2013-09-01T12:01:27Z</time>
      </trkpt>
      <trkpt lat="45.63963" lon="2.99585">
        <ele>896.8</ele>
        <time>2013-09-01T12:01:53Z</time>
      </trkpt>
      <trkpt lat="45.6395" lon="2.99647">
        <ele>901.5</ele>
        <time>2013-09-01T12:02:27Z</time>
      </trkpt>
      <trkpt lat="45.63934" lon="2.99657">
        <ele>903</ele>
        <time>2013-09-01T12:02:40Z</time>
      </trkpt>
      <trkpt lat="45.6392" lon="2.99659">
        <ele>904.1</ele>
        <time>2013-09-01T12:02:50Z</time>
      </trkpt>
      <trkpt lat="45.63919" lon="2.99673">
        <ele>905.2</ele>
        <time>2013-09-01T12:02:58Z</time>
      </trkpt>
      <trkpt lat="45.6397" lon="2.99747">
        <ele>904.5</ele>
        <time>2013-09-01T12:03:52Z</time>
      </trkpt>
      <trkpt lat="45.63997" lon="2.9978">
        <ele>905</ele>
        <time>2013-09-01T12:04:18Z</time>
      </trkpt>
      <trkpt lat="45.63975" lon="2.99834">
        <ele>905.5</ele>
        <time>2013-09-01T12:04:51Z</time>
      </trkpt>
      <trkpt lat="45.63983" lon="2.99961">
        <ele>904</ele>
        <time>2013-09-01T12:05:57Z</time>
      </trkpt>
      <trkpt lat="45.63965" lon="3.0017">
        <ele>910.1</ele>
        <time>2013-09-01T12:07:46Z</time>
      </trkpt>
      <trkpt lat="45.6396" lon="3.0023">
        <ele>915.9</ele>
        <time>2013-09-01T12:08:18Z</time>
      </trkpt>
      <trkpt lat="45.64004" lon="3.00293">
        <ele>915.4</ele>
        <time>2013-09-01T12:09:04Z</time>
      </trkpt>
      <trkpt lat="45.64014" lon="3.00382">
        <ele>911.2</ele>
        <time>2013-09-01T12:09:52Z</time>
      </trkpt>
      <trkpt lat="45.63998" lon="3.00419">
        <ele>909.8</ele>
        <time>2013-09-01T12:10:14Z</time>
      </trkpt>
      <trkpt lat="45.64031" lon="3.00394">
        <ele>907.8</ele>
        <time>2013-09-01T12:10:42Z</time>
      </trkpt>
      <trkpt lat="45.64062" lon="3.00371">
        <ele>904.1</ele>
        <time>2013-09-01T12:11:08Z</time>
      </trkpt>
      <trkpt lat="45.64091" lon="3.00384">
        <ele>897</ele>
        <time>2013-09-01T12:11:32Z</time>
      </trkpt>
      <trkpt lat="45.64115" lon="3.00369">
        <ele>893.1</ele>
        <time>2013-09-01T12:11:52Z</time>
      </trkpt>
      <trkpt lat="45.64188" lon="3.00376">
        <ele>887</ele>
        <time>2013-09-01T12:12:46Z</time>
      </trkpt>
      <trkpt lat="45.64221" lon="3.00357">
        <ele>888.1</ele>
        <time>2013-09-01T12:13:12Z</time>
      </trkpt>
      <trkpt lat="45.64252" lon="3.00382">
        <ele>889.5</ele>
        <time>2013-09-01T12:13:39Z</time>
      </trkpt>
      <trkpt lat="45.64273" lon="3.00458">
        <ele>890.8</ele>
        <time>2013-09-01T12:14:21Z</time>
      </trkpt>
      <trkpt lat="45.643" lon="3.00508">
        <ele>894.6</ele>
        <time>2013-09-01T12:14:54Z</time>
      </trkpt>
      <trkpt lat="45.64325" lon="3.00495">
        <ele>899.1</ele>
        <time>2013-09-01T12:15:14Z</time>
      </trkpt>
      <trkpt lat="45.64325" lon="3.00477">
        <ele>899.1</ele>
        <time>2013-09-01T12:15:24Z</time>
      </trkpt>
      <trkpt lat="45.64311" lon="3.00454">
        <ele>896.5</ele>
        <time>2013-09-01T12:15:40Z</time>
      </trkpt>
      <trkpt lat="45.64309" lon="3.00421">
        <ele>896.5</ele>
        <time>2013-09-01T12:15:57Z</time>
      </trkpt>
      <trkpt lat="45.64327" lon="3.00399">
        <ele>900.3</ele>
        <time>2013-09-01T12:16:15Z</time>
      </trkpt>
      <trkpt lat="45.64354" lon="3.00391">
        <ele>904.6</ele>
        <time>2013-09-01T12:16:35Z</time>
      </trkpt>
      <trkpt lat="45.6439" lon="3.00386">
        <ele>910</ele>
        <time>2013-09-01T12:17:03Z</time>
      </trkpt>
      <trkpt lat="45.64428" lon="3.00366">
        <ele>913.2</ele>
        <time>2013-09-01T12:17:33Z</time>
      </trkpt>
      <trkpt lat="45.64503" lon="3.0036">
        <ele>919.7</ele>
        <time>2013-09-01T12:18:29Z</time>
      </trkpt>
      <trkpt lat="45.64634" lon="3.00337">
        <ele>925</ele>
        <time>2013-09-01T12:20:07Z</time>
      </trkpt>
      <trkpt lat="45.64664" lon="3.00323">
        <ele>926.5</ele>
        <time>2013-09-01T12:20:31Z</time>
      </trkpt>
      <trkpt lat="45.64705" lon="3.00329">
        <ele>930.5</ele>
        <time>2013-09-01T12:21:02Z</time>
      </trkpt>
      <trkpt lat="45.64739" lon="3.00282">
        <ele>929.9</ele>
        <time>2013-09-01T12:21:37Z</time>
      </trkpt>
      <trkpt lat="45.64818" lon="3.00165">
        <ele>934.6</ele>
        <time>2013-09-01T12:23:02Z</time>
      </trkpt>
      <trkpt lat="45.64878" lon="3.00107">
        <ele>941</ele>
        <time>2013-09-01T12:23:55Z</time>
      </trkpt>
      <trkpt lat="45.65042" lon="3.00052">
        <ele>960.8</ele>
        <time>2013-09-01T12:26:02Z</time>
      </trkpt>
      <trkpt lat="45.65088" lon="3.00025">
        <ele>961.6</ele>
        <time>2013-09-01T12:26:39Z</time>
      </trkpt>
      <trkpt lat="45.65185" lon="2.99998">
        <ele>962.8</ele>
        <time>2013-09-01T12:27:52Z</time>
      </trkpt>
      <trkpt lat="45.65309" lon="3.00021">
        <ele>964.3</ele>
        <time>2013-09-01T12:29:25Z</time>
      </trkpt>
      <trkpt lat="45.65411" lon="3.00013">
        <ele>965</ele>
        <time>2013-09-01T12:30:42Z</time>
      </trkpt>
      <trkpt lat="45.65662" lon="2.99928">
        <ele>964.1</ele>
        <time>2013-09-01T12:33:53Z</time>
      </trkpt>
      <trkpt lat="45.65764" lon="2.99959">
        <ele>953.3</ele>
        <time>2013-09-01T12:35:12Z</time>
      </trkpt>
      <trkpt lat="45.65799" lon="2.99978">
        <ele>951.9</ele>
        <time>2013-09-01T12:35:40Z</time>
      </trkpt>
      <trkpt lat="45.6586" lon="2.99964">
        <ele>950.8</ele>
        <time>2013-09-01T12:36:25Z</time>
      </trkpt>
      <trkpt lat="45.65937" lon="2.99972">
        <ele>945.3</ele>
        <time>2013-09-01T12:37:23Z</time>
      </trkpt>
      <trkpt lat="45.66012" lon="2.99946">
        <ele>938.2</ele>
        <time>2013-09-01T12:38:21Z</time>
      </trkpt>
      <trkpt lat="45.66078" lon="2.99952">
        <ele>931.1</ele>
        <time>2013-09-01T12:39:10Z</time>
      </trkpt>
      <trkpt lat="45.66133" lon="2.99976">
        <ele>927.6</ele>
        <time>2013-09-01T12:39:53Z</time>
      </trkpt>
      <trkpt lat="45.66407" lon="3.00042">
        <ele>895.9</ele>
        <time>2013-09-01T12:43:21Z</time>
      </trkpt>
      <trkpt lat="45.66426" lon="3.00113">
        <ele>891.8</ele>
        <time>2013-09-01T12:44:01Z</time>
      </trkpt>
      <trkpt lat="45.66428" lon="3.00142">
        <ele>890.6</ele>
        <time>2013-09-01T12:44:16Z</time>
      </trkpt>
      <trkpt lat="45.66439" lon="3.00181">
        <ele>886.1</ele>
        <time>2013-09-01T12:44:38Z</time>
      </trkpt>
      <trkpt lat="45.66448" lon="3.00178">
        <ele>883.1</ele>
        <time>2013-09-01T12:44:45Z</time>
      </trkpt>
      <trkpt lat="45.66464" lon="3.00159">
        <ele>878.6</ele>
        <time>2013-09-01T12:45:01Z</time>
      </trkpt>
      <trkpt lat="45.66481" lon="3.00106">
        <ele>874.8</ele>
        <time>2013-09-01T12:45:32Z</time>
      </trkpt>
      <trkpt lat="45.6649" lon="3.00069">
        <ele>872.9</ele>
        <time>2013-09-01T12:45:52Z</time>
      </trkpt>
      <trkpt lat="45.66501" lon="3.0005">
        <ele>869.1</ele>
        <time>2013-09-01T12:46:05Z</time>
      </trkpt>
      <trkpt lat="45.66518" lon="3.00052">
        <ele>862.9</ele>
        <time>2013-09-01T12:46:18Z</time>
      </trkpt>
      <trkpt lat="45.6654" lon="3.00128">
        <ele>854</ele>
        <time>2013-09-01T12:47:01Z</time>
      </trkpt>
      <trkpt lat="45.66566" lon="3.00203">
        <ele>842.8</ele>
        <time>2013-09-01T12:47:46Z</time>
      </trkpt>
      <trkpt lat="45.66584" lon="3.0019">
        <ele>839.7</ele>
        <time>2013-09-01T12:48:01Z</time>
      </trkpt>
      <trkpt lat="45.66618" lon="3.00184">
        <ele>835.6</ele>
        <time>2013-09-01T12:48:26Z</time>
      </trkpt>
      <trkpt lat="45.6664" lon="3.00137">
        <ele>834.5</ele>
        <time>2013-09-01T12:48:55Z</time>
      </trkpt>
      <trkpt lat="45.66674" lon="3.00061">
        <ele>832.2</ele>
        <time>2013-09-01T12:49:43Z</time>
      </trkpt>
      <trkpt lat="45.66694" lon="3.00044">
        <ele>831.7</ele>
        <time>2013-09-01T12:50:00Z</time>
      </trkpt>
      <trkpt lat="45.66743" lon="3.00048">
        <ele>829.8</ele>
        <time>2013-09-01T12:50:37Z</time>
      </trkpt>
      <trkpt lat="45.66774" lon="3.00041">
        <ele>828.9</ele>
        <time>2013-09-01T12:51:00Z</time>
      </trkpt>
      <trkpt lat="45.66799" lon="3.00049">
        <ele>827.7</ele>
        <time>2013-09-01T12:51:19Z</time>
      </trkpt>
      <trkpt lat="45.66821" lon="3.00003">
        <ele>828.1</ele>
        <time>2013-09-01T12:51:47Z</time>
      </trkpt>
      <trkpt lat="45.66834" lon="2.99946">
        <ele>829.2</ele>
        <time>2013-09-01T12:52:19Z</time>
      </trkpt>
      <trkpt lat="45.6691" lon="2.99914">
        <ele>828.5</ele>
        <time>2013-09-01T12:53:18Z</time>
      </trkpt>
      <trkpt lat="45.66985" lon="2.99754">
        <ele>836.9</ele>
        <time>2013-09-01T12:54:58Z</time>
      </trkpt>
      <trkpt lat="45.67018" lon="2.99739">
        <ele>837.4</ele>
        <time>2013-09-01T12:55:23Z</time>
      </trkpt>
      <trkpt lat="45.6707" lon="2.9964">
        <ele>839.9</ele>
        <time>2013-09-01T12:56:28Z</time>
      </trkpt>
      <trkpt lat="45.67079" lon="2.99551">
        <ele>842.6</ele>
        <time>2013-09-01T12:57:14Z</time>
      </trkpt>
      <trkpt lat="45.67068" lon="2.99484">
        <ele>845.3</ele>
        <time>2013-09-01T12:57:50Z</time>
      </trkpt>
      <trkpt lat="45.67082" lon="2.99346">
        <ele>849.9</ele>
        <time>2013-09-01T12:59:03Z</time>
      </trkpt>
      <trkpt lat="45.67156" lon="2.99297">
        <ele>853.2</ele>
        <time>2013-09-01T13:00:03Z</time>
      </trkpt>
      <trkpt lat="45.67224" lon="2.99216">
        <ele>854.1</ele>
        <time>2013-09-01T13:01:09Z</time>
      </trkpt>
      <trkpt lat="45.67244" lon="2.99232">
        <ele>852.6</ele>
        <time>2013-09-01T13:01:26Z</time>
      </trkpt>
      <trkpt lat="45.67293" lon="2.99328">
        <ele>850</ele>
        <time>2013-09-01T13:02:28Z</time>
      </trkpt>
      <trkpt lat="45.67357" lon="2.99333">
        <ele>850</ele>
        <time>2013-09-01T13:03:16Z</time>
      </trkpt>
      <trkpt lat="45.67381" lon="2.99312">
        <ele>850</ele>
        <time>2013-09-01T13:03:37Z</time>
      </trkpt>
      <trkpt lat="45.67391" lon="2.99292">
        <ele>850.2</ele>
        <time>2013-09-01T13:03:50Z</time>
      </trkpt>
      <trkpt lat="45.674" lon="2.99221">
        <ele>851</ele>
        <time>2013-09-01T13:04:27Z</time>
      </trkpt>
      <trkpt lat="45.67409" lon="2.99188">
        <ele>852.1</ele>
        <time>2013-09-01T13:04:46Z</time>
      </trkpt>
      <trkpt lat="45.67501" lon="2.99164">
        <ele>857.7</ele>
        <time>2013-09-01T13:05:55Z</time>
      </trkpt>
      <trkpt lat="45.67533" lon="2.99102">
        <ele>858.4</ele>
        <time>2013-09-01T13:06:36Z</time>
      </trkpt>
      <trkpt lat="45.67544" lon="2.98975">
        <ele>859.9</ele>
        <time>2013-09-01T13:07:42Z</time>
      </trkpt>
      <trkpt lat="45.67603" lon="2.98855">
        <ele>860</ele>
        <time>2013-09-01T13:08:59Z</time>
      </trkpt>
      <trkpt lat="45.67656" lon="2.98816">
        <ele>860.9</ele>
        <time>2013-09-01T13:09:42Z</time>
      </trkpt>
      <trkpt lat="45.67709" lon="2.9866">
        <ele>868.4</ele>
        <time>2013-09-01T13:11:13Z</time>
      </trkpt>
      <trkpt lat="45.67772" lon="2.98554">
        <ele>873.8</ele>
        <time>2013-09-01T13:12:26Z</time>
      </trkpt>
      <trkpt lat="45.67862" lon="2.98447">
        <ele>879.5</ele>
        <time>2013-09-01T13:13:52Z</time>
      </trkpt>
      <trkpt lat="45.67929" lon="2.98216">
        <ele>883.3</ele>
        <time>2013-09-01T13:16:03Z</time>
      </trkpt>
      <trkpt lat="45.6793" lon="2.98112">
        <ele>883.5</ele>
        <time>2013-09-01T13:16:57Z</time>
      </trkpt>
      <trkpt lat="45.67995" lon="2.98044">
        <ele>888</ele>
        <time>2013-09-01T13:17:56Z</time>
      </trkpt>
      <trkpt lat="45.6804" lon="2.9794">
        <ele>893.3</ele>
        <time>2013-09-01T13:19:00Z</time>
      </trkpt>
      <trkpt lat="45.68071" lon="2.97891">
        <ele>896.9</ele>
        <time>2013-09-01T13:19:34Z</time>
      </trkpt>
      <trkpt lat="45.68115" lon="2.97839">
        <ele>899.9</ele>
        <time>2013-09-01T13:20:17Z</time>
      </trkpt>
      <trkpt lat="45.68166" lon="2.97925">
        <ele>898.4</ele>
        <time>2013-09-01T13:21:16Z</time>
      </trkpt>
      <trkpt lat="45.6836" lon="2.97964">
        <ele>906.9</ele>
        <time>2013-09-01T13:23:42Z</time>
      </trkpt>
      <trkpt lat="45.68408" lon="2.97982">
        <ele>909.9</ele>
        <time>2013-09-01T13:24:19Z</time>
      </trkpt>
      <trkpt lat="45.68453" lon="2.97961">
        <ele>913.5</ele>
        <time>2013-09-01T13:24:54Z</time>
      </trkpt>
      <trkpt lat="45.68532" lon="2.98034">
        <ele>914.1</ele>
        <time>2013-09-01T13:26:04Z</time>
      </trkpt>
      <trkpt lat="45.68595" lon="2.98068">
        <ele>913.5</ele>
        <time>2013-09-01T13:26:54Z</time>
      </trkpt>
      <trkpt lat="45.68613" lon="2.98169">
        <ele>910.6</ele>
        <time>2013-09-01T13:27:48Z</time>
      </trkpt>
      <trkpt lat="45.68667" lon="2.9826">
        <ele>908.3</ele>
        <time>2013-09-01T13:28:50Z</time>
      </trkpt>
      <trkpt lat="45.68676" lon="2.98312">
        <ele>906.8</ele>
        <time>2013-09-01T13:29:18Z</time>
      </trkpt>
      <trkpt lat="45.68676" lon="2.9839">
        <ele>904.2</ele>
        <time>2013-09-01T13:29:59Z</time>
      </trkpt>
      <trkpt lat="45.68692" lon="2.98431">
        <ele>903.5</ele>
        <time>2013-09-01T13:30:24Z</time>
      </trkpt>
      <trkpt lat="45.68742" lon="2.98468">
        <ele>904</ele>
        <time>2013-09-01T13:31:06Z</time>
      </trkpt>
      <trkpt lat="45.68766" lon="2.98535">
        <ele>902</ele>
        <time>2013-09-01T13:31:45Z</time>
      </trkpt>
      <trkpt lat="45.6882" lon="2.98637">
        <ele>907.2</ele>
        <time>2013-09-01T13:32:51Z</time>
      </trkpt>
      <trkpt lat="45.68884" lon="2.98676">
        <ele>911</ele>
        <time>2013-09-01T13:33:43Z</time>
      </trkpt>
      <trkpt lat="45.68935" lon="2.98681">
        <ele>912.4</ele>
        <time>2013-09-01T13:34:21Z</time>
      </trkpt>
      <trkpt lat="45.69003" lon="2.98754">
        <ele>913.6</ele>
        <time>2013-09-01T13:35:24Z</time>
      </trkpt>
      <trkpt lat="45.6903" lon="2.988">
        <ele>912.7</ele>
        <time>2013-09-01T13:35:56Z</time>
      </trkpt>
      <trkpt lat="45.69046" lon="2.9879">
        <ele>913.4</ele>
        <time>2013-09-01T13:36:09Z</time>
      </trkpt>
      <trkpt lat="45.69059" lon="2.98748">
        <ele>915.7</ele>
        <time>2013-09-01T13:36:33Z</time>
      </trkpt>
      <trkpt lat="45.69143" lon="2.98759">
        <ele>916.1</ele>
        <time>2013-09-01T13:37:36Z</time>
      </trkpt>
      <trkpt lat="45.69116" lon="2.98811">
        <ele>914.4</ele>
        <time>2013-09-01T13:38:09Z</time>
      </trkpt>
      <trkpt lat="45.69103" lon="2.98886">
        <ele>911.5</ele>
        <time>2013-09-01T13:38:50Z</time>
      </trkpt>
      <trkpt lat="45.69107" lon="2.9893">
        <ele>910.1</ele>
        <time>2013-09-01T13:39:13Z</time>
      </trkpt>
      <trkpt lat="45.69172" lon="2.99055">
        <ele>909.2</ele>
        <time>2013-09-01T13:40:34Z</time>
      </trkpt>
      <trkpt lat="45.69199" lon="2.99133">
        <ele>908.3</ele>
        <time>2013-09-01T13:41:19Z</time>
      </trkpt>
      <trkpt lat="45.69222" lon="2.99263">
        <ele>907.4</ele>
        <time>2013-09-01T13:42:29Z</time>
      </trkpt>
      <trkpt lat="45.69287" lon="2.99406">
        <ele>903.9</ele>
        <time>2013-09-01T13:43:57Z</time>
      </trkpt>
      <trkpt lat="45.69339" lon="2.99468">
        <ele>900.4</ele>
        <time>2013-09-01T13:44:48Z</time>
      </trkpt>
      <trkpt lat="45.69396" lon="2.99554">
        <ele>905</ele>
        <time>2013-09-01T13:45:49Z</time>
      </trkpt>
      <trkpt lat="45.69419" lon="2.99468">
        <ele>907.3</ele>
        <time>2013-09-01T13:46:37Z</time>
      </trkpt>
      <trkpt lat="45.69452" lon="2.99414">
        <ele>911.9</ele>
        <time>2013-09-01T13:47:15Z</time>
      </trkpt>
      <trkpt lat="45.69563" lon="2.99364">
        <ele>902.1</ele>
        <time>2013-09-01T13:48:42Z</time>
      </trkpt>
      <trkpt lat="45.6963" lon="2.9937">
        <ele>889.9</ele>
        <time>2013-09-01T13:49:32Z</time>
      </trkpt>
      <trkpt lat="45.69651" lon="2.99473">
        <ele>881.3</ele>
        <time>2013-09-01T13:50:29Z</time>
      </trkpt>
      <trkpt lat="45.69754" lon="2.99538">
        <ele>875.7</ele>
        <time>2013-09-01T13:51:52Z</time>
      </trkpt>
      <trkpt lat="45.69815" lon="2.99609">
        <ele>871.2</ele>
        <time>2013-09-01T13:52:50Z</time>
      </trkpt>
      <trkpt lat="45.69847" lon="2.99718">
        <ele>871.5</ele>
        <time>2013-09-01T13:53:52Z</time>
      </trkpt>
      <trkpt lat="45.69858" lon="2.99848">
        <ele>873.5</ele>
        <time>2013-09-01T13:55:00Z</time>
      </trkpt>
      <trkpt lat="45.6987" lon="2.99907">
        <ele>873.3</ele>
        <time>2013-09-01T13:55:33Z</time>
      </trkpt>
      <trkpt lat="45.69917" lon="2.99985">
        <ele>869.3</ele>
        <time>2013-09-01T13:56:26Z</time>
      </trkpt>
      <trkpt lat="45.69984" lon="3.00013">
        <ele>862.5</ele>
        <time>2013-09-01T13:57:18Z</time>
      </trkpt>
      <trkpt lat="45.70014" lon="3.00051">
        <ele>859.6</ele>
        <time>2013-09-01T13:57:48Z</time>
      </trkpt>
      <trkpt lat="45.70072" lon="3.00135">
        <ele>854.2</ele>
        <time>2013-09-01T13:58:49Z</time>
      </trkpt>
      <trkpt lat="45.70167" lon="3.00246">
        <ele>846.4</ele>
        <time>2013-09-01T14:00:20Z</time>
      </trkpt>
      <trkpt lat="45.70257" lon="3.00265">
        <ele>843.1</ele>
        <time>2013-09-01T14:01:28Z</time>
      </trkpt>
      <trkpt lat="45.703" lon="3.00271">
        <ele>842.1</ele>
        <time>2013-09-01T14:02:00Z</time>
      </trkpt>
      <trkpt lat="45.70318" lon="3.00279">
        <ele>841.2</ele>
        <time>2013-09-01T14:02:15Z</time>
      </trkpt>
      <trkpt lat="45.70325" lon="3.00289">
        <ele>840.6</ele>
        <time>2013-09-01T14:02:22Z</time>
      </trkpt>
      <trkpt lat="45.70367" lon="3.00266">
        <ele>841</ele>
        <time>2013-09-01T14:02:56Z</time>
      </trkpt>
      <trkpt lat="45.70376" lon="3.00251">
        <ele>842.1</ele>
        <time>2013-09-01T14:03:06Z</time>
      </trkpt>
      <trkpt lat="45.70382" lon="3.00229">
        <ele>843.9</ele>
        <time>2013-09-01T14:03:18Z</time>
      </trkpt>
      <trkpt lat="45.70408" lon="3.00223">
        <ele>846.1</ele>
        <time>2013-09-01T14:03:38Z</time>
      </trkpt>
      <trkpt lat="45.70416" lon="3.00202">
        <ele>848.9</ele>
        <time>2013-09-01T14:03:50Z</time>
      </trkpt>
      <trkpt lat="45.70426" lon="3.00194">
        <ele>850.5</ele>
        <time>2013-09-01T14:03:59Z</time>
      </trkpt>
      <trkpt lat="45.70438" lon="3.00211">
        <ele>849.4</ele>
        <time>2013-09-01T14:04:11Z</time>
      </trkpt>
      <trkpt lat="45.7046" lon="3.00234">
        <ele>847.6</ele>
        <time>2013-09-01T14:04:32Z</time>
      </trkpt>
      <trkpt lat="45.70474" lon="3.00241">
        <ele>847.4</ele>
        <time>2013-09-01T14:04:42Z</time>
      </trkpt>
      <trkpt lat="45.70494" lon="3.00238">
        <ele>848.8</ele>
        <time>2013-09-01T14:04:57Z</time>
      </trkpt>
      <trkpt lat="45.70554" lon="3.00187">
        <ele>857.7</ele>
        <time>2013-09-01T14:05:50Z</time>
      </trkpt>
      <trkpt lat="45.7057" lon="3.00168">
        <ele>859.1</ele>
        <time>2013-09-01T14:06:06Z</time>
      </trkpt>
      <trkpt lat="45.70587" lon="3.00154">
        <ele>860.1</ele>
        <time>2013-09-01T14:06:20Z</time>
      </trkpt>
      <trkpt lat="45.70609" lon="3.00158">
        <ele>858.9</ele>
        <time>2013-09-01T14:06:37Z</time>
      </trkpt>
      <trkpt lat="45.70652" lon="3.00224">
        <ele>848.7</ele>
        <time>2013-09-01T14:07:24Z</time>
      </trkpt>
      <trkpt lat="45.70656" lon="3.00259">
        <ele>844.5</ele>
        <time>2013-09-01T14:07:43Z</time>
      </trkpt>
      <trkpt lat="45.7067" lon="3.00287">
        <ele>841.8</ele>
        <time>2013-09-01T14:08:01Z</time>
      </trkpt>
      <trkpt lat="45.70676" lon="3.00304">
        <ele>840.5</ele>
        <time>2013-09-01T14:08:10Z</time>
      </trkpt>
      <trkpt lat="45.70697" lon="3.00334">
        <ele>838.5</ele>
        <time>2013-09-01T14:08:33Z</time>
      </trkpt>
      <trkpt lat="45.70748" lon="3.00342">
        <ele>836.7</ele>
        <time>2013-09-01T14:09:11Z</time>
      </trkpt>
      <trkpt lat="45.70777" lon="3.00354">
        <ele>835.6</ele>
        <time>2013-09-01T14:09:34Z</time>
      </trkpt>
      <trkpt lat="45.7105" lon="3.00354">
        <ele>843</ele>
        <time>2013-09-01T14:12:56Z</time>
      </trkpt>
      <trkpt lat="45.71141" lon="3.00373">
        <ele>846.4</ele>
        <time>2013-09-01T14:14:05Z</time>
      </trkpt>
      <trkpt lat="45.71198" lon="3.0035">
        <ele>848.8</ele>
        <time>2013-09-01T14:14:49Z</time>
      </trkpt>
      <trkpt lat="45.71392" lon="3.00401">
        <ele>861.9</ele>
        <time>2013-09-01T14:17:16Z</time>
      </trkpt>
      <trkpt lat="45.71494" lon="3.00463">
        <ele>878.6</ele>
        <time>2013-09-01T14:18:40Z</time>
      </trkpt>
      <trkpt lat="45.71532" lon="3.00498">
        <ele>886.9</ele>
        <time>2013-09-01T14:19:14Z</time>
      </trkpt>
      <trkpt lat="45.71597" lon="3.00494">
        <ele>894.3</ele>
        <time>2013-09-01T14:20:02Z</time>
      </trkpt>
      <trkpt lat="45.71632" lon="3.00486">
        <ele>897.3</ele>
        <time>2013-09-01T14:20:29Z</time>
      </trkpt>
      <trkpt lat="45.71669" lon="3.00525">
        <ele>903.3</ele>
        <time>2013-09-01T14:21:04Z</time>
      </trkpt>
      <trkpt lat="45.71769" lon="3.00592">
        <ele>905.9</ele>
        <time>2013-09-01T14:22:25Z</time>
      </trkpt>
      <trkpt lat="45.71845" lon="3.00538">
        <ele>903</ele>
        <time>2013-09-01T14:23:28Z</time>
      </trkpt>
      <trkpt lat="45.71817" lon="3.00687">
        <ele>899.8</ele>
        <time>2013-09-01T14:24:49Z</time>
      </trkpt>
      <trkpt lat="45.71829" lon="3.00865">
        <ele>898.8</ele>
        <time>2013-09-01T14:26:22Z</time>
      </trkpt>
      <trkpt lat="45.71891" lon="3.01032">
        <ele>894.7</ele>
        <time>2013-09-01T14:28:00Z</time>
      </trkpt>
      <trkpt lat="45.71941" lon="3.01225">
        <ele>890.8</ele>
        <time>2013-09-01T14:29:47Z</time>
      </trkpt>
      <trkpt lat="45.71926" lon="3.01338">
        <ele>887.8</ele>
        <time>2013-09-01T14:30:47Z</time>
      </trkpt>
      <trkpt lat="45.71932" lon="3.01454">
        <ele>891.7</ele>
        <time>2013-09-01T14:31:48Z</time>
      </trkpt>
      <trkpt lat="45.7192" lon="3.01604">
        <ele>888.4</ele>
        <time>2013-09-01T14:33:06Z</time>
      </trkpt>
      <trkpt lat="45.71942" lon="3.01741">
        <ele>883.7</ele>
        <time>2013-09-01T14:34:19Z</time>
      </trkpt>
      <trkpt lat="45.72011" lon="3.01752">
        <ele>883.5</ele>
        <time>2013-09-01T14:35:11Z</time>
      </trkpt>
      <trkpt lat="45.72032" lon="3.01763">
        <ele>873.3</ele>
        <time>2013-09-01T14:35:29Z</time>
      </trkpt>
      <trkpt lat="45.72043" lon="3.01785">
        <ele>872.4</ele>
        <time>2013-09-01T14:35:43Z</time>
      </trkpt>
      <trkpt lat="45.72055" lon="3.01828">
        <ele>870.3</ele>
        <time>2013-09-01T14:36:07Z</time>
      </trkpt>
      <trkpt lat="45.72069" lon="3.01804">
        <ele>870.5</ele>
        <time>2013-09-01T14:36:23Z</time>
      </trkpt>
      <trkpt lat="45.72089" lon="3.01807">
        <ele>869.9</ele>
        <time>2013-09-01T14:36:38Z</time>
      </trkpt>
      <trkpt lat="45.72104" lon="3.01823">
        <ele>869.7</ele>
        <time>2013-09-01T14:36:52Z</time>
      </trkpt>
      <trkpt lat="45.72135" lon="3.01822">
        <ele>871.4</ele>
        <time>2013-09-01T14:37:15Z</time>
      </trkpt>
      <trkpt lat="45.7215" lon="3.01768">
        <ele>872.8</ele>
        <time>2013-09-01T14:37:46Z</time>
      </trkpt>
      <trkpt lat="45.72174" lon="3.01729">
        <ele>875.1</ele>
        <time>2013-09-01T14:38:13Z</time>
      </trkpt>
      <trkpt lat="45.72219" lon="3.01617">
        <ele>882.2</ele>
        <time>2013-09-01T14:39:20Z</time>
      </trkpt>
      <trkpt lat="45.72259" lon="3.01513">
        <ele>885.5</ele>
        <time>2013-09-01T14:40:22Z</time>
      </trkpt>
      <trkpt lat="45.72285" lon="3.01482">
        <ele>885.2</ele>
        <time>2013-09-01T14:40:47Z</time>
      </trkpt>
      <trkpt lat="45.72313" lon="3.01463">
        <ele>885.1</ele>
        <time>2013-09-01T14:41:10Z</time>
      </trkpt>
      <trkpt lat="45.72325" lon="3.01443">
        <ele>885.4</ele>
        <time>2013-09-01T14:41:24Z</time>
      </trkpt>
      <trkpt lat="45.72349" lon="3.01395">
        <ele>887.8</ele>
        <time>2013-09-01T14:41:54Z</time>
      </trkpt>
      <trkpt lat="45.72372" lon="3.01371">
        <ele>889.7</ele>
        <time>2013-09-01T14:42:16Z</time>
      </trkpt>
      <trkpt lat="45.72425" lon="3.01279">
        <ele>891.6</ele>
        <time>2013-09-01T14:43:17Z</time>
      </trkpt>
      <trkpt lat="45.72448" lon="3.01215">
        <ele>893.8</ele>
        <time>2013-09-01T14:43:55Z</time>
      </trkpt>
      <trkpt lat="45.72488" lon="3.01143">
        <ele>898.3</ele>
        <time>2013-09-01T14:44:43Z</time>
      </trkpt>
      <trkpt lat="45.72511" lon="3.01075">
        <ele>904.7</ele>
        <time>2013-09-01T14:45:22Z</time>
      </trkpt>
      <trkpt lat="45.72545" lon="3.00959">
        <ele>911.3</ele>
        <time>2013-09-01T14:46:28Z</time>
      </trkpt>
      <trkpt lat="45.72537" lon="3.00953">
        <ele>911.4</ele>
        <time>2013-09-01T14:46:35Z</time>
      </trkpt>
      <trkpt lat="45.72553" lon="3.00862">
        <ele>914.1</ele>
        <time>2013-09-01T14:47:24Z</time>
      </trkpt>
      <trkpt lat="45.72589" lon="3.00746">
        <ele>918.2</ele>
        <time>2013-09-01T14:48:30Z</time>
      </trkpt>
      <trkpt lat="45.72619" lon="3.0061">
        <ele>925.4</ele>
        <time>2013-09-01T14:49:44Z</time>
      </trkpt>
      <trkpt lat="45.72635" lon="3.00577">
        <ele>928</ele>
        <time>2013-09-01T14:50:05Z</time>
      </trkpt>
      <trkpt lat="45.72649" lon="3.0056">
        <ele>929.9</ele>
        <time>2013-09-01T14:50:19Z</time>
      </trkpt>
      <trkpt lat="45.72714" lon="3.00514">
        <ele>936.6</ele>
        <time>2013-09-01T14:51:13Z</time>
      </trkpt>
      <trkpt lat="45.72764" lon="3.00516">
        <ele>937.2</ele>
        <time>2013-09-01T14:51:50Z</time>
      </trkpt>
      <trkpt lat="45.72809" lon="3.00515">
        <ele>937.5</ele>
        <time>2013-09-01T14:52:24Z</time>
      </trkpt>
      <trkpt lat="45.72845" lon="3.00514">
        <ele>937.7</ele>
        <time>2013-09-01T14:52:51Z</time>
      </trkpt>
      <trkpt lat="45.72877" lon="3.00495">
        <ele>939.1</ele>
        <time>2013-09-01T14:53:17Z</time>
      </trkpt>
      <trkpt lat="45.72917" lon="3.0047">
        <ele>941</ele>
        <time>2013-09-01T14:53:49Z</time>
      </trkpt>
      <trkpt lat="45.73028" lon="3.00224">
        <ele>956.8</ele>
        <time>2013-09-01T14:56:21Z</time>
      </trkpt>
      <trkpt lat="45.73049" lon="3.00131">
        <ele>964.1</ele>
        <time>2013-09-01T14:57:13Z</time>
      </trkpt>
      <trkpt lat="45.7318" lon="3.00149">
        <ele>957.3</ele>
        <time>2013-09-01T14:58:50Z</time>
      </trkpt>
      <trkpt lat="45.73289" lon="3.00151">
        <ele>957</ele>
        <time>2013-09-01T15:00:12Z</time>
      </trkpt>
      <trkpt lat="45.73352" lon="3.00198">
        <ele>959.9</ele>
        <time>2013-09-01T15:01:05Z</time>
      </trkpt>
      <trkpt lat="45.73406" lon="3.00177">
        <ele>966.6</ele>
        <time>2013-09-01T15:01:46Z</time>
      </trkpt>
      <trkpt lat="45.73474" lon="3.00115">
        <ele>977.5</ele>
        <time>2013-09-01T15:02:47Z</time>
      </trkpt>
      <trkpt lat="45.73494" lon="3.00107">
        <ele>979.3</ele>
        <time>2013-09-01T15:03:02Z</time>
      </trkpt>
      <trkpt lat="45.73553" lon="3.00149">
        <ele>979.7</ele>
        <time>2013-09-01T15:03:52Z</time>
      </trkpt>
      <trkpt lat="45.73656" lon="3.00315">
        <ele>976</ele>
        <time>2013-09-01T15:05:47Z</time>
      </trkpt>
      <trkpt lat="45.73728" lon="3.00328">
        <ele>979.6</ele>
        <time>2013-09-01T15:06:41Z</time>
      </trkpt>
      <trkpt lat="45.73749" lon="3.00263">
        <ele>986.1</ele>
        <time>2013-09-01T15:07:18Z</time>
      </trkpt>
      <trkpt lat="45.73754" lon="3.00188">
        <ele>995.4</ele>
        <time>2013-09-01T15:07:58Z</time>
      </trkpt>
      <trkpt lat="45.73758" lon="3.00162">
        <ele>998.8</ele>
        <time>2013-09-01T15:08:12Z</time>
      </trkpt>
      <trkpt lat="45.7381" lon="3.00154">
        <ele>1001.2</ele>
        <time>2013-09-01T15:08:51Z</time>
      </trkpt>
      <trkpt lat="45.73913" lon="3.00087">
        <ele>1004.8</ele>
        <time>2013-09-01T15:10:15Z</time>
      </trkpt>
      <trkpt lat="45.74017" lon="3.00053">
        <ele>1003.5</ele>
        <time>2013-09-01T15:11:35Z</time>
      </trkpt>
      <trkpt lat="45.74171" lon="3.00061">
        <ele>994.6</ele>
        <time>2013-09-01T15:13:30Z</time>
      </trkpt>
      <trkpt lat="45.74216" lon="3.00094">
        <ele>990.8</ele>
        <time>2013-09-01T15:14:08Z</time>
      </trkpt>
      <trkpt lat="45.74401" lon="3.0012">
        <ele>981.6</ele>
        <time>2013-09-01T15:16:26Z</time>
      </trkpt>
      <trkpt lat="45.74477" lon="3.0004">
        <ele>982.2</ele>
        <time>2013-09-01T15:17:36Z</time>
      </trkpt>
      <trkpt lat="45.74518" lon="2.99998">
        <ele>981.8</ele>
        <time>2013-09-01T15:18:14Z</time>
      </trkpt>
      <trkpt lat="45.74574" lon="3.00076">
        <ele>975</ele>
        <time>2013-09-01T15:19:12Z</time>
      </trkpt>
      <trkpt lat="45.7466" lon="3.00102">
        <ele>971.3</ele>
        <time>2013-09-01T15:20:18Z</time>
      </trkpt>
      <trkpt lat="45.7468" lon="3.00037">
        <ele>973.3</ele>
        <time>2013-09-01T15:20:54Z</time>
      </trkpt>
      <trkpt lat="45.74843" lon="3.00029">
        <ele>968</ele>
        <time>2013-09-01T15:22:56Z</time>
      </trkpt>
      <trkpt lat="45.75012" lon="2.9998">
        <ele>964.9</ele>
        <time>2013-09-01T15:25:04Z</time>
      </trkpt>
      <trkpt lat="45.75206" lon="2.99855">
        <ele>950.9</ele>
        <time>2013-09-01T15:27:43Z</time>
      </trkpt>
      <trkpt lat="45.75274" lon="2.99824">
        <ele>943.3</ele>
        <time>2013-09-01T15:28:37Z</time>
      </trkpt>
      <trkpt lat="45.7528" lon="2.99832">
        <ele>941.5</ele>
        <time>2013-09-01T15:28:43Z</time>
      </trkpt>
      <trkpt lat="45.75277" lon="2.99862">
        <ele>938.8</ele>
        <time>2013-09-01T15:28:58Z</time>
      </trkpt>
      <trkpt lat="45.75289" lon="2.99868">
        <ele>936.4</ele>
        <time>2013-09-01T15:29:08Z</time>
      </trkpt>
      <trkpt lat="45.75345" lon="2.99846">
        <ele>931.1</ele>
        <time>2013-09-01T15:29:51Z</time>
      </trkpt>
      <trkpt lat="45.75404" lon="2.99844">
        <ele>925.8</ele>
        <time>2013-09-01T15:30:35Z</time>
      </trkpt>
      <trkpt lat="45.75416" lon="2.99657">
        <ele>933.5</ele>
        <time>2013-09-01T15:32:13Z</time>
      </trkpt>
      <trkpt lat="45.75409" lon="2.99527">
        <ele>939.5</ele>
        <time>2013-09-01T15:33:21Z</time>
      </trkpt>
      <trkpt lat="45.75416" lon="2.99368">
        <ele>946</ele>
        <time>2013-09-01T15:34:43Z</time>
      </trkpt>
      <trkpt lat="45.7538" lon="2.99218">
        <ele>947.2</ele>
        <time>2013-09-01T15:36:06Z</time>
      </trkpt>
      <trkpt lat="45.75375" lon="2.99015">
        <ele>942.2</ele>
        <time>2013-09-01T15:37:51Z</time>
      </trkpt>
      <trkpt lat="45.75386" lon="2.98747">
        <ele>939.1</ele>
        <time>2013-09-01T15:40:11Z</time>
      </trkpt>
      <trkpt lat="45.75389" lon="2.98526">
        <ele>932.6</ele>
        <time>2013-09-01T15:42:05Z</time>
      </trkpt>
      <trkpt lat="45.75382" lon="2.98394">
        <ele>925.8</ele>
        <time>2013-09-01T15:43:15Z</time>
      </trkpt>
      <trkpt lat="45.75409" lon="2.98207">
        <ele>917.5</ele>
        <time>2013-09-01T15:44:54Z</time>
      </trkpt>
      <trkpt lat="45.75495" lon="2.97955">
        <ele>927.9</ele>
        <time>2013-09-01T15:47:20Z</time>
      </trkpt>
      <trkpt lat="45.75544" lon="2.97749">
        <ele>940.4</ele>
        <time>2013-09-01T15:49:13Z</time>
      </trkpt>
      <trkpt lat="45.75564" lon="2.97718">
        <ele>941.9</ele>
        <time>2013-09-01T15:49:35Z</time>
      </trkpt>
      <trkpt lat="45.75598" lon="2.97593">
        <ele>947.1</ele>
        <time>2013-09-01T15:50:44Z</time>
      </trkpt>
      <trkpt lat="45.75619" lon="2.97534">
        <ele>948.6</ele>
        <time>2013-09-01T15:51:19Z</time>
      </trkpt>
      <trkpt lat="45.75626" lon="2.97492">
        <ele>949.8</ele>
        <time>2013-09-01T15:51:42Z</time>
      </trkpt>
      <trkpt lat="45.75657" lon="2.9737">
        <ele>952.1</ele>
        <time>2013-09-01T15:52:49Z</time>
      </trkpt>
      <trkpt lat="45.75704" lon="2.97193">
        <ele>955.4</ele>
        <time>2013-09-01T15:54:27Z</time>
      </trkpt>
      <trkpt lat="45.7572" lon="2.97055">
        <ele>955.7</ele>
        <time>2013-09-01T15:55:40Z</time>
      </trkpt>
      <trkpt lat="45.7577" lon="2.96884">
        <ele>956.6</ele>
        <time>2013-09-01T15:57:16Z</time>
      </trkpt>
      <trkpt lat="45.75799" lon="2.96754">
        <ele>960</ele>
        <time>2013-09-01T15:58:27Z</time>
      </trkpt>
      <trkpt lat="45.75829" lon="2.96619">
        <ele>963.4</ele>
        <time>2013-09-01T15:59:41Z</time>
      </trkpt>
      <trkpt lat="45.75828" lon="2.96531">
        <ele>963.1</ele>
        <time>2013-09-01T16:00:27Z</time>
      </trkpt>
      <trkpt lat="45.75583" lon="2.96612">
        <ele>960.7</ele>
        <time>2013-09-01T16:03:33Z</time>
      </trkpt>
      <trkpt lat="45.7533" lon="2.96725">
        <ele>956.2</ele>
        <time>2013-09-01T16:06:51Z</time>
      </trkpt>
      <trkpt lat="45.75295" lon="2.96678">
        <ele>955.5</ele>
        <time>2013-09-01T16:07:27Z</time>
      </trkpt>
      <trkpt lat="45.75295" lon="2.96565">
        <ele>957.3</ele>
        <time>2013-09-01T16:08:25Z</time>
      </trkpt>
      <trkpt lat="45.75284" lon="2.96499">
        <ele>957.3</ele>
        <time>2013-09-01T16:09:01Z</time>
      </trkpt>
      <trkpt lat="45.75284" lon="2.96261">
        <ele>962.1</ele>
        <time>2013-09-01T16:11:04Z</time>
      </trkpt>
      <trkpt lat="45.75195" lon="2.96245">
        <ele>962.7</ele>
        <time>2013-09-01T16:12:11Z</time>
      </trkpt>
      <trkpt lat="45.75085" lon="2.96097">
        <ele>970.6</ele>
        <time>2013-09-01T16:14:04Z</time>
      </trkpt>
      <trkpt lat="45.74988" lon="2.96101">
        <ele>974.9</ele>
        <time>2013-09-01T16:15:16Z</time>
      </trkpt>
      <trkpt lat="45.75066" lon="2.96015">
        <ele>977.1</ele>
        <time>2013-09-01T16:16:29Z</time>
      </trkpt>
      <trkpt lat="45.75139" lon="2.95906">
        <ele>982.3</ele>
        <time>2013-09-01T16:17:48Z</time>
      </trkpt>
      <trkpt lat="45.75185" lon="2.95805">
        <ele>987.4</ele>
        <time>2013-09-01T16:18:50Z</time>
      </trkpt>
      <trkpt lat="45.75346" lon="2.95739">
        <ele>984.8</ele>
        <time>2013-09-01T16:20:56Z</time>
      </trkpt>
      <trkpt lat="45.75376" lon="2.95555">
        <ele>990.4</ele>
        <time>2013-09-01T16:22:33Z</time>
      </trkpt>
      <trkpt lat="45.75406" lon="2.95516">
        <ele>992.8</ele>
        <time>2013-09-01T16:23:03Z</time>
      </trkpt>
      <trkpt lat="45.75546" lon="2.95676">
        <ele>993.2</ele>
        <time>2013-09-01T16:25:17Z</time>
      </trkpt>
      <trkpt lat="45.75592" lon="2.95801">
        <ele>1000.2</ele>
        <time>2013-09-01T16:26:30Z</time>
      </trkpt>
      <trkpt lat="45.7564" lon="2.95863">
        <ele>1003.1</ele>
        <time>2013-09-01T16:27:18Z</time>
      </trkpt>
      <trkpt lat="45.75667" lon="2.95762">
        <ele>1014.7</ele>
        <time>2013-09-01T16:28:15Z</time>
      </trkpt>
      <trkpt lat="45.75672" lon="2.95696">
        <ele>1023.3</ele>
        <time>2013-09-01T16:28:50Z</time>
      </trkpt>
      <trkpt lat="45.75578" lon="2.9559">
        <ele>1022.9</ele>
        <time>2013-09-01T16:30:19Z</time>
      </trkpt>
      <trkpt lat="45.755" lon="2.95364">
        <ele>1046.2</ele>
        <time>2013-09-01T16:32:31Z</time>
      </trkpt>
      <trkpt lat="45.75497" lon="2.9522">
        <ele>1067.4</ele>
        <time>2013-09-01T16:33:48Z</time>
      </trkpt>
      <trkpt lat="45.75511" lon="2.95072">
        <ele>1078.3</ele>
        <time>2013-09-01T16:35:06Z</time>
      </trkpt>
      <trkpt lat="45.75602" lon="2.95006">
        <ele>1084.7</ele>
        <time>2013-09-01T16:36:22Z</time>
      </trkpt>
      <trkpt lat="45.75681" lon="2.94951">
        <ele>1081.3</ele>
        <time>2013-09-01T16:37:27Z</time>
      </trkpt>
      <trkpt lat="45.75698" lon="2.94914">
        <ele>1076.1</ele>
        <time>2013-09-01T16:37:51Z</time>
      </trkpt>
      <trkpt lat="45.7574" lon="2.94864">
        <ele>1060.7</ele>
        <time>2013-09-01T16:38:32Z</time>
      </trkpt>
      <trkpt lat="45.75785" lon="2.94877">
        <ele>1047.3</ele>
        <time>2013-09-01T16:39:07Z</time>
      </trkpt>
      <trkpt lat="45.75815" lon="2.94916">
        <ele>1049.1</ele>
        <time>2013-09-01T16:39:38Z</time>
      </trkpt>
      <trkpt lat="45.75875" lon="2.94916">
        <ele>1041.3</ele>
        <time>2013-09-01T16:40:22Z</time>
      </trkpt>
      <trkpt lat="45.75905" lon="2.94875">
        <ele>1035.4</ele>
        <time>2013-09-01T16:40:54Z</time>
      </trkpt>
      <trkpt lat="45.75991" lon="2.9496">
        <ele>1035.6</ele>
        <time>2013-09-01T16:42:12Z</time>
      </trkpt>
      <trkpt lat="45.76052" lon="2.94991">
        <ele>1038.4</ele>
        <time>2013-09-01T16:43:00Z</time>
      </trkpt>
      <trkpt lat="45.76139" lon="2.95088">
        <ele>1041.2</ele>
        <time>2013-09-01T16:44:22Z</time>
      </trkpt>
      <trkpt lat="45.76246" lon="2.95166">
        <ele>1041.1</ele>
        <time>2013-09-01T16:45:51Z</time>
      </trkpt>
      <trkpt lat="45.76318" lon="2.95145">
        <ele>1030.8</ele>
        <time>2013-09-01T16:46:46Z</time>
      </trkpt>
      <trkpt lat="45.76352" lon="2.95106">
        <ele>1025.1</ele>
        <time>2013-09-01T16:47:19Z</time>
      </trkpt>
      <trkpt lat="45.76352" lon="2.94893">
        <ele>1019.2</ele>
        <time>2013-09-01T16:49:10Z</time>
      </trkpt>
      <trkpt lat="45.76354" lon="2.94745">
        <ele>1016.2</ele>
        <time>2013-09-01T16:50:27Z</time>
      </trkpt>
      <trkpt lat="45.76347" lon="2.94651">
        <ele>1015.7</ele>
        <time>2013-09-01T16:51:16Z</time>
      </trkpt>
      <trkpt lat="45.76372" lon="2.94651">
        <ele>1010.3</ele>
        <time>2013-09-01T16:51:35Z</time>
      </trkpt>
      <trkpt lat="45.76405" lon="2.94732">
        <ele>1009.4</ele>
        <time>2013-09-01T16:52:23Z</time>
      </trkpt>
      <trkpt lat="45.76432" lon="2.94867">
        <ele>1012</ele>
        <time>2013-09-01T16:53:36Z</time>
      </trkpt>
      <trkpt lat="45.76449" lon="2.94937">
        <ele>1013.9</ele>
        <time>2013-09-01T16:54:15Z</time>
      </trkpt>
      <trkpt lat="45.7658" lon="2.94991">
        <ele>1015.7</ele>
        <time>2013-09-01T16:55:56Z</time>
      </trkpt>
      <trkpt lat="45.76679" lon="2.95004">
        <ele>1019</ele>
        <time>2013-09-01T16:57:10Z</time>
      </trkpt>
      <trkpt lat="45.76841" lon="2.9495">
        <ele>1022.7</ele>
        <time>2013-09-01T16:59:14Z</time>
      </trkpt>
      <trkpt lat="45.77042" lon="2.94854">
        <ele>1013.6</ele>
        <time>2013-09-01T17:01:52Z</time>
      </trkpt>
      <trkpt lat="45.7718" lon="2.94825">
        <ele>1013.1</ele>
        <time>2013-09-01T17:03:36Z</time>
      </trkpt>
      <trkpt lat="45.77292" lon="2.94841">
        <ele>1014</ele>
        <time>2013-09-01T17:04:59Z</time>
      </trkpt>
      <trkpt lat="45.77423" lon="2.94963">
        <ele>1026.5</ele>
        <time>2013-09-01T17:06:56Z</time>
      </trkpt>
      <trkpt lat="45.77503" lon="2.95103">
        <ele>1047.4</ele>
        <time>2013-09-01T17:08:31Z</time>
      </trkpt>
      <trkpt lat="45.77524" lon="2.95208">
        <ele>1064.3</ele>
        <time>2013-09-01T17:09:29Z</time>
      </trkpt>
      <trkpt lat="45.77565" lon="2.95284">
        <ele>1075.6</ele>
        <time>2013-09-01T17:10:19Z</time>
      </trkpt>
      <trkpt lat="45.77596" lon="2.95291">
        <ele>1078.1</ele>
        <time>2013-09-01T17:10:42Z</time>
      </trkpt>
      <trkpt lat="45.77714" lon="2.95232">
        <ele>1071.4</ele>
        <time>2013-09-01T17:12:16Z</time>
      </trkpt>
      <trkpt lat="45.77862" lon="2.95268">
        <ele>1064.1</ele>
        <time>2013-09-01T17:14:08Z</time>
      </trkpt>
      <trkpt lat="45.77938" lon="2.95325">
        <ele>1068</ele>
        <time>2013-09-01T17:15:11Z</time>
      </trkpt>
      <trkpt lat="45.78015" lon="2.95364">
        <ele>1068.9</ele>
        <time>2013-09-01T17:16:12Z</time>
      </trkpt>
      <trkpt lat="45.78044" lon="2.95413">
        <ele>1069.4</ele>
        <time>2013-09-01T17:16:46Z</time>
      </trkpt>
      <trkpt lat="45.78087" lon="2.95541">
        <ele>1071.1</ele>
        <time>2013-09-01T17:17:59Z</time>
      </trkpt>
      <trkpt lat="45.78139" lon="2.95647">
        <ele>1070.1</ele>
        <time>2013-09-01T17:19:07Z</time>
      </trkpt>
      <trkpt lat="45.7815" lon="2.95704">
        <ele>1070.9</ele>
        <time>2013-09-01T17:19:37Z</time>
      </trkpt>
      <trkpt lat="45.78213" lon="2.95816">
        <ele>1071.8</ele>
        <time>2013-09-01T17:20:52Z</time>
      </trkpt>
      <trkpt lat="45.78272" lon="2.96026">
        <ele>1080</ele>
        <time>2013-09-01T17:22:50Z</time>
      </trkpt>
      <trkpt lat="45.78326" lon="2.96124">
        <ele>1086.4</ele>
        <time>2013-09-01T17:23:55Z</time>
      </trkpt>
      <trkpt lat="45.78383" lon="2.96128">
        <ele>1088.5</ele>
        <time>2013-09-01T17:24:37Z</time>
      </trkpt>
      <trkpt lat="45.78461" lon="2.96093">
        <ele>1090.9</ele>
        <time>2013-09-01T17:25:38Z</time>
      </trkpt>
      <trkpt lat="45.78512" lon="2.96167">
        <ele>1103.5</ele>
        <time>2013-09-01T17:26:33Z</time>
      </trkpt>
      <trkpt lat="45.78582" lon="2.96077">
        <ele>1091.7</ele>
        <time>2013-09-01T17:27:43Z</time>
      </trkpt>
      <trkpt lat="45.78617" lon="2.95987">
        <ele>1083.4</ele>
        <time>2013-09-01T17:28:36Z</time>
      </trkpt>
      <trkpt lat="45.78596" lon="2.95855">
        <ele>1090.5</ele>
        <time>2013-09-01T17:29:47Z</time>
      </trkpt>
      <trkpt lat="45.78586" lon="2.95704">
        <ele>1084.5</ele>
        <time>2013-09-01T17:31:06Z</time>
      </trkpt>
      <trkpt lat="45.78594" lon="2.95525">
        <ele>1090.4</ele>
        <time>2013-09-01T17:32:39Z</time>
      </trkpt>
      <trkpt lat="45.78611" lon="2.95419">
        <ele>1097.8</ele>
        <time>2013-09-01T17:33:36Z</time>
      </trkpt>
      <trkpt lat="45.78609" lon="2.95328">
        <ele>1096.1</ele>
        <time>2013-09-01T17:34:23Z</time>
      </trkpt>
      <trkpt lat="45.78627" lon="2.95172">
        <ele>1093.8</ele>
        <time>2013-09-01T17:35:45Z</time>
      </trkpt>
      <trkpt lat="45.78629" lon="2.95081">
        <ele>1083.8</ele>
        <time>2013-09-01T17:36:33Z</time>
      </trkpt>
      <trkpt lat="45.78627" lon="2.95034">
        <ele>1077.3</ele>
        <time>2013-09-01T17:36:58Z</time>
      </trkpt>
      <trkpt lat="45.7865" lon="2.94938">
        <ele>1068.2</ele>
        <time>2013-09-01T17:37:51Z</time>
      </trkpt>
      <trkpt lat="45.78618" lon="2.94769">
        <ele>1049.8</ele>
        <time>2013-09-01T17:39:22Z</time>
      </trkpt>
      <trkpt lat="45.78605" lon="2.94657">
        <ele>1048.1</ele>
        <time>2013-09-01T17:40:21Z</time>
      </trkpt>
      <trkpt lat="45.78618" lon="2.94598">
        <ele>1045.5</ele>
        <time>2013-09-01T17:40:54Z</time>
      </trkpt>
      <trkpt lat="45.7865" lon="2.94509">
        <ele>1041.1</ele>
        <time>2013-09-01T17:41:46Z</time>
      </trkpt>
      <trkpt lat="45.78708" lon="2.94444">
        <ele>1043.6</ele>
        <time>2013-09-01T17:42:40Z</time>
      </trkpt>
      <trkpt lat="45.78783" lon="2.9445">
        <ele>1047.4</ele>
        <time>2013-09-01T17:43:36Z</time>
      </trkpt>
      <trkpt lat="45.78844" lon="2.94429">
        <ele>1049.6</ele>
        <time>2013-09-01T17:44:23Z</time>
      </trkpt>
      <trkpt lat="45.78893" lon="2.94403">
        <ele>1049.6</ele>
        <time>2013-09-01T17:45:02Z</time>
      </trkpt>
      <trkpt lat="45.79027" lon="2.94413">
        <ele>1039.5</ele>
        <time>2013-09-01T17:46:42Z</time>
      </trkpt>
      <trkpt lat="45.79092" lon="2.94429">
        <ele>1036.6</ele>
        <time>2013-09-01T17:47:31Z</time>
      </trkpt>
      <trkpt lat="45.79124" lon="2.94431">
        <ele>1038.8</ele>
        <time>2013-09-01T17:47:55Z</time>
      </trkpt>
      <trkpt lat="45.792" lon="2.94489">
        <ele>1048</ele>
        <time>2013-09-01T17:48:59Z</time>
      </trkpt>
      <trkpt lat="45.79238" lon="2.94546">
        <ele>1052.4</ele>
        <time>2013-09-01T17:49:40Z</time>
      </trkpt>
      <trkpt lat="45.79283" lon="2.94613">
        <ele>1055</ele>
        <time>2013-09-01T17:50:28Z</time>
      </trkpt>
      <trkpt lat="45.79438" lon="2.94832">
        <ele>1042.7</ele>
        <time>2013-09-01T17:53:11Z</time>
      </trkpt>
      <trkpt lat="45.79512" lon="2.94922">
        <ele>1030.4</ele>
        <time>2013-09-01T17:54:24Z</time>
      </trkpt>
      <trkpt lat="45.79543" lon="2.94964">
        <ele>1025.3</ele>
        <time>2013-09-01T17:54:55Z</time>
      </trkpt>
      <trkpt lat="45.79566" lon="2.95032">
        <ele>1015.5</ele>
        <time>2013-09-01T17:55:35Z</time>
      </trkpt>
      <trkpt lat="45.79587" lon="2.95055">
        <ele>1012.4</ele>
        <time>2013-09-01T17:55:55Z</time>
      </trkpt>
      <trkpt lat="45.79627" lon="2.95058">
        <ele>1011.9</ele>
        <time>2013-09-01T17:56:24Z</time>
      </trkpt>
      <trkpt lat="45.79705" lon="2.95026">
        <ele>1016.1</ele>
        <time>2013-09-01T17:57:25Z</time>
      </trkpt>
      <trkpt lat="45.79784" lon="2.95021">
        <ele>1015.4</ele>
        <time>2013-09-01T17:58:23Z</time>
      </trkpt>
      <trkpt lat="45.79816" lon="2.95019">
        <ele>1014.4</ele>
        <time>2013-09-01T17:58:48Z</time>
      </trkpt>
      <trkpt lat="45.79857" lon="2.94993">
        <ele>1013.4</ele>
        <time>2013-09-01T17:59:21Z</time>
      </trkpt>
      <trkpt lat="45.79897" lon="2.94982">
        <ele>1009.7</ele>
        <time>2013-09-01T17:59:51Z</time>
      </trkpt>
      <trkpt lat="45.79917" lon="2.95013">
        <ele>1005.7</ele>
        <time>2013-09-01T18:00:13Z</time>
      </trkpt>
      <trkpt lat="45.79989" lon="2.95094">
        <ele>998.8</ele>
        <time>2013-09-01T18:01:21Z</time>
      </trkpt>
      <trkpt lat="45.80041" lon="2.95089">
        <ele>995.1</ele>
        <time>2013-09-01T18:02:00Z</time>
      </trkpt>
      <trkpt lat="45.80084" lon="2.95117">
        <ele>991.9</ele>
        <time>2013-09-01T18:02:36Z</time>
      </trkpt>
      <trkpt lat="45.80111" lon="2.9512">
        <ele>989.1</ele>
        <time>2013-09-01T18:02:56Z</time>
      </trkpt>
      <trkpt lat="45.80188" lon="2.95143">
        <ele>980.6</ele>
        <time>2013-09-01T18:03:55Z</time>
      </trkpt>
      <trkpt lat="45.80246" lon="2.95141">
        <ele>975.4</ele>
        <time>2013-09-01T18:04:38Z</time>
      </trkpt>
      <trkpt lat="45.8029" lon="2.95128">
        <ele>973.8</ele>
        <time>2013-09-01T18:05:12Z</time>
      </trkpt>
      <trkpt lat="45.80316" lon="2.95125">
        <ele>972.6</ele>
        <time>2013-09-01T18:05:31Z</time>
      </trkpt>
      <trkpt lat="45.80363" lon="2.95073">
        <ele>964.3</ele>
        <time>2013-09-01T18:06:15Z</time>
      </trkpt>
      <trkpt lat="45.80436" lon="2.95037">
        <ele>959.7</ele>
        <time>2013-09-01T18:07:13Z</time>
      </trkpt>
      <trkpt lat="45.80499" lon="2.95011">
        <ele>955</ele>
        <time>2013-09-01T18:08:02Z</time>
      </trkpt>
      <trkpt lat="45.80531" lon="2.94995">
        <ele>954.6</ele>
        <time>2013-09-01T18:08:27Z</time>
      </trkpt>
      <trkpt lat="45.80587" lon="2.95019">
        <ele>956.4</ele>
        <time>2013-09-01T18:09:11Z</time>
      </trkpt>
      <trkpt lat="45.8067" lon="2.95029">
        <ele>961.4</ele>
        <time>2013-09-01T18:10:13Z</time>
      </trkpt>
      <trkpt lat="45.80876" lon="2.95094">
        <ele>964.4</ele>
        <time>2013-09-01T18:12:50Z</time>
      </trkpt>
      <trkpt lat="45.80957" lon="2.95107">
        <ele>963.5</ele>
        <time>2013-09-01T18:13:51Z</time>
      </trkpt>
      <trkpt lat="45.8107" lon="2.95084">
        <ele>966.2</ele>
        <time>2013-09-01T18:15:16Z</time>
      </trkpt>
      <trkpt lat="45.81169" lon="2.95076">
        <ele>957.5</ele>
        <time>2013-09-01T18:16:30Z</time>
      </trkpt>
      <trkpt lat="45.81225" lon="2.9511">
        <ele>955.8</ele>
        <time>2013-09-01T18:17:15Z</time>
      </trkpt>
      <trkpt lat="45.81264" lon="2.95148">
        <ele>954.9</ele>
        <time>2013-09-01T18:17:50Z</time>
      </trkpt>
      <trkpt lat="45.81279" lon="2.95167">
        <ele>956.1</ele>
        <time>2013-09-01T18:18:05Z</time>
      </trkpt>
      <trkpt lat="45.8129" lon="2.95159">
        <ele>956.7</ele>
        <time>2013-09-01T18:18:14Z</time>
      </trkpt>
      <trkpt lat="45.813" lon="2.95213">
        <ele>959.4</ele>
        <time>2013-09-01T18:18:43Z</time>
      </trkpt>
      <trkpt lat="45.81313" lon="2.9525">
        <ele>960.5</ele>
        <time>2013-09-01T18:19:04Z</time>
      </trkpt>
      <trkpt lat="45.81327" lon="2.95278">
        <ele>959.6</ele>
        <time>2013-09-01T18:19:22Z</time>
      </trkpt>
      <trkpt lat="45.81333" lon="2.95328">
        <ele>958.2</ele>
        <time>2013-09-01T18:19:48Z</time>
      </trkpt>
      <trkpt lat="45.81351" lon="2.95343">
        <ele>956.5</ele>
        <time>2013-09-01T18:20:04Z</time>
      </trkpt>
      <trkpt lat="45.81374" lon="2.95346">
        <ele>955</ele>
        <time>2013-09-01T18:20:22Z</time>
      </trkpt>
      <trkpt lat="45.81388" lon="2.95343">
        <ele>954.3</ele>
        <time>2013-09-01T18:20:32Z</time>
      </trkpt>
      <trkpt lat="45.81408" lon="2.95315">
        <ele>955.2</ele>
        <time>2013-09-01T18:20:53Z</time>
      </trkpt>
      <trkpt lat="45.81432" lon="2.95312">
        <ele>955</ele>
        <time>2013-09-01T18:21:11Z</time>
      </trkpt>
      <trkpt lat="45.81457" lon="2.95336">
        <ele>953</ele>
        <time>2013-09-01T18:21:33Z</time>
      </trkpt>
      <trkpt lat="45.81462" lon="2.95351">
        <ele>952.5</ele>
        <time>2013-09-01T18:21:42Z</time>
      </trkpt>
      <trkpt lat="45.81451" lon="2.95416">
        <ele>950.5</ele>
        <time>2013-09-01T18:22:17Z</time>
      </trkpt>
      <trkpt lat="45.81415" lon="2.95538">
        <ele>950.5</ele>
        <time>2013-09-01T18:23:25Z</time>
      </trkpt>
      <trkpt lat="45.81415" lon="2.95697">
        <ele>950.4</ele>
        <time>2013-09-01T18:24:48Z</time>
      </trkpt>
      <trkpt lat="45.81435" lon="2.95816">
        <ele>953.6</ele>
        <time>2013-09-01T18:25:51Z</time>
      </trkpt>
      <trkpt lat="45.81775" lon="2.96034">
        <ele>962.8</ele>
        <time>2013-09-01T18:30:29Z</time>
      </trkpt>
      <trkpt lat="45.81933" lon="2.9617">
        <ele>964.6</ele>
        <time>2013-09-01T18:32:46Z</time>
      </trkpt>
      <trkpt lat="45.82043" lon="2.96242">
        <ele>971.7</ele>
        <time>2013-09-01T18:34:16Z</time>
      </trkpt>
      <trkpt lat="45.82159" lon="2.96276">
        <ele>974.8</ele>
        <time>2013-09-01T18:35:44Z</time>
      </trkpt>
      <trkpt lat="45.82259" lon="2.96292">
        <ele>978.7</ele>
        <time>2013-09-01T18:36:59Z</time>
      </trkpt>
      <trkpt lat="45.82293" lon="2.96322">
        <ele>980.5</ele>
        <time>2013-09-01T18:37:29Z</time>
      </trkpt>
      <trkpt lat="45.82253" lon="2.96332">
        <ele>963</ele>
        <time>2013-09-01T18:38:01Z</time>
      </trkpt>
      <trkpt lat="45.82169" lon="2.96367">
        <ele>960.5</ele>
        <time>2013-09-01T18:39:07Z</time>
      </trkpt>
      <trkpt lat="45.82093" lon="2.96398">
        <ele>959.3</ele>
        <time>2013-09-01T18:40:05Z</time>
      </trkpt>
      <trkpt lat="45.82066" lon="2.9641">
        <ele>958.5</ele>
        <time>2013-09-01T18:40:26Z</time>
      </trkpt>
      <trkpt lat="45.82069" lon="2.96502">
        <ele>961.2</ele>
        <time>2013-09-01T18:41:14Z</time>
      </trkpt>
      <trkpt lat="45.82049" lon="2.96677">
        <ele>969</ele>
        <time>2013-09-01T18:42:46Z</time>
      </trkpt>
      <trkpt lat="45.82059" lon="2.96895">
        <ele>972.9</ele>
        <time>2013-09-01T18:44:39Z</time>
      </trkpt>
      <trkpt lat="45.82073" lon="2.97217">
        <ele>958.7</ele>
        <time>2013-09-01T18:47:27Z</time>
      </trkpt>
      <trkpt lat="45.82117" lon="2.9739">
        <ele>952.1</ele>
        <time>2013-09-01T18:49:03Z</time>
      </trkpt>
      <trkpt lat="45.82162" lon="2.97515">
        <ele>945.4</ele>
        <time>2013-09-01T18:50:16Z</time>
      </trkpt>
      <trkpt lat="45.82247" lon="2.97601">
        <ele>935.9</ele>
        <time>2013-09-01T18:51:33Z</time>
      </trkpt>
      <trkpt lat="45.82272" lon="2.97659">
        <ele>930.2</ele>
        <time>2013-09-01T18:52:09Z</time>
      </trkpt>
      <trkpt lat="45.8228" lon="2.97696">
        <ele>928.3</ele>
        <time>2013-09-01T18:52:29Z</time>
      </trkpt>
      <trkpt lat="45.82305" lon="2.97737">
        <ele>925</ele>
        <time>2013-09-01T18:52:57Z</time>
      </trkpt>
      <trkpt lat="45.82357" lon="2.97776">
        <ele>920.1</ele>
        <time>2013-09-01T18:53:41Z</time>
      </trkpt>
      <trkpt lat="45.82419" lon="2.97827">
        <ele>912.4</ele>
        <time>2013-09-01T18:54:35Z</time>
      </trkpt>
      <trkpt lat="45.82532" lon="2.97895">
        <ele>899.2</ele>
        <time>2013-09-01T18:56:07Z</time>
      </trkpt>
      <trkpt lat="45.82584" lon="2.97991">
        <ele>892</ele>
        <time>2013-09-01T18:57:09Z</time>
      </trkpt>
      <trkpt lat="45.82714" lon="2.9834">
        <ele>887.9</ele>
        <time>2013-09-01T19:00:35Z</time>
      </trkpt>
      <trkpt lat="45.82613" lon="2.98371">
        <ele>889.6</ele>
        <time>2013-09-01T19:01:52Z</time>
      </trkpt>
      <trkpt lat="45.82367" lon="2.98471">
        <ele>899.5</ele>
        <time>2013-09-01T19:05:02Z</time>
      </trkpt>
      <trkpt lat="45.82245" lon="2.98591">
        <ele>893.6</ele>
        <time>2013-09-01T19:06:53Z</time>
      </trkpt>
      <trkpt lat="45.82174" lon="2.98706">
        <ele>892.4</ele>
        <time>2013-09-01T19:08:12Z</time>
      </trkpt>
      <trkpt lat="45.82096" lon="2.98749">
        <ele>903.2</ele>
        <time>2013-09-01T19:09:15Z</time>
      </trkpt>
      <trkpt lat="45.8206" lon="2.98798">
        <ele>905.6</ele>
        <time>2013-09-01T19:09:52Z</time>
      </trkpt>
      <trkpt lat="45.8205" lon="2.98839">
        <ele>906.4</ele>
        <time>2013-09-01T19:10:14Z</time>
      </trkpt>
      <trkpt lat="45.82014" lon="2.98915">
        <ele>907.4</ele>
        <time>2013-09-01T19:11:02Z</time>
      </trkpt>
      <trkpt lat="45.82007" lon="2.98999">
        <ele>906.3</ele>
        <time>2013-09-01T19:11:46Z</time>
      </trkpt>
      <trkpt lat="45.81801" lon="2.99282">
        <ele>904.8</ele>
        <time>2013-09-01T19:15:19Z</time>
      </trkpt>
      <trkpt lat="45.81739" lon="2.99422">
        <ele>901.7</ele>
        <time>2013-09-01T19:16:45Z</time>
      </trkpt>
      <trkpt lat="45.81713" lon="2.99481">
        <ele>904.9</ele>
        <time>2013-09-01T19:17:21Z</time>
      </trkpt>
      <trkpt lat="45.81701" lon="2.99547">
        <ele>907</ele>
        <time>2013-09-01T19:17:56Z</time>
      </trkpt>
      <trkpt lat="45.81688" lon="2.99645">
        <ele>911.1</ele>
        <time>2013-09-01T19:18:48Z</time>
      </trkpt>
      <trkpt lat="45.81693" lon="2.99739">
        <ele>913.5</ele>
        <time>2013-09-01T19:19:37Z</time>
      </trkpt>
      <trkpt lat="45.81699" lon="2.99793">
        <ele>915.3</ele>
        <time>2013-09-01T19:20:05Z</time>
      </trkpt>
      <trkpt lat="45.81691" lon="2.99803">
        <ele>916.1</ele>
        <time>2013-09-01T19:20:13Z</time>
      </trkpt>
      <trkpt lat="45.81668" lon="2.99833">
        <ele>917.9</ele>
        <time>2013-09-01T19:20:37Z</time>
      </trkpt>
      <trkpt lat="45.81661" lon="2.9985">
        <ele>919.2</ele>
        <time>2013-09-01T19:20:47Z</time>
      </trkpt>
      <trkpt lat="45.81608" lon="2.99927">
        <ele>924.1</ele>
        <time>2013-09-01T19:21:43Z</time>
      </trkpt>
      <trkpt lat="45.81565" lon="3.00001">
        <ele>923.9</ele>
        <time>2013-09-01T19:22:33Z</time>
      </trkpt>
      <trkpt lat="45.81528" lon="3.00042">
        <ele>924.2</ele>
        <time>2013-09-01T19:23:08Z</time>
      </trkpt>
      <trkpt lat="45.81504" lon="3.00085">
        <ele>922.9</ele>
        <time>2013-09-01T19:23:37Z</time>
      </trkpt>
      <trkpt lat="45.81492" lon="3.00123">
        <ele>922.9</ele>
        <time>2013-09-01T19:23:58Z</time>
      </trkpt>
      <trkpt lat="45.81464" lon="3.00229">
        <ele>920.9</ele>
        <time>2013-09-01T19:24:57Z</time>
      </trkpt>
      <trkpt lat="45.81441" lon="3.00276">
        <ele>920.4</ele>
        <time>2013-09-01T19:25:27Z</time>
      </trkpt>
      <trkpt lat="45.81432" lon="3.00318">
        <ele>919</ele>
        <time>2013-09-01T19:25:49Z</time>
      </trkpt>
      <trkpt lat="45.81429" lon="3.00341">
        <ele>917.8</ele>
        <time>2013-09-01T19:26:02Z</time>
      </trkpt>
      <trkpt lat="45.81429" lon="3.0038">
        <ele>914.3</ele>
        <time>2013-09-01T19:26:22Z</time>
      </trkpt>
      <trkpt lat="45.81408" lon="3.00451">
        <ele>908.7</ele>
        <time>2013-09-01T19:27:03Z</time>
      </trkpt>
      <trkpt lat="45.81376" lon="3.00506">
        <ele>907.8</ele>
        <time>2013-09-01T19:27:40Z</time>
      </trkpt>
      <trkpt lat="45.81358" lon="3.00537">
        <ele>907.1</ele>
        <time>2013-09-01T19:28:01Z</time>
      </trkpt>
      <trkpt lat="45.81325" lon="3.00551">
        <ele>909.6</ele>
        <time>2013-09-01T19:28:26Z</time>
      </trkpt>
      <trkpt lat="45.81246" lon="3.0058">
        <ele>911.5</ele>
        <time>2013-09-01T19:29:27Z</time>
      </trkpt>
      <trkpt lat="45.81195" lon="3.00583">
        <ele>910.6</ele>
        <time>2013-09-01T19:30:05Z</time>
      </trkpt>
      <trkpt lat="45.81157" lon="3.00588">
        <ele>909.1</ele>
        <time>2013-09-01T19:30:33Z</time>
      </trkpt>
      <trkpt lat="45.81122" lon="3.00594">
        <ele>906.9</ele>
        <time>2013-09-01T19:30:59Z</time>
      </trkpt>
      <trkpt lat="45.811" lon="3.00607">
        <ele>903.6</ele>
        <time>2013-09-01T19:31:18Z</time>
      </trkpt>
      <trkpt lat="45.81084" lon="3.00636">
        <ele>896.8</ele>
        <time>2013-09-01T19:31:37Z</time>
      </trkpt>
      <trkpt lat="45.81076" lon="3.0066">
        <ele>891.8</ele>
        <time>2013-09-01T19:31:51Z</time>
      </trkpt>
      <trkpt lat="45.81073" lon="3.0068">
        <ele>888.8</ele>
        <time>2013-09-01T19:32:02Z</time>
      </trkpt>
      <trkpt lat="45.81055" lon="3.00717">
        <ele>885</ele>
        <time>2013-09-01T19:32:25Z</time>
      </trkpt>
      <trkpt lat="45.80964" lon="3.008">
        <ele>882.4</ele>
        <time>2013-09-01T19:33:46Z</time>
      </trkpt>
      <trkpt lat="45.80923" lon="3.00831">
        <ele>881</ele>
        <time>2013-09-01T19:34:20Z</time>
      </trkpt>
      <trkpt lat="45.80905" lon="3.00827">
        <ele>881.8</ele>
        <time>2013-09-01T19:34:34Z</time>
      </trkpt>
      <trkpt lat="45.80861" lon="3.00795">
        <ele>886.9</ele>
        <time>2013-09-01T19:35:11Z</time>
      </trkpt>
      <trkpt lat="45.80801" lon="3.00752">
        <ele>892.1</ele>
        <time>2013-09-01T19:36:01Z</time>
      </trkpt>
      <trkpt lat="45.80776" lon="3.00739">
        <ele>892.2</ele>
        <time>2013-09-01T19:36:21Z</time>
      </trkpt>
      <trkpt lat="45.80753" lon="3.00736">
        <ele>890.9</ele>
        <time>2013-09-01T19:36:38Z</time>
      </trkpt>
      <trkpt lat="45.80744" lon="3.00739">
        <ele>889.7</ele>
        <time>2013-09-01T19:36:44Z</time>
      </trkpt>
      <trkpt lat="45.80729" lon="3.00761">
        <ele>885.4</ele>
        <time>2013-09-01T19:37:01Z</time>
      </trkpt>
      <trkpt lat="45.80709" lon="3.008">
        <ele>880.9</ele>
        <time>2013-09-01T19:37:26Z</time>
      </trkpt>
      <trkpt lat="45.80703" lon="3.00826">
        <ele>878.6</ele>
        <time>2013-09-01T19:37:40Z</time>
      </trkpt>
      <trkpt lat="45.80708" lon="3.00841">
        <ele>877.5</ele>
        <time>2013-09-01T19:37:49Z</time>
      </trkpt>
      <trkpt lat="45.80734" lon="3.0088">
        <ele>874.2</ele>
        <time>2013-09-01T19:38:17Z</time>
      </trkpt>
      <trkpt lat="45.80735" lon="3.00908">
        <ele>871.9</ele>
        <time>2013-09-01T19:38:31Z</time>
      </trkpt>
      <trkpt lat="45.80749" lon="3.00997">
        <ele>860.6</ele>
        <time>2013-09-01T19:39:20Z</time>
      </trkpt>
      <trkpt lat="45.8075" lon="3.01031">
        <ele>858.2</ele>
        <time>2013-09-01T19:39:37Z</time>
      </trkpt>
      <trkpt lat="45.80745" lon="3.0105">
        <ele>858</ele>
        <time>2013-09-01T19:39:48Z</time>
      </trkpt>
      <trkpt lat="45.80735" lon="3.01074">
        <ele>859.2</ele>
        <time>2013-09-01T19:40:03Z</time>
      </trkpt>
      <trkpt lat="45.80724" lon="3.01037">
        <ele>863.3</ele>
        <time>2013-09-01T19:40:23Z</time>
      </trkpt>
      <trkpt lat="45.80702" lon="3.00976">
        <ele>870</ele>
        <time>2013-09-01T19:40:59Z</time>
      </trkpt>
      <trkpt lat="45.80692" lon="3.00965">
        <ele>872</ele>
        <time>2013-09-01T19:41:09Z</time>
      </trkpt>
      <trkpt lat="45.8069" lon="3.00969">
        <ele>872.2</ele>
        <time>2013-09-01T19:41:12Z</time>
      </trkpt>
      <trkpt lat="45.80695" lon="3.00996">
        <ele>870.2</ele>
        <time>2013-09-01T19:41:26Z</time>
      </trkpt>
      <trkpt lat="45.80691" lon="3.01008">
        <ele>870.6</ele>
        <time>2013-09-01T19:41:33Z</time>
      </trkpt>
      <trkpt lat="45.80691" lon="3.01017">
        <ele>870.5</ele>
        <time>2013-09-01T19:41:38Z</time>
      </trkpt>
      <trkpt lat="45.80679" lon="3.01026">
        <ele>872.6</ele>
        <time>2013-09-01T19:41:48Z</time>
      </trkpt>
      <trkpt lat="45.80664" lon="3.0101">
        <ele>875.6</ele>
        <time>2013-09-01T19:42:02Z</time>
      </trkpt>
      <trkpt lat="45.80656" lon="3.00988">
        <ele>877.4</ele>
        <time>2013-09-01T19:42:15Z</time>
      </trkpt>
      <trkpt lat="45.80628" lon="3.00952">
        <ele>883</ele>
        <time>2013-09-01T19:42:43Z</time>
      </trkpt>
      <trkpt lat="45.80607" lon="3.00962">
        <ele>887</ele>
        <time>2013-09-01T19:43:00Z</time>
      </trkpt>
      <trkpt lat="45.80589" lon="3.00948">
        <ele>890.3</ele>
        <time>2013-09-01T19:43:15Z</time>
      </trkpt>
      <trkpt lat="45.80547" lon="3.00966">
        <ele>898.9</ele>
        <time>2013-09-01T19:43:49Z</time>
      </trkpt>
      <trkpt lat="45.80502" lon="3.00995">
        <ele>906.9</ele>
        <time>2013-09-01T19:44:26Z</time>
      </trkpt>
      <trkpt lat="45.80465" lon="3.01053">
        <ele>908.7</ele>
        <time>2013-09-01T19:45:07Z</time>
      </trkpt>
      <trkpt lat="45.80443" lon="3.01076">
        <ele>911.2</ele>
        <time>2013-09-01T19:45:27Z</time>
      </trkpt>
      <trkpt lat="45.80406" lon="3.01088">
        <ele>916.3</ele>
        <time>2013-09-01T19:45:55Z</time>
      </trkpt>
      <trkpt lat="45.80349" lon="3.01065">
        <ele>921.9</ele>
        <time>2013-09-01T19:46:40Z</time>
      </trkpt>
      <trkpt lat="45.80295" lon="3.01043">
        <ele>923.7</ele>
        <time>2013-09-01T19:47:22Z</time>
      </trkpt>
      <trkpt lat="45.80265" lon="3.01037">
        <ele>922.5</ele>
        <time>2013-09-01T19:47:44Z</time>
      </trkpt>
      <trkpt lat="45.80207" lon="3.01066">
        <ele>915.4</ele>
        <time>2013-09-01T19:48:30Z</time>
      </trkpt>
      <trkpt lat="45.80131" lon="3.01092">
        <ele>912.6</ele>
        <time>2013-09-01T19:49:28Z</time>
      </trkpt>
      <trkpt lat="45.80096" lon="3.01095">
        <ele>915</ele>
        <time>2013-09-01T19:49:54Z</time>
      </trkpt>
      <trkpt lat="45.80055" lon="3.01104">
        <ele>914</ele>
        <time>2013-09-01T19:50:25Z</time>
      </trkpt>
      <trkpt lat="45.79998" lon="3.01104">
        <ele>913.5</ele>
        <time>2013-09-01T19:51:07Z</time>
      </trkpt>
      <trkpt lat="45.79931" lon="3.01093">
        <ele>916.2</ele>
        <time>2013-09-01T19:51:57Z</time>
      </trkpt>
      <trkpt lat="45.79964" lon="3.01245">
        <ele>900.1</ele>
        <time>2013-09-01T19:53:21Z</time>
      </trkpt>
      <trkpt lat="45.79948" lon="3.0158">
        <ele>859.8</ele>
        <time>2013-09-01T19:56:17Z</time>
      </trkpt>
      <trkpt lat="45.7994" lon="3.01725">
        <ele>839.3</ele>
        <time>2013-09-01T19:57:33Z</time>
      </trkpt>
      <trkpt lat="45.79945" lon="3.01853">
        <ele>824</ele>
        <time>2013-09-01T19:58:41Z</time>
      </trkpt>
      <trkpt lat="45.79961" lon="3.01896">
        <ele>821.6</ele>
        <time>2013-09-01T19:59:06Z</time>
      </trkpt>
      <trkpt lat="45.79956" lon="3.02048">
        <ele>819.3</ele>
        <time>2013-09-01T20:00:25Z</time>
      </trkpt>
      <trkpt lat="45.79959" lon="3.02098">
        <ele>815.9</ele>
        <time>2013-09-01T20:00:51Z</time>
      </trkpt>
      <trkpt lat="45.79977" lon="3.0215">
        <ele>810.2</ele>
        <time>2013-09-01T20:01:22Z</time>
      </trkpt>
      <trkpt lat="45.79961" lon="3.02225">
        <ele>803.8</ele>
        <time>2013-09-01T20:02:03Z</time>
      </trkpt>
      <trkpt lat="45.79956" lon="3.02337">
        <ele>795.9</ele>
        <time>2013-09-01T20:03:01Z</time>
      </trkpt>
      <trkpt lat="45.79961" lon="3.02399">
        <ele>789.6</ele>
        <time>2013-09-01T20:03:34Z</time>
      </trkpt>
      <trkpt lat="45.7995" lon="3.02449">
        <ele>784.3</ele>
        <time>2013-09-01T20:04:01Z</time>
      </trkpt>
      <trkpt lat="45.7992" lon="3.02477">
        <ele>782.8</ele>
        <time>2013-09-01T20:04:28Z</time>
      </trkpt>
      <trkpt lat="45.79902" lon="3.02498">
        <ele>781.4</ele>
        <time>2013-09-01T20:04:45Z</time>
      </trkpt>
      <trkpt lat="45.79909" lon="3.02558">
        <ele>774.9</ele>
        <time>2013-09-01T20:05:17Z</time>
      </trkpt>
      <trkpt lat="45.79902" lon="3.02615">
        <ele>772.7</ele>
        <time>2013-09-01T20:05:47Z</time>
      </trkpt>
      <trkpt lat="45.79843" lon="3.02771">
        <ele>773.5</ele>
        <time>2013-09-01T20:07:19Z</time>
      </trkpt>
      <trkpt lat="45.79819" lon="3.0278">
        <ele>770.7</ele>
        <time>2013-09-01T20:07:38Z</time>
      </trkpt>
      <trkpt lat="45.79803" lon="3.02791">
        <ele>767.4</ele>
        <time>2013-09-01T20:07:51Z</time>
      </trkpt>
      <trkpt lat="45.79793" lon="3.02809">
        <ele>764.2</ele>
        <time>2013-09-01T20:08:03Z</time>
      </trkpt>
      <trkpt lat="45.79774" lon="3.028">
        <ele>763.9</ele>
        <time>2013-09-01T20:08:18Z</time>
      </trkpt>
      <trkpt lat="45.7976" lon="3.02792">
        <ele>763.4</ele>
        <time>2013-09-01T20:08:29Z</time>
      </trkpt>
      <trkpt lat="45.79745" lon="3.02799">
        <ele>761.5</ele>
        <time>2013-09-01T20:08:41Z</time>
      </trkpt>
      <trkpt lat="45.79734" lon="3.02823">
        <ele>758.9</ele>
        <time>2013-09-01T20:08:56Z</time>
      </trkpt>
      <trkpt lat="45.79731" lon="3.02845">
        <ele>756</ele>
        <time>2013-09-01T20:09:08Z</time>
      </trkpt>
      <trkpt lat="45.79728" lon="3.02859">
        <ele>753.4</ele>
        <time>2013-09-01T20:09:16Z</time>
      </trkpt>
      <trkpt lat="45.79709" lon="3.02887">
        <ele>747.4</ele>
        <time>2013-09-01T20:09:37Z</time>
      </trkpt>
      <trkpt lat="45.79694" lon="3.02913">
        <ele>742.9</ele>
        <time>2013-09-01T20:09:54Z</time>
      </trkpt>
      <trkpt lat="45.79691" lon="3.02931">
        <ele>740.6</ele>
        <time>2013-09-01T20:10:04Z</time>
      </trkpt>
      <trkpt lat="45.79694" lon="3.02967">
        <ele>736.4</ele>
        <time>2013-09-01T20:10:23Z</time>
      </trkpt>
      <trkpt lat="45.79687" lon="3.02993">
        <ele>733.7</ele>
        <time>2013-09-01T20:10:38Z</time>
      </trkpt>
      <trkpt lat="45.79676" lon="3.03017">
        <ele>731.2</ele>
        <time>2013-09-01T20:10:53Z</time>
      </trkpt>
      <trkpt lat="45.79682" lon="3.03053">
        <ele>717.2</ele>
        <time>2013-09-01T20:11:14Z</time>
      </trkpt>
      <trkpt lat="45.79705" lon="3.03094">
        <ele>715.5</ele>
        <time>2013-09-01T20:11:41Z</time>
      </trkpt>
      <trkpt lat="45.79718" lon="3.03152">
        <ele>711.8</ele>
        <time>2013-09-01T20:12:13Z</time>
      </trkpt>
      <trkpt lat="45.79725" lon="3.03226">
        <ele>706.9</ele>
        <time>2013-09-01T20:12:52Z</time>
      </trkpt>
      <trkpt lat="45.7973" lon="3.03282">
        <ele>704.2</ele>
        <time>2013-09-01T20:13:21Z</time>
      </trkpt>
      <trkpt lat="45.79765" lon="3.03399">
        <ele>702.5</ele>
        <time>2013-09-01T20:14:27Z</time>
      </trkpt>
      <trkpt lat="45.79809" lon="3.03476">
        <ele>700.5</ele>
        <time>2013-09-01T20:15:19Z</time>
      </trkpt>
      <trkpt lat="45.79868" lon="3.0355">
        <ele>697.7</ele>
        <time>2013-09-01T20:16:17Z</time>
      </trkpt>
      <trkpt lat="45.79907" lon="3.03625">
        <ele>696.7</ele>
        <time>2013-09-01T20:17:06Z</time>
      </trkpt>
      <trkpt lat="45.7996" lon="3.03756">
        <ele>693.3</ele>
        <time>2013-09-01T20:18:25Z</time>
      </trkpt>
      <trkpt lat="45.79972" lon="3.03834">
        <ele>687.3</ele>
        <time>2013-09-01T20:19:06Z</time>
      </trkpt>
      <trkpt lat="45.79954" lon="3.04067">
        <ele>677</ele>
        <time>2013-09-01T20:21:08Z</time>
      </trkpt>
      <trkpt lat="45.7996" lon="3.04117">
        <ele>676</ele>
        <time>2013-09-01T20:21:34Z</time>
      </trkpt>
      <trkpt lat="45.79991" lon="3.04159">
        <ele>673.7</ele>
        <time>2013-09-01T20:22:06Z</time>
      </trkpt>
      <trkpt lat="45.80008" lon="3.0419">
        <ele>669.3</ele>
        <time>2013-09-01T20:22:27Z</time>
      </trkpt>
      <trkpt lat="45.80022" lon="3.0422">
        <ele>666.5</ele>
        <time>2013-09-01T20:22:46Z</time>
      </trkpt>
      <trkpt lat="45.80025" lon="3.04272">
        <ele>666.1</ele>
        <time>2013-09-01T20:23:13Z</time>
      </trkpt>
      <trkpt lat="45.80033" lon="3.04302">
        <ele>664.1</ele>
        <time>2013-09-01T20:23:29Z</time>
      </trkpt>
      <trkpt lat="45.8004" lon="3.04321">
        <ele>662.7</ele>
        <time>2013-09-01T20:23:41Z</time>
      </trkpt>
      <trkpt lat="45.80071" lon="3.04327">
        <ele>660</ele>
        <time>2013-09-01T20:24:04Z</time>
      </trkpt>
      <trkpt lat="45.80085" lon="3.04334">
        <ele>658.9</ele>
        <time>2013-09-01T20:24:15Z</time>
      </trkpt>
      <trkpt lat="45.8009" lon="3.04368">
        <ele>658.2</ele>
        <time>2013-09-01T20:24:33Z</time>
      </trkpt>
      <trkpt lat="45.80087" lon="3.04401">
        <ele>653.6</ele>
        <time>2013-09-01T20:24:51Z</time>
      </trkpt>
      <trkpt lat="45.80067" lon="3.04446">
        <ele>648</ele>
        <time>2013-09-01T20:25:19Z</time>
      </trkpt>
      <trkpt lat="45.80059" lon="3.04471">
        <ele>644.5</ele>
        <time>2013-09-01T20:25:33Z</time>
      </trkpt>
      <trkpt lat="45.80064" lon="3.04493">
        <ele>640.5</ele>
        <time>2013-09-01T20:25:45Z</time>
      </trkpt>
      <trkpt lat="45.80077" lon="3.04501">
        <ele>638.6</ele>
        <time>2013-09-01T20:25:56Z</time>
      </trkpt>
      <trkpt lat="45.8009" lon="3.04507">
        <ele>637</ele>
        <time>2013-09-01T20:26:06Z</time>
      </trkpt>
      <trkpt lat="45.80091" lon="3.04516">
        <ele>635.8</ele>
        <time>2013-09-01T20:26:11Z</time>
      </trkpt>
      <trkpt lat="45.80091" lon="3.04533">
        <ele>633.5</ele>
        <time>2013-09-01T20:26:20Z</time>
      </trkpt>
      <trkpt lat="45.80104" lon="3.04534">
        <ele>632.1</ele>
        <time>2013-09-01T20:26:30Z</time>
      </trkpt>
      <trkpt lat="45.80122" lon="3.04517">
        <ele>630.9</ele>
        <time>2013-09-01T20:26:47Z</time>
      </trkpt>
      <trkpt lat="45.80188" lon="3.04463">
        <ele>622.1</ele>
        <time>2013-09-01T20:27:43Z</time>
      </trkpt>
      <trkpt lat="45.80234" lon="3.04419">
        <ele>616.4</ele>
        <time>2013-09-01T20:28:25Z</time>
      </trkpt>
      <trkpt lat="45.80262" lon="3.04389">
        <ele>613.1</ele>
        <time>2013-09-01T20:28:51Z</time>
      </trkpt>
      <trkpt lat="45.80271" lon="3.04389">
        <ele>611.4</ele>
        <time>2013-09-01T20:28:58Z</time>
      </trkpt>
      <trkpt lat="45.80287" lon="3.04396">
        <ele>608.7</ele>
        <time>2013-09-01T20:29:10Z</time>
      </trkpt>
      <trkpt lat="45.80296" lon="3.04405">
        <ele>607.3</ele>
        <time>2013-09-01T20:29:19Z</time>
      </trkpt>
      <trkpt lat="45.80298" lon="3.04409">
        <ele>607</ele>
        <time>2013-09-01T20:29:21Z</time>
      </trkpt>
      <trkpt lat="45.80301" lon="3.04421">
        <ele>606.5</ele>
        <time>2013-09-01T20:29:28Z</time>
      </trkpt>
      <trkpt lat="45.80303" lon="3.0445">
        <ele>603.3</ele>
        <time>2013-09-01T20:29:43Z</time>
      </trkpt>
      <trkpt lat="45.803" lon="3.04476">
        <ele>599.8</ele>
        <time>2013-09-01T20:29:57Z</time>
      </trkpt>
      <trkpt lat="45.80301" lon="3.04495">
        <ele>596.2</ele>
        <time>2013-09-01T20:30:07Z</time>
      </trkpt>
      <trkpt lat="45.80307" lon="3.0452">
        <ele>591.1</ele>
        <time>2013-09-01T20:30:21Z</time>
      </trkpt>
      <trkpt lat="45.8031" lon="3.04541">
        <ele>586.5</ele>
        <time>2013-09-01T20:30:33Z</time>
      </trkpt>
      <trkpt lat="45.80313" lon="3.04557">
        <ele>582.1</ele>
        <time>2013-09-01T20:30:42Z</time>
      </trkpt>
      <trkpt lat="45.80325" lon="3.04572">
        <ele>579.3</ele>
        <time>2013-09-01T20:30:53Z</time>
      </trkpt>
      <trkpt lat="45.80355" lon="3.04592">
        <ele>580.2</ele>
        <time>2013-09-01T20:31:18Z</time>
      </trkpt>
      <trkpt lat="45.80384" lon="3.04601">
        <ele>582</ele>
        <time>2013-09-01T20:31:40Z</time>
      </trkpt>
      <trkpt lat="45.80386" lon="3.04601">
        <ele>581.8</ele>
        <time>2013-09-01T20:31:42Z</time>
      </trkpt>
      <trkpt lat="45.8041" lon="3.04619">
        <ele>575.2</ele>
        <time>2013-09-01T20:32:03Z</time>
      </trkpt>
      <trkpt lat="45.80413" lon="3.04621">
        <ele>574.5</ele>
        <time>2013-09-01T20:32:05Z</time>
      </trkpt>
      <trkpt lat="45.80423" lon="3.04629">
        <ele>571.5</ele>
        <time>2013-09-01T20:32:13Z</time>
      </trkpt>
      <trkpt lat="45.80434" lon="3.04631">
        <ele>570.5</ele>
        <time>2013-09-01T20:32:22Z</time>
      </trkpt>
      <trkpt lat="45.80439" lon="3.0463">
        <ele>570.7</ele>
        <time>2013-09-01T20:32:26Z</time>
      </trkpt>
      <trkpt lat="45.80445" lon="3.04621">
        <ele>573.1</ele>
        <time>2013-09-01T20:32:33Z</time>
      </trkpt>
      <trkpt lat="45.80448" lon="3.04623">
        <ele>572.2</ele>
        <time>2013-09-01T20:32:35Z</time>
      </trkpt>
      <trkpt lat="45.80451" lon="3.04626">
        <ele>571.1</ele>
        <time>2013-09-01T20:32:38Z</time>
      </trkpt>
      <trkpt lat="45.80451" lon="3.04631">
        <ele>569.9</ele>
        <time>2013-09-01T20:32:41Z</time>
      </trkpt>
      <trkpt lat="45.80452" lon="3.04641">
        <ele>567.1</ele>
        <time>2013-09-01T20:32:46Z</time>
      </trkpt>
      <trkpt lat="45.80445" lon="3.04661">
        <ele>561.9</ele>
        <time>2013-09-01T20:32:58Z</time>
      </trkpt>
      <trkpt lat="45.80428" lon="3.04666">
        <ele>560.1</ele>
        <time>2013-09-01T20:33:11Z</time>
      </trkpt>
      <trkpt lat="45.80408" lon="3.04655">
        <ele>563.3</ele>
        <time>2013-09-01T20:33:27Z</time>
      </trkpt>
      <trkpt lat="45.80393" lon="3.04655">
        <ele>563.4</ele>
        <time>2013-09-01T20:33:39Z</time>
      </trkpt>
      <trkpt lat="45.8039" lon="3.04658">
        <ele>562.7</ele>
        <time>2013-09-01T20:33:41Z</time>
      </trkpt>
      <trkpt lat="45.8038" lon="3.04666">
        <ele>560.2</ele>
        <time>2013-09-01T20:33:50Z</time>
      </trkpt>
      <trkpt lat="45.8036" lon="3.04688">
        <ele>550.2</ele>
        <time>2013-09-01T20:34:10Z</time>
      </trkpt>
      <trkpt lat="45.80334" lon="3.04671">
        <ele>550.7</ele>
        <time>2013-09-01T20:34:31Z</time>
      </trkpt>
      <trkpt lat="45.80317" lon="3.04658">
        <ele>552.4</ele>
        <time>2013-09-01T20:34:45Z</time>
      </trkpt>
      <trkpt lat="45.80274" lon="3.04637">
        <ele>562.7</ele>
        <time>2013-09-01T20:35:20Z</time>
      </trkpt>
      <trkpt lat="45.80268" lon="3.04646">
        <ele>561.9</ele>
        <time>2013-09-01T20:35:26Z</time>
      </trkpt>
      <trkpt lat="45.80257" lon="3.04691">
        <ele>560.3</ele>
        <time>2013-09-01T20:35:51Z</time>
      </trkpt>
      <trkpt lat="45.80243" lon="3.04729">
        <ele>559.5</ele>
        <time>2013-09-01T20:36:13Z</time>
      </trkpt>
      <trkpt lat="45.8024" lon="3.04764">
        <ele>552.9</ele>
        <time>2013-09-01T20:36:32Z</time>
      </trkpt>
      <trkpt lat="45.80235" lon="3.0478">
        <ele>550.2</ele>
        <time>2013-09-01T20:36:41Z</time>
      </trkpt>
      <trkpt lat="45.80221" lon="3.04803">
        <ele>547.4</ele>
        <time>2013-09-01T20:36:58Z</time>
      </trkpt>
      <trkpt lat="45.80203" lon="3.04821">
        <ele>546.4</ele>
        <time>2013-09-01T20:37:14Z</time>
      </trkpt>
      <trkpt lat="45.80177" lon="3.04864">
        <ele>539.6</ele>
        <time>2013-09-01T20:37:43Z</time>
      </trkpt>
      <trkpt lat="45.80163" lon="3.04899">
        <ele>534.7</ele>
        <time>2013-09-01T20:38:05Z</time>
      </trkpt>
      <trkpt lat="45.8016" lon="3.0491">
        <ele>532.7</ele>
        <time>2013-09-01T20:38:11Z</time>
      </trkpt>
      <trkpt lat="45.80161" lon="3.0492">
        <ele>530.9</ele>
        <time>2013-09-01T20:38:16Z</time>
      </trkpt>
      <trkpt lat="45.80158" lon="3.04925">
        <ele>527.6</ele>
        <time>2013-09-01T20:38:20Z</time>
      </trkpt>
      <trkpt lat="45.80136" lon="3.04972">
        <ele>526.3</ele>
        <time>2013-09-01T20:38:50Z</time>
      </trkpt>
      <trkpt lat="45.80097" lon="3.05021">
        <ele>525.2</ele>
        <time>2013-09-01T20:39:29Z</time>
      </trkpt>
      <trkpt lat="45.80093" lon="3.05042">
        <ele>522.4</ele>
        <time>2013-09-01T20:39:40Z</time>
      </trkpt>
      <trkpt lat="45.80097" lon="3.05094">
        <ele>513.5</ele>
        <time>2013-09-01T20:40:08Z</time>
      </trkpt>
      <trkpt lat="45.80046" lon="3.05154">
        <ele>504</ele>
        <time>2013-09-01T20:40:57Z</time>
      </trkpt>
      <trkpt lat="45.80027" lon="3.05177">
        <ele>502</ele>
        <time>2013-09-01T20:41:16Z</time>
      </trkpt>
      <trkpt lat="45.80014" lon="3.05221">
        <ele>498.6</ele>
        <time>2013-09-01T20:41:41Z</time>
      </trkpt>
      <trkpt lat="45.80012" lon="3.05312">
        <ele>496.1</ele>
        <time>2013-09-01T20:42:28Z</time>
      </trkpt>
      <trkpt lat="45.80011" lon="3.05367">
        <ele>496.7</ele>
        <time>2013-09-01T20:42:56Z</time>
      </trkpt>
      <trkpt lat="45.80021" lon="3.05424">
        <ele>496.9</ele>
        <time>2013-09-01T20:43:27Z</time>
      </trkpt>
      <trkpt lat="45.8002" lon="3.05468">
        <ele>498</ele>
        <time>2013-09-01T20:43:50Z</time>
      </trkpt>
      <trkpt lat="45.80059" lon="3.05541">
        <ele>496.2</ele>
        <time>2013-09-01T20:44:38Z</time>
      </trkpt>
      <trkpt lat="45.80071" lon="3.05604">
        <ele>495.7</ele>
        <time>2013-09-01T20:45:11Z</time>
      </trkpt>
      <trkpt lat="45.80117" lon="3.05614">
        <ele>497.7</ele>
        <time>2013-09-01T20:45:46Z</time>
      </trkpt>
      <trkpt lat="45.80108" lon="3.05642">
        <ele>498.6</ele>
        <time>2013-09-01T20:46:02Z</time>
      </trkpt>
      <trkpt lat="45.80063" lon="3.05671">
        <ele>501.5</ele>
        <time>2013-09-01T20:46:39Z</time>
      </trkpt>
      <trkpt lat="45.79959" lon="3.05702">
        <ele>501.9</ele>
        <time>2013-09-01T20:47:58Z</time>
      </trkpt>
      <trkpt lat="45.79849" lon="3.05814">
        <ele>504</ele>
        <time>2013-09-01T20:49:38Z</time>
      </trkpt>
      <trkpt lat="45.79867" lon="3.05855">
        <ele>507.5</ele>
        <time>2013-09-01T20:50:04Z</time>
      </trkpt>
      <trkpt lat="45.79935" lon="3.05866">
        <ele>515.2</ele>
        <time>2013-09-01T20:50:55Z</time>
      </trkpt>
      <trkpt lat="45.79984" lon="3.05855">
        <ele>524</ele>
        <time>2013-09-01T20:51:32Z</time>
      </trkpt>
      <trkpt lat="45.79993" lon="3.0586">
        <ele>526.3</ele>
        <time>2013-09-01T20:51:39Z</time>
      </trkpt>
      <trkpt lat="45.80014" lon="3.05938">
        <ele>540.3</ele>
        <time>2013-09-01T20:52:24Z</time>
      </trkpt>
      <trkpt lat="45.79998" lon="3.06089">
        <ele>557.7</ele>
        <time>2013-09-01T20:53:44Z</time>
      </trkpt>
      <trkpt lat="45.80022" lon="3.06123">
        <ele>565.3</ele>
        <time>2013-09-01T20:54:09Z</time>
      </trkpt>
      <trkpt lat="45.80057" lon="3.06136">
        <ele>567.1</ele>
        <time>2013-09-01T20:54:37Z</time>
      </trkpt>
      <trkpt lat="45.80147" lon="3.061">
        <ele>558.8</ele>
        <time>2013-09-01T20:55:46Z</time>
      </trkpt>
      <trkpt lat="45.80347" lon="3.06175">
        <ele>563</ele>
        <time>2013-09-01T20:58:20Z</time>
      </trkpt>
      <trkpt lat="45.80401" lon="3.06198">
        <ele>561.1</ele>
        <time>2013-09-01T20:59:02Z</time>
      </trkpt>
      <trkpt lat="45.80474" lon="3.06172">
        <ele>547.9</ele>
        <time>2013-09-01T20:59:59Z</time>
      </trkpt>
      <trkpt lat="45.80552" lon="3.06222">
        <ele>541.3</ele>
        <time>2013-09-01T21:01:02Z</time>
      </trkpt>
      <trkpt lat="45.80629" lon="3.06313">
        <ele>538.2</ele>
        <time>2013-09-01T21:02:16Z</time>
      </trkpt>
      <trkpt lat="45.80683" lon="3.06398">
        <ele>534.7</ele>
        <time>2013-09-01T21:03:16Z</time>
      </trkpt>
      <trkpt lat="45.8072" lon="3.06505">
        <ele>534.3</ele>
        <time>2013-09-01T21:04:18Z</time>
      </trkpt>
      <trkpt lat="45.80733" lon="3.06547">
        <ele>536.1</ele>
        <time>2013-09-01T21:04:42Z</time>
      </trkpt>
      <trkpt lat="45.8076" lon="3.06585">
        <ele>536.9</ele>
        <time>2013-09-01T21:05:10Z</time>
      </trkpt>
      <trkpt lat="45.80826" lon="3.06604">
        <ele>539.3</ele>
        <time>2013-09-01T21:06:01Z</time>
      </trkpt>
      <trkpt lat="45.8092" lon="3.06645">
        <ele>543.5</ele>
        <time>2013-09-01T21:07:14Z</time>
      </trkpt>
      <trkpt lat="45.81049" lon="3.0676">
        <ele>545.4</ele>
        <time>2013-09-01T21:09:07Z</time>
      </trkpt>
      <trkpt lat="45.81042" lon="3.06814">
        <ele>551.2</ele>
        <time>2013-09-01T21:09:36Z</time>
      </trkpt>
      <trkpt lat="45.8106" lon="3.06832">
        <ele>550.9</ele>
        <time>2013-09-01T21:09:52Z</time>
      </trkpt>
      <trkpt lat="45.81085" lon="3.06809">
        <ele>545.3</ele>
        <time>2013-09-01T21:10:15Z</time>
      </trkpt>
      <trkpt lat="45.81214" lon="3.06952">
        <ele>535.7</ele>
        <time>2013-09-01T21:12:17Z</time>
      </trkpt>
      <trkpt lat="45.81195" lon="3.07045">
        <ele>548.7</ele>
        <time>2013-09-01T21:13:08Z</time>
      </trkpt>
      <trkpt lat="45.81186" lon="3.07134">
        <ele>556.2</ele>
        <time>2013-09-01T21:13:54Z</time>
      </trkpt>
      <trkpt lat="45.81174" lon="3.07121">
        <ele>559.1</ele>
        <time>2013-09-01T21:14:06Z</time>
      </trkpt>
      <trkpt lat="45.81136" lon="3.07058">
        <ele>564.1</ele>
        <time>2013-09-01T21:14:49Z</time>
      </trkpt>
      <trkpt lat="45.81104" lon="3.07025">
        <ele>567</ele>
        <time>2013-09-01T21:15:19Z</time>
      </trkpt>
      <trkpt lat="45.81012" lon="3.07001">
        <ele>572.2</ele>
        <time>2013-09-01T21:16:28Z</time>
      </trkpt>
      <trkpt lat="45.80996" lon="3.07038">
        <ele>574.5</ele>
        <time>2013-09-01T21:16:51Z</time>
      </trkpt>
      <trkpt lat="45.80917" lon="3.07103">
        <ele>578.9</ele>
        <time>2013-09-01T21:17:59Z</time>
      </trkpt>
      <trkpt lat="45.80901" lon="3.07149">
        <ele>582.3</ele>
        <time>2013-09-01T21:18:26Z</time>
      </trkpt>
      <trkpt lat="45.80897" lon="3.07199">
        <ele>586.1</ele>
        <time>2013-09-01T21:18:52Z</time>
      </trkpt>
      <trkpt lat="45.80958" lon="3.07264">
        <ele>593.4</ele>
        <time>2013-09-01T21:19:49Z</time>
      </trkpt>
      <trkpt lat="45.80942" lon="3.07324">
        <ele>597.5</ele>
        <time>2013-09-01T21:20:22Z</time>
      </trkpt>
      <trkpt lat="45.80945" lon="3.07378">
        <ele>600.1</ele>
        <time>2013-09-01T21:20:50Z</time>
      </trkpt>
      <trkpt lat="45.80942" lon="3.07479">
        <ele>601.8</ele>
        <time>2013-09-01T21:21:43Z</time>
      </trkpt>
      <trkpt lat="45.80929" lon="3.07581">
        <ele>603</ele>
        <time>2013-09-01T21:22:36Z</time>
      </trkpt>
      <trkpt lat="45.80897" lon="3.0769">
        <ele>601.3</ele>
        <time>2013-09-01T21:23:38Z</time>
      </trkpt>
      <trkpt lat="45.80816" lon="3.07669">
        <ele>600.9</ele>
        <time>2013-09-01T21:24:39Z</time>
      </trkpt>
      <trkpt lat="45.80778" lon="3.07721">
        <ele>599.4</ele>
        <time>2013-09-01T21:25:18Z</time>
      </trkpt>
      <trkpt lat="45.80746" lon="3.07757">
        <ele>598.7</ele>
        <time>2013-09-01T21:25:49Z</time>
      </trkpt>
      <trkpt lat="45.80753" lon="3.07838">
        <ele>598.4</ele>
        <time>2013-09-01T21:26:31Z</time>
      </trkpt>
      <trkpt lat="45.80748" lon="3.07885">
        <ele>596.4</ele>
        <time>2013-09-01T21:26:55Z</time>
      </trkpt>
      <trkpt lat="45.80757" lon="3.07971">
        <ele>590.7</ele>
        <time>2013-09-01T21:27:41Z</time>
      </trkpt>
      <trkpt lat="45.80791" lon="3.07984">
        <ele>592.4</ele>
        <time>2013-09-01T21:28:07Z</time>
      </trkpt>
      <trkpt lat="45.80827" lon="3.08059">
        <ele>586.3</ele>
        <time>2013-09-01T21:28:54Z</time>
      </trkpt>
      <trkpt lat="45.80856" lon="3.08085">
        <ele>585.2</ele>
        <time>2013-09-01T21:29:20Z</time>
      </trkpt>
      <trkpt lat="45.80985" lon="3.08236">
        <ele>580.7</ele>
        <time>2013-09-01T21:31:24Z</time>
      </trkpt>
      <trkpt lat="45.81039" lon="3.08334">
        <ele>580.6</ele>
        <time>2013-09-01T21:32:29Z</time>
      </trkpt>
      <trkpt lat="45.81093" lon="3.08399">
        <ele>583.5</ele>
        <time>2013-09-01T21:33:21Z</time>
      </trkpt>
      <trkpt lat="45.81118" lon="3.08394">
        <ele>585.3</ele>
        <time>2013-09-01T21:33:40Z</time>
      </trkpt>
      <trkpt lat="45.81141" lon="3.08446">
        <ele>581.5</ele>
        <time>2013-09-01T21:34:12Z</time>
      </trkpt>
      <trkpt lat="45.81168" lon="3.08446">
        <ele>581.6</ele>
        <time>2013-09-01T21:34:32Z</time>
      </trkpt>
      <trkpt lat="45.81181" lon="3.08327">
        <ele>583.4</ele>
        <time>2013-09-01T21:35:35Z</time>
      </trkpt>
      <trkpt lat="45.811" lon="3.07986">
        <ele>572.9</ele>
        <time>2013-09-01T21:38:42Z</time>
      </trkpt>
      <trkpt lat="45.81136" lon="3.07999">
        <ele>569.9</ele>
        <time>2013-09-01T21:39:10Z</time>
      </trkpt>
      <trkpt lat="45.81152" lon="3.0802">
        <ele>568.8</ele>
        <time>2013-09-01T21:39:26Z</time>
      </trkpt>
      <trkpt lat="45.81247" lon="3.07999">
        <ele>552.9</ele>
        <time>2013-09-01T21:40:38Z</time>
      </trkpt>
      <trkpt lat="45.81355" lon="3.0803">
        <ele>540.5</ele>
        <time>2013-09-01T21:42:00Z</time>
      </trkpt>
      <trkpt lat="45.81371" lon="3.08159">
        <ele>544.2</ele>
        <time>2013-09-01T21:43:08Z</time>
      </trkpt>
      <trkpt lat="45.81355" lon="3.08262">
        <ele>549.9</ele>
        <time>2013-09-01T21:44:03Z</time>
      </trkpt>
      <trkpt lat="45.81362" lon="3.08349">
        <ele>551.1</ele>
        <time>2013-09-01T21:44:49Z</time>
      </trkpt>
      <trkpt lat="45.81343" lon="3.08446">
        <ele>550.7</ele>
        <time>2013-09-01T21:45:41Z</time>
      </trkpt>
      <trkpt lat="45.81275" lon="3.08571">
        <ele>552.1</ele>
        <time>2013-09-01T21:47:03Z</time>
      </trkpt>
      <trkpt lat="45.81224" lon="3.0866">
        <ele>552.5</ele>
        <time>2013-09-01T21:48:03Z</time>
      </trkpt>
      <trkpt lat="45.81206" lon="3.08688">
        <ele>552.5</ele>
        <time>2013-09-01T21:48:23Z</time>
      </trkpt>
      <trkpt lat="45.81252" lon="3.0867">
        <ele>549</ele>
        <time>2013-09-01T21:48:58Z</time>
      </trkpt>
      <trkpt lat="45.81303" lon="3.08715">
        <ele>541.3</ele>
        <time>2013-09-01T21:49:43Z</time>
      </trkpt>
      <trkpt lat="45.81382" lon="3.08756">
        <ele>533</ele>
        <time>2013-09-01T21:50:46Z</time>
      </trkpt>
      <trkpt lat="45.81414" lon="3.08816">
        <ele>531.9</ele>
        <time>2013-09-01T21:51:25Z</time>
      </trkpt>
      <trkpt lat="45.81495" lon="3.0893">
        <ele>522.8</ele>
        <time>2013-09-01T21:52:49Z</time>
      </trkpt>
      <trkpt lat="45.81477" lon="3.08965">
        <ele>526</ele>
        <time>2013-09-01T21:53:12Z</time>
      </trkpt>
      <trkpt lat="45.81492" lon="3.08981">
        <ele>522.8</ele>
        <time>2013-09-01T21:53:26Z</time>
      </trkpt>
      <trkpt lat="45.81513" lon="3.08994">
        <ele>517.8</ele>
        <time>2013-09-01T21:53:43Z</time>
      </trkpt>
      <trkpt lat="45.81537" lon="3.09032">
        <ele>509.5</ele>
        <time>2013-09-01T21:54:11Z</time>
      </trkpt>
      <trkpt lat="45.8155" lon="3.09083">
        <ele>501</ele>
        <time>2013-09-01T21:54:39Z</time>
      </trkpt>
      <trkpt lat="45.81551" lon="3.0912">
        <ele>496.8</ele>
        <time>2013-09-01T21:54:59Z</time>
      </trkpt>
      <trkpt lat="45.81545" lon="3.09151">
        <ele>494.7</ele>
        <time>2013-09-01T21:55:15Z</time>
      </trkpt>
      <trkpt lat="45.81554" lon="3.09178">
        <ele>489.6</ele>
        <time>2013-09-01T21:55:31Z</time>
      </trkpt>
      <trkpt lat="45.81563" lon="3.09198">
        <ele>485.6</ele>
        <time>2013-09-01T21:55:44Z</time>
      </trkpt>
      <trkpt lat="45.81567" lon="3.09214">
        <ele>482.8</ele>
        <time>2013-09-01T21:55:53Z</time>
      </trkpt>
      <trkpt lat="45.81582" lon="3.09238">
        <ele>477.1</ele>
        <time>2013-09-01T21:56:10Z</time>
      </trkpt>
      <trkpt lat="45.81601" lon="3.09261">
        <ele>470.6</ele>
        <time>2013-09-01T21:56:29Z</time>
      </trkpt>
      <trkpt lat="45.81627" lon="3.09264">
        <ele>465.3</ele>
        <time>2013-09-01T21:56:49Z</time>
      </trkpt>
      <trkpt lat="45.81707" lon="3.09291">
        <ele>453.3</ele>
        <time>2013-09-01T21:57:51Z</time>
      </trkpt>
      <trkpt lat="45.81809" lon="3.09294">
        <ele>456</ele>
        <time>2013-09-01T21:59:07Z</time>
      </trkpt>
      <trkpt lat="45.81918" lon="3.09324">
        <ele>457.5</ele>
        <time>2013-09-01T22:00:29Z</time>
      </trkpt>
      <trkpt lat="45.81945" lon="3.0935">
        <ele>454.8</ele>
        <time>2013-09-01T22:00:54Z</time>
      </trkpt>
      <trkpt lat="45.82027" lon="3.09475">
        <ele>445.8</ele>
        <time>2013-09-01T22:02:23Z</time>
      </trkpt>
      <trkpt lat="45.82119" lon="3.09586">
        <ele>433.6</ele>
        <time>2013-09-01T22:03:53Z</time>
      </trkpt>
      <trkpt lat="45.82193" lon="3.0961">
        <ele>430.1</ele>
        <time>2013-09-01T22:04:49Z</time>
      </trkpt>
      <trkpt lat="45.82249" lon="3.09597">
        <ele>427.8</ele>
        <time>2013-09-01T22:05:31Z</time>
      </trkpt>
      <trkpt lat="45.82335" lon="3.09645">
        <ele>414.2</ele>
        <time>2013-09-01T22:06:41Z</time>
      </trkpt>
      <trkpt lat="45.82419" lon="3.09712">
        <ele>402.3</ele>
        <time>2013-09-01T22:07:53Z</time>
      </trkpt>
      <trkpt lat="45.82445" lon="3.09765">
        <ele>393.1</ele>
        <time>2013-09-01T22:08:27Z</time>
      </trkpt>
      <trkpt lat="45.8248" lon="3.09813">
        <ele>386.7</ele>
        <time>2013-09-01T22:09:03Z</time>
      </trkpt>
      <trkpt lat="45.82641" lon="3.09847">
        <ele>370.8</ele>
        <time>2013-09-01T22:11:05Z</time>
      </trkpt>
      <trkpt lat="45.8265" lon="3.09847">
        <ele>370</ele>
        <time>2013-09-01T22:11:12Z</time>
      </trkpt>
      <trkpt lat="45.82857" lon="3.09806">
        <ele>357.5</ele>
        <time>2013-09-01T22:13:47Z</time>
      </trkpt>
      <trkpt lat="45.82855" lon="3.09635">
        <ele>361.4</ele>
        <time>2013-09-01T22:15:16Z</time>
      </trkpt>
      <trkpt lat="45.82954" lon="3.09285">
        <ele>361.1</ele>
        <time>2013-09-01T22:18:32Z</time>
      </trkpt>
      <trkpt lat="45.82957" lon="3.09135">
        <ele>358.5</ele>
        <time>2013-09-01T22:19:50Z</time>
      </trkpt>
      <trkpt lat="45.82947" lon="3.09092">
        <ele>359.1</ele>
        <time>2013-09-01T22:20:13Z</time>
      </trkpt>
      <trkpt lat="45.82917" lon="3.09019">
        <ele>361.8</ele>
        <time>2013-09-01T22:20:57Z</time>
      </trkpt>
      <trkpt lat="45.82886" lon="3.08977">
        <ele>366.1</ele>
        <time>2013-09-01T22:21:29Z</time>
      </trkpt>
      <trkpt lat="45.82886" lon="3.08862">
        <ele>366.1</ele>
        <time>2013-09-01T22:22:29Z</time>
      </trkpt>
      <trkpt lat="45.82874" lon="3.08801">
        <ele>367.8</ele>
        <time>2013-09-01T22:23:02Z</time>
      </trkpt>
      <trkpt lat="45.82749" lon="3.08572">
        <ele>366</ele>
        <time>2013-09-01T22:25:33Z</time>
      </trkpt>
      <trkpt lat="45.82683" lon="3.0852">
        <ele>367.1</ele>
        <time>2013-09-01T22:26:29Z</time>
      </trkpt>
      <trkpt lat="45.8263" lon="3.08528">
        <ele>369.9</ele>
        <time>2013-09-01T22:27:08Z</time>
      </trkpt>
      <trkpt lat="45.82551" lon="3.08519">
        <ele>374.2</ele>
        <time>2013-09-01T22:28:08Z</time>
      </trkpt>
      <trkpt lat="45.82397" lon="3.08277">
        <ele>372.8</ele>
        <time>2013-09-01T22:30:57Z</time>
      </trkpt>
      <trkpt lat="45.82357" lon="3.08159">
        <ele>374</ele>
        <time>2013-09-01T22:32:06Z</time>
      </trkpt>
      <trkpt lat="45.82221" lon="3.07829">
        <ele>381.5</ele>
        <time>2013-09-01T22:35:24Z</time>
      </trkpt>
    </trkseg>
  </trk>
</gpx>